<?xml version="1.0" encoding="UTF-8" standalone="no" ?>
<gpx xmlns="http://www.topografix.com/GPX/1/1" xmlns:xsi="http://www.w3.org/2001/XMLSchema-instance" xsi:schemaLocation="http://www.topografix.com/GPX/1/1 http://www.topografix.com/GPX/1/1/gpx.xsd" version="1.1" creator="VisuGPX - https://www.visugpx.com">
  <metadata>
    <name>reprise de février</name>
    <desc><![CDATA[ouf ça décrasse :)
je traverse qq marché du samedi bon ça permet de jeter un oeil à la brocante]]></desc>
  </metadata>
  <trk>
    <name><![CDATA[16 fev 2013]]></name>
    <trkseg>
      <trkpt lat="48.9092" lon="2.38735">
        <ele>44</ele>
        <time>2013-02-16T12:04:00Z</time>
      </trkpt>
      <trkpt lat="48.90913" lon="2.38771">
        <ele>41</ele>
        <time>2013-02-16T12:04:21Z</time>
      </trkpt>
      <trkpt lat="48.90905" lon="2.38765">
        <ele>43</ele>
        <time>2013-02-16T12:04:28Z</time>
      </trkpt>
      <trkpt lat="48.90901" lon="2.38818">
        <ele>66</ele>
        <time>2013-02-16T12:06:07Z</time>
      </trkpt>
      <trkpt lat="48.90888" lon="2.38808">
        <ele>66</ele>
        <time>2013-02-16T12:06:12Z</time>
      </trkpt>
      <trkpt lat="48.90886" lon="2.38807">
        <ele>72</ele>
        <time>2013-02-16T12:06:13Z</time>
      </trkpt>
      <trkpt lat="48.90883" lon="2.38814">
        <ele>71</ele>
        <time>2013-02-16T12:06:19Z</time>
      </trkpt>
      <trkpt lat="48.90888" lon="2.3881">
        <ele>52</ele>
        <time>2013-02-16T12:06:33Z</time>
      </trkpt>
      <trkpt lat="48.90883" lon="2.38803">
        <ele>43</ele>
        <time>2013-02-16T12:06:42Z</time>
      </trkpt>
      <trkpt lat="48.90877" lon="2.38801">
        <ele>38</ele>
        <time>2013-02-16T12:06:46Z</time>
      </trkpt>
      <trkpt lat="48.90868" lon="2.388">
        <ele>35</ele>
        <time>2013-02-16T12:06:52Z</time>
      </trkpt>
      <trkpt lat="48.90834" lon="2.38797">
        <ele>34</ele>
        <time>2013-02-16T12:07:09Z</time>
      </trkpt>
      <trkpt lat="48.90817" lon="2.38791">
        <ele>33</ele>
        <time>2013-02-16T12:07:20Z</time>
      </trkpt>
      <trkpt lat="48.90816" lon="2.38788">
        <ele>35</ele>
        <time>2013-02-16T12:07:21Z</time>
      </trkpt>
      <trkpt lat="48.90812" lon="2.38786">
        <ele>41</ele>
        <time>2013-02-16T12:07:23Z</time>
      </trkpt>
      <trkpt lat="48.90805" lon="2.38787">
        <ele>40</ele>
        <time>2013-02-16T12:07:25Z</time>
      </trkpt>
      <trkpt lat="48.90802" lon="2.38788">
        <ele>39</ele>
        <time>2013-02-16T12:07:26Z</time>
      </trkpt>
      <trkpt lat="48.90794" lon="2.38786">
        <ele>30</ele>
        <time>2013-02-16T12:07:29Z</time>
      </trkpt>
      <trkpt lat="48.9078" lon="2.38786">
        <ele>26</ele>
        <time>2013-02-16T12:07:35Z</time>
      </trkpt>
      <trkpt lat="48.90774" lon="2.3879">
        <ele>28</ele>
        <time>2013-02-16T12:07:38Z</time>
      </trkpt>
      <trkpt lat="48.90767" lon="2.38793">
        <ele>30</ele>
        <time>2013-02-16T12:07:41Z</time>
      </trkpt>
      <trkpt lat="48.90761" lon="2.38793">
        <ele>25</ele>
        <time>2013-02-16T12:07:44Z</time>
      </trkpt>
      <trkpt lat="48.90756" lon="2.38793">
        <ele>48</ele>
        <time>2013-02-16T12:07:54Z</time>
      </trkpt>
      <trkpt lat="48.90753" lon="2.38799">
        <ele>56</ele>
        <time>2013-02-16T12:08:16Z</time>
      </trkpt>
      <trkpt lat="48.90754" lon="2.38809">
        <ele>55</ele>
        <time>2013-02-16T12:08:55Z</time>
      </trkpt>
      <trkpt lat="48.90752" lon="2.38819">
        <ele>63</ele>
        <time>2013-02-16T12:09:09Z</time>
      </trkpt>
      <trkpt lat="48.90747" lon="2.38827">
        <ele>58</ele>
        <time>2013-02-16T12:09:16Z</time>
      </trkpt>
      <trkpt lat="48.90733" lon="2.38851">
        <ele>64</ele>
        <time>2013-02-16T12:09:31Z</time>
      </trkpt>
      <trkpt lat="48.90733" lon="2.38865">
        <ele>58</ele>
        <time>2013-02-16T12:09:37Z</time>
      </trkpt>
      <trkpt lat="48.90729" lon="2.38876">
        <ele>90</ele>
        <time>2013-02-16T12:09:42Z</time>
      </trkpt>
      <trkpt lat="48.90721" lon="2.38882">
        <ele>76</ele>
        <time>2013-02-16T12:09:46Z</time>
      </trkpt>
      <trkpt lat="48.90723" lon="2.38894">
        <ele>51</ele>
        <time>2013-02-16T12:09:51Z</time>
      </trkpt>
      <trkpt lat="48.90726" lon="2.38902">
        <ele>50</ele>
        <time>2013-02-16T12:09:53Z</time>
      </trkpt>
      <trkpt lat="48.90725" lon="2.38917">
        <ele>36</ele>
        <time>2013-02-16T12:09:57Z</time>
      </trkpt>
      <trkpt lat="48.90719" lon="2.3892">
        <ele>40</ele>
        <time>2013-02-16T12:09:59Z</time>
      </trkpt>
      <trkpt lat="48.90711" lon="2.38922">
        <ele>34</ele>
        <time>2013-02-16T12:10:04Z</time>
      </trkpt>
      <trkpt lat="48.90705" lon="2.38921">
        <ele>40</ele>
        <time>2013-02-16T12:10:06Z</time>
      </trkpt>
      <trkpt lat="48.90698" lon="2.38921">
        <ele>43</ele>
        <time>2013-02-16T12:10:08Z</time>
      </trkpt>
      <trkpt lat="48.90682" lon="2.38923">
        <ele>52</ele>
        <time>2013-02-16T12:10:13Z</time>
      </trkpt>
      <trkpt lat="48.9067" lon="2.38927">
        <ele>44</ele>
        <time>2013-02-16T12:10:16Z</time>
      </trkpt>
      <trkpt lat="48.90654" lon="2.38934">
        <ele>35</ele>
        <time>2013-02-16T12:10:21Z</time>
      </trkpt>
      <trkpt lat="48.90649" lon="2.38938">
        <ele>28</ele>
        <time>2013-02-16T12:10:23Z</time>
      </trkpt>
      <trkpt lat="48.90639" lon="2.38943">
        <ele>41</ele>
        <time>2013-02-16T12:10:27Z</time>
      </trkpt>
      <trkpt lat="48.90633" lon="2.38944">
        <ele>39</ele>
        <time>2013-02-16T12:10:29Z</time>
      </trkpt>
      <trkpt lat="48.90626" lon="2.3895">
        <ele>42</ele>
        <time>2013-02-16T12:10:32Z</time>
      </trkpt>
      <trkpt lat="48.90621" lon="2.38955">
        <ele>38</ele>
        <time>2013-02-16T12:10:34Z</time>
      </trkpt>
      <trkpt lat="48.90615" lon="2.38959">
        <ele>30</ele>
        <time>2013-02-16T12:10:36Z</time>
      </trkpt>
      <trkpt lat="48.90607" lon="2.38968">
        <ele>26</ele>
        <time>2013-02-16T12:10:40Z</time>
      </trkpt>
      <trkpt lat="48.90604" lon="2.38953">
        <ele>24</ele>
        <time>2013-02-16T12:11:01Z</time>
      </trkpt>
      <trkpt lat="48.90598" lon="2.38955">
        <ele>27</ele>
        <time>2013-02-16T12:11:09Z</time>
      </trkpt>
      <trkpt lat="48.90592" lon="2.38958">
        <ele>36</ele>
        <time>2013-02-16T12:11:10Z</time>
      </trkpt>
      <trkpt lat="48.90588" lon="2.38964">
        <ele>49</ele>
        <time>2013-02-16T12:11:12Z</time>
      </trkpt>
      <trkpt lat="48.90584" lon="2.38974">
        <ele>51</ele>
        <time>2013-02-16T12:11:15Z</time>
      </trkpt>
      <trkpt lat="48.90578" lon="2.38986">
        <ele>57</ele>
        <time>2013-02-16T12:11:23Z</time>
      </trkpt>
      <trkpt lat="48.90573" lon="2.3899">
        <ele>53</ele>
        <time>2013-02-16T12:11:29Z</time>
      </trkpt>
      <trkpt lat="48.90562" lon="2.39004">
        <ele>35</ele>
        <time>2013-02-16T12:11:41Z</time>
      </trkpt>
      <trkpt lat="48.90559" lon="2.39012">
        <ele>47</ele>
        <time>2013-02-16T12:11:53Z</time>
      </trkpt>
      <trkpt lat="48.90548" lon="2.39022">
        <ele>44</ele>
        <time>2013-02-16T12:11:54Z</time>
      </trkpt>
      <trkpt lat="48.90537" lon="2.39037">
        <ele>46</ele>
        <time>2013-02-16T12:11:56Z</time>
      </trkpt>
      <trkpt lat="48.90533" lon="2.39044">
        <ele>46</ele>
        <time>2013-02-16T12:11:57Z</time>
      </trkpt>
      <trkpt lat="48.90528" lon="2.3905">
        <ele>52</ele>
        <time>2013-02-16T12:11:58Z</time>
      </trkpt>
      <trkpt lat="48.90521" lon="2.39059">
        <ele>52</ele>
        <time>2013-02-16T12:12:00Z</time>
      </trkpt>
      <trkpt lat="48.90515" lon="2.39065">
        <ele>53</ele>
        <time>2013-02-16T12:12:02Z</time>
      </trkpt>
      <trkpt lat="48.90509" lon="2.39068">
        <ele>44</ele>
        <time>2013-02-16T12:12:04Z</time>
      </trkpt>
      <trkpt lat="48.90505" lon="2.39072">
        <ele>35</ele>
        <time>2013-02-16T12:12:06Z</time>
      </trkpt>
      <trkpt lat="48.90498" lon="2.39075">
        <ele>36</ele>
        <time>2013-02-16T12:12:09Z</time>
      </trkpt>
      <trkpt lat="48.90493" lon="2.39079">
        <ele>29</ele>
        <time>2013-02-16T12:12:12Z</time>
      </trkpt>
      <trkpt lat="48.90487" lon="2.39086">
        <ele>23</ele>
        <time>2013-02-16T12:12:16Z</time>
      </trkpt>
      <trkpt lat="48.9048" lon="2.39098">
        <ele>43</ele>
        <time>2013-02-16T12:12:26Z</time>
      </trkpt>
      <trkpt lat="48.90475" lon="2.391">
        <ele>43</ele>
        <time>2013-02-16T12:12:28Z</time>
      </trkpt>
      <trkpt lat="48.90469" lon="2.39105">
        <ele>38</ele>
        <time>2013-02-16T12:12:30Z</time>
      </trkpt>
      <trkpt lat="48.90464" lon="2.39113">
        <ele>39</ele>
        <time>2013-02-16T12:12:32Z</time>
      </trkpt>
      <trkpt lat="48.90458" lon="2.39121">
        <ele>34</ele>
        <time>2013-02-16T12:12:35Z</time>
      </trkpt>
      <trkpt lat="48.90452" lon="2.39124">
        <ele>37</ele>
        <time>2013-02-16T12:12:38Z</time>
      </trkpt>
      <trkpt lat="48.90446" lon="2.39125">
        <ele>38</ele>
        <time>2013-02-16T12:12:42Z</time>
      </trkpt>
      <trkpt lat="48.9044" lon="2.39131">
        <ele>39</ele>
        <time>2013-02-16T12:12:46Z</time>
      </trkpt>
      <trkpt lat="48.90437" lon="2.39138">
        <ele>33</ele>
        <time>2013-02-16T12:12:49Z</time>
      </trkpt>
      <trkpt lat="48.9043" lon="2.39145">
        <ele>38</ele>
        <time>2013-02-16T12:12:52Z</time>
      </trkpt>
      <trkpt lat="48.90424" lon="2.3915">
        <ele>40</ele>
        <time>2013-02-16T12:12:54Z</time>
      </trkpt>
      <trkpt lat="48.9042" lon="2.39159">
        <ele>41</ele>
        <time>2013-02-16T12:13:00Z</time>
      </trkpt>
      <trkpt lat="48.90418" lon="2.39167">
        <ele>42</ele>
        <time>2013-02-16T12:13:03Z</time>
      </trkpt>
      <trkpt lat="48.90413" lon="2.39175">
        <ele>42</ele>
        <time>2013-02-16T12:13:06Z</time>
      </trkpt>
      <trkpt lat="48.90403" lon="2.39189">
        <ele>46</ele>
        <time>2013-02-16T12:13:19Z</time>
      </trkpt>
      <trkpt lat="48.90397" lon="2.39194">
        <ele>47</ele>
        <time>2013-02-16T12:13:23Z</time>
      </trkpt>
      <trkpt lat="48.9039" lon="2.39196">
        <ele>46</ele>
        <time>2013-02-16T12:13:26Z</time>
      </trkpt>
      <trkpt lat="48.90381" lon="2.39193">
        <ele>45</ele>
        <time>2013-02-16T12:13:28Z</time>
      </trkpt>
      <trkpt lat="48.90374" lon="2.39188">
        <ele>50</ele>
        <time>2013-02-16T12:13:30Z</time>
      </trkpt>
      <trkpt lat="48.90363" lon="2.39181">
        <ele>33</ele>
        <time>2013-02-16T12:13:44Z</time>
      </trkpt>
      <trkpt lat="48.90354" lon="2.39175">
        <ele>40</ele>
        <time>2013-02-16T12:13:53Z</time>
      </trkpt>
      <trkpt lat="48.90349" lon="2.39168">
        <ele>41</ele>
        <time>2013-02-16T12:14:01Z</time>
      </trkpt>
      <trkpt lat="48.90343" lon="2.39163">
        <ele>36</ele>
        <time>2013-02-16T12:14:06Z</time>
      </trkpt>
      <trkpt lat="48.9034" lon="2.39158">
        <ele>36</ele>
        <time>2013-02-16T12:14:09Z</time>
      </trkpt>
      <trkpt lat="48.90335" lon="2.39154">
        <ele>36</ele>
        <time>2013-02-16T12:14:14Z</time>
      </trkpt>
      <trkpt lat="48.9033" lon="2.39139">
        <ele>42</ele>
        <time>2013-02-16T12:14:24Z</time>
      </trkpt>
      <trkpt lat="48.90325" lon="2.39133">
        <ele>40</ele>
        <time>2013-02-16T12:14:26Z</time>
      </trkpt>
      <trkpt lat="48.90318" lon="2.3913">
        <ele>44</ele>
        <time>2013-02-16T12:14:29Z</time>
      </trkpt>
      <trkpt lat="48.90314" lon="2.39124">
        <ele>38</ele>
        <time>2013-02-16T12:14:32Z</time>
      </trkpt>
      <trkpt lat="48.90309" lon="2.39118">
        <ele>35</ele>
        <time>2013-02-16T12:14:35Z</time>
      </trkpt>
      <trkpt lat="48.90297" lon="2.39107">
        <ele>33</ele>
        <time>2013-02-16T12:14:41Z</time>
      </trkpt>
      <trkpt lat="48.90291" lon="2.39107">
        <ele>29</ele>
        <time>2013-02-16T12:14:44Z</time>
      </trkpt>
      <trkpt lat="48.90287" lon="2.39101">
        <ele>34</ele>
        <time>2013-02-16T12:14:47Z</time>
      </trkpt>
      <trkpt lat="48.9028" lon="2.39092">
        <ele>31</ele>
        <time>2013-02-16T12:14:52Z</time>
      </trkpt>
      <trkpt lat="48.90269" lon="2.39075">
        <ele>33</ele>
        <time>2013-02-16T12:15:02Z</time>
      </trkpt>
      <trkpt lat="48.90263" lon="2.3907">
        <ele>29</ele>
        <time>2013-02-16T12:15:06Z</time>
      </trkpt>
      <trkpt lat="48.90256" lon="2.39066">
        <ele>25</ele>
        <time>2013-02-16T12:15:08Z</time>
      </trkpt>
      <trkpt lat="48.90251" lon="2.39064">
        <ele>20</ele>
        <time>2013-02-16T12:15:10Z</time>
      </trkpt>
      <trkpt lat="48.90245" lon="2.39062">
        <ele>29</ele>
        <time>2013-02-16T12:15:13Z</time>
      </trkpt>
      <trkpt lat="48.90237" lon="2.39061">
        <ele>35</ele>
        <time>2013-02-16T12:15:17Z</time>
      </trkpt>
      <trkpt lat="48.90234" lon="2.39054">
        <ele>38</ele>
        <time>2013-02-16T12:15:23Z</time>
      </trkpt>
      <trkpt lat="48.90229" lon="2.3905">
        <ele>38</ele>
        <time>2013-02-16T12:15:26Z</time>
      </trkpt>
      <trkpt lat="48.90223" lon="2.39043">
        <ele>35</ele>
        <time>2013-02-16T12:15:28Z</time>
      </trkpt>
      <trkpt lat="48.90213" lon="2.39027">
        <ele>37</ele>
        <time>2013-02-16T12:15:32Z</time>
      </trkpt>
      <trkpt lat="48.9021" lon="2.3902">
        <ele>39</ele>
        <time>2013-02-16T12:15:35Z</time>
      </trkpt>
      <trkpt lat="48.90206" lon="2.39014">
        <ele>37</ele>
        <time>2013-02-16T12:15:38Z</time>
      </trkpt>
      <trkpt lat="48.90199" lon="2.39005">
        <ele>35</ele>
        <time>2013-02-16T12:15:44Z</time>
      </trkpt>
      <trkpt lat="48.90196" lon="2.38997">
        <ele>36</ele>
        <time>2013-02-16T12:15:47Z</time>
      </trkpt>
      <trkpt lat="48.90194" lon="2.38988">
        <ele>34</ele>
        <time>2013-02-16T12:15:50Z</time>
      </trkpt>
      <trkpt lat="48.90192" lon="2.38986">
        <ele>29</ele>
        <time>2013-02-16T12:15:52Z</time>
      </trkpt>
      <trkpt lat="48.90187" lon="2.38987">
        <ele>29</ele>
        <time>2013-02-16T12:15:57Z</time>
      </trkpt>
      <trkpt lat="48.90181" lon="2.38989">
        <ele>28</ele>
        <time>2013-02-16T12:16:02Z</time>
      </trkpt>
      <trkpt lat="48.90179" lon="2.38988">
        <ele>29</ele>
        <time>2013-02-16T12:16:06Z</time>
      </trkpt>
      <trkpt lat="48.90177" lon="2.38981">
        <ele>37</ele>
        <time>2013-02-16T12:16:16Z</time>
      </trkpt>
      <trkpt lat="48.90173" lon="2.38975">
        <ele>35</ele>
        <time>2013-02-16T12:16:18Z</time>
      </trkpt>
      <trkpt lat="48.90168" lon="2.38972">
        <ele>36</ele>
        <time>2013-02-16T12:16:22Z</time>
      </trkpt>
      <trkpt lat="48.90164" lon="2.38967">
        <ele>46</ele>
        <time>2013-02-16T12:16:27Z</time>
      </trkpt>
      <trkpt lat="48.90162" lon="2.38966">
        <ele>48</ele>
        <time>2013-02-16T12:16:29Z</time>
      </trkpt>
      <trkpt lat="48.90148" lon="2.38954">
        <ele>33</ele>
        <time>2013-02-16T12:16:37Z</time>
      </trkpt>
      <trkpt lat="48.90141" lon="2.38955">
        <ele>25</ele>
        <time>2013-02-16T12:16:41Z</time>
      </trkpt>
      <trkpt lat="48.90134" lon="2.38947">
        <ele>28</ele>
        <time>2013-02-16T12:16:58Z</time>
      </trkpt>
      <trkpt lat="48.90129" lon="2.38945">
        <ele>28</ele>
        <time>2013-02-16T12:17:13Z</time>
      </trkpt>
      <trkpt lat="48.90124" lon="2.38947">
        <ele>43</ele>
        <time>2013-02-16T12:17:18Z</time>
      </trkpt>
      <trkpt lat="48.90118" lon="2.3895">
        <ele>40</ele>
        <time>2013-02-16T12:17:21Z</time>
      </trkpt>
      <trkpt lat="48.90115" lon="2.38957">
        <ele>49</ele>
        <time>2013-02-16T12:17:26Z</time>
      </trkpt>
      <trkpt lat="48.90111" lon="2.38949">
        <ele>52</ele>
        <time>2013-02-16T12:17:47Z</time>
      </trkpt>
      <trkpt lat="48.90105" lon="2.38941">
        <ele>56</ele>
        <time>2013-02-16T12:17:49Z</time>
      </trkpt>
      <trkpt lat="48.90099" lon="2.38933">
        <ele>60</ele>
        <time>2013-02-16T12:17:53Z</time>
      </trkpt>
      <trkpt lat="48.90097" lon="2.38928">
        <ele>56</ele>
        <time>2013-02-16T12:17:57Z</time>
      </trkpt>
      <trkpt lat="48.90094" lon="2.38919">
        <ele>61</ele>
        <time>2013-02-16T12:18:03Z</time>
      </trkpt>
      <trkpt lat="48.90095" lon="2.38917">
        <ele>61</ele>
        <time>2013-02-16T12:18:04Z</time>
      </trkpt>
      <trkpt lat="48.90094" lon="2.38913">
        <ele>61</ele>
        <time>2013-02-16T12:18:07Z</time>
      </trkpt>
      <trkpt lat="48.90092" lon="2.38906">
        <ele>55</ele>
        <time>2013-02-16T12:18:10Z</time>
      </trkpt>
      <trkpt lat="48.9009" lon="2.38898">
        <ele>55</ele>
        <time>2013-02-16T12:18:13Z</time>
      </trkpt>
      <trkpt lat="48.90082" lon="2.3889">
        <ele>58</ele>
        <time>2013-02-16T12:18:18Z</time>
      </trkpt>
      <trkpt lat="48.90077" lon="2.38886">
        <ele>54</ele>
        <time>2013-02-16T12:18:21Z</time>
      </trkpt>
      <trkpt lat="48.90072" lon="2.38884">
        <ele>49</ele>
        <time>2013-02-16T12:18:24Z</time>
      </trkpt>
      <trkpt lat="48.90054" lon="2.3888">
        <ele>42</ele>
        <time>2013-02-16T12:18:31Z</time>
      </trkpt>
      <trkpt lat="48.90045" lon="2.38883">
        <ele>41</ele>
        <time>2013-02-16T12:18:33Z</time>
      </trkpt>
      <trkpt lat="48.90039" lon="2.38884">
        <ele>41</ele>
        <time>2013-02-16T12:18:34Z</time>
      </trkpt>
      <trkpt lat="48.90033" lon="2.38887">
        <ele>40</ele>
        <time>2013-02-16T12:18:36Z</time>
      </trkpt>
      <trkpt lat="48.90029" lon="2.38885">
        <ele>33</ele>
        <time>2013-02-16T12:18:38Z</time>
      </trkpt>
      <trkpt lat="48.90026" lon="2.38886">
        <ele>38</ele>
        <time>2013-02-16T12:18:39Z</time>
      </trkpt>
      <trkpt lat="48.90021" lon="2.38882">
        <ele>45</ele>
        <time>2013-02-16T12:19:04Z</time>
      </trkpt>
      <trkpt lat="48.9002" lon="2.38874">
        <ele>46</ele>
        <time>2013-02-16T12:19:07Z</time>
      </trkpt>
      <trkpt lat="48.90019" lon="2.38865">
        <ele>48</ele>
        <time>2013-02-16T12:19:09Z</time>
      </trkpt>
      <trkpt lat="48.90017" lon="2.38848">
        <ele>48</ele>
        <time>2013-02-16T12:19:13Z</time>
      </trkpt>
      <trkpt lat="48.90014" lon="2.3884">
        <ele>45</ele>
        <time>2013-02-16T12:19:15Z</time>
      </trkpt>
      <trkpt lat="48.90009" lon="2.38834">
        <ele>41</ele>
        <time>2013-02-16T12:19:17Z</time>
      </trkpt>
      <trkpt lat="48.89999" lon="2.38824">
        <ele>40</ele>
        <time>2013-02-16T12:19:21Z</time>
      </trkpt>
      <trkpt lat="48.8999" lon="2.38823">
        <ele>31</ele>
        <time>2013-02-16T12:19:23Z</time>
      </trkpt>
      <trkpt lat="48.89987" lon="2.38821">
        <ele>32</ele>
        <time>2013-02-16T12:19:24Z</time>
      </trkpt>
      <trkpt lat="48.89984" lon="2.38817">
        <ele>34</ele>
        <time>2013-02-16T12:19:26Z</time>
      </trkpt>
      <trkpt lat="48.89963" lon="2.38791">
        <ele>36</ele>
        <time>2013-02-16T12:19:39Z</time>
      </trkpt>
      <trkpt lat="48.89951" lon="2.38774">
        <ele>31</ele>
        <time>2013-02-16T12:19:44Z</time>
      </trkpt>
      <trkpt lat="48.89947" lon="2.38767">
        <ele>27</ele>
        <time>2013-02-16T12:19:47Z</time>
      </trkpt>
      <trkpt lat="48.89943" lon="2.38762">
        <ele>29</ele>
        <time>2013-02-16T12:19:49Z</time>
      </trkpt>
      <trkpt lat="48.89938" lon="2.38756">
        <ele>28</ele>
        <time>2013-02-16T12:19:52Z</time>
      </trkpt>
      <trkpt lat="48.89923" lon="2.3874">
        <ele>24</ele>
        <time>2013-02-16T12:20:00Z</time>
      </trkpt>
      <trkpt lat="48.89918" lon="2.38731">
        <ele>30</ele>
        <time>2013-02-16T12:20:03Z</time>
      </trkpt>
      <trkpt lat="48.89916" lon="2.38728">
        <ele>29</ele>
        <time>2013-02-16T12:20:04Z</time>
      </trkpt>
      <trkpt lat="48.89912" lon="2.38724">
        <ele>27</ele>
        <time>2013-02-16T12:20:06Z</time>
      </trkpt>
      <trkpt lat="48.8991" lon="2.38718">
        <ele>30</ele>
        <time>2013-02-16T12:20:11Z</time>
      </trkpt>
      <trkpt lat="48.89906" lon="2.38712">
        <ele>35</ele>
        <time>2013-02-16T12:20:15Z</time>
      </trkpt>
      <trkpt lat="48.89902" lon="2.38707">
        <ele>36</ele>
        <time>2013-02-16T12:20:17Z</time>
      </trkpt>
      <trkpt lat="48.89897" lon="2.387">
        <ele>35</ele>
        <time>2013-02-16T12:20:20Z</time>
      </trkpt>
      <trkpt lat="48.89888" lon="2.3869">
        <ele>35</ele>
        <time>2013-02-16T12:20:24Z</time>
      </trkpt>
      <trkpt lat="48.89884" lon="2.38685">
        <ele>33</ele>
        <time>2013-02-16T12:20:27Z</time>
      </trkpt>
      <trkpt lat="48.89879" lon="2.38678">
        <ele>30</ele>
        <time>2013-02-16T12:20:30Z</time>
      </trkpt>
      <trkpt lat="48.89877" lon="2.38676">
        <ele>31</ele>
        <time>2013-02-16T12:20:31Z</time>
      </trkpt>
      <trkpt lat="48.8987" lon="2.38671">
        <ele>25</ele>
        <time>2013-02-16T12:20:34Z</time>
      </trkpt>
      <trkpt lat="48.89861" lon="2.38664">
        <ele>26</ele>
        <time>2013-02-16T12:20:38Z</time>
      </trkpt>
      <trkpt lat="48.89852" lon="2.38659">
        <ele>37</ele>
        <time>2013-02-16T12:20:41Z</time>
      </trkpt>
      <trkpt lat="48.89848" lon="2.38654">
        <ele>25</ele>
        <time>2013-02-16T12:20:46Z</time>
      </trkpt>
      <trkpt lat="48.89844" lon="2.38649">
        <ele>40</ele>
        <time>2013-02-16T12:20:49Z</time>
      </trkpt>
      <trkpt lat="48.89837" lon="2.3864">
        <ele>43</ele>
        <time>2013-02-16T12:20:52Z</time>
      </trkpt>
      <trkpt lat="48.89832" lon="2.38636">
        <ele>40</ele>
        <time>2013-02-16T12:20:53Z</time>
      </trkpt>
      <trkpt lat="48.89816" lon="2.38622">
        <ele>40</ele>
        <time>2013-02-16T12:20:58Z</time>
      </trkpt>
      <trkpt lat="48.89811" lon="2.38615">
        <ele>39</ele>
        <time>2013-02-16T12:21:00Z</time>
      </trkpt>
      <trkpt lat="48.89801" lon="2.38607">
        <ele>33</ele>
        <time>2013-02-16T12:21:04Z</time>
      </trkpt>
      <trkpt lat="48.89784" lon="2.38591">
        <ele>26</ele>
        <time>2013-02-16T12:21:11Z</time>
      </trkpt>
      <trkpt lat="48.89778" lon="2.38588">
        <ele>29</ele>
        <time>2013-02-16T12:21:14Z</time>
      </trkpt>
      <trkpt lat="48.89772" lon="2.38585">
        <ele>43</ele>
        <time>2013-02-16T12:21:17Z</time>
      </trkpt>
      <trkpt lat="48.89767" lon="2.38579">
        <ele>50</ele>
        <time>2013-02-16T12:21:23Z</time>
      </trkpt>
      <trkpt lat="48.89763" lon="2.3857">
        <ele>45</ele>
        <time>2013-02-16T12:21:25Z</time>
      </trkpt>
      <trkpt lat="48.89755" lon="2.38559">
        <ele>49</ele>
        <time>2013-02-16T12:21:30Z</time>
      </trkpt>
      <trkpt lat="48.8975" lon="2.38557">
        <ele>52</ele>
        <time>2013-02-16T12:21:32Z</time>
      </trkpt>
      <trkpt lat="48.89747" lon="2.38554">
        <ele>52</ele>
        <time>2013-02-16T12:21:34Z</time>
      </trkpt>
      <trkpt lat="48.89742" lon="2.38551">
        <ele>56</ele>
        <time>2013-02-16T12:21:37Z</time>
      </trkpt>
      <trkpt lat="48.89728" lon="2.38541">
        <ele>50</ele>
        <time>2013-02-16T12:21:45Z</time>
      </trkpt>
      <trkpt lat="48.89721" lon="2.38535">
        <ele>49</ele>
        <time>2013-02-16T12:21:47Z</time>
      </trkpt>
      <trkpt lat="48.89708" lon="2.38523">
        <ele>38</ele>
        <time>2013-02-16T12:21:51Z</time>
      </trkpt>
      <trkpt lat="48.89702" lon="2.38515">
        <ele>43</ele>
        <time>2013-02-16T12:21:53Z</time>
      </trkpt>
      <trkpt lat="48.89697" lon="2.3851">
        <ele>45</ele>
        <time>2013-02-16T12:21:55Z</time>
      </trkpt>
      <trkpt lat="48.89679" lon="2.38496">
        <ele>42</ele>
        <time>2013-02-16T12:22:00Z</time>
      </trkpt>
      <trkpt lat="48.8967" lon="2.38489">
        <ele>42</ele>
        <time>2013-02-16T12:22:02Z</time>
      </trkpt>
      <trkpt lat="48.89662" lon="2.38482">
        <ele>38</ele>
        <time>2013-02-16T12:22:04Z</time>
      </trkpt>
      <trkpt lat="48.89657" lon="2.38473">
        <ele>39</ele>
        <time>2013-02-16T12:22:06Z</time>
      </trkpt>
      <trkpt lat="48.89644" lon="2.38457">
        <ele>36</ele>
        <time>2013-02-16T12:22:10Z</time>
      </trkpt>
      <trkpt lat="48.8964" lon="2.38449">
        <ele>39</ele>
        <time>2013-02-16T12:22:12Z</time>
      </trkpt>
      <trkpt lat="48.89636" lon="2.38444">
        <ele>38</ele>
        <time>2013-02-16T12:22:13Z</time>
      </trkpt>
      <trkpt lat="48.89625" lon="2.38431">
        <ele>34</ele>
        <time>2013-02-16T12:22:16Z</time>
      </trkpt>
      <trkpt lat="48.89614" lon="2.3842">
        <ele>33</ele>
        <time>2013-02-16T12:22:20Z</time>
      </trkpt>
      <trkpt lat="48.89609" lon="2.38416">
        <ele>36</ele>
        <time>2013-02-16T12:22:23Z</time>
      </trkpt>
      <trkpt lat="48.89606" lon="2.38411">
        <ele>38</ele>
        <time>2013-02-16T12:22:25Z</time>
      </trkpt>
      <trkpt lat="48.89604" lon="2.38401">
        <ele>37</ele>
        <time>2013-02-16T12:22:28Z</time>
      </trkpt>
      <trkpt lat="48.89599" lon="2.38392">
        <ele>45</ele>
        <time>2013-02-16T12:22:31Z</time>
      </trkpt>
      <trkpt lat="48.89588" lon="2.38377">
        <ele>40</ele>
        <time>2013-02-16T12:22:38Z</time>
      </trkpt>
      <trkpt lat="48.89584" lon="2.38371">
        <ele>41</ele>
        <time>2013-02-16T12:22:40Z</time>
      </trkpt>
      <trkpt lat="48.8958" lon="2.38364">
        <ele>57</ele>
        <time>2013-02-16T12:22:44Z</time>
      </trkpt>
      <trkpt lat="48.89575" lon="2.38354">
        <ele>42</ele>
        <time>2013-02-16T12:22:51Z</time>
      </trkpt>
      <trkpt lat="48.89579" lon="2.38357">
        <ele>40</ele>
        <time>2013-02-16T12:23:02Z</time>
      </trkpt>
      <trkpt lat="48.89581" lon="2.38365">
        <ele>37</ele>
        <time>2013-02-16T12:23:04Z</time>
      </trkpt>
      <trkpt lat="48.89574" lon="2.38372">
        <ele>40</ele>
        <time>2013-02-16T12:23:07Z</time>
      </trkpt>
      <trkpt lat="48.89569" lon="2.38374">
        <ele>46</ele>
        <time>2013-02-16T12:23:08Z</time>
      </trkpt>
      <trkpt lat="48.89556" lon="2.3838">
        <ele>44</ele>
        <time>2013-02-16T12:23:11Z</time>
      </trkpt>
      <trkpt lat="48.89543" lon="2.38384">
        <ele>37</ele>
        <time>2013-02-16T12:23:14Z</time>
      </trkpt>
      <trkpt lat="48.89523" lon="2.38392">
        <ele>38</ele>
        <time>2013-02-16T12:23:19Z</time>
      </trkpt>
      <trkpt lat="48.89516" lon="2.38396">
        <ele>41</ele>
        <time>2013-02-16T12:23:21Z</time>
      </trkpt>
      <trkpt lat="48.89492" lon="2.38409">
        <ele>32</ele>
        <time>2013-02-16T12:23:28Z</time>
      </trkpt>
      <trkpt lat="48.89489" lon="2.3841">
        <ele>32</ele>
        <time>2013-02-16T12:23:29Z</time>
      </trkpt>
      <trkpt lat="48.89477" lon="2.38416">
        <ele>33</ele>
        <time>2013-02-16T12:23:32Z</time>
      </trkpt>
      <trkpt lat="48.89474" lon="2.38418">
        <ele>34</ele>
        <time>2013-02-16T12:23:33Z</time>
      </trkpt>
      <trkpt lat="48.89468" lon="2.38422">
        <ele>36</ele>
        <time>2013-02-16T12:23:35Z</time>
      </trkpt>
      <trkpt lat="48.89457" lon="2.38428">
        <ele>39</ele>
        <time>2013-02-16T12:23:38Z</time>
      </trkpt>
      <trkpt lat="48.89422" lon="2.38446">
        <ele>40</ele>
        <time>2013-02-16T12:23:47Z</time>
      </trkpt>
      <trkpt lat="48.89415" lon="2.38448">
        <ele>39</ele>
        <time>2013-02-16T12:23:49Z</time>
      </trkpt>
      <trkpt lat="48.89408" lon="2.38451">
        <ele>47</ele>
        <time>2013-02-16T12:23:51Z</time>
      </trkpt>
      <trkpt lat="48.89392" lon="2.38462">
        <ele>34</ele>
        <time>2013-02-16T12:23:56Z</time>
      </trkpt>
      <trkpt lat="48.89385" lon="2.38468">
        <ele>44</ele>
        <time>2013-02-16T12:23:58Z</time>
      </trkpt>
      <trkpt lat="48.8938" lon="2.38475">
        <ele>46</ele>
        <time>2013-02-16T12:24:00Z</time>
      </trkpt>
      <trkpt lat="48.8937" lon="2.38486">
        <ele>49</ele>
        <time>2013-02-16T12:24:04Z</time>
      </trkpt>
      <trkpt lat="48.89362" lon="2.38488">
        <ele>46</ele>
        <time>2013-02-16T12:24:06Z</time>
      </trkpt>
      <trkpt lat="48.89348" lon="2.38495">
        <ele>49</ele>
        <time>2013-02-16T12:24:10Z</time>
      </trkpt>
      <trkpt lat="48.89341" lon="2.38497">
        <ele>49</ele>
        <time>2013-02-16T12:24:12Z</time>
      </trkpt>
      <trkpt lat="48.89322" lon="2.38505">
        <ele>47</ele>
        <time>2013-02-16T12:24:18Z</time>
      </trkpt>
      <trkpt lat="48.89316" lon="2.3851">
        <ele>48</ele>
        <time>2013-02-16T12:24:20Z</time>
      </trkpt>
      <trkpt lat="48.89267" lon="2.38547">
        <ele>41</ele>
        <time>2013-02-16T12:24:34Z</time>
      </trkpt>
      <trkpt lat="48.89261" lon="2.38552">
        <ele>39</ele>
        <time>2013-02-16T12:24:36Z</time>
      </trkpt>
      <trkpt lat="48.89255" lon="2.38553">
        <ele>36</ele>
        <time>2013-02-16T12:24:38Z</time>
      </trkpt>
      <trkpt lat="48.89249" lon="2.3855">
        <ele>41</ele>
        <time>2013-02-16T12:24:40Z</time>
      </trkpt>
      <trkpt lat="48.89245" lon="2.38544">
        <ele>47</ele>
        <time>2013-02-16T12:24:43Z</time>
      </trkpt>
      <trkpt lat="48.8924" lon="2.3854">
        <ele>47</ele>
        <time>2013-02-16T12:24:45Z</time>
      </trkpt>
      <trkpt lat="48.89232" lon="2.38533">
        <ele>58</ele>
        <time>2013-02-16T12:24:49Z</time>
      </trkpt>
      <trkpt lat="48.8923" lon="2.38531">
        <ele>58</ele>
        <time>2013-02-16T12:24:50Z</time>
      </trkpt>
      <trkpt lat="48.89216" lon="2.38523">
        <ele>51</ele>
        <time>2013-02-16T12:24:56Z</time>
      </trkpt>
      <trkpt lat="48.89207" lon="2.38522">
        <ele>44</ele>
        <time>2013-02-16T12:24:58Z</time>
      </trkpt>
      <trkpt lat="48.89189" lon="2.38521">
        <ele>42</ele>
        <time>2013-02-16T12:25:01Z</time>
      </trkpt>
      <trkpt lat="48.89184" lon="2.38522">
        <ele>48</ele>
        <time>2013-02-16T12:25:02Z</time>
      </trkpt>
      <trkpt lat="48.89179" lon="2.38523">
        <ele>47</ele>
        <time>2013-02-16T12:25:03Z</time>
      </trkpt>
      <trkpt lat="48.89173" lon="2.38524">
        <ele>44</ele>
        <time>2013-02-16T12:25:04Z</time>
      </trkpt>
      <trkpt lat="48.89165" lon="2.38524">
        <ele>36</ele>
        <time>2013-02-16T12:25:06Z</time>
      </trkpt>
      <trkpt lat="48.8916" lon="2.38522">
        <ele>42</ele>
        <time>2013-02-16T12:25:08Z</time>
      </trkpt>
      <trkpt lat="48.89157" lon="2.38521">
        <ele>42</ele>
        <time>2013-02-16T12:25:09Z</time>
      </trkpt>
      <trkpt lat="48.89155" lon="2.38519">
        <ele>46</ele>
        <time>2013-02-16T12:25:10Z</time>
      </trkpt>
      <trkpt lat="48.89154" lon="2.3851">
        <ele>50</ele>
        <time>2013-02-16T12:25:13Z</time>
      </trkpt>
      <trkpt lat="48.8915" lon="2.38499">
        <ele>45</ele>
        <time>2013-02-16T12:25:16Z</time>
      </trkpt>
      <trkpt lat="48.89143" lon="2.38483">
        <ele>43</ele>
        <time>2013-02-16T12:25:20Z</time>
      </trkpt>
      <trkpt lat="48.8914" lon="2.38475">
        <ele>44</ele>
        <time>2013-02-16T12:25:22Z</time>
      </trkpt>
      <trkpt lat="48.8914" lon="2.38466">
        <ele>44</ele>
        <time>2013-02-16T12:25:24Z</time>
      </trkpt>
      <trkpt lat="48.89136" lon="2.38459">
        <ele>43</ele>
        <time>2013-02-16T12:25:26Z</time>
      </trkpt>
      <trkpt lat="48.89133" lon="2.3845">
        <ele>50</ele>
        <time>2013-02-16T12:25:28Z</time>
      </trkpt>
      <trkpt lat="48.89121" lon="2.38421">
        <ele>41</ele>
        <time>2013-02-16T12:25:33Z</time>
      </trkpt>
      <trkpt lat="48.89115" lon="2.3841">
        <ele>44</ele>
        <time>2013-02-16T12:25:35Z</time>
      </trkpt>
      <trkpt lat="48.89109" lon="2.38403">
        <ele>35</ele>
        <time>2013-02-16T12:25:37Z</time>
      </trkpt>
      <trkpt lat="48.89088" lon="2.38371">
        <ele>46</ele>
        <time>2013-02-16T12:25:45Z</time>
      </trkpt>
      <trkpt lat="48.89083" lon="2.3836">
        <ele>46</ele>
        <time>2013-02-16T12:25:47Z</time>
      </trkpt>
      <trkpt lat="48.89071" lon="2.38331">
        <ele>51</ele>
        <time>2013-02-16T12:25:52Z</time>
      </trkpt>
      <trkpt lat="48.89059" lon="2.38309">
        <ele>52</ele>
        <time>2013-02-16T12:25:57Z</time>
      </trkpt>
      <trkpt lat="48.89052" lon="2.383">
        <ele>51</ele>
        <time>2013-02-16T12:25:59Z</time>
      </trkpt>
      <trkpt lat="48.89037" lon="2.38276">
        <ele>56</ele>
        <time>2013-02-16T12:26:04Z</time>
      </trkpt>
      <trkpt lat="48.89022" lon="2.3825">
        <ele>51</ele>
        <time>2013-02-16T12:26:10Z</time>
      </trkpt>
      <trkpt lat="48.89018" lon="2.38241">
        <ele>49</ele>
        <time>2013-02-16T12:26:12Z</time>
      </trkpt>
      <trkpt lat="48.88981" lon="2.38167">
        <ele>45</ele>
        <time>2013-02-16T12:26:27Z</time>
      </trkpt>
      <trkpt lat="48.88974" lon="2.38154">
        <ele>50</ele>
        <time>2013-02-16T12:26:30Z</time>
      </trkpt>
      <trkpt lat="48.88966" lon="2.38138">
        <ele>53</ele>
        <time>2013-02-16T12:26:34Z</time>
      </trkpt>
      <trkpt lat="48.88949" lon="2.381">
        <ele>53</ele>
        <time>2013-02-16T12:26:42Z</time>
      </trkpt>
      <trkpt lat="48.88942" lon="2.38086">
        <ele>52</ele>
        <time>2013-02-16T12:26:45Z</time>
      </trkpt>
      <trkpt lat="48.88885" lon="2.37973">
        <ele>61</ele>
        <time>2013-02-16T12:27:08Z</time>
      </trkpt>
      <trkpt lat="48.88881" lon="2.37965">
        <ele>50</ele>
        <time>2013-02-16T12:27:10Z</time>
      </trkpt>
      <trkpt lat="48.88876" lon="2.37956">
        <ele>47</ele>
        <time>2013-02-16T12:27:13Z</time>
      </trkpt>
      <trkpt lat="48.88871" lon="2.37949">
        <ele>45</ele>
        <time>2013-02-16T12:27:16Z</time>
      </trkpt>
      <trkpt lat="48.88868" lon="2.37942">
        <ele>47</ele>
        <time>2013-02-16T12:27:19Z</time>
      </trkpt>
      <trkpt lat="48.88869" lon="2.3793">
        <ele>43</ele>
        <time>2013-02-16T12:27:22Z</time>
      </trkpt>
      <trkpt lat="48.88871" lon="2.37918">
        <ele>39</ele>
        <time>2013-02-16T12:27:25Z</time>
      </trkpt>
      <trkpt lat="48.88876" lon="2.37912">
        <ele>45</ele>
        <time>2013-02-16T12:27:28Z</time>
      </trkpt>
      <trkpt lat="48.88879" lon="2.37907">
        <ele>45</ele>
        <time>2013-02-16T12:27:30Z</time>
      </trkpt>
      <trkpt lat="48.88881" lon="2.37901">
        <ele>43</ele>
        <time>2013-02-16T12:27:32Z</time>
      </trkpt>
      <trkpt lat="48.88877" lon="2.37892">
        <ele>42</ele>
        <time>2013-02-16T12:27:35Z</time>
      </trkpt>
      <trkpt lat="48.88873" lon="2.37878">
        <ele>41</ele>
        <time>2013-02-16T12:27:39Z</time>
      </trkpt>
      <trkpt lat="48.88871" lon="2.37868">
        <ele>40</ele>
        <time>2013-02-16T12:27:41Z</time>
      </trkpt>
      <trkpt lat="48.88867" lon="2.37858">
        <ele>40</ele>
        <time>2013-02-16T12:27:43Z</time>
      </trkpt>
      <trkpt lat="48.8886" lon="2.37847">
        <ele>41</ele>
        <time>2013-02-16T12:27:45Z</time>
      </trkpt>
      <trkpt lat="48.88852" lon="2.37838">
        <ele>43</ele>
        <time>2013-02-16T12:27:47Z</time>
      </trkpt>
      <trkpt lat="48.88841" lon="2.37821">
        <ele>35</ele>
        <time>2013-02-16T12:27:51Z</time>
      </trkpt>
      <trkpt lat="48.88836" lon="2.37808">
        <ele>28</ele>
        <time>2013-02-16T12:27:53Z</time>
      </trkpt>
      <trkpt lat="48.88826" lon="2.37781">
        <ele>36</ele>
        <time>2013-02-16T12:27:58Z</time>
      </trkpt>
      <trkpt lat="48.88816" lon="2.37759">
        <ele>38</ele>
        <time>2013-02-16T12:28:02Z</time>
      </trkpt>
      <trkpt lat="48.88805" lon="2.3773">
        <ele>42</ele>
        <time>2013-02-16T12:28:08Z</time>
      </trkpt>
      <trkpt lat="48.888" lon="2.37721">
        <ele>47</ele>
        <time>2013-02-16T12:28:10Z</time>
      </trkpt>
      <trkpt lat="48.88797" lon="2.37711">
        <ele>51</ele>
        <time>2013-02-16T12:28:12Z</time>
      </trkpt>
      <trkpt lat="48.88792" lon="2.37701">
        <ele>51</ele>
        <time>2013-02-16T12:28:14Z</time>
      </trkpt>
      <trkpt lat="48.88787" lon="2.37688">
        <ele>52</ele>
        <time>2013-02-16T12:28:16Z</time>
      </trkpt>
      <trkpt lat="48.88775" lon="2.37661">
        <ele>48</ele>
        <time>2013-02-16T12:28:21Z</time>
      </trkpt>
      <trkpt lat="48.88771" lon="2.37653">
        <ele>48</ele>
        <time>2013-02-16T12:28:23Z</time>
      </trkpt>
      <trkpt lat="48.88758" lon="2.37631">
        <ele>51</ele>
        <time>2013-02-16T12:28:27Z</time>
      </trkpt>
      <trkpt lat="48.8875" lon="2.37613">
        <ele>48</ele>
        <time>2013-02-16T12:28:30Z</time>
      </trkpt>
      <trkpt lat="48.88747" lon="2.37605">
        <ele>47</ele>
        <time>2013-02-16T12:28:31Z</time>
      </trkpt>
      <trkpt lat="48.88745" lon="2.37597">
        <ele>46</ele>
        <time>2013-02-16T12:28:32Z</time>
      </trkpt>
      <trkpt lat="48.8874" lon="2.37582">
        <ele>46</ele>
        <time>2013-02-16T12:28:34Z</time>
      </trkpt>
      <trkpt lat="48.88737" lon="2.37574">
        <ele>47</ele>
        <time>2013-02-16T12:28:35Z</time>
      </trkpt>
      <trkpt lat="48.88723" lon="2.37544">
        <ele>56</ele>
        <time>2013-02-16T12:28:39Z</time>
      </trkpt>
      <trkpt lat="48.88714" lon="2.37525">
        <ele>59</ele>
        <time>2013-02-16T12:28:42Z</time>
      </trkpt>
      <trkpt lat="48.88679" lon="2.37457">
        <ele>57</ele>
        <time>2013-02-16T12:28:55Z</time>
      </trkpt>
      <trkpt lat="48.88675" lon="2.37448">
        <ele>58</ele>
        <time>2013-02-16T12:28:57Z</time>
      </trkpt>
      <trkpt lat="48.8867" lon="2.37438">
        <ele>58</ele>
        <time>2013-02-16T12:28:59Z</time>
      </trkpt>
      <trkpt lat="48.88647" lon="2.37393">
        <ele>60</ele>
        <time>2013-02-16T12:29:08Z</time>
      </trkpt>
      <trkpt lat="48.88642" lon="2.37382">
        <ele>62</ele>
        <time>2013-02-16T12:29:10Z</time>
      </trkpt>
      <trkpt lat="48.88631" lon="2.37356">
        <ele>58</ele>
        <time>2013-02-16T12:29:15Z</time>
      </trkpt>
      <trkpt lat="48.88625" lon="2.37346">
        <ele>58</ele>
        <time>2013-02-16T12:29:17Z</time>
      </trkpt>
      <trkpt lat="48.88616" lon="2.37338">
        <ele>57</ele>
        <time>2013-02-16T12:29:19Z</time>
      </trkpt>
      <trkpt lat="48.88609" lon="2.3733">
        <ele>55</ele>
        <time>2013-02-16T12:29:21Z</time>
      </trkpt>
      <trkpt lat="48.88605" lon="2.37322">
        <ele>53</ele>
        <time>2013-02-16T12:29:23Z</time>
      </trkpt>
      <trkpt lat="48.886" lon="2.37309">
        <ele>48</ele>
        <time>2013-02-16T12:29:26Z</time>
      </trkpt>
      <trkpt lat="48.88596" lon="2.37298">
        <ele>44</ele>
        <time>2013-02-16T12:29:28Z</time>
      </trkpt>
      <trkpt lat="48.88593" lon="2.37285">
        <ele>41</ele>
        <time>2013-02-16T12:29:30Z</time>
      </trkpt>
      <trkpt lat="48.88591" lon="2.37276">
        <ele>42</ele>
        <time>2013-02-16T12:29:31Z</time>
      </trkpt>
      <trkpt lat="48.88583" lon="2.37255">
        <ele>41</ele>
        <time>2013-02-16T12:29:34Z</time>
      </trkpt>
      <trkpt lat="48.88574" lon="2.37236">
        <ele>38</ele>
        <time>2013-02-16T12:29:37Z</time>
      </trkpt>
      <trkpt lat="48.8855" lon="2.37184">
        <ele>39</ele>
        <time>2013-02-16T12:29:46Z</time>
      </trkpt>
      <trkpt lat="48.88546" lon="2.37179">
        <ele>55</ele>
        <time>2013-02-16T12:29:47Z</time>
      </trkpt>
      <trkpt lat="48.88537" lon="2.37162">
        <ele>55</ele>
        <time>2013-02-16T12:29:50Z</time>
      </trkpt>
      <trkpt lat="48.88522" lon="2.3714">
        <ele>63</ele>
        <time>2013-02-16T12:29:55Z</time>
      </trkpt>
      <trkpt lat="48.88494" lon="2.37092">
        <ele>69</ele>
        <time>2013-02-16T12:30:04Z</time>
      </trkpt>
      <trkpt lat="48.88491" lon="2.37086">
        <ele>68</ele>
        <time>2013-02-16T12:30:05Z</time>
      </trkpt>
      <trkpt lat="48.8848" lon="2.37062">
        <ele>53</ele>
        <time>2013-02-16T12:30:11Z</time>
      </trkpt>
      <trkpt lat="48.88476" lon="2.37052">
        <ele>55</ele>
        <time>2013-02-16T12:30:13Z</time>
      </trkpt>
      <trkpt lat="48.88471" lon="2.37043">
        <ele>52</ele>
        <time>2013-02-16T12:30:15Z</time>
      </trkpt>
      <trkpt lat="48.88467" lon="2.37033">
        <ele>52</ele>
        <time>2013-02-16T12:30:17Z</time>
      </trkpt>
      <trkpt lat="48.88462" lon="2.37023">
        <ele>53</ele>
        <time>2013-02-16T12:30:19Z</time>
      </trkpt>
      <trkpt lat="48.88448" lon="2.36996">
        <ele>50</ele>
        <time>2013-02-16T12:30:25Z</time>
      </trkpt>
      <trkpt lat="48.88446" lon="2.36986">
        <ele>52</ele>
        <time>2013-02-16T12:30:27Z</time>
      </trkpt>
      <trkpt lat="48.88441" lon="2.36957">
        <ele>50</ele>
        <time>2013-02-16T12:30:35Z</time>
      </trkpt>
      <trkpt lat="48.88438" lon="2.36949">
        <ele>52</ele>
        <time>2013-02-16T12:30:37Z</time>
      </trkpt>
      <trkpt lat="48.88437" lon="2.36946">
        <ele>52</ele>
        <time>2013-02-16T12:30:38Z</time>
      </trkpt>
      <trkpt lat="48.88434" lon="2.3694">
        <ele>46</ele>
        <time>2013-02-16T12:30:48Z</time>
      </trkpt>
      <trkpt lat="48.88432" lon="2.36944">
        <ele>48</ele>
        <time>2013-02-16T12:31:12Z</time>
      </trkpt>
      <trkpt lat="48.88425" lon="2.36928">
        <ele>59</ele>
        <time>2013-02-16T12:33:24Z</time>
      </trkpt>
      <trkpt lat="48.8842" lon="2.36925">
        <ele>57</ele>
        <time>2013-02-16T12:33:25Z</time>
      </trkpt>
      <trkpt lat="48.88417" lon="2.3692">
        <ele>52</ele>
        <time>2013-02-16T12:33:29Z</time>
      </trkpt>
      <trkpt lat="48.88414" lon="2.36912">
        <ele>49</ele>
        <time>2013-02-16T12:33:33Z</time>
      </trkpt>
      <trkpt lat="48.88412" lon="2.36909">
        <ele>46</ele>
        <time>2013-02-16T12:33:35Z</time>
      </trkpt>
      <trkpt lat="48.88406" lon="2.36903">
        <ele>48</ele>
        <time>2013-02-16T12:33:38Z</time>
      </trkpt>
      <trkpt lat="48.88401" lon="2.36907">
        <ele>46</ele>
        <time>2013-02-16T12:33:41Z</time>
      </trkpt>
      <trkpt lat="48.88395" lon="2.36912">
        <ele>46</ele>
        <time>2013-02-16T12:33:43Z</time>
      </trkpt>
      <trkpt lat="48.88393" lon="2.36914">
        <ele>46</ele>
        <time>2013-02-16T12:33:44Z</time>
      </trkpt>
      <trkpt lat="48.88388" lon="2.36919">
        <ele>44</ele>
        <time>2013-02-16T12:33:46Z</time>
      </trkpt>
      <trkpt lat="48.8838" lon="2.36929">
        <ele>46</ele>
        <time>2013-02-16T12:33:49Z</time>
      </trkpt>
      <trkpt lat="48.88376" lon="2.36941">
        <ele>46</ele>
        <time>2013-02-16T12:33:51Z</time>
      </trkpt>
      <trkpt lat="48.88372" lon="2.36955">
        <ele>45</ele>
        <time>2013-02-16T12:33:53Z</time>
      </trkpt>
      <trkpt lat="48.88369" lon="2.36965">
        <ele>45</ele>
        <time>2013-02-16T12:33:55Z</time>
      </trkpt>
      <trkpt lat="48.88365" lon="2.36977">
        <ele>50</ele>
        <time>2013-02-16T12:33:57Z</time>
      </trkpt>
      <trkpt lat="48.88359" lon="2.36989">
        <ele>50</ele>
        <time>2013-02-16T12:34:00Z</time>
      </trkpt>
      <trkpt lat="48.88354" lon="2.36996">
        <ele>53</ele>
        <time>2013-02-16T12:34:02Z</time>
      </trkpt>
      <trkpt lat="48.88348" lon="2.36999">
        <ele>47</ele>
        <time>2013-02-16T12:34:04Z</time>
      </trkpt>
      <trkpt lat="48.88345" lon="2.37">
        <ele>48</ele>
        <time>2013-02-16T12:34:05Z</time>
      </trkpt>
      <trkpt lat="48.88323" lon="2.37007">
        <ele>49</ele>
        <time>2013-02-16T12:34:11Z</time>
      </trkpt>
      <trkpt lat="48.8832" lon="2.37008">
        <ele>51</ele>
        <time>2013-02-16T12:34:12Z</time>
      </trkpt>
      <trkpt lat="48.88305" lon="2.37018">
        <ele>49</ele>
        <time>2013-02-16T12:34:18Z</time>
      </trkpt>
      <trkpt lat="48.88304" lon="2.3702">
        <ele>52</ele>
        <time>2013-02-16T12:34:19Z</time>
      </trkpt>
      <trkpt lat="48.88299" lon="2.37024">
        <ele>51</ele>
        <time>2013-02-16T12:34:22Z</time>
      </trkpt>
      <trkpt lat="48.88293" lon="2.37023">
        <ele>59</ele>
        <time>2013-02-16T12:34:27Z</time>
      </trkpt>
      <trkpt lat="48.88291" lon="2.3703">
        <ele>70</ele>
        <time>2013-02-16T12:34:32Z</time>
      </trkpt>
      <trkpt lat="48.88292" lon="2.37021">
        <ele>61</ele>
        <time>2013-02-16T12:35:03Z</time>
      </trkpt>
      <trkpt lat="48.88292" lon="2.3701">
        <ele>58</ele>
        <time>2013-02-16T12:35:05Z</time>
      </trkpt>
      <trkpt lat="48.88294" lon="2.37001">
        <ele>54</ele>
        <time>2013-02-16T12:35:07Z</time>
      </trkpt>
      <trkpt lat="48.88292" lon="2.36991">
        <ele>55</ele>
        <time>2013-02-16T12:35:11Z</time>
      </trkpt>
      <trkpt lat="48.88289" lon="2.36978">
        <ele>45</ele>
        <time>2013-02-16T12:35:14Z</time>
      </trkpt>
      <trkpt lat="48.88285" lon="2.36971">
        <ele>46</ele>
        <time>2013-02-16T12:35:16Z</time>
      </trkpt>
      <trkpt lat="48.8828" lon="2.36967">
        <ele>46</ele>
        <time>2013-02-16T12:35:18Z</time>
      </trkpt>
      <trkpt lat="48.88276" lon="2.36964">
        <ele>38</ele>
        <time>2013-02-16T12:35:20Z</time>
      </trkpt>
      <trkpt lat="48.88271" lon="2.36955">
        <ele>44</ele>
        <time>2013-02-16T12:35:23Z</time>
      </trkpt>
      <trkpt lat="48.88267" lon="2.36946">
        <ele>51</ele>
        <time>2013-02-16T12:35:25Z</time>
      </trkpt>
      <trkpt lat="48.88258" lon="2.36921">
        <ele>50</ele>
        <time>2013-02-16T12:35:30Z</time>
      </trkpt>
      <trkpt lat="48.88255" lon="2.36909">
        <ele>49</ele>
        <time>2013-02-16T12:35:32Z</time>
      </trkpt>
      <trkpt lat="48.88253" lon="2.36899">
        <ele>49</ele>
        <time>2013-02-16T12:35:34Z</time>
      </trkpt>
      <trkpt lat="48.88251" lon="2.36889">
        <ele>47</ele>
        <time>2013-02-16T12:35:37Z</time>
      </trkpt>
      <trkpt lat="48.88244" lon="2.36871">
        <ele>50</ele>
        <time>2013-02-16T12:35:41Z</time>
      </trkpt>
      <trkpt lat="48.88237" lon="2.36855">
        <ele>49</ele>
        <time>2013-02-16T12:35:44Z</time>
      </trkpt>
      <trkpt lat="48.88223" lon="2.36829">
        <ele>43</ele>
        <time>2013-02-16T12:35:49Z</time>
      </trkpt>
      <trkpt lat="48.88217" lon="2.3682">
        <ele>51</ele>
        <time>2013-02-16T12:35:51Z</time>
      </trkpt>
      <trkpt lat="48.88212" lon="2.36814">
        <ele>50</ele>
        <time>2013-02-16T12:35:52Z</time>
      </trkpt>
      <trkpt lat="48.88195" lon="2.36793">
        <ele>47</ele>
        <time>2013-02-16T12:35:57Z</time>
      </trkpt>
      <trkpt lat="48.88186" lon="2.36783">
        <ele>50</ele>
        <time>2013-02-16T12:36:00Z</time>
      </trkpt>
      <trkpt lat="48.8818" lon="2.36774">
        <ele>51</ele>
        <time>2013-02-16T12:36:03Z</time>
      </trkpt>
      <trkpt lat="48.88179" lon="2.36766">
        <ele>48</ele>
        <time>2013-02-16T12:36:05Z</time>
      </trkpt>
      <trkpt lat="48.88176" lon="2.36758">
        <ele>49</ele>
        <time>2013-02-16T12:36:07Z</time>
      </trkpt>
      <trkpt lat="48.88168" lon="2.36733">
        <ele>47</ele>
        <time>2013-02-16T12:36:12Z</time>
      </trkpt>
      <trkpt lat="48.88164" lon="2.36724">
        <ele>51</ele>
        <time>2013-02-16T12:36:14Z</time>
      </trkpt>
      <trkpt lat="48.88154" lon="2.36698">
        <ele>49</ele>
        <time>2013-02-16T12:36:19Z</time>
      </trkpt>
      <trkpt lat="48.88152" lon="2.36687">
        <ele>49</ele>
        <time>2013-02-16T12:36:21Z</time>
      </trkpt>
      <trkpt lat="48.88151" lon="2.36677">
        <ele>51</ele>
        <time>2013-02-16T12:36:23Z</time>
      </trkpt>
      <trkpt lat="48.88153" lon="2.36663">
        <ele>54</ele>
        <time>2013-02-16T12:36:25Z</time>
      </trkpt>
      <trkpt lat="48.88157" lon="2.36648">
        <ele>45</ele>
        <time>2013-02-16T12:36:27Z</time>
      </trkpt>
      <trkpt lat="48.88159" lon="2.36638">
        <ele>45</ele>
        <time>2013-02-16T12:36:28Z</time>
      </trkpt>
      <trkpt lat="48.88161" lon="2.36626">
        <ele>41</ele>
        <time>2013-02-16T12:36:30Z</time>
      </trkpt>
      <trkpt lat="48.88164" lon="2.36609">
        <ele>42</ele>
        <time>2013-02-16T12:36:33Z</time>
      </trkpt>
      <trkpt lat="48.88168" lon="2.36602">
        <ele>49</ele>
        <time>2013-02-16T12:36:35Z</time>
      </trkpt>
      <trkpt lat="48.88173" lon="2.36597">
        <ele>39</ele>
        <time>2013-02-16T12:36:38Z</time>
      </trkpt>
      <trkpt lat="48.88173" lon="2.36589">
        <ele>38</ele>
        <time>2013-02-16T12:36:40Z</time>
      </trkpt>
      <trkpt lat="48.88171" lon="2.36577">
        <ele>37</ele>
        <time>2013-02-16T12:36:42Z</time>
      </trkpt>
      <trkpt lat="48.88169" lon="2.36563">
        <ele>34</ele>
        <time>2013-02-16T12:36:44Z</time>
      </trkpt>
      <trkpt lat="48.88166" lon="2.36548">
        <ele>33</ele>
        <time>2013-02-16T12:36:47Z</time>
      </trkpt>
      <trkpt lat="48.88164" lon="2.3654">
        <ele>33</ele>
        <time>2013-02-16T12:36:49Z</time>
      </trkpt>
      <trkpt lat="48.88161" lon="2.36533">
        <ele>40</ele>
        <time>2013-02-16T12:36:51Z</time>
      </trkpt>
      <trkpt lat="48.88156" lon="2.36523">
        <ele>40</ele>
        <time>2013-02-16T12:36:54Z</time>
      </trkpt>
      <trkpt lat="48.88153" lon="2.36516">
        <ele>42</ele>
        <time>2013-02-16T12:36:56Z</time>
      </trkpt>
      <trkpt lat="48.88151" lon="2.36508">
        <ele>45</ele>
        <time>2013-02-16T12:36:58Z</time>
      </trkpt>
      <trkpt lat="48.88149" lon="2.36495">
        <ele>39</ele>
        <time>2013-02-16T12:37:02Z</time>
      </trkpt>
      <trkpt lat="48.88148" lon="2.36486">
        <ele>43</ele>
        <time>2013-02-16T12:37:05Z</time>
      </trkpt>
      <trkpt lat="48.88145" lon="2.36477">
        <ele>44</ele>
        <time>2013-02-16T12:37:07Z</time>
      </trkpt>
      <trkpt lat="48.88147" lon="2.36458">
        <ele>72</ele>
        <time>2013-02-16T12:37:27Z</time>
      </trkpt>
      <trkpt lat="48.88144" lon="2.36446">
        <ele>66</ele>
        <time>2013-02-16T12:37:29Z</time>
      </trkpt>
      <trkpt lat="48.88142" lon="2.36439">
        <ele>61</ele>
        <time>2013-02-16T12:37:32Z</time>
      </trkpt>
      <trkpt lat="48.88135" lon="2.36446">
        <ele>65</ele>
        <time>2013-02-16T12:37:35Z</time>
      </trkpt>
      <trkpt lat="48.88129" lon="2.36445">
        <ele>68</ele>
        <time>2013-02-16T12:37:37Z</time>
      </trkpt>
      <trkpt lat="48.88123" lon="2.36441">
        <ele>69</ele>
        <time>2013-02-16T12:37:39Z</time>
      </trkpt>
      <trkpt lat="48.8812" lon="2.36429">
        <ele>70</ele>
        <time>2013-02-16T12:37:42Z</time>
      </trkpt>
      <trkpt lat="48.88115" lon="2.36411">
        <ele>68</ele>
        <time>2013-02-16T12:37:46Z</time>
      </trkpt>
      <trkpt lat="48.88111" lon="2.36403">
        <ele>71</ele>
        <time>2013-02-16T12:37:48Z</time>
      </trkpt>
      <trkpt lat="48.88107" lon="2.36396">
        <ele>68</ele>
        <time>2013-02-16T12:37:50Z</time>
      </trkpt>
      <trkpt lat="48.88105" lon="2.36388">
        <ele>71</ele>
        <time>2013-02-16T12:37:52Z</time>
      </trkpt>
      <trkpt lat="48.881" lon="2.36374">
        <ele>66</ele>
        <time>2013-02-16T12:37:55Z</time>
      </trkpt>
      <trkpt lat="48.88097" lon="2.36365">
        <ele>66</ele>
        <time>2013-02-16T12:37:57Z</time>
      </trkpt>
      <trkpt lat="48.88097" lon="2.36356">
        <ele>65</ele>
        <time>2013-02-16T12:37:59Z</time>
      </trkpt>
      <trkpt lat="48.88096" lon="2.36341">
        <ele>69</ele>
        <time>2013-02-16T12:38:02Z</time>
      </trkpt>
      <trkpt lat="48.88094" lon="2.36323">
        <ele>69</ele>
        <time>2013-02-16T12:38:06Z</time>
      </trkpt>
      <trkpt lat="48.88092" lon="2.36316">
        <ele>69</ele>
        <time>2013-02-16T12:38:08Z</time>
      </trkpt>
      <trkpt lat="48.8809" lon="2.36308">
        <ele>68</ele>
        <time>2013-02-16T12:38:10Z</time>
      </trkpt>
      <trkpt lat="48.88086" lon="2.363">
        <ele>64</ele>
        <time>2013-02-16T12:38:12Z</time>
      </trkpt>
      <trkpt lat="48.88083" lon="2.36291">
        <ele>55</ele>
        <time>2013-02-16T12:38:14Z</time>
      </trkpt>
      <trkpt lat="48.88081" lon="2.36282">
        <ele>61</ele>
        <time>2013-02-16T12:38:16Z</time>
      </trkpt>
      <trkpt lat="48.88085" lon="2.36273">
        <ele>62</ele>
        <time>2013-02-16T12:38:18Z</time>
      </trkpt>
      <trkpt lat="48.88084" lon="2.36263">
        <ele>58</ele>
        <time>2013-02-16T12:38:20Z</time>
      </trkpt>
      <trkpt lat="48.88081" lon="2.36253">
        <ele>61</ele>
        <time>2013-02-16T12:38:22Z</time>
      </trkpt>
      <trkpt lat="48.88078" lon="2.36248">
        <ele>55</ele>
        <time>2013-02-16T12:38:24Z</time>
      </trkpt>
      <trkpt lat="48.88076" lon="2.36237">
        <ele>56</ele>
        <time>2013-02-16T12:38:26Z</time>
      </trkpt>
      <trkpt lat="48.88073" lon="2.36209">
        <ele>47</ele>
        <time>2013-02-16T12:38:32Z</time>
      </trkpt>
      <trkpt lat="48.88072" lon="2.36195">
        <ele>47</ele>
        <time>2013-02-16T12:38:38Z</time>
      </trkpt>
      <trkpt lat="48.88077" lon="2.36198">
        <ele>44</ele>
        <time>2013-02-16T12:38:44Z</time>
      </trkpt>
      <trkpt lat="48.88074" lon="2.3619">
        <ele>44</ele>
        <time>2013-02-16T12:38:57Z</time>
      </trkpt>
      <trkpt lat="48.88069" lon="2.36183">
        <ele>52</ele>
        <time>2013-02-16T12:39:00Z</time>
      </trkpt>
      <trkpt lat="48.88064" lon="2.36188">
        <ele>54</ele>
        <time>2013-02-16T12:39:06Z</time>
      </trkpt>
      <trkpt lat="48.8806" lon="2.36182">
        <ele>54</ele>
        <time>2013-02-16T12:39:10Z</time>
      </trkpt>
      <trkpt lat="48.88059" lon="2.36173">
        <ele>59</ele>
        <time>2013-02-16T12:39:13Z</time>
      </trkpt>
      <trkpt lat="48.88057" lon="2.36158">
        <ele>64</ele>
        <time>2013-02-16T12:39:17Z</time>
      </trkpt>
      <trkpt lat="48.88053" lon="2.36146">
        <ele>62</ele>
        <time>2013-02-16T12:39:19Z</time>
      </trkpt>
      <trkpt lat="48.88046" lon="2.36116">
        <ele>58</ele>
        <time>2013-02-16T12:39:24Z</time>
      </trkpt>
      <trkpt lat="48.88045" lon="2.36106">
        <ele>61</ele>
        <time>2013-02-16T12:39:26Z</time>
      </trkpt>
      <trkpt lat="48.88043" lon="2.36095">
        <ele>63</ele>
        <time>2013-02-16T12:39:28Z</time>
      </trkpt>
      <trkpt lat="48.8804" lon="2.36083">
        <ele>57</ele>
        <time>2013-02-16T12:39:30Z</time>
      </trkpt>
      <trkpt lat="48.8803" lon="2.36053">
        <ele>65</ele>
        <time>2013-02-16T12:39:35Z</time>
      </trkpt>
      <trkpt lat="48.88026" lon="2.36043">
        <ele>59</ele>
        <time>2013-02-16T12:39:37Z</time>
      </trkpt>
      <trkpt lat="48.88024" lon="2.36034">
        <ele>63</ele>
        <time>2013-02-16T12:39:39Z</time>
      </trkpt>
      <trkpt lat="48.88021" lon="2.36023">
        <ele>53</ele>
        <time>2013-02-16T12:39:41Z</time>
      </trkpt>
      <trkpt lat="48.88016" lon="2.36004">
        <ele>57</ele>
        <time>2013-02-16T12:39:44Z</time>
      </trkpt>
      <trkpt lat="48.88011" lon="2.3599">
        <ele>54</ele>
        <time>2013-02-16T12:39:47Z</time>
      </trkpt>
      <trkpt lat="48.88005" lon="2.35965">
        <ele>61</ele>
        <time>2013-02-16T12:39:52Z</time>
      </trkpt>
      <trkpt lat="48.87998" lon="2.35936">
        <ele>65</ele>
        <time>2013-02-16T12:39:58Z</time>
      </trkpt>
      <trkpt lat="48.87993" lon="2.35927">
        <ele>62</ele>
        <time>2013-02-16T12:40:00Z</time>
      </trkpt>
      <trkpt lat="48.8799" lon="2.35917">
        <ele>61</ele>
        <time>2013-02-16T12:40:02Z</time>
      </trkpt>
      <trkpt lat="48.87987" lon="2.35909">
        <ele>58</ele>
        <time>2013-02-16T12:40:04Z</time>
      </trkpt>
      <trkpt lat="48.87983" lon="2.35902">
        <ele>55</ele>
        <time>2013-02-16T12:40:06Z</time>
      </trkpt>
      <trkpt lat="48.87978" lon="2.35889">
        <ele>59</ele>
        <time>2013-02-16T12:40:10Z</time>
      </trkpt>
      <trkpt lat="48.87978" lon="2.35882">
        <ele>55</ele>
        <time>2013-02-16T12:40:12Z</time>
      </trkpt>
      <trkpt lat="48.87982" lon="2.35875">
        <ele>55</ele>
        <time>2013-02-16T12:40:14Z</time>
      </trkpt>
      <trkpt lat="48.87983" lon="2.35865">
        <ele>57</ele>
        <time>2013-02-16T12:40:16Z</time>
      </trkpt>
      <trkpt lat="48.87983" lon="2.35856">
        <ele>61</ele>
        <time>2013-02-16T12:40:18Z</time>
      </trkpt>
      <trkpt lat="48.8798" lon="2.35843">
        <ele>64</ele>
        <time>2013-02-16T12:40:21Z</time>
      </trkpt>
      <trkpt lat="48.87978" lon="2.35834">
        <ele>64</ele>
        <time>2013-02-16T12:40:23Z</time>
      </trkpt>
      <trkpt lat="48.87976" lon="2.35824">
        <ele>62</ele>
        <time>2013-02-16T12:40:25Z</time>
      </trkpt>
      <trkpt lat="48.87972" lon="2.35817">
        <ele>59</ele>
        <time>2013-02-16T12:40:27Z</time>
      </trkpt>
      <trkpt lat="48.87967" lon="2.3581">
        <ele>61</ele>
        <time>2013-02-16T12:40:29Z</time>
      </trkpt>
      <trkpt lat="48.87952" lon="2.35788">
        <ele>59</ele>
        <time>2013-02-16T12:40:35Z</time>
      </trkpt>
      <trkpt lat="48.87948" lon="2.35778">
        <ele>60</ele>
        <time>2013-02-16T12:40:37Z</time>
      </trkpt>
      <trkpt lat="48.87945" lon="2.35768">
        <ele>61</ele>
        <time>2013-02-16T12:40:39Z</time>
      </trkpt>
      <trkpt lat="48.87946" lon="2.3576">
        <ele>58</ele>
        <time>2013-02-16T12:40:40Z</time>
      </trkpt>
      <trkpt lat="48.87949" lon="2.35742">
        <ele>55</ele>
        <time>2013-02-16T12:40:45Z</time>
      </trkpt>
      <trkpt lat="48.87953" lon="2.35731">
        <ele>88</ele>
        <time>2013-02-16T12:41:11Z</time>
      </trkpt>
      <trkpt lat="48.87955" lon="2.35723">
        <ele>93</ele>
        <time>2013-02-16T12:41:18Z</time>
      </trkpt>
      <trkpt lat="48.87956" lon="2.35715">
        <ele>79</ele>
        <time>2013-02-16T12:41:21Z</time>
      </trkpt>
      <trkpt lat="48.87959" lon="2.35705">
        <ele>79</ele>
        <time>2013-02-16T12:41:24Z</time>
      </trkpt>
      <trkpt lat="48.87962" lon="2.35699">
        <ele>81</ele>
        <time>2013-02-16T12:41:25Z</time>
      </trkpt>
      <trkpt lat="48.87967" lon="2.35687">
        <ele>82</ele>
        <time>2013-02-16T12:41:27Z</time>
      </trkpt>
      <trkpt lat="48.87972" lon="2.35664">
        <ele>60</ele>
        <time>2013-02-16T12:41:30Z</time>
      </trkpt>
      <trkpt lat="48.87973" lon="2.35653">
        <ele>50</ele>
        <time>2013-02-16T12:41:31Z</time>
      </trkpt>
      <trkpt lat="48.87978" lon="2.35639">
        <ele>50</ele>
        <time>2013-02-16T12:41:33Z</time>
      </trkpt>
      <trkpt lat="48.87981" lon="2.35631">
        <ele>50</ele>
        <time>2013-02-16T12:41:35Z</time>
      </trkpt>
      <trkpt lat="48.87984" lon="2.35623">
        <ele>48</ele>
        <time>2013-02-16T12:41:37Z</time>
      </trkpt>
      <trkpt lat="48.87985" lon="2.35614">
        <ele>52</ele>
        <time>2013-02-16T12:41:40Z</time>
      </trkpt>
      <trkpt lat="48.87984" lon="2.35604">
        <ele>55</ele>
        <time>2013-02-16T12:41:42Z</time>
      </trkpt>
      <trkpt lat="48.87985" lon="2.35595">
        <ele>54</ele>
        <time>2013-02-16T12:41:44Z</time>
      </trkpt>
      <trkpt lat="48.87986" lon="2.3559">
        <ele>52</ele>
        <time>2013-02-16T12:41:45Z</time>
      </trkpt>
      <trkpt lat="48.87988" lon="2.35579">
        <ele>54</ele>
        <time>2013-02-16T12:41:47Z</time>
      </trkpt>
      <trkpt lat="48.87991" lon="2.35568">
        <ele>52</ele>
        <time>2013-02-16T12:41:49Z</time>
      </trkpt>
      <trkpt lat="48.87993" lon="2.35553">
        <ele>45</ele>
        <time>2013-02-16T12:41:52Z</time>
      </trkpt>
      <trkpt lat="48.87993" lon="2.35541">
        <ele>42</ele>
        <time>2013-02-16T12:41:54Z</time>
      </trkpt>
      <trkpt lat="48.87993" lon="2.35521">
        <ele>41</ele>
        <time>2013-02-16T12:41:57Z</time>
      </trkpt>
      <trkpt lat="48.87995" lon="2.35514">
        <ele>43</ele>
        <time>2013-02-16T12:41:58Z</time>
      </trkpt>
      <trkpt lat="48.88022" lon="2.35427">
        <ele>36</ele>
        <time>2013-02-16T12:42:18Z</time>
      </trkpt>
      <trkpt lat="48.88025" lon="2.35413">
        <ele>35</ele>
        <time>2013-02-16T12:42:21Z</time>
      </trkpt>
      <trkpt lat="48.88026" lon="2.35403">
        <ele>38</ele>
        <time>2013-02-16T12:42:24Z</time>
      </trkpt>
      <trkpt lat="48.88029" lon="2.35395">
        <ele>40</ele>
        <time>2013-02-16T12:42:26Z</time>
      </trkpt>
      <trkpt lat="48.8803" lon="2.35386">
        <ele>34</ele>
        <time>2013-02-16T12:42:28Z</time>
      </trkpt>
      <trkpt lat="48.88032" lon="2.35378">
        <ele>32</ele>
        <time>2013-02-16T12:42:30Z</time>
      </trkpt>
      <trkpt lat="48.88034" lon="2.3537">
        <ele>35</ele>
        <time>2013-02-16T12:42:32Z</time>
      </trkpt>
      <trkpt lat="48.88037" lon="2.35361">
        <ele>37</ele>
        <time>2013-02-16T12:42:35Z</time>
      </trkpt>
      <trkpt lat="48.8804" lon="2.35353">
        <ele>40</ele>
        <time>2013-02-16T12:42:38Z</time>
      </trkpt>
      <trkpt lat="48.88042" lon="2.35344">
        <ele>43</ele>
        <time>2013-02-16T12:42:42Z</time>
      </trkpt>
      <trkpt lat="48.88044" lon="2.35328">
        <ele>38</ele>
        <time>2013-02-16T12:42:46Z</time>
      </trkpt>
      <trkpt lat="48.88044" lon="2.35319">
        <ele>36</ele>
        <time>2013-02-16T12:42:49Z</time>
      </trkpt>
      <trkpt lat="48.88044" lon="2.35309">
        <ele>39</ele>
        <time>2013-02-16T12:42:53Z</time>
      </trkpt>
      <trkpt lat="48.88046" lon="2.35301">
        <ele>39</ele>
        <time>2013-02-16T12:42:55Z</time>
      </trkpt>
      <trkpt lat="48.88048" lon="2.3529">
        <ele>42</ele>
        <time>2013-02-16T12:42:57Z</time>
      </trkpt>
      <trkpt lat="48.88049" lon="2.35276">
        <ele>38</ele>
        <time>2013-02-16T12:43:00Z</time>
      </trkpt>
      <trkpt lat="48.88051" lon="2.35268">
        <ele>36</ele>
        <time>2013-02-16T12:43:02Z</time>
      </trkpt>
      <trkpt lat="48.88056" lon="2.35254">
        <ele>39</ele>
        <time>2013-02-16T12:43:08Z</time>
      </trkpt>
      <trkpt lat="48.88059" lon="2.35253">
        <ele>42</ele>
        <time>2013-02-16T12:43:09Z</time>
      </trkpt>
      <trkpt lat="48.88061" lon="2.35251">
        <ele>39</ele>
        <time>2013-02-16T12:43:11Z</time>
      </trkpt>
      <trkpt lat="48.88065" lon="2.35242">
        <ele>44</ele>
        <time>2013-02-16T12:43:14Z</time>
      </trkpt>
      <trkpt lat="48.88074" lon="2.35229">
        <ele>54</ele>
        <time>2013-02-16T12:43:19Z</time>
      </trkpt>
      <trkpt lat="48.88076" lon="2.35227">
        <ele>50</ele>
        <time>2013-02-16T12:43:20Z</time>
      </trkpt>
      <trkpt lat="48.88082" lon="2.35221">
        <ele>47</ele>
        <time>2013-02-16T12:43:23Z</time>
      </trkpt>
      <trkpt lat="48.88084" lon="2.35219">
        <ele>48</ele>
        <time>2013-02-16T12:43:24Z</time>
      </trkpt>
      <trkpt lat="48.88088" lon="2.35213">
        <ele>46</ele>
        <time>2013-02-16T12:43:26Z</time>
      </trkpt>
      <trkpt lat="48.88102" lon="2.35189">
        <ele>48</ele>
        <time>2013-02-16T12:43:32Z</time>
      </trkpt>
      <trkpt lat="48.88107" lon="2.35183">
        <ele>47</ele>
        <time>2013-02-16T12:43:34Z</time>
      </trkpt>
      <trkpt lat="48.8811" lon="2.35177">
        <ele>51</ele>
        <time>2013-02-16T12:43:36Z</time>
      </trkpt>
      <trkpt lat="48.88114" lon="2.35168">
        <ele>54</ele>
        <time>2013-02-16T12:43:38Z</time>
      </trkpt>
      <trkpt lat="48.88119" lon="2.35162">
        <ele>56</ele>
        <time>2013-02-16T12:43:40Z</time>
      </trkpt>
      <trkpt lat="48.88128" lon="2.35153">
        <ele>56</ele>
        <time>2013-02-16T12:43:44Z</time>
      </trkpt>
      <trkpt lat="48.88135" lon="2.35148">
        <ele>59</ele>
        <time>2013-02-16T12:43:46Z</time>
      </trkpt>
      <trkpt lat="48.88147" lon="2.35142">
        <ele>57</ele>
        <time>2013-02-16T12:43:50Z</time>
      </trkpt>
      <trkpt lat="48.88151" lon="2.35137">
        <ele>57</ele>
        <time>2013-02-16T12:43:52Z</time>
      </trkpt>
      <trkpt lat="48.88157" lon="2.35131">
        <ele>54</ele>
        <time>2013-02-16T12:43:54Z</time>
      </trkpt>
      <trkpt lat="48.88162" lon="2.35122">
        <ele>46</ele>
        <time>2013-02-16T12:43:56Z</time>
      </trkpt>
      <trkpt lat="48.88172" lon="2.35106">
        <ele>57</ele>
        <time>2013-02-16T12:44:00Z</time>
      </trkpt>
      <trkpt lat="48.88179" lon="2.35104">
        <ele>53</ele>
        <time>2013-02-16T12:44:02Z</time>
      </trkpt>
      <trkpt lat="48.88189" lon="2.35103">
        <ele>56</ele>
        <time>2013-02-16T12:44:05Z</time>
      </trkpt>
      <trkpt lat="48.88192" lon="2.35105">
        <ele>55</ele>
        <time>2013-02-16T12:44:06Z</time>
      </trkpt>
      <trkpt lat="48.88198" lon="2.35108">
        <ele>53</ele>
        <time>2013-02-16T12:44:09Z</time>
      </trkpt>
      <trkpt lat="48.88206" lon="2.3511">
        <ele>51</ele>
        <time>2013-02-16T12:44:11Z</time>
      </trkpt>
      <trkpt lat="48.88213" lon="2.35111">
        <ele>58</ele>
        <time>2013-02-16T12:44:13Z</time>
      </trkpt>
      <trkpt lat="48.88218" lon="2.35107">
        <ele>55</ele>
        <time>2013-02-16T12:44:15Z</time>
      </trkpt>
      <trkpt lat="48.88224" lon="2.35098">
        <ele>55</ele>
        <time>2013-02-16T12:44:17Z</time>
      </trkpt>
      <trkpt lat="48.88232" lon="2.35089">
        <ele>56</ele>
        <time>2013-02-16T12:44:20Z</time>
      </trkpt>
      <trkpt lat="48.88249" lon="2.3507">
        <ele>46</ele>
        <time>2013-02-16T12:44:25Z</time>
      </trkpt>
      <trkpt lat="48.88258" lon="2.35061">
        <ele>48</ele>
        <time>2013-02-16T12:44:28Z</time>
      </trkpt>
      <trkpt lat="48.88263" lon="2.35053">
        <ele>44</ele>
        <time>2013-02-16T12:44:30Z</time>
      </trkpt>
      <trkpt lat="48.88276" lon="2.35027">
        <ele>45</ele>
        <time>2013-02-16T12:44:35Z</time>
      </trkpt>
      <trkpt lat="48.88277" lon="2.35015">
        <ele>40</ele>
        <time>2013-02-16T12:44:37Z</time>
      </trkpt>
      <trkpt lat="48.88277" lon="2.35005">
        <ele>34</ele>
        <time>2013-02-16T12:44:39Z</time>
      </trkpt>
      <trkpt lat="48.8828" lon="2.34998">
        <ele>35</ele>
        <time>2013-02-16T12:44:41Z</time>
      </trkpt>
      <trkpt lat="48.88281" lon="2.34988">
        <ele>39</ele>
        <time>2013-02-16T12:44:44Z</time>
      </trkpt>
      <trkpt lat="48.88287" lon="2.34985">
        <ele>42</ele>
        <time>2013-02-16T12:44:46Z</time>
      </trkpt>
      <trkpt lat="48.88292" lon="2.34979">
        <ele>48</ele>
        <time>2013-02-16T12:44:49Z</time>
      </trkpt>
      <trkpt lat="48.88296" lon="2.34973">
        <ele>47</ele>
        <time>2013-02-16T12:44:53Z</time>
      </trkpt>
      <trkpt lat="48.88302" lon="2.34969">
        <ele>51</ele>
        <time>2013-02-16T12:44:56Z</time>
      </trkpt>
      <trkpt lat="48.88307" lon="2.34967">
        <ele>48</ele>
        <time>2013-02-16T12:44:58Z</time>
      </trkpt>
      <trkpt lat="48.88314" lon="2.34968">
        <ele>42</ele>
        <time>2013-02-16T12:45:00Z</time>
      </trkpt>
      <trkpt lat="48.88321" lon="2.34966">
        <ele>42</ele>
        <time>2013-02-16T12:45:02Z</time>
      </trkpt>
      <trkpt lat="48.88328" lon="2.34962">
        <ele>43</ele>
        <time>2013-02-16T12:45:05Z</time>
      </trkpt>
      <trkpt lat="48.88336" lon="2.34957">
        <ele>48</ele>
        <time>2013-02-16T12:45:13Z</time>
      </trkpt>
      <trkpt lat="48.88342" lon="2.3495">
        <ele>48</ele>
        <time>2013-02-16T12:45:18Z</time>
      </trkpt>
      <trkpt lat="48.88347" lon="2.34954">
        <ele>51</ele>
        <time>2013-02-16T12:45:20Z</time>
      </trkpt>
      <trkpt lat="48.88354" lon="2.34958">
        <ele>66</ele>
        <time>2013-02-16T12:45:22Z</time>
      </trkpt>
      <trkpt lat="48.88357" lon="2.34952">
        <ele>66</ele>
        <time>2013-02-16T12:45:24Z</time>
      </trkpt>
      <trkpt lat="48.88358" lon="2.34949">
        <ele>66</ele>
        <time>2013-02-16T12:45:25Z</time>
      </trkpt>
      <trkpt lat="48.88362" lon="2.34943">
        <ele>59</ele>
        <time>2013-02-16T12:45:28Z</time>
      </trkpt>
      <trkpt lat="48.88367" lon="2.34943">
        <ele>55</ele>
        <time>2013-02-16T12:45:43Z</time>
      </trkpt>
      <trkpt lat="48.88377" lon="2.34939">
        <ele>63</ele>
        <time>2013-02-16T12:45:56Z</time>
      </trkpt>
      <trkpt lat="48.8838" lon="2.34929">
        <ele>68</ele>
        <time>2013-02-16T12:45:59Z</time>
      </trkpt>
      <trkpt lat="48.88381" lon="2.34917">
        <ele>74</ele>
        <time>2013-02-16T12:46:02Z</time>
      </trkpt>
      <trkpt lat="48.88382" lon="2.34906">
        <ele>78</ele>
        <time>2013-02-16T12:46:04Z</time>
      </trkpt>
      <trkpt lat="48.88381" lon="2.34888">
        <ele>64</ele>
        <time>2013-02-16T12:46:07Z</time>
      </trkpt>
      <trkpt lat="48.88379" lon="2.34854">
        <ele>75</ele>
        <time>2013-02-16T12:46:13Z</time>
      </trkpt>
      <trkpt lat="48.88376" lon="2.34826">
        <ele>77</ele>
        <time>2013-02-16T12:46:18Z</time>
      </trkpt>
      <trkpt lat="48.88372" lon="2.34796">
        <ele>79</ele>
        <time>2013-02-16T12:46:24Z</time>
      </trkpt>
      <trkpt lat="48.8837" lon="2.34786">
        <ele>76</ele>
        <time>2013-02-16T12:46:26Z</time>
      </trkpt>
      <trkpt lat="48.88369" lon="2.34775">
        <ele>78</ele>
        <time>2013-02-16T12:46:28Z</time>
      </trkpt>
      <trkpt lat="48.88368" lon="2.34766">
        <ele>81</ele>
        <time>2013-02-16T12:46:30Z</time>
      </trkpt>
      <trkpt lat="48.88366" lon="2.34755">
        <ele>77</ele>
        <time>2013-02-16T12:46:32Z</time>
      </trkpt>
      <trkpt lat="48.88364" lon="2.34723">
        <ele>77</ele>
        <time>2013-02-16T12:46:39Z</time>
      </trkpt>
      <trkpt lat="48.88364" lon="2.34715">
        <ele>78</ele>
        <time>2013-02-16T12:46:41Z</time>
      </trkpt>
      <trkpt lat="48.88363" lon="2.34708">
        <ele>78</ele>
        <time>2013-02-16T12:46:43Z</time>
      </trkpt>
      <trkpt lat="48.88362" lon="2.347">
        <ele>79</ele>
        <time>2013-02-16T12:46:45Z</time>
      </trkpt>
      <trkpt lat="48.88361" lon="2.34681">
        <ele>78</ele>
        <time>2013-02-16T12:46:51Z</time>
      </trkpt>
      <trkpt lat="48.8836" lon="2.34675">
        <ele>74</ele>
        <time>2013-02-16T12:46:53Z</time>
      </trkpt>
      <trkpt lat="48.88356" lon="2.34657">
        <ele>70</ele>
        <time>2013-02-16T12:47:02Z</time>
      </trkpt>
      <trkpt lat="48.88353" lon="2.34649">
        <ele>69</ele>
        <time>2013-02-16T12:47:04Z</time>
      </trkpt>
      <trkpt lat="48.88351" lon="2.3464">
        <ele>67</ele>
        <time>2013-02-16T12:47:07Z</time>
      </trkpt>
      <trkpt lat="48.88344" lon="2.3461">
        <ele>90</ele>
        <time>2013-02-16T12:47:15Z</time>
      </trkpt>
      <trkpt lat="48.88343" lon="2.34601">
        <ele>92</ele>
        <time>2013-02-16T12:47:17Z</time>
      </trkpt>
      <trkpt lat="48.88343" lon="2.34591">
        <ele>88</ele>
        <time>2013-02-16T12:47:19Z</time>
      </trkpt>
      <trkpt lat="48.88341" lon="2.34582">
        <ele>91</ele>
        <time>2013-02-16T12:47:21Z</time>
      </trkpt>
      <trkpt lat="48.88337" lon="2.34543">
        <ele>84</ele>
        <time>2013-02-16T12:47:29Z</time>
      </trkpt>
      <trkpt lat="48.88337" lon="2.34536">
        <ele>72</ele>
        <time>2013-02-16T12:47:31Z</time>
      </trkpt>
      <trkpt lat="48.88335" lon="2.34527">
        <ele>71</ele>
        <time>2013-02-16T12:47:33Z</time>
      </trkpt>
      <trkpt lat="48.88332" lon="2.34519">
        <ele>72</ele>
        <time>2013-02-16T12:47:35Z</time>
      </trkpt>
      <trkpt lat="48.88331" lon="2.34515">
        <ele>72</ele>
        <time>2013-02-16T12:47:36Z</time>
      </trkpt>
      <trkpt lat="48.8833" lon="2.34511">
        <ele>67</ele>
        <time>2013-02-16T12:47:37Z</time>
      </trkpt>
      <trkpt lat="48.88328" lon="2.34502">
        <ele>66</ele>
        <time>2013-02-16T12:47:39Z</time>
      </trkpt>
      <trkpt lat="48.88317" lon="2.34461">
        <ele>69</ele>
        <time>2013-02-16T12:47:49Z</time>
      </trkpt>
      <trkpt lat="48.88315" lon="2.34454">
        <ele>69</ele>
        <time>2013-02-16T12:47:51Z</time>
      </trkpt>
      <trkpt lat="48.88312" lon="2.34444">
        <ele>75</ele>
        <time>2013-02-16T12:47:54Z</time>
      </trkpt>
      <trkpt lat="48.88304" lon="2.34423">
        <ele>81</ele>
        <time>2013-02-16T12:48:07Z</time>
      </trkpt>
      <trkpt lat="48.88303" lon="2.34422">
        <ele>81</ele>
        <time>2013-02-16T12:48:08Z</time>
      </trkpt>
      <trkpt lat="48.88297" lon="2.34419">
        <ele>83</ele>
        <time>2013-02-16T12:48:12Z</time>
      </trkpt>
      <trkpt lat="48.88298" lon="2.3441">
        <ele>82</ele>
        <time>2013-02-16T12:48:21Z</time>
      </trkpt>
      <trkpt lat="48.88296" lon="2.34402">
        <ele>80</ele>
        <time>2013-02-16T12:48:24Z</time>
      </trkpt>
      <trkpt lat="48.88293" lon="2.34394">
        <ele>85</ele>
        <time>2013-02-16T12:48:27Z</time>
      </trkpt>
      <trkpt lat="48.88293" lon="2.34384">
        <ele>90</ele>
        <time>2013-02-16T12:48:30Z</time>
      </trkpt>
      <trkpt lat="48.88289" lon="2.34376">
        <ele>86</ele>
        <time>2013-02-16T12:48:37Z</time>
      </trkpt>
      <trkpt lat="48.88287" lon="2.34366">
        <ele>83</ele>
        <time>2013-02-16T12:48:40Z</time>
      </trkpt>
      <trkpt lat="48.88286" lon="2.34354">
        <ele>84</ele>
        <time>2013-02-16T12:48:42Z</time>
      </trkpt>
      <trkpt lat="48.88286" lon="2.3434">
        <ele>80</ele>
        <time>2013-02-16T12:48:44Z</time>
      </trkpt>
      <trkpt lat="48.88284" lon="2.34326">
        <ele>70</ele>
        <time>2013-02-16T12:48:46Z</time>
      </trkpt>
      <trkpt lat="48.88281" lon="2.34309">
        <ele>66</ele>
        <time>2013-02-16T12:48:49Z</time>
      </trkpt>
      <trkpt lat="48.8828" lon="2.34298">
        <ele>68</ele>
        <time>2013-02-16T12:48:51Z</time>
      </trkpt>
      <trkpt lat="48.88275" lon="2.34237">
        <ele>76</ele>
        <time>2013-02-16T12:49:01Z</time>
      </trkpt>
      <trkpt lat="48.88273" lon="2.34224">
        <ele>77</ele>
        <time>2013-02-16T12:49:03Z</time>
      </trkpt>
      <trkpt lat="48.88268" lon="2.34196">
        <ele>75</ele>
        <time>2013-02-16T12:49:08Z</time>
      </trkpt>
      <trkpt lat="48.88264" lon="2.34183">
        <ele>74</ele>
        <time>2013-02-16T12:49:10Z</time>
      </trkpt>
      <trkpt lat="48.88252" lon="2.34124">
        <ele>73</ele>
        <time>2013-02-16T12:49:20Z</time>
      </trkpt>
      <trkpt lat="48.88249" lon="2.34105">
        <ele>72</ele>
        <time>2013-02-16T12:49:23Z</time>
      </trkpt>
      <trkpt lat="48.88245" lon="2.34074">
        <ele>65</ele>
        <time>2013-02-16T12:49:28Z</time>
      </trkpt>
      <trkpt lat="48.8824" lon="2.34044">
        <ele>68</ele>
        <time>2013-02-16T12:49:33Z</time>
      </trkpt>
      <trkpt lat="48.88237" lon="2.34033">
        <ele>72</ele>
        <time>2013-02-16T12:49:35Z</time>
      </trkpt>
      <trkpt lat="48.88228" lon="2.34006">
        <ele>63</ele>
        <time>2013-02-16T12:49:40Z</time>
      </trkpt>
      <trkpt lat="48.88225" lon="2.33992">
        <ele>61</ele>
        <time>2013-02-16T12:49:43Z</time>
      </trkpt>
      <trkpt lat="48.88224" lon="2.33984">
        <ele>62</ele>
        <time>2013-02-16T12:49:47Z</time>
      </trkpt>
      <trkpt lat="48.88223" lon="2.33973">
        <ele>62</ele>
        <time>2013-02-16T12:49:51Z</time>
      </trkpt>
      <trkpt lat="48.88221" lon="2.33967">
        <ele>63</ele>
        <time>2013-02-16T12:49:53Z</time>
      </trkpt>
      <trkpt lat="48.8822" lon="2.33963">
        <ele>61</ele>
        <time>2013-02-16T12:49:54Z</time>
      </trkpt>
      <trkpt lat="48.88218" lon="2.33955">
        <ele>61</ele>
        <time>2013-02-16T12:49:57Z</time>
      </trkpt>
      <trkpt lat="48.88217" lon="2.33951">
        <ele>61</ele>
        <time>2013-02-16T12:49:58Z</time>
      </trkpt>
      <trkpt lat="48.88217" lon="2.33944">
        <ele>67</ele>
        <time>2013-02-16T12:50:01Z</time>
      </trkpt>
      <trkpt lat="48.88221" lon="2.33937">
        <ele>56</ele>
        <time>2013-02-16T12:50:07Z</time>
      </trkpt>
      <trkpt lat="48.88223" lon="2.33925">
        <ele>54</ele>
        <time>2013-02-16T12:50:10Z</time>
      </trkpt>
      <trkpt lat="48.88227" lon="2.33897">
        <ele>60</ele>
        <time>2013-02-16T12:50:15Z</time>
      </trkpt>
      <trkpt lat="48.88229" lon="2.33887">
        <ele>55</ele>
        <time>2013-02-16T12:50:17Z</time>
      </trkpt>
      <trkpt lat="48.88232" lon="2.33871">
        <ele>61</ele>
        <time>2013-02-16T12:50:20Z</time>
      </trkpt>
      <trkpt lat="48.88234" lon="2.33862">
        <ele>61</ele>
        <time>2013-02-16T12:50:22Z</time>
      </trkpt>
      <trkpt lat="48.88235" lon="2.33852">
        <ele>63</ele>
        <time>2013-02-16T12:50:24Z</time>
      </trkpt>
      <trkpt lat="48.88236" lon="2.33847">
        <ele>59</ele>
        <time>2013-02-16T12:50:25Z</time>
      </trkpt>
      <trkpt lat="48.88237" lon="2.33825">
        <ele>59</ele>
        <time>2013-02-16T12:50:29Z</time>
      </trkpt>
      <trkpt lat="48.88238" lon="2.33817">
        <ele>56</ele>
        <time>2013-02-16T12:50:31Z</time>
      </trkpt>
      <trkpt lat="48.88241" lon="2.33801">
        <ele>57</ele>
        <time>2013-02-16T12:50:43Z</time>
      </trkpt>
      <trkpt lat="48.8824" lon="2.33793">
        <ele>63</ele>
        <time>2013-02-16T12:51:00Z</time>
      </trkpt>
      <trkpt lat="48.8824" lon="2.33789">
        <ele>60</ele>
        <time>2013-02-16T12:51:01Z</time>
      </trkpt>
      <trkpt lat="48.8824" lon="2.33778">
        <ele>55</ele>
        <time>2013-02-16T12:51:05Z</time>
      </trkpt>
      <trkpt lat="48.8824" lon="2.33776">
        <ele>55</ele>
        <time>2013-02-16T12:51:06Z</time>
      </trkpt>
      <trkpt lat="48.8824" lon="2.33771">
        <ele>59</ele>
        <time>2013-02-16T12:51:07Z</time>
      </trkpt>
      <trkpt lat="48.88241" lon="2.33763">
        <ele>68</ele>
        <time>2013-02-16T12:51:09Z</time>
      </trkpt>
      <trkpt lat="48.88244" lon="2.33754">
        <ele>73</ele>
        <time>2013-02-16T12:51:12Z</time>
      </trkpt>
      <trkpt lat="48.88247" lon="2.3375">
        <ele>74</ele>
        <time>2013-02-16T12:51:14Z</time>
      </trkpt>
      <trkpt lat="48.88249" lon="2.33742">
        <ele>78</ele>
        <time>2013-02-16T12:51:16Z</time>
      </trkpt>
      <trkpt lat="48.8825" lon="2.33734">
        <ele>84</ele>
        <time>2013-02-16T12:51:18Z</time>
      </trkpt>
      <trkpt lat="48.88254" lon="2.33708">
        <ele>77</ele>
        <time>2013-02-16T12:51:24Z</time>
      </trkpt>
      <trkpt lat="48.88258" lon="2.337">
        <ele>77</ele>
        <time>2013-02-16T12:51:27Z</time>
      </trkpt>
      <trkpt lat="48.88263" lon="2.33689">
        <ele>67</ele>
        <time>2013-02-16T12:51:30Z</time>
      </trkpt>
      <trkpt lat="48.88266" lon="2.33681">
        <ele>70</ele>
        <time>2013-02-16T12:51:33Z</time>
      </trkpt>
      <trkpt lat="48.88274" lon="2.3365">
        <ele>56</ele>
        <time>2013-02-16T12:51:38Z</time>
      </trkpt>
      <trkpt lat="48.88281" lon="2.33626">
        <ele>58</ele>
        <time>2013-02-16T12:51:42Z</time>
      </trkpt>
      <trkpt lat="48.8829" lon="2.33595">
        <ele>57</ele>
        <time>2013-02-16T12:51:47Z</time>
      </trkpt>
      <trkpt lat="48.88293" lon="2.33578">
        <ele>56</ele>
        <time>2013-02-16T12:51:50Z</time>
      </trkpt>
      <trkpt lat="48.88297" lon="2.33563">
        <ele>56</ele>
        <time>2013-02-16T12:51:52Z</time>
      </trkpt>
      <trkpt lat="48.88313" lon="2.335">
        <ele>69</ele>
        <time>2013-02-16T12:52:00Z</time>
      </trkpt>
      <trkpt lat="48.8832" lon="2.33479">
        <ele>69</ele>
        <time>2013-02-16T12:52:03Z</time>
      </trkpt>
      <trkpt lat="48.8833" lon="2.33451">
        <ele>70</ele>
        <time>2013-02-16T12:52:07Z</time>
      </trkpt>
      <trkpt lat="48.88336" lon="2.33429">
        <ele>72</ele>
        <time>2013-02-16T12:52:10Z</time>
      </trkpt>
      <trkpt lat="48.88343" lon="2.33403">
        <ele>65</ele>
        <time>2013-02-16T12:52:14Z</time>
      </trkpt>
      <trkpt lat="48.88352" lon="2.33379">
        <ele>59</ele>
        <time>2013-02-16T12:52:17Z</time>
      </trkpt>
      <trkpt lat="48.8836" lon="2.33359">
        <ele>49</ele>
        <time>2013-02-16T12:52:20Z</time>
      </trkpt>
      <trkpt lat="48.8837" lon="2.33332">
        <ele>51</ele>
        <time>2013-02-16T12:52:25Z</time>
      </trkpt>
      <trkpt lat="48.88372" lon="2.33322">
        <ele>49</ele>
        <time>2013-02-16T12:52:27Z</time>
      </trkpt>
      <trkpt lat="48.88372" lon="2.33311">
        <ele>51</ele>
        <time>2013-02-16T12:52:29Z</time>
      </trkpt>
      <trkpt lat="48.88374" lon="2.33303">
        <ele>55</ele>
        <time>2013-02-16T12:52:31Z</time>
      </trkpt>
      <trkpt lat="48.88379" lon="2.33298">
        <ele>60</ele>
        <time>2013-02-16T12:52:36Z</time>
      </trkpt>
      <trkpt lat="48.88382" lon="2.33291">
        <ele>59</ele>
        <time>2013-02-16T12:52:39Z</time>
      </trkpt>
      <trkpt lat="48.88383" lon="2.3329">
        <ele>50</ele>
        <time>2013-02-16T12:52:46Z</time>
      </trkpt>
      <trkpt lat="48.88384" lon="2.3328">
        <ele>67</ele>
        <time>2013-02-16T12:52:59Z</time>
      </trkpt>
      <trkpt lat="48.88386" lon="2.33271">
        <ele>58</ele>
        <time>2013-02-16T12:53:03Z</time>
      </trkpt>
      <trkpt lat="48.88386" lon="2.33267">
        <ele>62</ele>
        <time>2013-02-16T12:53:04Z</time>
      </trkpt>
      <trkpt lat="48.88387" lon="2.33258">
        <ele>57</ele>
        <time>2013-02-16T12:53:08Z</time>
      </trkpt>
      <trkpt lat="48.88389" lon="2.33251">
        <ele>59</ele>
        <time>2013-02-16T12:53:11Z</time>
      </trkpt>
      <trkpt lat="48.88391" lon="2.33244">
        <ele>64</ele>
        <time>2013-02-16T12:53:13Z</time>
      </trkpt>
      <trkpt lat="48.88401" lon="2.33217">
        <ele>64</ele>
        <time>2013-02-16T12:53:20Z</time>
      </trkpt>
      <trkpt lat="48.88405" lon="2.33211">
        <ele>58</ele>
        <time>2013-02-16T12:53:23Z</time>
      </trkpt>
      <trkpt lat="48.88408" lon="2.33201">
        <ele>61</ele>
        <time>2013-02-16T12:53:27Z</time>
      </trkpt>
      <trkpt lat="48.88426" lon="2.33139">
        <ele>63</ele>
        <time>2013-02-16T12:53:39Z</time>
      </trkpt>
      <trkpt lat="48.88432" lon="2.33108">
        <ele>59</ele>
        <time>2013-02-16T12:53:46Z</time>
      </trkpt>
      <trkpt lat="48.88437" lon="2.33079">
        <ele>56</ele>
        <time>2013-02-16T12:53:52Z</time>
      </trkpt>
      <trkpt lat="48.88441" lon="2.33068">
        <ele>57</ele>
        <time>2013-02-16T12:53:54Z</time>
      </trkpt>
      <trkpt lat="48.88443" lon="2.33055">
        <ele>53</ele>
        <time>2013-02-16T12:53:56Z</time>
      </trkpt>
      <trkpt lat="48.88443" lon="2.33044">
        <ele>54</ele>
        <time>2013-02-16T12:53:58Z</time>
      </trkpt>
      <trkpt lat="48.88445" lon="2.33026">
        <ele>54</ele>
        <time>2013-02-16T12:54:02Z</time>
      </trkpt>
      <trkpt lat="48.88446" lon="2.33018">
        <ele>58</ele>
        <time>2013-02-16T12:54:05Z</time>
      </trkpt>
      <trkpt lat="48.88451" lon="2.33003">
        <ele>62</ele>
        <time>2013-02-16T12:54:09Z</time>
      </trkpt>
      <trkpt lat="48.88453" lon="2.32994">
        <ele>63</ele>
        <time>2013-02-16T12:54:12Z</time>
      </trkpt>
      <trkpt lat="48.88454" lon="2.32984">
        <ele>64</ele>
        <time>2013-02-16T12:54:15Z</time>
      </trkpt>
      <trkpt lat="48.88462" lon="2.32975">
        <ele>48</ele>
        <time>2013-02-16T12:54:29Z</time>
      </trkpt>
      <trkpt lat="48.88464" lon="2.32966">
        <ele>49</ele>
        <time>2013-02-16T12:54:31Z</time>
      </trkpt>
      <trkpt lat="48.88467" lon="2.3296">
        <ele>48</ele>
        <time>2013-02-16T12:54:33Z</time>
      </trkpt>
      <trkpt lat="48.88467" lon="2.32951">
        <ele>57</ele>
        <time>2013-02-16T12:54:37Z</time>
      </trkpt>
      <trkpt lat="48.88465" lon="2.32949">
        <ele>59</ele>
        <time>2013-02-16T12:54:38Z</time>
      </trkpt>
      <trkpt lat="48.8846" lon="2.32941">
        <ele>80</ele>
        <time>2013-02-16T12:54:45Z</time>
      </trkpt>
      <trkpt lat="48.88456" lon="2.32932">
        <ele>79</ele>
        <time>2013-02-16T12:54:48Z</time>
      </trkpt>
      <trkpt lat="48.88451" lon="2.32924">
        <ele>80</ele>
        <time>2013-02-16T12:54:50Z</time>
      </trkpt>
      <trkpt lat="48.88443" lon="2.32908">
        <ele>83</ele>
        <time>2013-02-16T12:54:54Z</time>
      </trkpt>
      <trkpt lat="48.88441" lon="2.32897">
        <ele>87</ele>
        <time>2013-02-16T12:54:56Z</time>
      </trkpt>
      <trkpt lat="48.88434" lon="2.32888">
        <ele>86</ele>
        <time>2013-02-16T12:54:59Z</time>
      </trkpt>
      <trkpt lat="48.88422" lon="2.32867">
        <ele>87</ele>
        <time>2013-02-16T12:55:02Z</time>
      </trkpt>
      <trkpt lat="48.88412" lon="2.32848">
        <ele>97</ele>
        <time>2013-02-16T12:55:06Z</time>
      </trkpt>
      <trkpt lat="48.88406" lon="2.32842">
        <ele>93</ele>
        <time>2013-02-16T12:55:09Z</time>
      </trkpt>
      <trkpt lat="48.88401" lon="2.3284">
        <ele>88</ele>
        <time>2013-02-16T12:55:11Z</time>
      </trkpt>
      <trkpt lat="48.88395" lon="2.32836">
        <ele>83</ele>
        <time>2013-02-16T12:55:13Z</time>
      </trkpt>
      <trkpt lat="48.8839" lon="2.32827">
        <ele>79</ele>
        <time>2013-02-16T12:55:15Z</time>
      </trkpt>
      <trkpt lat="48.88386" lon="2.32815">
        <ele>74</ele>
        <time>2013-02-16T12:55:17Z</time>
      </trkpt>
      <trkpt lat="48.88376" lon="2.32788">
        <ele>68</ele>
        <time>2013-02-16T12:55:23Z</time>
      </trkpt>
      <trkpt lat="48.8837" lon="2.32784">
        <ele>70</ele>
        <time>2013-02-16T12:55:25Z</time>
      </trkpt>
      <trkpt lat="48.88367" lon="2.3278">
        <ele>59</ele>
        <time>2013-02-16T12:55:28Z</time>
      </trkpt>
      <trkpt lat="48.88368" lon="2.3277">
        <ele>59</ele>
        <time>2013-02-16T12:55:32Z</time>
      </trkpt>
      <trkpt lat="48.88371" lon="2.32751">
        <ele>58</ele>
        <time>2013-02-16T12:55:36Z</time>
      </trkpt>
      <trkpt lat="48.88368" lon="2.3274">
        <ele>59</ele>
        <time>2013-02-16T12:55:38Z</time>
      </trkpt>
      <trkpt lat="48.88361" lon="2.32737">
        <ele>59</ele>
        <time>2013-02-16T12:55:40Z</time>
      </trkpt>
      <trkpt lat="48.88358" lon="2.32733">
        <ele>60</ele>
        <time>2013-02-16T12:55:41Z</time>
      </trkpt>
      <trkpt lat="48.88353" lon="2.32724">
        <ele>55</ele>
        <time>2013-02-16T12:55:43Z</time>
      </trkpt>
      <trkpt lat="48.88352" lon="2.32715">
        <ele>54</ele>
        <time>2013-02-16T12:55:45Z</time>
      </trkpt>
      <trkpt lat="48.8835" lon="2.32704">
        <ele>54</ele>
        <time>2013-02-16T12:55:47Z</time>
      </trkpt>
      <trkpt lat="48.88349" lon="2.32692">
        <ele>60</ele>
        <time>2013-02-16T12:55:49Z</time>
      </trkpt>
      <trkpt lat="48.88347" lon="2.32681">
        <ele>48</ele>
        <time>2013-02-16T12:55:51Z</time>
      </trkpt>
      <trkpt lat="48.88345" lon="2.32666">
        <ele>50</ele>
        <time>2013-02-16T12:55:54Z</time>
      </trkpt>
      <trkpt lat="48.88342" lon="2.32657">
        <ele>52</ele>
        <time>2013-02-16T12:55:57Z</time>
      </trkpt>
      <trkpt lat="48.88332" lon="2.32633">
        <ele>52</ele>
        <time>2013-02-16T12:56:04Z</time>
      </trkpt>
      <trkpt lat="48.8833" lon="2.32621">
        <ele>55</ele>
        <time>2013-02-16T12:56:06Z</time>
      </trkpt>
      <trkpt lat="48.88327" lon="2.32613">
        <ele>55</ele>
        <time>2013-02-16T12:56:08Z</time>
      </trkpt>
      <trkpt lat="48.88326" lon="2.32602">
        <ele>52</ele>
        <time>2013-02-16T12:56:10Z</time>
      </trkpt>
      <trkpt lat="48.88322" lon="2.32583">
        <ele>56</ele>
        <time>2013-02-16T12:56:14Z</time>
      </trkpt>
      <trkpt lat="48.8832" lon="2.32574">
        <ele>61</ele>
        <time>2013-02-16T12:56:16Z</time>
      </trkpt>
      <trkpt lat="48.88318" lon="2.32564">
        <ele>61</ele>
        <time>2013-02-16T12:56:18Z</time>
      </trkpt>
      <trkpt lat="48.88315" lon="2.32555">
        <ele>61</ele>
        <time>2013-02-16T12:56:20Z</time>
      </trkpt>
      <trkpt lat="48.88314" lon="2.32543">
        <ele>63</ele>
        <time>2013-02-16T12:56:22Z</time>
      </trkpt>
      <trkpt lat="48.88314" lon="2.32533">
        <ele>55</ele>
        <time>2013-02-16T12:56:24Z</time>
      </trkpt>
      <trkpt lat="48.88313" lon="2.32522">
        <ele>59</ele>
        <time>2013-02-16T12:56:26Z</time>
      </trkpt>
      <trkpt lat="48.88312" lon="2.32514">
        <ele>58</ele>
        <time>2013-02-16T12:56:28Z</time>
      </trkpt>
      <trkpt lat="48.88305" lon="2.32479">
        <ele>54</ele>
        <time>2013-02-16T12:56:51Z</time>
      </trkpt>
      <trkpt lat="48.88299" lon="2.32478">
        <ele>56</ele>
        <time>2013-02-16T12:57:02Z</time>
      </trkpt>
      <trkpt lat="48.88291" lon="2.32479">
        <ele>53</ele>
        <time>2013-02-16T12:57:03Z</time>
      </trkpt>
      <trkpt lat="48.88289" lon="2.32472">
        <ele>71</ele>
        <time>2013-02-16T12:57:39Z</time>
      </trkpt>
      <trkpt lat="48.88294" lon="2.3248">
        <ele>69</ele>
        <time>2013-02-16T12:59:23Z</time>
      </trkpt>
      <trkpt lat="48.88297" lon="2.32472">
        <ele>69</ele>
        <time>2013-02-16T12:59:27Z</time>
      </trkpt>
      <trkpt lat="48.88297" lon="2.32463">
        <ele>67</ele>
        <time>2013-02-16T12:59:30Z</time>
      </trkpt>
      <trkpt lat="48.88297" lon="2.32453">
        <ele>59</ele>
        <time>2013-02-16T12:59:33Z</time>
      </trkpt>
      <trkpt lat="48.88296" lon="2.32449">
        <ele>64</ele>
        <time>2013-02-16T12:59:34Z</time>
      </trkpt>
      <trkpt lat="48.88295" lon="2.32441">
        <ele>75</ele>
        <time>2013-02-16T12:59:36Z</time>
      </trkpt>
      <trkpt lat="48.88289" lon="2.32421">
        <ele>65</ele>
        <time>2013-02-16T12:59:40Z</time>
      </trkpt>
      <trkpt lat="48.88286" lon="2.32414">
        <ele>64</ele>
        <time>2013-02-16T12:59:42Z</time>
      </trkpt>
      <trkpt lat="48.88286" lon="2.32406">
        <ele>55</ele>
        <time>2013-02-16T12:59:44Z</time>
      </trkpt>
      <trkpt lat="48.88282" lon="2.324">
        <ele>56</ele>
        <time>2013-02-16T12:59:47Z</time>
      </trkpt>
      <trkpt lat="48.8828" lon="2.32395">
        <ele>53</ele>
        <time>2013-02-16T12:59:50Z</time>
      </trkpt>
      <trkpt lat="48.88278" lon="2.32388">
        <ele>57</ele>
        <time>2013-02-16T12:59:53Z</time>
      </trkpt>
      <trkpt lat="48.88277" lon="2.32378">
        <ele>57</ele>
        <time>2013-02-16T13:00:01Z</time>
      </trkpt>
      <trkpt lat="48.88276" lon="2.32369">
        <ele>55</ele>
        <time>2013-02-16T13:00:03Z</time>
      </trkpt>
      <trkpt lat="48.88277" lon="2.32361">
        <ele>65</ele>
        <time>2013-02-16T13:00:06Z</time>
      </trkpt>
      <trkpt lat="48.88277" lon="2.32354">
        <ele>71</ele>
        <time>2013-02-16T13:00:08Z</time>
      </trkpt>
      <trkpt lat="48.88276" lon="2.32349">
        <ele>71</ele>
        <time>2013-02-16T13:00:10Z</time>
      </trkpt>
      <trkpt lat="48.88274" lon="2.32341">
        <ele>70</ele>
        <time>2013-02-16T13:00:13Z</time>
      </trkpt>
      <trkpt lat="48.88274" lon="2.32335">
        <ele>66</ele>
        <time>2013-02-16T13:00:15Z</time>
      </trkpt>
      <trkpt lat="48.88271" lon="2.32331">
        <ele>63</ele>
        <time>2013-02-16T13:00:17Z</time>
      </trkpt>
      <trkpt lat="48.88268" lon="2.32324">
        <ele>50</ele>
        <time>2013-02-16T13:00:26Z</time>
      </trkpt>
      <trkpt lat="48.88267" lon="2.32315">
        <ele>50</ele>
        <time>2013-02-16T13:00:33Z</time>
      </trkpt>
      <trkpt lat="48.88266" lon="2.32307">
        <ele>50</ele>
        <time>2013-02-16T13:00:35Z</time>
      </trkpt>
      <trkpt lat="48.88264" lon="2.32298">
        <ele>50</ele>
        <time>2013-02-16T13:00:37Z</time>
      </trkpt>
      <trkpt lat="48.88263" lon="2.3229">
        <ele>54</ele>
        <time>2013-02-16T13:00:39Z</time>
      </trkpt>
      <trkpt lat="48.88261" lon="2.32275">
        <ele>50</ele>
        <time>2013-02-16T13:00:44Z</time>
      </trkpt>
      <trkpt lat="48.88254" lon="2.32253">
        <ele>51</ele>
        <time>2013-02-16T13:00:54Z</time>
      </trkpt>
      <trkpt lat="48.8825" lon="2.32248">
        <ele>49</ele>
        <time>2013-02-16T13:00:56Z</time>
      </trkpt>
      <trkpt lat="48.88246" lon="2.32241">
        <ele>49</ele>
        <time>2013-02-16T13:01:01Z</time>
      </trkpt>
      <trkpt lat="48.88243" lon="2.32233">
        <ele>55</ele>
        <time>2013-02-16T13:01:04Z</time>
      </trkpt>
      <trkpt lat="48.88239" lon="2.32223">
        <ele>52</ele>
        <time>2013-02-16T13:01:07Z</time>
      </trkpt>
      <trkpt lat="48.88233" lon="2.32199">
        <ele>52</ele>
        <time>2013-02-16T13:01:14Z</time>
      </trkpt>
      <trkpt lat="48.88231" lon="2.32187">
        <ele>51</ele>
        <time>2013-02-16T13:01:16Z</time>
      </trkpt>
      <trkpt lat="48.88223" lon="2.3214">
        <ele>44</ele>
        <time>2013-02-16T13:01:26Z</time>
      </trkpt>
      <trkpt lat="48.88221" lon="2.32132">
        <ele>45</ele>
        <time>2013-02-16T13:01:28Z</time>
      </trkpt>
      <trkpt lat="48.88221" lon="2.32127">
        <ele>45</ele>
        <time>2013-02-16T13:01:29Z</time>
      </trkpt>
      <trkpt lat="48.88221" lon="2.32121">
        <ele>41</ele>
        <time>2013-02-16T13:01:30Z</time>
      </trkpt>
      <trkpt lat="48.8822" lon="2.32117">
        <ele>45</ele>
        <time>2013-02-16T13:01:31Z</time>
      </trkpt>
      <trkpt lat="48.88219" lon="2.32104">
        <ele>49</ele>
        <time>2013-02-16T13:01:34Z</time>
      </trkpt>
      <trkpt lat="48.8822" lon="2.32094">
        <ele>52</ele>
        <time>2013-02-16T13:01:37Z</time>
      </trkpt>
      <trkpt lat="48.88219" lon="2.32083">
        <ele>54</ele>
        <time>2013-02-16T13:01:39Z</time>
      </trkpt>
      <trkpt lat="48.88219" lon="2.32078">
        <ele>54</ele>
        <time>2013-02-16T13:01:40Z</time>
      </trkpt>
      <trkpt lat="48.88217" lon="2.32056">
        <ele>50</ele>
        <time>2013-02-16T13:01:44Z</time>
      </trkpt>
      <trkpt lat="48.88214" lon="2.32048">
        <ele>57</ele>
        <time>2013-02-16T13:02:20Z</time>
      </trkpt>
      <trkpt lat="48.8821" lon="2.32041">
        <ele>47</ele>
        <time>2013-02-16T13:02:23Z</time>
      </trkpt>
      <trkpt lat="48.88208" lon="2.32033">
        <ele>44</ele>
        <time>2013-02-16T13:02:26Z</time>
      </trkpt>
      <trkpt lat="48.88209" lon="2.32025">
        <ele>46</ele>
        <time>2013-02-16T13:02:31Z</time>
      </trkpt>
      <trkpt lat="48.88207" lon="2.32016">
        <ele>48</ele>
        <time>2013-02-16T13:02:34Z</time>
      </trkpt>
      <trkpt lat="48.88208" lon="2.32006">
        <ele>54</ele>
        <time>2013-02-16T13:02:36Z</time>
      </trkpt>
      <trkpt lat="48.88206" lon="2.31979">
        <ele>56</ele>
        <time>2013-02-16T13:02:42Z</time>
      </trkpt>
      <trkpt lat="48.88204" lon="2.3197">
        <ele>56</ele>
        <time>2013-02-16T13:02:44Z</time>
      </trkpt>
      <trkpt lat="48.88202" lon="2.31955">
        <ele>56</ele>
        <time>2013-02-16T13:02:47Z</time>
      </trkpt>
      <trkpt lat="48.88201" lon="2.31946">
        <ele>64</ele>
        <time>2013-02-16T13:02:49Z</time>
      </trkpt>
      <trkpt lat="48.88196" lon="2.31918">
        <ele>68</ele>
        <time>2013-02-16T13:02:56Z</time>
      </trkpt>
      <trkpt lat="48.88193" lon="2.31908">
        <ele>66</ele>
        <time>2013-02-16T13:02:59Z</time>
      </trkpt>
      <trkpt lat="48.88192" lon="2.31898">
        <ele>68</ele>
        <time>2013-02-16T13:03:02Z</time>
      </trkpt>
      <trkpt lat="48.88189" lon="2.3189">
        <ele>61</ele>
        <time>2013-02-16T13:03:04Z</time>
      </trkpt>
      <trkpt lat="48.88188" lon="2.31882">
        <ele>61</ele>
        <time>2013-02-16T13:03:06Z</time>
      </trkpt>
      <trkpt lat="48.88186" lon="2.31874">
        <ele>64</ele>
        <time>2013-02-16T13:03:08Z</time>
      </trkpt>
      <trkpt lat="48.8818" lon="2.31844">
        <ele>63</ele>
        <time>2013-02-16T13:03:15Z</time>
      </trkpt>
      <trkpt lat="48.88176" lon="2.31817">
        <ele>62</ele>
        <time>2013-02-16T13:03:19Z</time>
      </trkpt>
      <trkpt lat="48.88164" lon="2.31754">
        <ele>56</ele>
        <time>2013-02-16T13:03:28Z</time>
      </trkpt>
      <trkpt lat="48.88161" lon="2.31747">
        <ele>56</ele>
        <time>2013-02-16T13:03:30Z</time>
      </trkpt>
      <trkpt lat="48.88159" lon="2.31735">
        <ele>51</ele>
        <time>2013-02-16T13:03:32Z</time>
      </trkpt>
      <trkpt lat="48.88156" lon="2.31725">
        <ele>54</ele>
        <time>2013-02-16T13:03:34Z</time>
      </trkpt>
      <trkpt lat="48.88154" lon="2.31716">
        <ele>55</ele>
        <time>2013-02-16T13:03:36Z</time>
      </trkpt>
      <trkpt lat="48.88148" lon="2.31686">
        <ele>69</ele>
        <time>2013-02-16T13:03:43Z</time>
      </trkpt>
      <trkpt lat="48.88147" lon="2.31676">
        <ele>67</ele>
        <time>2013-02-16T13:03:45Z</time>
      </trkpt>
      <trkpt lat="48.88149" lon="2.31668">
        <ele>56</ele>
        <time>2013-02-16T13:03:49Z</time>
      </trkpt>
      <trkpt lat="48.88151" lon="2.31659">
        <ele>49</ele>
        <time>2013-02-16T13:03:52Z</time>
      </trkpt>
      <trkpt lat="48.8815" lon="2.31647">
        <ele>49</ele>
        <time>2013-02-16T13:03:54Z</time>
      </trkpt>
      <trkpt lat="48.88146" lon="2.31617">
        <ele>57</ele>
        <time>2013-02-16T13:04:12Z</time>
      </trkpt>
      <trkpt lat="48.88145" lon="2.31609">
        <ele>53</ele>
        <time>2013-02-16T13:04:15Z</time>
      </trkpt>
      <trkpt lat="48.88141" lon="2.31594">
        <ele>48</ele>
        <time>2013-02-16T13:04:18Z</time>
      </trkpt>
      <trkpt lat="48.88136" lon="2.31578">
        <ele>43</ele>
        <time>2013-02-16T13:04:22Z</time>
      </trkpt>
      <trkpt lat="48.88135" lon="2.31566">
        <ele>37</ele>
        <time>2013-02-16T13:04:26Z</time>
      </trkpt>
      <trkpt lat="48.88132" lon="2.31542">
        <ele>41</ele>
        <time>2013-02-16T13:04:31Z</time>
      </trkpt>
      <trkpt lat="48.88131" lon="2.31531">
        <ele>47</ele>
        <time>2013-02-16T13:04:34Z</time>
      </trkpt>
      <trkpt lat="48.88128" lon="2.31523">
        <ele>49</ele>
        <time>2013-02-16T13:04:36Z</time>
      </trkpt>
      <trkpt lat="48.88127" lon="2.31514">
        <ele>48</ele>
        <time>2013-02-16T13:04:38Z</time>
      </trkpt>
      <trkpt lat="48.88126" lon="2.31505">
        <ele>43</ele>
        <time>2013-02-16T13:04:40Z</time>
      </trkpt>
      <trkpt lat="48.88124" lon="2.31493">
        <ele>44</ele>
        <time>2013-02-16T13:04:42Z</time>
      </trkpt>
      <trkpt lat="48.88121" lon="2.31483">
        <ele>41</ele>
        <time>2013-02-16T13:04:44Z</time>
      </trkpt>
      <trkpt lat="48.88115" lon="2.31455">
        <ele>55</ele>
        <time>2013-02-16T13:04:49Z</time>
      </trkpt>
      <trkpt lat="48.88114" lon="2.31443">
        <ele>54</ele>
        <time>2013-02-16T13:04:51Z</time>
      </trkpt>
      <trkpt lat="48.88113" lon="2.31431">
        <ele>62</ele>
        <time>2013-02-16T13:04:53Z</time>
      </trkpt>
      <trkpt lat="48.88109" lon="2.31416">
        <ele>64</ele>
        <time>2013-02-16T13:04:55Z</time>
      </trkpt>
      <trkpt lat="48.88108" lon="2.31405">
        <ele>62</ele>
        <time>2013-02-16T13:04:57Z</time>
      </trkpt>
      <trkpt lat="48.88108" lon="2.31392">
        <ele>70</ele>
        <time>2013-02-16T13:04:59Z</time>
      </trkpt>
      <trkpt lat="48.88106" lon="2.31356">
        <ele>77</ele>
        <time>2013-02-16T13:05:04Z</time>
      </trkpt>
      <trkpt lat="48.88106" lon="2.3134">
        <ele>80</ele>
        <time>2013-02-16T13:05:06Z</time>
      </trkpt>
      <trkpt lat="48.88105" lon="2.31332">
        <ele>77</ele>
        <time>2013-02-16T13:05:07Z</time>
      </trkpt>
      <trkpt lat="48.88104" lon="2.31318">
        <ele>80</ele>
        <time>2013-02-16T13:05:09Z</time>
      </trkpt>
      <trkpt lat="48.88102" lon="2.31308">
        <ele>80</ele>
        <time>2013-02-16T13:05:11Z</time>
      </trkpt>
      <trkpt lat="48.88096" lon="2.31275">
        <ele>80</ele>
        <time>2013-02-16T13:05:16Z</time>
      </trkpt>
      <trkpt lat="48.88096" lon="2.31262">
        <ele>78</ele>
        <time>2013-02-16T13:05:19Z</time>
      </trkpt>
      <trkpt lat="48.88097" lon="2.3125">
        <ele>78</ele>
        <time>2013-02-16T13:05:23Z</time>
      </trkpt>
      <trkpt lat="48.88104" lon="2.31242">
        <ele>77</ele>
        <time>2013-02-16T13:05:32Z</time>
      </trkpt>
      <trkpt lat="48.88097" lon="2.31228">
        <ele>86</ele>
        <time>2013-02-16T13:05:48Z</time>
      </trkpt>
      <trkpt lat="48.88093" lon="2.31221">
        <ele>103</ele>
        <time>2013-02-16T13:05:52Z</time>
      </trkpt>
      <trkpt lat="48.88082" lon="2.31195">
        <ele>83</ele>
        <time>2013-02-16T13:06:05Z</time>
      </trkpt>
      <trkpt lat="48.88081" lon="2.3119">
        <ele>77</ele>
        <time>2013-02-16T13:06:06Z</time>
      </trkpt>
      <trkpt lat="48.8808" lon="2.31178">
        <ele>74</ele>
        <time>2013-02-16T13:06:08Z</time>
      </trkpt>
      <trkpt lat="48.88075" lon="2.31145">
        <ele>67</ele>
        <time>2013-02-16T13:06:13Z</time>
      </trkpt>
      <trkpt lat="48.88073" lon="2.31135">
        <ele>64</ele>
        <time>2013-02-16T13:06:15Z</time>
      </trkpt>
      <trkpt lat="48.8807" lon="2.31123">
        <ele>64</ele>
        <time>2013-02-16T13:06:17Z</time>
      </trkpt>
      <trkpt lat="48.88065" lon="2.31089">
        <ele>59</ele>
        <time>2013-02-16T13:06:22Z</time>
      </trkpt>
      <trkpt lat="48.88064" lon="2.31076">
        <ele>58</ele>
        <time>2013-02-16T13:06:24Z</time>
      </trkpt>
      <trkpt lat="48.88061" lon="2.31043">
        <ele>61</ele>
        <time>2013-02-16T13:06:29Z</time>
      </trkpt>
      <trkpt lat="48.88057" lon="2.31028">
        <ele>60</ele>
        <time>2013-02-16T13:06:31Z</time>
      </trkpt>
      <trkpt lat="48.88055" lon="2.31021">
        <ele>62</ele>
        <time>2013-02-16T13:06:32Z</time>
      </trkpt>
      <trkpt lat="48.88053" lon="2.31004">
        <ele>62</ele>
        <time>2013-02-16T13:06:34Z</time>
      </trkpt>
      <trkpt lat="48.88054" lon="2.30996">
        <ele>62</ele>
        <time>2013-02-16T13:06:35Z</time>
      </trkpt>
      <trkpt lat="48.8806" lon="2.30965">
        <ele>54</ele>
        <time>2013-02-16T13:06:39Z</time>
      </trkpt>
      <trkpt lat="48.88062" lon="2.30958">
        <ele>52</ele>
        <time>2013-02-16T13:06:40Z</time>
      </trkpt>
      <trkpt lat="48.88068" lon="2.3095">
        <ele>46</ele>
        <time>2013-02-16T13:06:42Z</time>
      </trkpt>
      <trkpt lat="48.8807" lon="2.30942">
        <ele>50</ele>
        <time>2013-02-16T13:06:44Z</time>
      </trkpt>
      <trkpt lat="48.88071" lon="2.30931">
        <ele>46</ele>
        <time>2013-02-16T13:06:46Z</time>
      </trkpt>
      <trkpt lat="48.88069" lon="2.3092">
        <ele>49</ele>
        <time>2013-02-16T13:06:48Z</time>
      </trkpt>
      <trkpt lat="48.88071" lon="2.30912">
        <ele>41</ele>
        <time>2013-02-16T13:06:52Z</time>
      </trkpt>
      <trkpt lat="48.8807" lon="2.30903">
        <ele>38</ele>
        <time>2013-02-16T13:06:55Z</time>
      </trkpt>
      <trkpt lat="48.88064" lon="2.30872">
        <ele>36</ele>
        <time>2013-02-16T13:07:01Z</time>
      </trkpt>
      <trkpt lat="48.88063" lon="2.30864">
        <ele>31</ele>
        <time>2013-02-16T13:07:03Z</time>
      </trkpt>
      <trkpt lat="48.88057" lon="2.30862">
        <ele>47</ele>
        <time>2013-02-16T13:07:15Z</time>
      </trkpt>
      <trkpt lat="48.88056" lon="2.30863">
        <ele>44</ele>
        <time>2013-02-16T13:07:18Z</time>
      </trkpt>
      <trkpt lat="48.88052" lon="2.30857">
        <ele>43</ele>
        <time>2013-02-16T13:07:19Z</time>
      </trkpt>
      <trkpt lat="48.88053" lon="2.30849">
        <ele>42</ele>
        <time>2013-02-16T13:07:26Z</time>
      </trkpt>
      <trkpt lat="48.88051" lon="2.3084">
        <ele>43</ele>
        <time>2013-02-16T13:07:29Z</time>
      </trkpt>
      <trkpt lat="48.88049" lon="2.3083">
        <ele>46</ele>
        <time>2013-02-16T13:07:32Z</time>
      </trkpt>
      <trkpt lat="48.88047" lon="2.30822">
        <ele>49</ele>
        <time>2013-02-16T13:07:34Z</time>
      </trkpt>
      <trkpt lat="48.88044" lon="2.30815">
        <ele>49</ele>
        <time>2013-02-16T13:07:36Z</time>
      </trkpt>
      <trkpt lat="48.88041" lon="2.30807">
        <ele>51</ele>
        <time>2013-02-16T13:07:38Z</time>
      </trkpt>
      <trkpt lat="48.88036" lon="2.30799">
        <ele>44</ele>
        <time>2013-02-16T13:07:41Z</time>
      </trkpt>
      <trkpt lat="48.88033" lon="2.3079">
        <ele>50</ele>
        <time>2013-02-16T13:07:43Z</time>
      </trkpt>
      <trkpt lat="48.8803" lon="2.30781">
        <ele>48</ele>
        <time>2013-02-16T13:07:45Z</time>
      </trkpt>
      <trkpt lat="48.88018" lon="2.30722">
        <ele>50</ele>
        <time>2013-02-16T13:07:56Z</time>
      </trkpt>
      <trkpt lat="48.8801" lon="2.30699">
        <ele>54</ele>
        <time>2013-02-16T13:08:01Z</time>
      </trkpt>
      <trkpt lat="48.8799" lon="2.30639">
        <ele>56</ele>
        <time>2013-02-16T13:08:13Z</time>
      </trkpt>
      <trkpt lat="48.87985" lon="2.30629">
        <ele>57</ele>
        <time>2013-02-16T13:08:15Z</time>
      </trkpt>
      <trkpt lat="48.8798" lon="2.30614">
        <ele>49</ele>
        <time>2013-02-16T13:08:18Z</time>
      </trkpt>
      <trkpt lat="48.8797" lon="2.3059">
        <ele>63</ele>
        <time>2013-02-16T13:08:24Z</time>
      </trkpt>
      <trkpt lat="48.87964" lon="2.30569">
        <ele>60</ele>
        <time>2013-02-16T13:08:28Z</time>
      </trkpt>
      <trkpt lat="48.87961" lon="2.3056">
        <ele>62</ele>
        <time>2013-02-16T13:08:30Z</time>
      </trkpt>
      <trkpt lat="48.87957" lon="2.30544">
        <ele>68</ele>
        <time>2013-02-16T13:08:33Z</time>
      </trkpt>
      <trkpt lat="48.87953" lon="2.30534">
        <ele>84</ele>
        <time>2013-02-16T13:08:35Z</time>
      </trkpt>
      <trkpt lat="48.87952" lon="2.30521">
        <ele>72</ele>
        <time>2013-02-16T13:08:38Z</time>
      </trkpt>
      <trkpt lat="48.87951" lon="2.3051">
        <ele>74</ele>
        <time>2013-02-16T13:08:41Z</time>
      </trkpt>
      <trkpt lat="48.8795" lon="2.305">
        <ele>71</ele>
        <time>2013-02-16T13:08:44Z</time>
      </trkpt>
      <trkpt lat="48.87949" lon="2.30488">
        <ele>69</ele>
        <time>2013-02-16T13:08:47Z</time>
      </trkpt>
      <trkpt lat="48.87946" lon="2.30481">
        <ele>64</ele>
        <time>2013-02-16T13:08:49Z</time>
      </trkpt>
      <trkpt lat="48.87945" lon="2.30472">
        <ele>61</ele>
        <time>2013-02-16T13:08:51Z</time>
      </trkpt>
      <trkpt lat="48.87938" lon="2.30444">
        <ele>53</ele>
        <time>2013-02-16T13:08:57Z</time>
      </trkpt>
      <trkpt lat="48.87934" lon="2.30435">
        <ele>51</ele>
        <time>2013-02-16T13:08:59Z</time>
      </trkpt>
      <trkpt lat="48.87932" lon="2.30424">
        <ele>54</ele>
        <time>2013-02-16T13:09:01Z</time>
      </trkpt>
      <trkpt lat="48.87931" lon="2.30411">
        <ele>60</ele>
        <time>2013-02-16T13:09:04Z</time>
      </trkpt>
      <trkpt lat="48.8793" lon="2.30382">
        <ele>54</ele>
        <time>2013-02-16T13:09:12Z</time>
      </trkpt>
      <trkpt lat="48.87933" lon="2.30368">
        <ele>54</ele>
        <time>2013-02-16T13:09:15Z</time>
      </trkpt>
      <trkpt lat="48.87931" lon="2.3036">
        <ele>57</ele>
        <time>2013-02-16T13:09:18Z</time>
      </trkpt>
      <trkpt lat="48.87929" lon="2.30347">
        <ele>63</ele>
        <time>2013-02-16T13:09:21Z</time>
      </trkpt>
      <trkpt lat="48.87929" lon="2.30335">
        <ele>66</ele>
        <time>2013-02-16T13:09:23Z</time>
      </trkpt>
      <trkpt lat="48.87932" lon="2.30326">
        <ele>60</ele>
        <time>2013-02-16T13:09:25Z</time>
      </trkpt>
      <trkpt lat="48.87936" lon="2.30309">
        <ele>43</ele>
        <time>2013-02-16T13:09:33Z</time>
      </trkpt>
      <trkpt lat="48.87935" lon="2.30298">
        <ele>46</ele>
        <time>2013-02-16T13:09:37Z</time>
      </trkpt>
      <trkpt lat="48.87929" lon="2.3029">
        <ele>50</ele>
        <time>2013-02-16T13:09:42Z</time>
      </trkpt>
      <trkpt lat="48.87925" lon="2.30286">
        <ele>53</ele>
        <time>2013-02-16T13:09:44Z</time>
      </trkpt>
      <trkpt lat="48.8792" lon="2.30278">
        <ele>53</ele>
        <time>2013-02-16T13:09:47Z</time>
      </trkpt>
      <trkpt lat="48.87918" lon="2.3027">
        <ele>50</ele>
        <time>2013-02-16T13:09:49Z</time>
      </trkpt>
      <trkpt lat="48.87916" lon="2.30256">
        <ele>52</ele>
        <time>2013-02-16T13:09:52Z</time>
      </trkpt>
      <trkpt lat="48.87915" lon="2.30248">
        <ele>52</ele>
        <time>2013-02-16T13:09:54Z</time>
      </trkpt>
      <trkpt lat="48.87914" lon="2.30238">
        <ele>49</ele>
        <time>2013-02-16T13:10:00Z</time>
      </trkpt>
      <trkpt lat="48.87908" lon="2.30235">
        <ele>54</ele>
        <time>2013-02-16T13:10:03Z</time>
      </trkpt>
      <trkpt lat="48.87904" lon="2.3023">
        <ele>58</ele>
        <time>2013-02-16T13:10:06Z</time>
      </trkpt>
      <trkpt lat="48.879" lon="2.30223">
        <ele>60</ele>
        <time>2013-02-16T13:10:08Z</time>
      </trkpt>
      <trkpt lat="48.87897" lon="2.30216">
        <ele>55</ele>
        <time>2013-02-16T13:10:10Z</time>
      </trkpt>
      <trkpt lat="48.87894" lon="2.30207">
        <ele>62</ele>
        <time>2013-02-16T13:10:12Z</time>
      </trkpt>
      <trkpt lat="48.87896" lon="2.30199">
        <ele>66</ele>
        <time>2013-02-16T13:10:13Z</time>
      </trkpt>
      <trkpt lat="48.87895" lon="2.30188">
        <ele>61</ele>
        <time>2013-02-16T13:10:15Z</time>
      </trkpt>
      <trkpt lat="48.87892" lon="2.30174">
        <ele>60</ele>
        <time>2013-02-16T13:10:18Z</time>
      </trkpt>
      <trkpt lat="48.8789" lon="2.30166">
        <ele>61</ele>
        <time>2013-02-16T13:10:20Z</time>
      </trkpt>
      <trkpt lat="48.87885" lon="2.30159">
        <ele>61</ele>
        <time>2013-02-16T13:10:22Z</time>
      </trkpt>
      <trkpt lat="48.8788" lon="2.30156">
        <ele>66</ele>
        <time>2013-02-16T13:10:24Z</time>
      </trkpt>
      <trkpt lat="48.87876" lon="2.30149">
        <ele>60</ele>
        <time>2013-02-16T13:10:27Z</time>
      </trkpt>
      <trkpt lat="48.87869" lon="2.30129">
        <ele>74</ele>
        <time>2013-02-16T13:10:32Z</time>
      </trkpt>
      <trkpt lat="48.8787" lon="2.30121">
        <ele>66</ele>
        <time>2013-02-16T13:10:33Z</time>
      </trkpt>
      <trkpt lat="48.87871" lon="2.30108">
        <ele>61</ele>
        <time>2013-02-16T13:10:35Z</time>
      </trkpt>
      <trkpt lat="48.87872" lon="2.301">
        <ele>66</ele>
        <time>2013-02-16T13:10:37Z</time>
      </trkpt>
      <trkpt lat="48.87875" lon="2.30091">
        <ele>69</ele>
        <time>2013-02-16T13:10:50Z</time>
      </trkpt>
      <trkpt lat="48.87872" lon="2.30084">
        <ele>65</ele>
        <time>2013-02-16T13:10:58Z</time>
      </trkpt>
      <trkpt lat="48.87868" lon="2.30077">
        <ele>59</ele>
        <time>2013-02-16T13:11:00Z</time>
      </trkpt>
      <trkpt lat="48.87855" lon="2.30053">
        <ele>66</ele>
        <time>2013-02-16T13:11:06Z</time>
      </trkpt>
      <trkpt lat="48.87851" lon="2.30043">
        <ele>66</ele>
        <time>2013-02-16T13:11:08Z</time>
      </trkpt>
      <trkpt lat="48.87846" lon="2.30023">
        <ele>68</ele>
        <time>2013-02-16T13:11:14Z</time>
      </trkpt>
      <trkpt lat="48.87844" lon="2.30013">
        <ele>68</ele>
        <time>2013-02-16T13:11:16Z</time>
      </trkpt>
      <trkpt lat="48.87838" lon="2.29983">
        <ele>76</ele>
        <time>2013-02-16T13:11:22Z</time>
      </trkpt>
      <trkpt lat="48.87835" lon="2.29973">
        <ele>70</ele>
        <time>2013-02-16T13:11:24Z</time>
      </trkpt>
      <trkpt lat="48.8782" lon="2.29917">
        <ele>55</ele>
        <time>2013-02-16T13:11:42Z</time>
      </trkpt>
      <trkpt lat="48.87824" lon="2.29903">
        <ele>59</ele>
        <time>2013-02-16T13:11:45Z</time>
      </trkpt>
      <trkpt lat="48.87828" lon="2.29897">
        <ele>61</ele>
        <time>2013-02-16T13:11:46Z</time>
      </trkpt>
      <trkpt lat="48.87833" lon="2.2989">
        <ele>61</ele>
        <time>2013-02-16T13:11:47Z</time>
      </trkpt>
      <trkpt lat="48.87838" lon="2.29886">
        <ele>57</ele>
        <time>2013-02-16T13:11:48Z</time>
      </trkpt>
      <trkpt lat="48.87847" lon="2.29875">
        <ele>56</ele>
        <time>2013-02-16T13:11:50Z</time>
      </trkpt>
      <trkpt lat="48.87854" lon="2.29865">
        <ele>36</ele>
        <time>2013-02-16T13:11:57Z</time>
      </trkpt>
      <trkpt lat="48.87854" lon="2.29855">
        <ele>45</ele>
        <time>2013-02-16T13:12:31Z</time>
      </trkpt>
      <trkpt lat="48.87854" lon="2.29846">
        <ele>46</ele>
        <time>2013-02-16T13:12:34Z</time>
      </trkpt>
      <trkpt lat="48.87854" lon="2.29835">
        <ele>39</ele>
        <time>2013-02-16T13:12:37Z</time>
      </trkpt>
      <trkpt lat="48.87853" lon="2.29817">
        <ele>41</ele>
        <time>2013-02-16T13:12:41Z</time>
      </trkpt>
      <trkpt lat="48.87849" lon="2.29811">
        <ele>37</ele>
        <time>2013-02-16T13:12:43Z</time>
      </trkpt>
      <trkpt lat="48.87834" lon="2.29788">
        <ele>46</ele>
        <time>2013-02-16T13:12:50Z</time>
      </trkpt>
      <trkpt lat="48.87828" lon="2.29781">
        <ele>48</ele>
        <time>2013-02-16T13:12:52Z</time>
      </trkpt>
      <trkpt lat="48.87823" lon="2.29779">
        <ele>45</ele>
        <time>2013-02-16T13:12:54Z</time>
      </trkpt>
      <trkpt lat="48.87817" lon="2.29775">
        <ele>45</ele>
        <time>2013-02-16T13:12:57Z</time>
      </trkpt>
      <trkpt lat="48.87813" lon="2.2977">
        <ele>48</ele>
        <time>2013-02-16T13:12:59Z</time>
      </trkpt>
      <trkpt lat="48.87803" lon="2.29755">
        <ele>44</ele>
        <time>2013-02-16T13:13:04Z</time>
      </trkpt>
      <trkpt lat="48.87802" lon="2.29747">
        <ele>33</ele>
        <time>2013-02-16T13:13:26Z</time>
      </trkpt>
      <trkpt lat="48.87799" lon="2.2973">
        <ele>25</ele>
        <time>2013-02-16T13:13:46Z</time>
      </trkpt>
      <trkpt lat="48.87795" lon="2.29723">
        <ele>36</ele>
        <time>2013-02-16T13:13:55Z</time>
      </trkpt>
      <trkpt lat="48.87791" lon="2.29746">
        <ele>42</ele>
        <time>2013-02-16T13:14:01Z</time>
      </trkpt>
      <trkpt lat="48.87787" lon="2.29757">
        <ele>40</ele>
        <time>2013-02-16T13:14:03Z</time>
      </trkpt>
      <trkpt lat="48.87782" lon="2.2976">
        <ele>38</ele>
        <time>2013-02-16T13:14:04Z</time>
      </trkpt>
      <trkpt lat="48.87772" lon="2.29762">
        <ele>37</ele>
        <time>2013-02-16T13:14:06Z</time>
      </trkpt>
      <trkpt lat="48.87765" lon="2.29762">
        <ele>33</ele>
        <time>2013-02-16T13:14:08Z</time>
      </trkpt>
      <trkpt lat="48.87752" lon="2.29758">
        <ele>38</ele>
        <time>2013-02-16T13:14:15Z</time>
      </trkpt>
      <trkpt lat="48.87749" lon="2.2975">
        <ele>41</ele>
        <time>2013-02-16T13:14:17Z</time>
      </trkpt>
      <trkpt lat="48.87745" lon="2.29744">
        <ele>37</ele>
        <time>2013-02-16T13:14:20Z</time>
      </trkpt>
      <trkpt lat="48.87738" lon="2.29745">
        <ele>32</ele>
        <time>2013-02-16T13:14:22Z</time>
      </trkpt>
      <trkpt lat="48.87732" lon="2.29744">
        <ele>40</ele>
        <time>2013-02-16T13:14:24Z</time>
      </trkpt>
      <trkpt lat="48.87728" lon="2.29737">
        <ele>37</ele>
        <time>2013-02-16T13:14:26Z</time>
      </trkpt>
      <trkpt lat="48.87723" lon="2.29732">
        <ele>33</ele>
        <time>2013-02-16T13:14:28Z</time>
      </trkpt>
      <trkpt lat="48.87718" lon="2.29732">
        <ele>36</ele>
        <time>2013-02-16T13:14:30Z</time>
      </trkpt>
      <trkpt lat="48.87702" lon="2.29735">
        <ele>45</ele>
        <time>2013-02-16T13:14:35Z</time>
      </trkpt>
      <trkpt lat="48.87685" lon="2.29734">
        <ele>48</ele>
        <time>2013-02-16T13:14:39Z</time>
      </trkpt>
      <trkpt lat="48.8768" lon="2.29726">
        <ele>51</ele>
        <time>2013-02-16T13:14:41Z</time>
      </trkpt>
      <trkpt lat="48.87676" lon="2.29715">
        <ele>47</ele>
        <time>2013-02-16T13:14:43Z</time>
      </trkpt>
      <trkpt lat="48.87672" lon="2.2971">
        <ele>44</ele>
        <time>2013-02-16T13:14:45Z</time>
      </trkpt>
      <trkpt lat="48.87668" lon="2.29705">
        <ele>41</ele>
        <time>2013-02-16T13:14:48Z</time>
      </trkpt>
      <trkpt lat="48.87663" lon="2.29699">
        <ele>39</ele>
        <time>2013-02-16T13:14:52Z</time>
      </trkpt>
      <trkpt lat="48.87656" lon="2.297">
        <ele>36</ele>
        <time>2013-02-16T13:14:55Z</time>
      </trkpt>
      <trkpt lat="48.8765" lon="2.29696">
        <ele>29</ele>
        <time>2013-02-16T13:14:58Z</time>
      </trkpt>
      <trkpt lat="48.87646" lon="2.2969">
        <ele>39</ele>
        <time>2013-02-16T13:15:01Z</time>
      </trkpt>
      <trkpt lat="48.87632" lon="2.29678">
        <ele>33</ele>
        <time>2013-02-16T13:15:16Z</time>
      </trkpt>
      <trkpt lat="48.87625" lon="2.29674">
        <ele>36</ele>
        <time>2013-02-16T13:15:19Z</time>
      </trkpt>
      <trkpt lat="48.87621" lon="2.29668">
        <ele>42</ele>
        <time>2013-02-16T13:15:31Z</time>
      </trkpt>
      <trkpt lat="48.87605" lon="2.29649">
        <ele>44</ele>
        <time>2013-02-16T13:15:39Z</time>
      </trkpt>
      <trkpt lat="48.87601" lon="2.2964">
        <ele>44</ele>
        <time>2013-02-16T13:15:42Z</time>
      </trkpt>
      <trkpt lat="48.87596" lon="2.29638">
        <ele>43</ele>
        <time>2013-02-16T13:15:46Z</time>
      </trkpt>
      <trkpt lat="48.87589" lon="2.29638">
        <ele>47</ele>
        <time>2013-02-16T13:15:49Z</time>
      </trkpt>
      <trkpt lat="48.87582" lon="2.29636">
        <ele>48</ele>
        <time>2013-02-16T13:15:52Z</time>
      </trkpt>
      <trkpt lat="48.87578" lon="2.29634">
        <ele>47</ele>
        <time>2013-02-16T13:15:55Z</time>
      </trkpt>
      <trkpt lat="48.8757" lon="2.29628">
        <ele>50</ele>
        <time>2013-02-16T13:16:09Z</time>
      </trkpt>
      <trkpt lat="48.87557" lon="2.2962">
        <ele>36</ele>
        <time>2013-02-16T13:16:16Z</time>
      </trkpt>
      <trkpt lat="48.87553" lon="2.29615">
        <ele>46</ele>
        <time>2013-02-16T13:16:25Z</time>
      </trkpt>
      <trkpt lat="48.8755" lon="2.29607">
        <ele>38</ele>
        <time>2013-02-16T13:16:51Z</time>
      </trkpt>
      <trkpt lat="48.87545" lon="2.29602">
        <ele>38</ele>
        <time>2013-02-16T13:16:57Z</time>
      </trkpt>
      <trkpt lat="48.87538" lon="2.29593">
        <ele>42</ele>
        <time>2013-02-16T13:17:02Z</time>
      </trkpt>
      <trkpt lat="48.87533" lon="2.29582">
        <ele>44</ele>
        <time>2013-02-16T13:17:12Z</time>
      </trkpt>
      <trkpt lat="48.87529" lon="2.29576">
        <ele>45</ele>
        <time>2013-02-16T13:17:15Z</time>
      </trkpt>
      <trkpt lat="48.87528" lon="2.29572">
        <ele>44</ele>
        <time>2013-02-16T13:17:17Z</time>
      </trkpt>
      <trkpt lat="48.8753" lon="2.29564">
        <ele>46</ele>
        <time>2013-02-16T13:17:20Z</time>
      </trkpt>
      <trkpt lat="48.87529" lon="2.29555">
        <ele>51</ele>
        <time>2013-02-16T13:17:22Z</time>
      </trkpt>
      <trkpt lat="48.87532" lon="2.29547">
        <ele>55</ele>
        <time>2013-02-16T13:17:24Z</time>
      </trkpt>
      <trkpt lat="48.87533" lon="2.29538">
        <ele>59</ele>
        <time>2013-02-16T13:17:26Z</time>
      </trkpt>
      <trkpt lat="48.87533" lon="2.29528">
        <ele>58</ele>
        <time>2013-02-16T13:17:28Z</time>
      </trkpt>
      <trkpt lat="48.87534" lon="2.2951">
        <ele>60</ele>
        <time>2013-02-16T13:17:33Z</time>
      </trkpt>
      <trkpt lat="48.87535" lon="2.29501">
        <ele>56</ele>
        <time>2013-02-16T13:17:35Z</time>
      </trkpt>
      <trkpt lat="48.87538" lon="2.29495">
        <ele>61</ele>
        <time>2013-02-16T13:17:40Z</time>
      </trkpt>
      <trkpt lat="48.87536" lon="2.29482">
        <ele>65</ele>
        <time>2013-02-16T13:17:49Z</time>
      </trkpt>
      <trkpt lat="48.87529" lon="2.29471">
        <ele>75</ele>
        <time>2013-02-16T13:17:51Z</time>
      </trkpt>
      <trkpt lat="48.87527" lon="2.29463">
        <ele>76</ele>
        <time>2013-02-16T13:17:53Z</time>
      </trkpt>
      <trkpt lat="48.87518" lon="2.29444">
        <ele>85</ele>
        <time>2013-02-16T13:18:04Z</time>
      </trkpt>
      <trkpt lat="48.87514" lon="2.29429">
        <ele>86</ele>
        <time>2013-02-16T13:18:07Z</time>
      </trkpt>
      <trkpt lat="48.87515" lon="2.29422">
        <ele>80</ele>
        <time>2013-02-16T13:18:08Z</time>
      </trkpt>
      <trkpt lat="48.87516" lon="2.29396">
        <ele>71</ele>
        <time>2013-02-16T13:18:11Z</time>
      </trkpt>
      <trkpt lat="48.87512" lon="2.29384">
        <ele>66</ele>
        <time>2013-02-16T13:18:13Z</time>
      </trkpt>
      <trkpt lat="48.8751" lon="2.29374">
        <ele>66</ele>
        <time>2013-02-16T13:18:15Z</time>
      </trkpt>
      <trkpt lat="48.87507" lon="2.29367">
        <ele>60</ele>
        <time>2013-02-16T13:18:19Z</time>
      </trkpt>
      <trkpt lat="48.87502" lon="2.29363">
        <ele>54</ele>
        <time>2013-02-16T13:18:22Z</time>
      </trkpt>
      <trkpt lat="48.87496" lon="2.29354">
        <ele>53</ele>
        <time>2013-02-16T13:18:25Z</time>
      </trkpt>
      <trkpt lat="48.87493" lon="2.29344">
        <ele>45</ele>
        <time>2013-02-16T13:18:27Z</time>
      </trkpt>
      <trkpt lat="48.87488" lon="2.2934">
        <ele>48</ele>
        <time>2013-02-16T13:18:29Z</time>
      </trkpt>
      <trkpt lat="48.87485" lon="2.29333">
        <ele>49</ele>
        <time>2013-02-16T13:18:31Z</time>
      </trkpt>
      <trkpt lat="48.87481" lon="2.29326">
        <ele>47</ele>
        <time>2013-02-16T13:18:34Z</time>
      </trkpt>
      <trkpt lat="48.87474" lon="2.29323">
        <ele>50</ele>
        <time>2013-02-16T13:18:37Z</time>
      </trkpt>
      <trkpt lat="48.87471" lon="2.29314">
        <ele>54</ele>
        <time>2013-02-16T13:18:40Z</time>
      </trkpt>
      <trkpt lat="48.8747" lon="2.29306">
        <ele>52</ele>
        <time>2013-02-16T13:18:44Z</time>
      </trkpt>
      <trkpt lat="48.87469" lon="2.29301">
        <ele>51</ele>
        <time>2013-02-16T13:18:47Z</time>
      </trkpt>
      <trkpt lat="48.87466" lon="2.29293">
        <ele>56</ele>
        <time>2013-02-16T13:18:51Z</time>
      </trkpt>
      <trkpt lat="48.87464" lon="2.2929">
        <ele>54</ele>
        <time>2013-02-16T13:18:52Z</time>
      </trkpt>
      <trkpt lat="48.87462" lon="2.29288">
        <ele>52</ele>
        <time>2013-02-16T13:18:53Z</time>
      </trkpt>
      <trkpt lat="48.87456" lon="2.29285">
        <ele>52</ele>
        <time>2013-02-16T13:18:55Z</time>
      </trkpt>
      <trkpt lat="48.8745" lon="2.29279">
        <ele>52</ele>
        <time>2013-02-16T13:18:59Z</time>
      </trkpt>
      <trkpt lat="48.87448" lon="2.29277">
        <ele>55</ele>
        <time>2013-02-16T13:19:00Z</time>
      </trkpt>
      <trkpt lat="48.87446" lon="2.29277">
        <ele>52</ele>
        <time>2013-02-16T13:19:01Z</time>
      </trkpt>
      <trkpt lat="48.87443" lon="2.29276">
        <ele>50</ele>
        <time>2013-02-16T13:19:02Z</time>
      </trkpt>
      <trkpt lat="48.87441" lon="2.29276">
        <ele>49</ele>
        <time>2013-02-16T13:19:03Z</time>
      </trkpt>
      <trkpt lat="48.87437" lon="2.29276">
        <ele>50</ele>
        <time>2013-02-16T13:19:05Z</time>
      </trkpt>
      <trkpt lat="48.8743" lon="2.29276">
        <ele>47</ele>
        <time>2013-02-16T13:19:10Z</time>
      </trkpt>
      <trkpt lat="48.87411" lon="2.29274">
        <ele>53</ele>
        <time>2013-02-16T13:19:18Z</time>
      </trkpt>
      <trkpt lat="48.87405" lon="2.29272">
        <ele>54</ele>
        <time>2013-02-16T13:19:20Z</time>
      </trkpt>
      <trkpt lat="48.87392" lon="2.29272">
        <ele>45</ele>
        <time>2013-02-16T13:19:24Z</time>
      </trkpt>
      <trkpt lat="48.87386" lon="2.29273">
        <ele>49</ele>
        <time>2013-02-16T13:19:26Z</time>
      </trkpt>
      <trkpt lat="48.87379" lon="2.2927">
        <ele>48</ele>
        <time>2013-02-16T13:19:32Z</time>
      </trkpt>
      <trkpt lat="48.87362" lon="2.29263">
        <ele>82</ele>
        <time>2013-02-16T13:19:58Z</time>
      </trkpt>
      <trkpt lat="48.87357" lon="2.29262">
        <ele>66</ele>
        <time>2013-02-16T13:20:01Z</time>
      </trkpt>
      <trkpt lat="48.87351" lon="2.29264">
        <ele>56</ele>
        <time>2013-02-16T13:20:04Z</time>
      </trkpt>
      <trkpt lat="48.87346" lon="2.29267">
        <ele>49</ele>
        <time>2013-02-16T13:20:07Z</time>
      </trkpt>
      <trkpt lat="48.87328" lon="2.29279">
        <ele>54</ele>
        <time>2013-02-16T13:20:15Z</time>
      </trkpt>
      <trkpt lat="48.87324" lon="2.29284">
        <ele>58</ele>
        <time>2013-02-16T13:20:17Z</time>
      </trkpt>
      <trkpt lat="48.87318" lon="2.29288">
        <ele>59</ele>
        <time>2013-02-16T13:20:19Z</time>
      </trkpt>
      <trkpt lat="48.87313" lon="2.29293">
        <ele>53</ele>
        <time>2013-02-16T13:20:21Z</time>
      </trkpt>
      <trkpt lat="48.8731" lon="2.29299">
        <ele>49</ele>
        <time>2013-02-16T13:20:23Z</time>
      </trkpt>
      <trkpt lat="48.87305" lon="2.29303">
        <ele>45</ele>
        <time>2013-02-16T13:20:26Z</time>
      </trkpt>
      <trkpt lat="48.873" lon="2.29304">
        <ele>49</ele>
        <time>2013-02-16T13:20:30Z</time>
      </trkpt>
      <trkpt lat="48.87295" lon="2.29303">
        <ele>59</ele>
        <time>2013-02-16T13:20:37Z</time>
      </trkpt>
      <trkpt lat="48.87289" lon="2.29304">
        <ele>54</ele>
        <time>2013-02-16T13:20:46Z</time>
      </trkpt>
      <trkpt lat="48.87285" lon="2.2931">
        <ele>53</ele>
        <time>2013-02-16T13:20:50Z</time>
      </trkpt>
      <trkpt lat="48.87281" lon="2.29316">
        <ele>54</ele>
        <time>2013-02-16T13:20:52Z</time>
      </trkpt>
      <trkpt lat="48.87277" lon="2.29322">
        <ele>58</ele>
        <time>2013-02-16T13:20:54Z</time>
      </trkpt>
      <trkpt lat="48.87263" lon="2.29342">
        <ele>61</ele>
        <time>2013-02-16T13:21:02Z</time>
      </trkpt>
      <trkpt lat="48.87259" lon="2.29351">
        <ele>62</ele>
        <time>2013-02-16T13:21:05Z</time>
      </trkpt>
      <trkpt lat="48.87256" lon="2.29362">
        <ele>65</ele>
        <time>2013-02-16T13:21:09Z</time>
      </trkpt>
      <trkpt lat="48.8725" lon="2.29373">
        <ele>53</ele>
        <time>2013-02-16T13:21:14Z</time>
      </trkpt>
      <trkpt lat="48.87245" lon="2.29374">
        <ele>48</ele>
        <time>2013-02-16T13:21:16Z</time>
      </trkpt>
      <trkpt lat="48.8724" lon="2.2938">
        <ele>50</ele>
        <time>2013-02-16T13:21:18Z</time>
      </trkpt>
      <trkpt lat="48.87233" lon="2.29392">
        <ele>55</ele>
        <time>2013-02-16T13:21:22Z</time>
      </trkpt>
      <trkpt lat="48.87232" lon="2.29401">
        <ele>62</ele>
        <time>2013-02-16T13:21:24Z</time>
      </trkpt>
      <trkpt lat="48.87233" lon="2.29415">
        <ele>59</ele>
        <time>2013-02-16T13:21:26Z</time>
      </trkpt>
      <trkpt lat="48.87237" lon="2.29479">
        <ele>60</ele>
        <time>2013-02-16T13:21:35Z</time>
      </trkpt>
      <trkpt lat="48.87239" lon="2.29487">
        <ele>56</ele>
        <time>2013-02-16T13:21:36Z</time>
      </trkpt>
      <trkpt lat="48.87238" lon="2.295">
        <ele>51</ele>
        <time>2013-02-16T13:21:38Z</time>
      </trkpt>
      <trkpt lat="48.87234" lon="2.29505">
        <ele>52</ele>
        <time>2013-02-16T13:21:39Z</time>
      </trkpt>
      <trkpt lat="48.8723" lon="2.29509">
        <ele>52</ele>
        <time>2013-02-16T13:21:40Z</time>
      </trkpt>
      <trkpt lat="48.87221" lon="2.29517">
        <ele>72</ele>
        <time>2013-02-16T13:22:07Z</time>
      </trkpt>
      <trkpt lat="48.87222" lon="2.29526">
        <ele>64</ele>
        <time>2013-02-16T13:22:10Z</time>
      </trkpt>
      <trkpt lat="48.87224" lon="2.29533">
        <ele>59</ele>
        <time>2013-02-16T13:22:12Z</time>
      </trkpt>
      <trkpt lat="48.87228" lon="2.29547">
        <ele>55</ele>
        <time>2013-02-16T13:22:15Z</time>
      </trkpt>
      <trkpt lat="48.8723" lon="2.29556">
        <ele>53</ele>
        <time>2013-02-16T13:22:17Z</time>
      </trkpt>
      <trkpt lat="48.87232" lon="2.29565">
        <ele>49</ele>
        <time>2013-02-16T13:22:20Z</time>
      </trkpt>
      <trkpt lat="48.87233" lon="2.29577">
        <ele>53</ele>
        <time>2013-02-16T13:22:22Z</time>
      </trkpt>
      <trkpt lat="48.87235" lon="2.29588">
        <ele>54</ele>
        <time>2013-02-16T13:22:24Z</time>
      </trkpt>
      <trkpt lat="48.87237" lon="2.29605">
        <ele>53</ele>
        <time>2013-02-16T13:22:27Z</time>
      </trkpt>
      <trkpt lat="48.87237" lon="2.29621">
        <ele>51</ele>
        <time>2013-02-16T13:22:33Z</time>
      </trkpt>
      <trkpt lat="48.87231" lon="2.2962">
        <ele>62</ele>
        <time>2013-02-16T13:22:39Z</time>
      </trkpt>
      <trkpt lat="48.87223" lon="2.29624">
        <ele>68</ele>
        <time>2013-02-16T13:22:42Z</time>
      </trkpt>
      <trkpt lat="48.87222" lon="2.29633">
        <ele>98</ele>
        <time>2013-02-16T13:22:49Z</time>
      </trkpt>
      <trkpt lat="48.87226" lon="2.29642">
        <ele>100</ele>
        <time>2013-02-16T13:22:51Z</time>
      </trkpt>
      <trkpt lat="48.87231" lon="2.29645">
        <ele>102</ele>
        <time>2013-02-16T13:22:53Z</time>
      </trkpt>
      <trkpt lat="48.87237" lon="2.29643">
        <ele>101</ele>
        <time>2013-02-16T13:22:55Z</time>
      </trkpt>
      <trkpt lat="48.87248" lon="2.29643">
        <ele>95</ele>
        <time>2013-02-16T13:23:00Z</time>
      </trkpt>
      <trkpt lat="48.87252" lon="2.29653">
        <ele>88</ele>
        <time>2013-02-16T13:23:05Z</time>
      </trkpt>
      <trkpt lat="48.87256" lon="2.29659">
        <ele>89</ele>
        <time>2013-02-16T13:23:07Z</time>
      </trkpt>
      <trkpt lat="48.87261" lon="2.29665">
        <ele>85</ele>
        <time>2013-02-16T13:23:10Z</time>
      </trkpt>
      <trkpt lat="48.87266" lon="2.29669">
        <ele>89</ele>
        <time>2013-02-16T13:23:13Z</time>
      </trkpt>
      <trkpt lat="48.87271" lon="2.29674">
        <ele>86</ele>
        <time>2013-02-16T13:23:15Z</time>
      </trkpt>
      <trkpt lat="48.87275" lon="2.2968">
        <ele>81</ele>
        <time>2013-02-16T13:23:16Z</time>
      </trkpt>
      <trkpt lat="48.87277" lon="2.29691">
        <ele>69</ele>
        <time>2013-02-16T13:23:18Z</time>
      </trkpt>
      <trkpt lat="48.87276" lon="2.29702">
        <ele>57</ele>
        <time>2013-02-16T13:23:21Z</time>
      </trkpt>
      <trkpt lat="48.87273" lon="2.29714">
        <ele>58</ele>
        <time>2013-02-16T13:23:25Z</time>
      </trkpt>
      <trkpt lat="48.8727" lon="2.29722">
        <ele>58</ele>
        <time>2013-02-16T13:23:27Z</time>
      </trkpt>
      <trkpt lat="48.87261" lon="2.29747">
        <ele>46</ele>
        <time>2013-02-16T13:23:33Z</time>
      </trkpt>
      <trkpt lat="48.87257" lon="2.29753">
        <ele>47</ele>
        <time>2013-02-16T13:23:35Z</time>
      </trkpt>
      <trkpt lat="48.87254" lon="2.29761">
        <ele>46</ele>
        <time>2013-02-16T13:23:37Z</time>
      </trkpt>
      <trkpt lat="48.87253" lon="2.29772">
        <ele>50</ele>
        <time>2013-02-16T13:23:39Z</time>
      </trkpt>
      <trkpt lat="48.87251" lon="2.298">
        <ele>55</ele>
        <time>2013-02-16T13:23:43Z</time>
      </trkpt>
      <trkpt lat="48.87248" lon="2.29814">
        <ele>61</ele>
        <time>2013-02-16T13:23:45Z</time>
      </trkpt>
      <trkpt lat="48.87243" lon="2.29824">
        <ele>58</ele>
        <time>2013-02-16T13:23:47Z</time>
      </trkpt>
      <trkpt lat="48.87238" lon="2.29836">
        <ele>59</ele>
        <time>2013-02-16T13:23:49Z</time>
      </trkpt>
      <trkpt lat="48.87233" lon="2.29844">
        <ele>52</ele>
        <time>2013-02-16T13:23:51Z</time>
      </trkpt>
      <trkpt lat="48.87229" lon="2.29853">
        <ele>48</ele>
        <time>2013-02-16T13:23:53Z</time>
      </trkpt>
      <trkpt lat="48.87227" lon="2.29866">
        <ele>44</ele>
        <time>2013-02-16T13:23:55Z</time>
      </trkpt>
      <trkpt lat="48.87225" lon="2.29877">
        <ele>45</ele>
        <time>2013-02-16T13:23:57Z</time>
      </trkpt>
      <trkpt lat="48.8722" lon="2.29888">
        <ele>38</ele>
        <time>2013-02-16T13:23:59Z</time>
      </trkpt>
      <trkpt lat="48.87217" lon="2.29898">
        <ele>38</ele>
        <time>2013-02-16T13:24:01Z</time>
      </trkpt>
      <trkpt lat="48.87214" lon="2.29907">
        <ele>43</ele>
        <time>2013-02-16T13:24:07Z</time>
      </trkpt>
      <trkpt lat="48.87215" lon="2.29917">
        <ele>40</ele>
        <time>2013-02-16T13:24:10Z</time>
      </trkpt>
      <trkpt lat="48.87211" lon="2.29925">
        <ele>45</ele>
        <time>2013-02-16T13:24:12Z</time>
      </trkpt>
      <trkpt lat="48.87208" lon="2.29937">
        <ele>48</ele>
        <time>2013-02-16T13:24:17Z</time>
      </trkpt>
      <trkpt lat="48.87206" lon="2.29952">
        <ele>55</ele>
        <time>2013-02-16T13:24:21Z</time>
      </trkpt>
      <trkpt lat="48.872" lon="2.29969">
        <ele>55</ele>
        <time>2013-02-16T13:24:24Z</time>
      </trkpt>
      <trkpt lat="48.87198" lon="2.29984">
        <ele>52</ele>
        <time>2013-02-16T13:24:26Z</time>
      </trkpt>
      <trkpt lat="48.87198" lon="2.29994">
        <ele>50</ele>
        <time>2013-02-16T13:24:27Z</time>
      </trkpt>
      <trkpt lat="48.87197" lon="2.30003">
        <ele>46</ele>
        <time>2013-02-16T13:24:28Z</time>
      </trkpt>
      <trkpt lat="48.87196" lon="2.30011">
        <ele>43</ele>
        <time>2013-02-16T13:24:29Z</time>
      </trkpt>
      <trkpt lat="48.87191" lon="2.30021">
        <ele>42</ele>
        <time>2013-02-16T13:24:31Z</time>
      </trkpt>
      <trkpt lat="48.87188" lon="2.30031">
        <ele>49</ele>
        <time>2013-02-16T13:24:33Z</time>
      </trkpt>
      <trkpt lat="48.87185" lon="2.30039">
        <ele>45</ele>
        <time>2013-02-16T13:24:36Z</time>
      </trkpt>
      <trkpt lat="48.87182" lon="2.30053">
        <ele>41</ele>
        <time>2013-02-16T13:24:40Z</time>
      </trkpt>
      <trkpt lat="48.87179" lon="2.3006">
        <ele>44</ele>
        <time>2013-02-16T13:24:43Z</time>
      </trkpt>
      <trkpt lat="48.87172" lon="2.3006">
        <ele>43</ele>
        <time>2013-02-16T13:24:46Z</time>
      </trkpt>
      <trkpt lat="48.87166" lon="2.30057">
        <ele>40</ele>
        <time>2013-02-16T13:24:55Z</time>
      </trkpt>
      <trkpt lat="48.8716" lon="2.30053">
        <ele>39</ele>
        <time>2013-02-16T13:24:58Z</time>
      </trkpt>
      <trkpt lat="48.87153" lon="2.30054">
        <ele>38</ele>
        <time>2013-02-16T13:25:00Z</time>
      </trkpt>
      <trkpt lat="48.87146" lon="2.30058">
        <ele>37</ele>
        <time>2013-02-16T13:25:03Z</time>
      </trkpt>
      <trkpt lat="48.8714" lon="2.30059">
        <ele>42</ele>
        <time>2013-02-16T13:25:06Z</time>
      </trkpt>
      <trkpt lat="48.87135" lon="2.30063">
        <ele>39</ele>
        <time>2013-02-16T13:25:08Z</time>
      </trkpt>
      <trkpt lat="48.87129" lon="2.30062">
        <ele>43</ele>
        <time>2013-02-16T13:25:10Z</time>
      </trkpt>
      <trkpt lat="48.87121" lon="2.30062">
        <ele>43</ele>
        <time>2013-02-16T13:25:12Z</time>
      </trkpt>
      <trkpt lat="48.87115" lon="2.3006">
        <ele>42</ele>
        <time>2013-02-16T13:25:14Z</time>
      </trkpt>
      <trkpt lat="48.87107" lon="2.3006">
        <ele>42</ele>
        <time>2013-02-16T13:25:16Z</time>
      </trkpt>
      <trkpt lat="48.87099" lon="2.30062">
        <ele>49</ele>
        <time>2013-02-16T13:25:18Z</time>
      </trkpt>
      <trkpt lat="48.8708" lon="2.30067">
        <ele>52</ele>
        <time>2013-02-16T13:25:25Z</time>
      </trkpt>
      <trkpt lat="48.87073" lon="2.30071">
        <ele>45</ele>
        <time>2013-02-16T13:25:28Z</time>
      </trkpt>
      <trkpt lat="48.87065" lon="2.30074">
        <ele>43</ele>
        <time>2013-02-16T13:25:31Z</time>
      </trkpt>
      <trkpt lat="48.87051" lon="2.30076">
        <ele>46</ele>
        <time>2013-02-16T13:25:36Z</time>
      </trkpt>
      <trkpt lat="48.87044" lon="2.30076">
        <ele>46</ele>
        <time>2013-02-16T13:25:39Z</time>
      </trkpt>
      <trkpt lat="48.87028" lon="2.30077">
        <ele>48</ele>
        <time>2013-02-16T13:25:46Z</time>
      </trkpt>
      <trkpt lat="48.87022" lon="2.30079">
        <ele>43</ele>
        <time>2013-02-16T13:25:48Z</time>
      </trkpt>
      <trkpt lat="48.87015" lon="2.30086">
        <ele>43</ele>
        <time>2013-02-16T13:25:50Z</time>
      </trkpt>
      <trkpt lat="48.87006" lon="2.30091">
        <ele>43</ele>
        <time>2013-02-16T13:25:53Z</time>
      </trkpt>
      <trkpt lat="48.87" lon="2.30089">
        <ele>45</ele>
        <time>2013-02-16T13:25:56Z</time>
      </trkpt>
      <trkpt lat="48.86996" lon="2.30084">
        <ele>46</ele>
        <time>2013-02-16T13:25:58Z</time>
      </trkpt>
      <trkpt lat="48.8699" lon="2.30082">
        <ele>48</ele>
        <time>2013-02-16T13:26:01Z</time>
      </trkpt>
      <trkpt lat="48.86985" lon="2.30083">
        <ele>38</ele>
        <time>2013-02-16T13:26:05Z</time>
      </trkpt>
      <trkpt lat="48.86978" lon="2.30081">
        <ele>42</ele>
        <time>2013-02-16T13:26:11Z</time>
      </trkpt>
      <trkpt lat="48.86975" lon="2.30086">
        <ele>42</ele>
        <time>2013-02-16T13:26:15Z</time>
      </trkpt>
      <trkpt lat="48.86969" lon="2.30092">
        <ele>44</ele>
        <time>2013-02-16T13:26:18Z</time>
      </trkpt>
      <trkpt lat="48.86972" lon="2.30101">
        <ele>51</ele>
        <time>2013-02-16T13:26:27Z</time>
      </trkpt>
      <trkpt lat="48.86975" lon="2.3011">
        <ele>52</ele>
        <time>2013-02-16T13:26:31Z</time>
      </trkpt>
      <trkpt lat="48.86977" lon="2.30113">
        <ele>44</ele>
        <time>2013-02-16T13:26:32Z</time>
      </trkpt>
      <trkpt lat="48.86984" lon="2.30121">
        <ele>39</ele>
        <time>2013-02-16T13:26:36Z</time>
      </trkpt>
      <trkpt lat="48.86982" lon="2.30113">
        <ele>42</ele>
        <time>2013-02-16T13:26:45Z</time>
      </trkpt>
      <trkpt lat="48.86976" lon="2.30112">
        <ele>38</ele>
        <time>2013-02-16T13:26:47Z</time>
      </trkpt>
      <trkpt lat="48.8697" lon="2.30115">
        <ele>42</ele>
        <time>2013-02-16T13:26:49Z</time>
      </trkpt>
      <trkpt lat="48.86948" lon="2.3012">
        <ele>45</ele>
        <time>2013-02-16T13:26:55Z</time>
      </trkpt>
      <trkpt lat="48.86941" lon="2.30121">
        <ele>43</ele>
        <time>2013-02-16T13:26:57Z</time>
      </trkpt>
      <trkpt lat="48.86935" lon="2.30121">
        <ele>43</ele>
        <time>2013-02-16T13:26:59Z</time>
      </trkpt>
      <trkpt lat="48.86913" lon="2.30122">
        <ele>51</ele>
        <time>2013-02-16T13:27:06Z</time>
      </trkpt>
      <trkpt lat="48.86906" lon="2.30121">
        <ele>57</ele>
        <time>2013-02-16T13:27:08Z</time>
      </trkpt>
      <trkpt lat="48.86901" lon="2.30118">
        <ele>63</ele>
        <time>2013-02-16T13:27:09Z</time>
      </trkpt>
      <trkpt lat="48.8689" lon="2.30114">
        <ele>64</ele>
        <time>2013-02-16T13:27:11Z</time>
      </trkpt>
      <trkpt lat="48.86884" lon="2.30113">
        <ele>70</ele>
        <time>2013-02-16T13:27:12Z</time>
      </trkpt>
      <trkpt lat="48.86862" lon="2.30109">
        <ele>85</ele>
        <time>2013-02-16T13:27:17Z</time>
      </trkpt>
      <trkpt lat="48.86847" lon="2.30111">
        <ele>71</ele>
        <time>2013-02-16T13:27:25Z</time>
      </trkpt>
      <trkpt lat="48.86847" lon="2.30117">
        <ele>47</ele>
        <time>2013-02-16T13:28:15Z</time>
      </trkpt>
      <trkpt lat="48.86841" lon="2.30124">
        <ele>40</ele>
        <time>2013-02-16T13:28:20Z</time>
      </trkpt>
      <trkpt lat="48.86833" lon="2.30126">
        <ele>43</ele>
        <time>2013-02-16T13:28:27Z</time>
      </trkpt>
      <trkpt lat="48.86827" lon="2.30125">
        <ele>43</ele>
        <time>2013-02-16T13:28:29Z</time>
      </trkpt>
      <trkpt lat="48.86821" lon="2.30126">
        <ele>41</ele>
        <time>2013-02-16T13:28:31Z</time>
      </trkpt>
      <trkpt lat="48.86812" lon="2.30132">
        <ele>51</ele>
        <time>2013-02-16T13:28:33Z</time>
      </trkpt>
      <trkpt lat="48.86793" lon="2.3014">
        <ele>55</ele>
        <time>2013-02-16T13:28:40Z</time>
      </trkpt>
      <trkpt lat="48.86785" lon="2.3014">
        <ele>53</ele>
        <time>2013-02-16T13:28:43Z</time>
      </trkpt>
      <trkpt lat="48.86778" lon="2.30138">
        <ele>48</ele>
        <time>2013-02-16T13:28:45Z</time>
      </trkpt>
      <trkpt lat="48.86769" lon="2.30135">
        <ele>47</ele>
        <time>2013-02-16T13:28:47Z</time>
      </trkpt>
      <trkpt lat="48.8676" lon="2.30132">
        <ele>48</ele>
        <time>2013-02-16T13:28:49Z</time>
      </trkpt>
      <trkpt lat="48.86747" lon="2.3013">
        <ele>47</ele>
        <time>2013-02-16T13:28:52Z</time>
      </trkpt>
      <trkpt lat="48.86729" lon="2.30128">
        <ele>50</ele>
        <time>2013-02-16T13:28:59Z</time>
      </trkpt>
      <trkpt lat="48.86723" lon="2.30128">
        <ele>48</ele>
        <time>2013-02-16T13:29:01Z</time>
      </trkpt>
      <trkpt lat="48.86718" lon="2.30131">
        <ele>45</ele>
        <time>2013-02-16T13:29:03Z</time>
      </trkpt>
      <trkpt lat="48.86706" lon="2.30136">
        <ele>44</ele>
        <time>2013-02-16T13:29:08Z</time>
      </trkpt>
      <trkpt lat="48.86697" lon="2.30139">
        <ele>44</ele>
        <time>2013-02-16T13:29:11Z</time>
      </trkpt>
      <trkpt lat="48.86692" lon="2.30142">
        <ele>36</ele>
        <time>2013-02-16T13:29:15Z</time>
      </trkpt>
      <trkpt lat="48.86685" lon="2.30143">
        <ele>37</ele>
        <time>2013-02-16T13:29:18Z</time>
      </trkpt>
      <trkpt lat="48.86674" lon="2.30142">
        <ele>39</ele>
        <time>2013-02-16T13:29:23Z</time>
      </trkpt>
      <trkpt lat="48.86668" lon="2.30142">
        <ele>45</ele>
        <time>2013-02-16T13:29:26Z</time>
      </trkpt>
      <trkpt lat="48.8666" lon="2.30142">
        <ele>45</ele>
        <time>2013-02-16T13:29:29Z</time>
      </trkpt>
      <trkpt lat="48.8664" lon="2.30144">
        <ele>41</ele>
        <time>2013-02-16T13:29:35Z</time>
      </trkpt>
      <trkpt lat="48.86629" lon="2.30146">
        <ele>36</ele>
        <time>2013-02-16T13:29:39Z</time>
      </trkpt>
      <trkpt lat="48.86624" lon="2.30148">
        <ele>30</ele>
        <time>2013-02-16T13:29:41Z</time>
      </trkpt>
      <trkpt lat="48.86604" lon="2.30155">
        <ele>25</ele>
        <time>2013-02-16T13:29:55Z</time>
      </trkpt>
      <trkpt lat="48.86597" lon="2.30156">
        <ele>26</ele>
        <time>2013-02-16T13:29:58Z</time>
      </trkpt>
      <trkpt lat="48.86589" lon="2.30156">
        <ele>23</ele>
        <time>2013-02-16T13:30:01Z</time>
      </trkpt>
      <trkpt lat="48.86583" lon="2.30154">
        <ele>20</ele>
        <time>2013-02-16T13:30:03Z</time>
      </trkpt>
      <trkpt lat="48.86577" lon="2.30154">
        <ele>20</ele>
        <time>2013-02-16T13:30:05Z</time>
      </trkpt>
      <trkpt lat="48.86571" lon="2.30153">
        <ele>20</ele>
        <time>2013-02-16T13:30:07Z</time>
      </trkpt>
      <trkpt lat="48.8655" lon="2.30145">
        <ele>25</ele>
        <time>2013-02-16T13:30:14Z</time>
      </trkpt>
      <trkpt lat="48.86541" lon="2.30144">
        <ele>27</ele>
        <time>2013-02-16T13:30:17Z</time>
      </trkpt>
      <trkpt lat="48.86525" lon="2.30141">
        <ele>33</ele>
        <time>2013-02-16T13:30:22Z</time>
      </trkpt>
      <trkpt lat="48.8652" lon="2.30137">
        <ele>39</ele>
        <time>2013-02-16T13:30:24Z</time>
      </trkpt>
      <trkpt lat="48.86513" lon="2.30135">
        <ele>43</ele>
        <time>2013-02-16T13:30:26Z</time>
      </trkpt>
      <trkpt lat="48.86507" lon="2.30131">
        <ele>44</ele>
        <time>2013-02-16T13:30:28Z</time>
      </trkpt>
      <trkpt lat="48.86501" lon="2.3013">
        <ele>54</ele>
        <time>2013-02-16T13:30:30Z</time>
      </trkpt>
      <trkpt lat="48.86494" lon="2.30131">
        <ele>55</ele>
        <time>2013-02-16T13:30:32Z</time>
      </trkpt>
      <trkpt lat="48.86487" lon="2.30131">
        <ele>61</ele>
        <time>2013-02-16T13:30:34Z</time>
      </trkpt>
      <trkpt lat="48.8648" lon="2.30137">
        <ele>63</ele>
        <time>2013-02-16T13:30:36Z</time>
      </trkpt>
      <trkpt lat="48.86479" lon="2.30146">
        <ele>62</ele>
        <time>2013-02-16T13:30:38Z</time>
      </trkpt>
      <trkpt lat="48.86477" lon="2.30156">
        <ele>61</ele>
        <time>2013-02-16T13:30:40Z</time>
      </trkpt>
      <trkpt lat="48.86477" lon="2.30172">
        <ele>40</ele>
        <time>2013-02-16T13:30:43Z</time>
      </trkpt>
      <trkpt lat="48.8648" lon="2.30183">
        <ele>32</ele>
        <time>2013-02-16T13:30:44Z</time>
      </trkpt>
      <trkpt lat="48.86484" lon="2.30191">
        <ele>31</ele>
        <time>2013-02-16T13:30:45Z</time>
      </trkpt>
      <trkpt lat="48.8649" lon="2.30199">
        <ele>29</ele>
        <time>2013-02-16T13:30:47Z</time>
      </trkpt>
      <trkpt lat="48.86493" lon="2.30205">
        <ele>29</ele>
        <time>2013-02-16T13:30:50Z</time>
      </trkpt>
      <trkpt lat="48.86492" lon="2.30205">
        <ele>26</ele>
        <time>2013-02-16T13:30:53Z</time>
      </trkpt>
      <trkpt lat="48.86487" lon="2.30208">
        <ele>32</ele>
        <time>2013-02-16T13:31:32Z</time>
      </trkpt>
      <trkpt lat="48.86481" lon="2.30212">
        <ele>39</ele>
        <time>2013-02-16T13:31:36Z</time>
      </trkpt>
      <trkpt lat="48.86475" lon="2.30219">
        <ele>37</ele>
        <time>2013-02-16T13:31:40Z</time>
      </trkpt>
      <trkpt lat="48.86473" lon="2.3022">
        <ele>34</ele>
        <time>2013-02-16T13:31:42Z</time>
      </trkpt>
      <trkpt lat="48.86469" lon="2.30216">
        <ele>31</ele>
        <time>2013-02-16T13:31:46Z</time>
      </trkpt>
      <trkpt lat="48.86462" lon="2.30212">
        <ele>24</ele>
        <time>2013-02-16T13:31:50Z</time>
      </trkpt>
      <trkpt lat="48.8646" lon="2.30212">
        <ele>25</ele>
        <time>2013-02-16T13:31:51Z</time>
      </trkpt>
      <trkpt lat="48.86457" lon="2.30212">
        <ele>25</ele>
        <time>2013-02-16T13:31:53Z</time>
      </trkpt>
      <trkpt lat="48.86449" lon="2.30215">
        <ele>25</ele>
        <time>2013-02-16T13:31:56Z</time>
      </trkpt>
      <trkpt lat="48.86438" lon="2.30221">
        <ele>28</ele>
        <time>2013-02-16T13:32:00Z</time>
      </trkpt>
      <trkpt lat="48.86434" lon="2.30226">
        <ele>29</ele>
        <time>2013-02-16T13:32:02Z</time>
      </trkpt>
      <trkpt lat="48.86424" lon="2.30239">
        <ele>28</ele>
        <time>2013-02-16T13:32:05Z</time>
      </trkpt>
      <trkpt lat="48.8642" lon="2.3025">
        <ele>33</ele>
        <time>2013-02-16T13:32:07Z</time>
      </trkpt>
      <trkpt lat="48.86421" lon="2.30256">
        <ele>30</ele>
        <time>2013-02-16T13:32:08Z</time>
      </trkpt>
      <trkpt lat="48.86421" lon="2.30268">
        <ele>35</ele>
        <time>2013-02-16T13:32:10Z</time>
      </trkpt>
      <trkpt lat="48.86424" lon="2.30299">
        <ele>30</ele>
        <time>2013-02-16T13:32:14Z</time>
      </trkpt>
      <trkpt lat="48.86424" lon="2.30314">
        <ele>30</ele>
        <time>2013-02-16T13:32:16Z</time>
      </trkpt>
      <trkpt lat="48.86425" lon="2.30322">
        <ele>30</ele>
        <time>2013-02-16T13:32:17Z</time>
      </trkpt>
      <trkpt lat="48.86429" lon="2.30356">
        <ele>27</ele>
        <time>2013-02-16T13:32:21Z</time>
      </trkpt>
      <trkpt lat="48.86432" lon="2.30372">
        <ele>18</ele>
        <time>2013-02-16T13:32:23Z</time>
      </trkpt>
      <trkpt lat="48.86434" lon="2.30379">
        <ele>23</ele>
        <time>2013-02-16T13:32:24Z</time>
      </trkpt>
      <trkpt lat="48.86441" lon="2.30409">
        <ele>24</ele>
        <time>2013-02-16T13:32:28Z</time>
      </trkpt>
      <trkpt lat="48.86443" lon="2.30417">
        <ele>24</ele>
        <time>2013-02-16T13:32:29Z</time>
      </trkpt>
      <trkpt lat="48.86444" lon="2.30425">
        <ele>22</ele>
        <time>2013-02-16T13:32:30Z</time>
      </trkpt>
      <trkpt lat="48.86447" lon="2.30458">
        <ele>26</ele>
        <time>2013-02-16T13:32:34Z</time>
      </trkpt>
      <trkpt lat="48.86447" lon="2.30473">
        <ele>22</ele>
        <time>2013-02-16T13:32:36Z</time>
      </trkpt>
      <trkpt lat="48.86445" lon="2.30489">
        <ele>24</ele>
        <time>2013-02-16T13:32:38Z</time>
      </trkpt>
      <trkpt lat="48.86445" lon="2.30502">
        <ele>21</ele>
        <time>2013-02-16T13:32:40Z</time>
      </trkpt>
      <trkpt lat="48.86445" lon="2.30534">
        <ele>29</ele>
        <time>2013-02-16T13:32:46Z</time>
      </trkpt>
      <trkpt lat="48.86444" lon="2.30548">
        <ele>24</ele>
        <time>2013-02-16T13:32:48Z</time>
      </trkpt>
      <trkpt lat="48.86444" lon="2.30558">
        <ele>23</ele>
        <time>2013-02-16T13:32:49Z</time>
      </trkpt>
      <trkpt lat="48.86444" lon="2.30579">
        <ele>17</ele>
        <time>2013-02-16T13:32:52Z</time>
      </trkpt>
      <trkpt lat="48.86444" lon="2.30614">
        <ele>20</ele>
        <time>2013-02-16T13:32:57Z</time>
      </trkpt>
      <trkpt lat="48.86442" lon="2.30629">
        <ele>25</ele>
        <time>2013-02-16T13:32:59Z</time>
      </trkpt>
      <trkpt lat="48.86442" lon="2.30637">
        <ele>28</ele>
        <time>2013-02-16T13:33:00Z</time>
      </trkpt>
      <trkpt lat="48.86443" lon="2.30668">
        <ele>20</ele>
        <time>2013-02-16T13:33:04Z</time>
      </trkpt>
      <trkpt lat="48.86444" lon="2.30678">
        <ele>17</ele>
        <time>2013-02-16T13:33:05Z</time>
      </trkpt>
      <trkpt lat="48.86447" lon="2.30706">
        <ele>15</ele>
        <time>2013-02-16T13:33:09Z</time>
      </trkpt>
      <trkpt lat="48.86448" lon="2.30729">
        <ele>21</ele>
        <time>2013-02-16T13:33:12Z</time>
      </trkpt>
      <trkpt lat="48.86448" lon="2.30756">
        <ele>20</ele>
        <time>2013-02-16T13:33:16Z</time>
      </trkpt>
      <trkpt lat="48.86449" lon="2.30769">
        <ele>31</ele>
        <time>2013-02-16T13:33:18Z</time>
      </trkpt>
      <trkpt lat="48.86448" lon="2.3079">
        <ele>31</ele>
        <time>2013-02-16T13:33:21Z</time>
      </trkpt>
      <trkpt lat="48.86448" lon="2.30826">
        <ele>36</ele>
        <time>2013-02-16T13:33:27Z</time>
      </trkpt>
      <trkpt lat="48.86449" lon="2.30843">
        <ele>32</ele>
        <time>2013-02-16T13:33:30Z</time>
      </trkpt>
      <trkpt lat="48.86448" lon="2.30854">
        <ele>24</ele>
        <time>2013-02-16T13:33:32Z</time>
      </trkpt>
      <trkpt lat="48.86449" lon="2.30864">
        <ele>26</ele>
        <time>2013-02-16T13:33:34Z</time>
      </trkpt>
      <trkpt lat="48.8645" lon="2.30894">
        <ele>27</ele>
        <time>2013-02-16T13:33:40Z</time>
      </trkpt>
      <trkpt lat="48.86451" lon="2.30903">
        <ele>21</ele>
        <time>2013-02-16T13:33:42Z</time>
      </trkpt>
      <trkpt lat="48.86451" lon="2.30912">
        <ele>16</ele>
        <time>2013-02-16T13:33:44Z</time>
      </trkpt>
      <trkpt lat="48.86453" lon="2.31013">
        <ele>21</ele>
        <time>2013-02-16T13:34:03Z</time>
      </trkpt>
      <trkpt lat="48.86451" lon="2.31015">
        <ele>28</ele>
        <time>2013-02-16T13:34:05Z</time>
      </trkpt>
      <trkpt lat="48.86449" lon="2.31017">
        <ele>30</ele>
        <time>2013-02-16T13:34:07Z</time>
      </trkpt>
      <trkpt lat="48.86452" lon="2.31017">
        <ele>38</ele>
        <time>2013-02-16T13:34:30Z</time>
      </trkpt>
      <trkpt lat="48.86449" lon="2.31018">
        <ele>34</ele>
        <time>2013-02-16T13:34:32Z</time>
      </trkpt>
      <trkpt lat="48.86438" lon="2.31019">
        <ele>28</ele>
        <time>2013-02-16T13:34:37Z</time>
      </trkpt>
      <trkpt lat="48.86433" lon="2.31021">
        <ele>33</ele>
        <time>2013-02-16T13:34:41Z</time>
      </trkpt>
      <trkpt lat="48.86431" lon="2.31023">
        <ele>32</ele>
        <time>2013-02-16T13:34:45Z</time>
      </trkpt>
      <trkpt lat="48.86425" lon="2.31024">
        <ele>31</ele>
        <time>2013-02-16T13:34:48Z</time>
      </trkpt>
      <trkpt lat="48.86421" lon="2.31025">
        <ele>32</ele>
        <time>2013-02-16T13:34:51Z</time>
      </trkpt>
      <trkpt lat="48.86418" lon="2.31025">
        <ele>30</ele>
        <time>2013-02-16T13:34:52Z</time>
      </trkpt>
      <trkpt lat="48.86415" lon="2.31025">
        <ele>29</ele>
        <time>2013-02-16T13:34:54Z</time>
      </trkpt>
      <trkpt lat="48.86392" lon="2.31027">
        <ele>30</ele>
        <time>2013-02-16T13:35:04Z</time>
      </trkpt>
      <trkpt lat="48.86387" lon="2.31027">
        <ele>28</ele>
        <time>2013-02-16T13:35:06Z</time>
      </trkpt>
      <trkpt lat="48.86379" lon="2.31028">
        <ele>29</ele>
        <time>2013-02-16T13:35:09Z</time>
      </trkpt>
      <trkpt lat="48.86368" lon="2.31029">
        <ele>33</ele>
        <time>2013-02-16T13:35:13Z</time>
      </trkpt>
      <trkpt lat="48.86365" lon="2.31029">
        <ele>31</ele>
        <time>2013-02-16T13:35:14Z</time>
      </trkpt>
      <trkpt lat="48.86353" lon="2.31028">
        <ele>30</ele>
        <time>2013-02-16T13:35:18Z</time>
      </trkpt>
      <trkpt lat="48.8635" lon="2.31028">
        <ele>29</ele>
        <time>2013-02-16T13:35:19Z</time>
      </trkpt>
      <trkpt lat="48.86329" lon="2.3103">
        <ele>28</ele>
        <time>2013-02-16T13:35:27Z</time>
      </trkpt>
      <trkpt lat="48.86325" lon="2.31031">
        <ele>28</ele>
        <time>2013-02-16T13:35:28Z</time>
      </trkpt>
      <trkpt lat="48.86321" lon="2.31032">
        <ele>26</ele>
        <time>2013-02-16T13:35:29Z</time>
      </trkpt>
      <trkpt lat="48.86317" lon="2.31032">
        <ele>27</ele>
        <time>2013-02-16T13:35:30Z</time>
      </trkpt>
      <trkpt lat="48.8628" lon="2.31034">
        <ele>26</ele>
        <time>2013-02-16T13:35:39Z</time>
      </trkpt>
      <trkpt lat="48.86275" lon="2.31039">
        <ele>24</ele>
        <time>2013-02-16T13:35:42Z</time>
      </trkpt>
      <trkpt lat="48.86269" lon="2.31047">
        <ele>28</ele>
        <time>2013-02-16T13:35:46Z</time>
      </trkpt>
      <trkpt lat="48.86267" lon="2.31053">
        <ele>21</ele>
        <time>2013-02-16T13:35:57Z</time>
      </trkpt>
      <trkpt lat="48.86265" lon="2.31056">
        <ele>31</ele>
        <time>2013-02-16T13:36:00Z</time>
      </trkpt>
      <trkpt lat="48.8626" lon="2.3106">
        <ele>31</ele>
        <time>2013-02-16T13:36:03Z</time>
      </trkpt>
      <trkpt lat="48.86257" lon="2.31061">
        <ele>29</ele>
        <time>2013-02-16T13:36:04Z</time>
      </trkpt>
      <trkpt lat="48.86255" lon="2.31067">
        <ele>26</ele>
        <time>2013-02-16T13:36:06Z</time>
      </trkpt>
      <trkpt lat="48.86255" lon="2.31072">
        <ele>24</ele>
        <time>2013-02-16T13:36:07Z</time>
      </trkpt>
      <trkpt lat="48.86256" lon="2.31081">
        <ele>16</ele>
        <time>2013-02-16T13:36:10Z</time>
      </trkpt>
      <trkpt lat="48.86258" lon="2.31098">
        <ele>16</ele>
        <time>2013-02-16T13:36:14Z</time>
      </trkpt>
      <trkpt lat="48.8626" lon="2.31107">
        <ele>22</ele>
        <time>2013-02-16T13:36:16Z</time>
      </trkpt>
      <trkpt lat="48.86262" lon="2.31116">
        <ele>18</ele>
        <time>2013-02-16T13:36:18Z</time>
      </trkpt>
      <trkpt lat="48.86263" lon="2.3112">
        <ele>19</ele>
        <time>2013-02-16T13:36:19Z</time>
      </trkpt>
      <trkpt lat="48.86264" lon="2.31133">
        <ele>24</ele>
        <time>2013-02-16T13:36:21Z</time>
      </trkpt>
      <trkpt lat="48.86265" lon="2.31146">
        <ele>18</ele>
        <time>2013-02-16T13:36:23Z</time>
      </trkpt>
      <trkpt lat="48.86266" lon="2.31153">
        <ele>13</ele>
        <time>2013-02-16T13:36:24Z</time>
      </trkpt>
      <trkpt lat="48.86269" lon="2.31164">
        <ele>20</ele>
        <time>2013-02-16T13:36:26Z</time>
      </trkpt>
      <trkpt lat="48.8627" lon="2.31168">
        <ele>21</ele>
        <time>2013-02-16T13:36:27Z</time>
      </trkpt>
      <trkpt lat="48.86264" lon="2.31169">
        <ele>26</ele>
        <time>2013-02-16T13:36:32Z</time>
      </trkpt>
      <trkpt lat="48.86261" lon="2.31169">
        <ele>27</ele>
        <time>2013-02-16T13:36:34Z</time>
      </trkpt>
      <trkpt lat="48.86258" lon="2.31172">
        <ele>29</ele>
        <time>2013-02-16T13:36:36Z</time>
      </trkpt>
      <trkpt lat="48.86252" lon="2.31172">
        <ele>25</ele>
        <time>2013-02-16T13:36:39Z</time>
      </trkpt>
      <trkpt lat="48.86236" lon="2.31168">
        <ele>27</ele>
        <time>2013-02-16T13:36:47Z</time>
      </trkpt>
      <trkpt lat="48.86232" lon="2.31167">
        <ele>26</ele>
        <time>2013-02-16T13:36:49Z</time>
      </trkpt>
      <trkpt lat="48.86228" lon="2.31167">
        <ele>27</ele>
        <time>2013-02-16T13:36:51Z</time>
      </trkpt>
      <trkpt lat="48.8622" lon="2.31166">
        <ele>27</ele>
        <time>2013-02-16T13:36:53Z</time>
      </trkpt>
      <trkpt lat="48.86214" lon="2.31164">
        <ele>29</ele>
        <time>2013-02-16T13:36:55Z</time>
      </trkpt>
      <trkpt lat="48.86207" lon="2.3116">
        <ele>29</ele>
        <time>2013-02-16T13:36:57Z</time>
      </trkpt>
      <trkpt lat="48.86201" lon="2.31158">
        <ele>30</ele>
        <time>2013-02-16T13:37:00Z</time>
      </trkpt>
      <trkpt lat="48.86199" lon="2.31158">
        <ele>26</ele>
        <time>2013-02-16T13:37:01Z</time>
      </trkpt>
      <trkpt lat="48.86194" lon="2.31158">
        <ele>29</ele>
        <time>2013-02-16T13:37:03Z</time>
      </trkpt>
      <trkpt lat="48.86187" lon="2.31161">
        <ele>28</ele>
        <time>2013-02-16T13:37:06Z</time>
      </trkpt>
      <trkpt lat="48.86182" lon="2.31159">
        <ele>29</ele>
        <time>2013-02-16T13:37:09Z</time>
      </trkpt>
      <trkpt lat="48.86166" lon="2.31158">
        <ele>31</ele>
        <time>2013-02-16T13:37:16Z</time>
      </trkpt>
      <trkpt lat="48.86157" lon="2.31159">
        <ele>34</ele>
        <time>2013-02-16T13:37:18Z</time>
      </trkpt>
      <trkpt lat="48.86152" lon="2.31159">
        <ele>33</ele>
        <time>2013-02-16T13:37:19Z</time>
      </trkpt>
      <trkpt lat="48.86145" lon="2.3116">
        <ele>31</ele>
        <time>2013-02-16T13:37:21Z</time>
      </trkpt>
      <trkpt lat="48.86135" lon="2.31159">
        <ele>34</ele>
        <time>2013-02-16T13:37:24Z</time>
      </trkpt>
      <trkpt lat="48.8613" lon="2.3116">
        <ele>31</ele>
        <time>2013-02-16T13:37:25Z</time>
      </trkpt>
      <trkpt lat="48.86124" lon="2.31163">
        <ele>28</ele>
        <time>2013-02-16T13:37:26Z</time>
      </trkpt>
      <trkpt lat="48.8612" lon="2.31168">
        <ele>28</ele>
        <time>2013-02-16T13:37:28Z</time>
      </trkpt>
      <trkpt lat="48.86118" lon="2.31178">
        <ele>31</ele>
        <time>2013-02-16T13:37:30Z</time>
      </trkpt>
      <trkpt lat="48.86116" lon="2.31191">
        <ele>36</ele>
        <time>2013-02-16T13:37:32Z</time>
      </trkpt>
      <trkpt lat="48.86115" lon="2.31204">
        <ele>39</ele>
        <time>2013-02-16T13:37:34Z</time>
      </trkpt>
      <trkpt lat="48.86114" lon="2.31216">
        <ele>38</ele>
        <time>2013-02-16T13:37:36Z</time>
      </trkpt>
      <trkpt lat="48.86113" lon="2.31223">
        <ele>37</ele>
        <time>2013-02-16T13:37:37Z</time>
      </trkpt>
      <trkpt lat="48.86114" lon="2.31237">
        <ele>37</ele>
        <time>2013-02-16T13:37:39Z</time>
      </trkpt>
      <trkpt lat="48.86114" lon="2.31244">
        <ele>40</ele>
        <time>2013-02-16T13:37:40Z</time>
      </trkpt>
      <trkpt lat="48.86114" lon="2.31249">
        <ele>38</ele>
        <time>2013-02-16T13:37:41Z</time>
      </trkpt>
      <trkpt lat="48.86113" lon="2.31271">
        <ele>35</ele>
        <time>2013-02-16T13:37:45Z</time>
      </trkpt>
      <trkpt lat="48.86114" lon="2.31277">
        <ele>32</ele>
        <time>2013-02-16T13:37:46Z</time>
      </trkpt>
      <trkpt lat="48.86115" lon="2.31283">
        <ele>32</ele>
        <time>2013-02-16T13:37:47Z</time>
      </trkpt>
      <trkpt lat="48.86115" lon="2.31287">
        <ele>34</ele>
        <time>2013-02-16T13:37:48Z</time>
      </trkpt>
      <trkpt lat="48.86116" lon="2.31291">
        <ele>32</ele>
        <time>2013-02-16T13:37:49Z</time>
      </trkpt>
      <trkpt lat="48.86117" lon="2.31295">
        <ele>28</ele>
        <time>2013-02-16T13:37:50Z</time>
      </trkpt>
      <trkpt lat="48.86121" lon="2.3131">
        <ele>25</ele>
        <time>2013-02-16T13:37:53Z</time>
      </trkpt>
      <trkpt lat="48.86122" lon="2.31315">
        <ele>23</ele>
        <time>2013-02-16T13:37:54Z</time>
      </trkpt>
      <trkpt lat="48.86122" lon="2.31323">
        <ele>24</ele>
        <time>2013-02-16T13:37:56Z</time>
      </trkpt>
      <trkpt lat="48.86124" lon="2.31333">
        <ele>19</ele>
        <time>2013-02-16T13:37:59Z</time>
      </trkpt>
      <trkpt lat="48.86126" lon="2.31337">
        <ele>17</ele>
        <time>2013-02-16T13:38:00Z</time>
      </trkpt>
      <trkpt lat="48.86133" lon="2.31347">
        <ele>25</ele>
        <time>2013-02-16T13:38:03Z</time>
      </trkpt>
      <trkpt lat="48.86136" lon="2.31347">
        <ele>25</ele>
        <time>2013-02-16T13:38:04Z</time>
      </trkpt>
      <trkpt lat="48.86139" lon="2.31348">
        <ele>24</ele>
        <time>2013-02-16T13:38:05Z</time>
      </trkpt>
      <trkpt lat="48.86141" lon="2.31349">
        <ele>25</ele>
        <time>2013-02-16T13:38:06Z</time>
      </trkpt>
      <trkpt lat="48.86144" lon="2.3135">
        <ele>27</ele>
        <time>2013-02-16T13:38:07Z</time>
      </trkpt>
      <trkpt lat="48.86166" lon="2.31353">
        <ele>25</ele>
        <time>2013-02-16T13:38:14Z</time>
      </trkpt>
      <trkpt lat="48.86169" lon="2.31353">
        <ele>25</ele>
        <time>2013-02-16T13:38:15Z</time>
      </trkpt>
      <trkpt lat="48.86174" lon="2.31352">
        <ele>24</ele>
        <time>2013-02-16T13:38:17Z</time>
      </trkpt>
      <trkpt lat="48.86178" lon="2.31351">
        <ele>24</ele>
        <time>2013-02-16T13:38:19Z</time>
      </trkpt>
      <trkpt lat="48.86181" lon="2.31351">
        <ele>28</ele>
        <time>2013-02-16T13:38:20Z</time>
      </trkpt>
      <trkpt lat="48.86183" lon="2.31353">
        <ele>31</ele>
        <time>2013-02-16T13:38:21Z</time>
      </trkpt>
      <trkpt lat="48.86186" lon="2.31354">
        <ele>32</ele>
        <time>2013-02-16T13:38:22Z</time>
      </trkpt>
      <trkpt lat="48.86204" lon="2.31358">
        <ele>28</ele>
        <time>2013-02-16T13:38:28Z</time>
      </trkpt>
      <trkpt lat="48.86207" lon="2.31359">
        <ele>28</ele>
        <time>2013-02-16T13:38:29Z</time>
      </trkpt>
      <trkpt lat="48.86231" lon="2.31362">
        <ele>28</ele>
        <time>2013-02-16T13:38:37Z</time>
      </trkpt>
      <trkpt lat="48.86233" lon="2.31361">
        <ele>27</ele>
        <time>2013-02-16T13:38:38Z</time>
      </trkpt>
      <trkpt lat="48.86236" lon="2.3136">
        <ele>26</ele>
        <time>2013-02-16T13:38:40Z</time>
      </trkpt>
      <trkpt lat="48.86241" lon="2.31362">
        <ele>31</ele>
        <time>2013-02-16T13:38:43Z</time>
      </trkpt>
      <trkpt lat="48.86256" lon="2.31367">
        <ele>23</ele>
        <time>2013-02-16T13:38:50Z</time>
      </trkpt>
      <trkpt lat="48.8626" lon="2.31369">
        <ele>25</ele>
        <time>2013-02-16T13:38:52Z</time>
      </trkpt>
      <trkpt lat="48.86267" lon="2.31375">
        <ele>26</ele>
        <time>2013-02-16T13:38:56Z</time>
      </trkpt>
      <trkpt lat="48.86269" lon="2.31379">
        <ele>23</ele>
        <time>2013-02-16T13:38:58Z</time>
      </trkpt>
      <trkpt lat="48.8627" lon="2.31382">
        <ele>23</ele>
        <time>2013-02-16T13:39:00Z</time>
      </trkpt>
      <trkpt lat="48.86272" lon="2.31392">
        <ele>27</ele>
        <time>2013-02-16T13:39:03Z</time>
      </trkpt>
      <trkpt lat="48.86277" lon="2.31413">
        <ele>17</ele>
        <time>2013-02-16T13:39:10Z</time>
      </trkpt>
      <trkpt lat="48.86278" lon="2.31426">
        <ele>15</ele>
        <time>2013-02-16T13:39:14Z</time>
      </trkpt>
      <trkpt lat="48.86278" lon="2.31435">
        <ele>14</ele>
        <time>2013-02-16T13:39:17Z</time>
      </trkpt>
      <trkpt lat="48.86278" lon="2.31447">
        <ele>11</ele>
        <time>2013-02-16T13:39:21Z</time>
      </trkpt>
      <trkpt lat="48.86277" lon="2.31456">
        <ele>15</ele>
        <time>2013-02-16T13:39:24Z</time>
      </trkpt>
      <trkpt lat="48.86276" lon="2.31459">
        <ele>17</ele>
        <time>2013-02-16T13:39:25Z</time>
      </trkpt>
      <trkpt lat="48.86277" lon="2.31464">
        <ele>15</ele>
        <time>2013-02-16T13:39:27Z</time>
      </trkpt>
      <trkpt lat="48.86278" lon="2.31482">
        <ele>11</ele>
        <time>2013-02-16T13:39:32Z</time>
      </trkpt>
      <trkpt lat="48.86279" lon="2.31495">
        <ele>8</ele>
        <time>2013-02-16T13:39:37Z</time>
      </trkpt>
      <trkpt lat="48.8628" lon="2.31502">
        <ele>22</ele>
        <time>2013-02-16T13:40:13Z</time>
      </trkpt>
      <trkpt lat="48.86281" lon="2.31513">
        <ele>32</ele>
        <time>2013-02-16T13:40:31Z</time>
      </trkpt>
      <trkpt lat="48.86279" lon="2.31522">
        <ele>33</ele>
        <time>2013-02-16T13:40:35Z</time>
      </trkpt>
      <trkpt lat="48.86277" lon="2.31529">
        <ele>26</ele>
        <time>2013-02-16T13:40:38Z</time>
      </trkpt>
      <trkpt lat="48.86277" lon="2.31539">
        <ele>27</ele>
        <time>2013-02-16T13:40:40Z</time>
      </trkpt>
      <trkpt lat="48.86276" lon="2.31548">
        <ele>23</ele>
        <time>2013-02-16T13:40:42Z</time>
      </trkpt>
      <trkpt lat="48.86277" lon="2.31558">
        <ele>21</ele>
        <time>2013-02-16T13:40:44Z</time>
      </trkpt>
      <trkpt lat="48.86276" lon="2.31569">
        <ele>23</ele>
        <time>2013-02-16T13:40:46Z</time>
      </trkpt>
      <trkpt lat="48.86276" lon="2.31574">
        <ele>26</ele>
        <time>2013-02-16T13:40:47Z</time>
      </trkpt>
      <trkpt lat="48.86274" lon="2.31589">
        <ele>26</ele>
        <time>2013-02-16T13:40:51Z</time>
      </trkpt>
      <trkpt lat="48.86275" lon="2.31598">
        <ele>28</ele>
        <time>2013-02-16T13:40:53Z</time>
      </trkpt>
      <trkpt lat="48.86274" lon="2.31627">
        <ele>27</ele>
        <time>2013-02-16T13:41:01Z</time>
      </trkpt>
      <trkpt lat="48.86273" lon="2.31635">
        <ele>32</ele>
        <time>2013-02-16T13:41:03Z</time>
      </trkpt>
      <trkpt lat="48.86273" lon="2.31656">
        <ele>28</ele>
        <time>2013-02-16T13:41:06Z</time>
      </trkpt>
      <trkpt lat="48.86274" lon="2.31671">
        <ele>31</ele>
        <time>2013-02-16T13:41:09Z</time>
      </trkpt>
      <trkpt lat="48.86274" lon="2.31682">
        <ele>29</ele>
        <time>2013-02-16T13:41:11Z</time>
      </trkpt>
      <trkpt lat="48.86271" lon="2.31748">
        <ele>27</ele>
        <time>2013-02-16T13:41:21Z</time>
      </trkpt>
      <trkpt lat="48.86271" lon="2.31759">
        <ele>26</ele>
        <time>2013-02-16T13:41:23Z</time>
      </trkpt>
      <trkpt lat="48.86268" lon="2.31789">
        <ele>28</ele>
        <time>2013-02-16T13:41:28Z</time>
      </trkpt>
      <trkpt lat="48.86265" lon="2.318">
        <ele>27</ele>
        <time>2013-02-16T13:41:30Z</time>
      </trkpt>
      <trkpt lat="48.86264" lon="2.31809">
        <ele>28</ele>
        <time>2013-02-16T13:41:32Z</time>
      </trkpt>
      <trkpt lat="48.86263" lon="2.31819">
        <ele>32</ele>
        <time>2013-02-16T13:41:35Z</time>
      </trkpt>
      <trkpt lat="48.86262" lon="2.31822">
        <ele>32</ele>
        <time>2013-02-16T13:41:36Z</time>
      </trkpt>
      <trkpt lat="48.8626" lon="2.31825">
        <ele>35</ele>
        <time>2013-02-16T13:41:37Z</time>
      </trkpt>
      <trkpt lat="48.8626" lon="2.31829">
        <ele>34</ele>
        <time>2013-02-16T13:41:38Z</time>
      </trkpt>
      <trkpt lat="48.86258" lon="2.31838">
        <ele>32</ele>
        <time>2013-02-16T13:41:40Z</time>
      </trkpt>
      <trkpt lat="48.86258" lon="2.31842">
        <ele>30</ele>
        <time>2013-02-16T13:41:41Z</time>
      </trkpt>
      <trkpt lat="48.86254" lon="2.31856">
        <ele>29</ele>
        <time>2013-02-16T13:41:44Z</time>
      </trkpt>
      <trkpt lat="48.86253" lon="2.31862">
        <ele>33</ele>
        <time>2013-02-16T13:41:45Z</time>
      </trkpt>
      <trkpt lat="48.8625" lon="2.31869">
        <ele>32</ele>
        <time>2013-02-16T13:41:47Z</time>
      </trkpt>
      <trkpt lat="48.86248" lon="2.31872">
        <ele>30</ele>
        <time>2013-02-16T13:41:48Z</time>
      </trkpt>
      <trkpt lat="48.86246" lon="2.31875">
        <ele>29</ele>
        <time>2013-02-16T13:41:49Z</time>
      </trkpt>
      <trkpt lat="48.86244" lon="2.31878">
        <ele>28</ele>
        <time>2013-02-16T13:41:50Z</time>
      </trkpt>
      <trkpt lat="48.86243" lon="2.31881">
        <ele>31</ele>
        <time>2013-02-16T13:41:51Z</time>
      </trkpt>
      <trkpt lat="48.86242" lon="2.31885">
        <ele>35</ele>
        <time>2013-02-16T13:41:52Z</time>
      </trkpt>
      <trkpt lat="48.8624" lon="2.3189">
        <ele>37</ele>
        <time>2013-02-16T13:41:54Z</time>
      </trkpt>
      <trkpt lat="48.86236" lon="2.31905">
        <ele>34</ele>
        <time>2013-02-16T13:41:59Z</time>
      </trkpt>
      <trkpt lat="48.86231" lon="2.31917">
        <ele>27</ele>
        <time>2013-02-16T13:42:03Z</time>
      </trkpt>
      <trkpt lat="48.86228" lon="2.31925">
        <ele>30</ele>
        <time>2013-02-16T13:42:06Z</time>
      </trkpt>
      <trkpt lat="48.86224" lon="2.31934">
        <ele>35</ele>
        <time>2013-02-16T13:42:09Z</time>
      </trkpt>
      <trkpt lat="48.86222" lon="2.31937">
        <ele>33</ele>
        <time>2013-02-16T13:42:10Z</time>
      </trkpt>
      <trkpt lat="48.86216" lon="2.31944">
        <ele>28</ele>
        <time>2013-02-16T13:42:12Z</time>
      </trkpt>
      <trkpt lat="48.86208" lon="2.31949">
        <ele>27</ele>
        <time>2013-02-16T13:42:14Z</time>
      </trkpt>
      <trkpt lat="48.86205" lon="2.31951">
        <ele>31</ele>
        <time>2013-02-16T13:42:15Z</time>
      </trkpt>
      <trkpt lat="48.86202" lon="2.31954">
        <ele>31</ele>
        <time>2013-02-16T13:42:16Z</time>
      </trkpt>
      <trkpt lat="48.86194" lon="2.31963">
        <ele>31</ele>
        <time>2013-02-16T13:42:20Z</time>
      </trkpt>
      <trkpt lat="48.86192" lon="2.31966">
        <ele>31</ele>
        <time>2013-02-16T13:42:21Z</time>
      </trkpt>
      <trkpt lat="48.86183" lon="2.31976">
        <ele>34</ele>
        <time>2013-02-16T13:42:26Z</time>
      </trkpt>
      <trkpt lat="48.86177" lon="2.31981">
        <ele>35</ele>
        <time>2013-02-16T13:42:29Z</time>
      </trkpt>
      <trkpt lat="48.86163" lon="2.31993">
        <ele>32</ele>
        <time>2013-02-16T13:42:35Z</time>
      </trkpt>
      <trkpt lat="48.86159" lon="2.31998">
        <ele>37</ele>
        <time>2013-02-16T13:42:39Z</time>
      </trkpt>
      <trkpt lat="48.86155" lon="2.32006">
        <ele>29</ele>
        <time>2013-02-16T13:42:42Z</time>
      </trkpt>
      <trkpt lat="48.86152" lon="2.32011">
        <ele>30</ele>
        <time>2013-02-16T13:42:45Z</time>
      </trkpt>
      <trkpt lat="48.86146" lon="2.32015">
        <ele>40</ele>
        <time>2013-02-16T13:42:49Z</time>
      </trkpt>
      <trkpt lat="48.86128" lon="2.32027">
        <ele>38</ele>
        <time>2013-02-16T13:42:59Z</time>
      </trkpt>
      <trkpt lat="48.86124" lon="2.3203">
        <ele>34</ele>
        <time>2013-02-16T13:43:01Z</time>
      </trkpt>
      <trkpt lat="48.86119" lon="2.32032">
        <ele>34</ele>
        <time>2013-02-16T13:43:04Z</time>
      </trkpt>
      <trkpt lat="48.86114" lon="2.32036">
        <ele>38</ele>
        <time>2013-02-16T13:43:08Z</time>
      </trkpt>
      <trkpt lat="48.86111" lon="2.32044">
        <ele>46</ele>
        <time>2013-02-16T13:43:16Z</time>
      </trkpt>
      <trkpt lat="48.86095" lon="2.3207">
        <ele>53</ele>
        <time>2013-02-16T13:43:27Z</time>
      </trkpt>
      <trkpt lat="48.86082" lon="2.3208">
        <ele>57</ele>
        <time>2013-02-16T13:43:33Z</time>
      </trkpt>
      <trkpt lat="48.86069" lon="2.32099">
        <ele>73</ele>
        <time>2013-02-16T13:43:38Z</time>
      </trkpt>
      <trkpt lat="48.86067" lon="2.32103">
        <ele>73</ele>
        <time>2013-02-16T13:43:39Z</time>
      </trkpt>
      <trkpt lat="48.86048" lon="2.32123">
        <ele>66</ele>
        <time>2013-02-16T13:43:43Z</time>
      </trkpt>
      <trkpt lat="48.86042" lon="2.32128">
        <ele>60</ele>
        <time>2013-02-16T13:43:44Z</time>
      </trkpt>
      <trkpt lat="48.86034" lon="2.32132">
        <ele>59</ele>
        <time>2013-02-16T13:43:45Z</time>
      </trkpt>
      <trkpt lat="48.86022" lon="2.32135">
        <ele>65</ele>
        <time>2013-02-16T13:43:49Z</time>
      </trkpt>
      <trkpt lat="48.86017" lon="2.32141">
        <ele>56</ele>
        <time>2013-02-16T13:43:53Z</time>
      </trkpt>
      <trkpt lat="48.86012" lon="2.32147">
        <ele>45</ele>
        <time>2013-02-16T13:43:56Z</time>
      </trkpt>
      <trkpt lat="48.86007" lon="2.32151">
        <ele>46</ele>
        <time>2013-02-16T13:43:58Z</time>
      </trkpt>
      <trkpt lat="48.86001" lon="2.32153">
        <ele>47</ele>
        <time>2013-02-16T13:44:01Z</time>
      </trkpt>
      <trkpt lat="48.85994" lon="2.32159">
        <ele>51</ele>
        <time>2013-02-16T13:44:04Z</time>
      </trkpt>
      <trkpt lat="48.85988" lon="2.32163">
        <ele>53</ele>
        <time>2013-02-16T13:44:06Z</time>
      </trkpt>
      <trkpt lat="48.85983" lon="2.32168">
        <ele>50</ele>
        <time>2013-02-16T13:44:08Z</time>
      </trkpt>
      <trkpt lat="48.85979" lon="2.32174">
        <ele>43</ele>
        <time>2013-02-16T13:44:10Z</time>
      </trkpt>
      <trkpt lat="48.85973" lon="2.32179">
        <ele>42</ele>
        <time>2013-02-16T13:44:12Z</time>
      </trkpt>
      <trkpt lat="48.85962" lon="2.32193">
        <ele>42</ele>
        <time>2013-02-16T13:44:17Z</time>
      </trkpt>
      <trkpt lat="48.85953" lon="2.32203">
        <ele>46</ele>
        <time>2013-02-16T13:44:20Z</time>
      </trkpt>
      <trkpt lat="48.85936" lon="2.32221">
        <ele>46</ele>
        <time>2013-02-16T13:44:25Z</time>
      </trkpt>
      <trkpt lat="48.85929" lon="2.32229">
        <ele>47</ele>
        <time>2013-02-16T13:44:27Z</time>
      </trkpt>
      <trkpt lat="48.85913" lon="2.32249">
        <ele>49</ele>
        <time>2013-02-16T13:44:32Z</time>
      </trkpt>
      <trkpt lat="48.85908" lon="2.32252">
        <ele>48</ele>
        <time>2013-02-16T13:44:33Z</time>
      </trkpt>
      <trkpt lat="48.8589" lon="2.32262">
        <ele>42</ele>
        <time>2013-02-16T13:44:37Z</time>
      </trkpt>
      <trkpt lat="48.85885" lon="2.3226">
        <ele>44</ele>
        <time>2013-02-16T13:44:39Z</time>
      </trkpt>
      <trkpt lat="48.8588" lon="2.32262">
        <ele>47</ele>
        <time>2013-02-16T13:44:41Z</time>
      </trkpt>
      <trkpt lat="48.85874" lon="2.32265">
        <ele>46</ele>
        <time>2013-02-16T13:44:43Z</time>
      </trkpt>
      <trkpt lat="48.85869" lon="2.32269">
        <ele>44</ele>
        <time>2013-02-16T13:44:46Z</time>
      </trkpt>
      <trkpt lat="48.85863" lon="2.32275">
        <ele>41</ele>
        <time>2013-02-16T13:44:49Z</time>
      </trkpt>
      <trkpt lat="48.85858" lon="2.32284">
        <ele>42</ele>
        <time>2013-02-16T13:44:52Z</time>
      </trkpt>
      <trkpt lat="48.85854" lon="2.3229">
        <ele>46</ele>
        <time>2013-02-16T13:44:54Z</time>
      </trkpt>
      <trkpt lat="48.85845" lon="2.32298">
        <ele>37</ele>
        <time>2013-02-16T13:44:59Z</time>
      </trkpt>
      <trkpt lat="48.8584" lon="2.32303">
        <ele>39</ele>
        <time>2013-02-16T13:45:04Z</time>
      </trkpt>
      <trkpt lat="48.85834" lon="2.32314">
        <ele>46</ele>
        <time>2013-02-16T13:45:08Z</time>
      </trkpt>
      <trkpt lat="48.85829" lon="2.32319">
        <ele>56</ele>
        <time>2013-02-16T13:45:10Z</time>
      </trkpt>
      <trkpt lat="48.85823" lon="2.32331">
        <ele>48</ele>
        <time>2013-02-16T13:45:14Z</time>
      </trkpt>
      <trkpt lat="48.85815" lon="2.32336">
        <ele>45</ele>
        <time>2013-02-16T13:45:16Z</time>
      </trkpt>
      <trkpt lat="48.85808" lon="2.32338">
        <ele>38</ele>
        <time>2013-02-16T13:45:18Z</time>
      </trkpt>
      <trkpt lat="48.85804" lon="2.32341">
        <ele>33</ele>
        <time>2013-02-16T13:45:20Z</time>
      </trkpt>
      <trkpt lat="48.85795" lon="2.32345">
        <ele>36</ele>
        <time>2013-02-16T13:45:24Z</time>
      </trkpt>
      <trkpt lat="48.85792" lon="2.32346">
        <ele>38</ele>
        <time>2013-02-16T13:45:25Z</time>
      </trkpt>
      <trkpt lat="48.8579" lon="2.32348">
        <ele>39</ele>
        <time>2013-02-16T13:45:26Z</time>
      </trkpt>
      <trkpt lat="48.85788" lon="2.32351">
        <ele>38</ele>
        <time>2013-02-16T13:45:27Z</time>
      </trkpt>
      <trkpt lat="48.85781" lon="2.32357">
        <ele>35</ele>
        <time>2013-02-16T13:45:30Z</time>
      </trkpt>
      <trkpt lat="48.85775" lon="2.32365">
        <ele>32</ele>
        <time>2013-02-16T13:45:33Z</time>
      </trkpt>
      <trkpt lat="48.85745" lon="2.32403">
        <ele>53</ele>
        <time>2013-02-16T13:45:47Z</time>
      </trkpt>
      <trkpt lat="48.8574" lon="2.32411">
        <ele>47</ele>
        <time>2013-02-16T13:45:50Z</time>
      </trkpt>
      <trkpt lat="48.85735" lon="2.32417">
        <ele>61</ele>
        <time>2013-02-16T13:45:52Z</time>
      </trkpt>
      <trkpt lat="48.85731" lon="2.32422">
        <ele>53</ele>
        <time>2013-02-16T13:45:53Z</time>
      </trkpt>
      <trkpt lat="48.85728" lon="2.32429">
        <ele>54</ele>
        <time>2013-02-16T13:45:54Z</time>
      </trkpt>
      <trkpt lat="48.85722" lon="2.32438">
        <ele>57</ele>
        <time>2013-02-16T13:45:56Z</time>
      </trkpt>
      <trkpt lat="48.85716" lon="2.32445">
        <ele>55</ele>
        <time>2013-02-16T13:45:58Z</time>
      </trkpt>
      <trkpt lat="48.85704" lon="2.32456">
        <ele>47</ele>
        <time>2013-02-16T13:46:02Z</time>
      </trkpt>
      <trkpt lat="48.85694" lon="2.32461">
        <ele>40</ele>
        <time>2013-02-16T13:46:05Z</time>
      </trkpt>
      <trkpt lat="48.85685" lon="2.32462">
        <ele>32</ele>
        <time>2013-02-16T13:46:07Z</time>
      </trkpt>
      <trkpt lat="48.85676" lon="2.32464">
        <ele>36</ele>
        <time>2013-02-16T13:46:11Z</time>
      </trkpt>
      <trkpt lat="48.85671" lon="2.32468">
        <ele>36</ele>
        <time>2013-02-16T13:46:13Z</time>
      </trkpt>
      <trkpt lat="48.85666" lon="2.32475">
        <ele>37</ele>
        <time>2013-02-16T13:46:15Z</time>
      </trkpt>
      <trkpt lat="48.85661" lon="2.3248">
        <ele>33</ele>
        <time>2013-02-16T13:46:17Z</time>
      </trkpt>
      <trkpt lat="48.85656" lon="2.32488">
        <ele>40</ele>
        <time>2013-02-16T13:46:20Z</time>
      </trkpt>
      <trkpt lat="48.85647" lon="2.32504">
        <ele>45</ele>
        <time>2013-02-16T13:46:26Z</time>
      </trkpt>
      <trkpt lat="48.85642" lon="2.32512">
        <ele>45</ele>
        <time>2013-02-16T13:46:32Z</time>
      </trkpt>
      <trkpt lat="48.85633" lon="2.32529">
        <ele>57</ele>
        <time>2013-02-16T13:46:41Z</time>
      </trkpt>
      <trkpt lat="48.85628" lon="2.32534">
        <ele>51</ele>
        <time>2013-02-16T13:46:44Z</time>
      </trkpt>
      <trkpt lat="48.85622" lon="2.32541">
        <ele>49</ele>
        <time>2013-02-16T13:46:49Z</time>
      </trkpt>
      <trkpt lat="48.85617" lon="2.32542">
        <ele>47</ele>
        <time>2013-02-16T13:46:52Z</time>
      </trkpt>
      <trkpt lat="48.85604" lon="2.32542">
        <ele>41</ele>
        <time>2013-02-16T13:47:06Z</time>
      </trkpt>
      <trkpt lat="48.85599" lon="2.32538">
        <ele>38</ele>
        <time>2013-02-16T13:47:13Z</time>
      </trkpt>
      <trkpt lat="48.85595" lon="2.32536">
        <ele>35</ele>
        <time>2013-02-16T13:47:16Z</time>
      </trkpt>
      <trkpt lat="48.85589" lon="2.32539">
        <ele>20</ele>
        <time>2013-02-16T13:47:34Z</time>
      </trkpt>
      <trkpt lat="48.85581" lon="2.32544">
        <ele>33</ele>
        <time>2013-02-16T13:47:40Z</time>
      </trkpt>
      <trkpt lat="48.85575" lon="2.32546">
        <ele>33</ele>
        <time>2013-02-16T13:47:43Z</time>
      </trkpt>
      <trkpt lat="48.85569" lon="2.32547">
        <ele>31</ele>
        <time>2013-02-16T13:47:45Z</time>
      </trkpt>
      <trkpt lat="48.85557" lon="2.32551">
        <ele>31</ele>
        <time>2013-02-16T13:47:48Z</time>
      </trkpt>
      <trkpt lat="48.85547" lon="2.32553">
        <ele>35</ele>
        <time>2013-02-16T13:47:50Z</time>
      </trkpt>
      <trkpt lat="48.85507" lon="2.32559">
        <ele>35</ele>
        <time>2013-02-16T13:47:58Z</time>
      </trkpt>
      <trkpt lat="48.85493" lon="2.32564">
        <ele>28</ele>
        <time>2013-02-16T13:48:01Z</time>
      </trkpt>
      <trkpt lat="48.85471" lon="2.32573">
        <ele>35</ele>
        <time>2013-02-16T13:48:06Z</time>
      </trkpt>
      <trkpt lat="48.85461" lon="2.32579">
        <ele>36</ele>
        <time>2013-02-16T13:48:08Z</time>
      </trkpt>
      <trkpt lat="48.85449" lon="2.32583">
        <ele>42</ele>
        <time>2013-02-16T13:48:11Z</time>
      </trkpt>
      <trkpt lat="48.8544" lon="2.32588">
        <ele>32</ele>
        <time>2013-02-16T13:48:16Z</time>
      </trkpt>
      <trkpt lat="48.85436" lon="2.32593">
        <ele>37</ele>
        <time>2013-02-16T13:48:18Z</time>
      </trkpt>
      <trkpt lat="48.85425" lon="2.32604">
        <ele>41</ele>
        <time>2013-02-16T13:48:23Z</time>
      </trkpt>
      <trkpt lat="48.85418" lon="2.32608">
        <ele>40</ele>
        <time>2013-02-16T13:48:26Z</time>
      </trkpt>
      <trkpt lat="48.85407" lon="2.32619">
        <ele>42</ele>
        <time>2013-02-16T13:48:32Z</time>
      </trkpt>
      <trkpt lat="48.85402" lon="2.32625">
        <ele>49</ele>
        <time>2013-02-16T13:48:35Z</time>
      </trkpt>
      <trkpt lat="48.85392" lon="2.32638">
        <ele>52</ele>
        <time>2013-02-16T13:48:41Z</time>
      </trkpt>
      <trkpt lat="48.85385" lon="2.32644">
        <ele>51</ele>
        <time>2013-02-16T13:48:44Z</time>
      </trkpt>
      <trkpt lat="48.85378" lon="2.32645">
        <ele>50</ele>
        <time>2013-02-16T13:48:47Z</time>
      </trkpt>
      <trkpt lat="48.85373" lon="2.32645">
        <ele>52</ele>
        <time>2013-02-16T13:48:49Z</time>
      </trkpt>
      <trkpt lat="48.85366" lon="2.32645">
        <ele>51</ele>
        <time>2013-02-16T13:48:51Z</time>
      </trkpt>
      <trkpt lat="48.85354" lon="2.32645">
        <ele>50</ele>
        <time>2013-02-16T13:48:57Z</time>
      </trkpt>
      <trkpt lat="48.85351" lon="2.32639">
        <ele>48</ele>
        <time>2013-02-16T13:49:00Z</time>
      </trkpt>
      <trkpt lat="48.85345" lon="2.32632">
        <ele>41</ele>
        <time>2013-02-16T13:49:05Z</time>
      </trkpt>
      <trkpt lat="48.85338" lon="2.32633">
        <ele>42</ele>
        <time>2013-02-16T13:49:08Z</time>
      </trkpt>
      <trkpt lat="48.85328" lon="2.32637">
        <ele>43</ele>
        <time>2013-02-16T13:49:11Z</time>
      </trkpt>
      <trkpt lat="48.85317" lon="2.32643">
        <ele>47</ele>
        <time>2013-02-16T13:49:15Z</time>
      </trkpt>
      <trkpt lat="48.8531" lon="2.32649">
        <ele>63</ele>
        <time>2013-02-16T13:49:18Z</time>
      </trkpt>
      <trkpt lat="48.85304" lon="2.3265">
        <ele>67</ele>
        <time>2013-02-16T13:49:20Z</time>
      </trkpt>
      <trkpt lat="48.85286" lon="2.32658">
        <ele>65</ele>
        <time>2013-02-16T13:49:25Z</time>
      </trkpt>
      <trkpt lat="48.85281" lon="2.32663">
        <ele>60</ele>
        <time>2013-02-16T13:49:27Z</time>
      </trkpt>
      <trkpt lat="48.85273" lon="2.32669">
        <ele>71</ele>
        <time>2013-02-16T13:49:30Z</time>
      </trkpt>
      <trkpt lat="48.85254" lon="2.32678">
        <ele>74</ele>
        <time>2013-02-16T13:49:37Z</time>
      </trkpt>
      <trkpt lat="48.85246" lon="2.32677">
        <ele>75</ele>
        <time>2013-02-16T13:49:40Z</time>
      </trkpt>
      <trkpt lat="48.85242" lon="2.32671">
        <ele>76</ele>
        <time>2013-02-16T13:49:43Z</time>
      </trkpt>
      <trkpt lat="48.8524" lon="2.32653">
        <ele>76</ele>
        <time>2013-02-16T13:49:46Z</time>
      </trkpt>
      <trkpt lat="48.85238" lon="2.32646">
        <ele>75</ele>
        <time>2013-02-16T13:49:49Z</time>
      </trkpt>
      <trkpt lat="48.85232" lon="2.32648">
        <ele>52</ele>
        <time>2013-02-16T13:49:53Z</time>
      </trkpt>
      <trkpt lat="48.85222" lon="2.3265">
        <ele>52</ele>
        <time>2013-02-16T13:49:58Z</time>
      </trkpt>
      <trkpt lat="48.85212" lon="2.32653">
        <ele>64</ele>
        <time>2013-02-16T13:50:04Z</time>
      </trkpt>
      <trkpt lat="48.85192" lon="2.32663">
        <ele>44</ele>
        <time>2013-02-16T13:50:11Z</time>
      </trkpt>
      <trkpt lat="48.85187" lon="2.32664">
        <ele>36</ele>
        <time>2013-02-16T13:50:13Z</time>
      </trkpt>
      <trkpt lat="48.85182" lon="2.32662">
        <ele>42</ele>
        <time>2013-02-16T13:50:18Z</time>
      </trkpt>
      <trkpt lat="48.85179" lon="2.32654">
        <ele>34</ele>
        <time>2013-02-16T13:50:22Z</time>
      </trkpt>
      <trkpt lat="48.85173" lon="2.32653">
        <ele>38</ele>
        <time>2013-02-16T13:50:40Z</time>
      </trkpt>
      <trkpt lat="48.85166" lon="2.32659">
        <ele>39</ele>
        <time>2013-02-16T13:50:42Z</time>
      </trkpt>
      <trkpt lat="48.8516" lon="2.32663">
        <ele>38</ele>
        <time>2013-02-16T13:50:44Z</time>
      </trkpt>
      <trkpt lat="48.85153" lon="2.32666">
        <ele>33</ele>
        <time>2013-02-16T13:50:46Z</time>
      </trkpt>
      <trkpt lat="48.85144" lon="2.32668">
        <ele>36</ele>
        <time>2013-02-16T13:50:49Z</time>
      </trkpt>
      <trkpt lat="48.85138" lon="2.32668">
        <ele>36</ele>
        <time>2013-02-16T13:50:52Z</time>
      </trkpt>
      <trkpt lat="48.85133" lon="2.32669">
        <ele>41</ele>
        <time>2013-02-16T13:50:55Z</time>
      </trkpt>
      <trkpt lat="48.85128" lon="2.32671">
        <ele>42</ele>
        <time>2013-02-16T13:50:57Z</time>
      </trkpt>
      <trkpt lat="48.85117" lon="2.32673">
        <ele>42</ele>
        <time>2013-02-16T13:51:01Z</time>
      </trkpt>
      <trkpt lat="48.8511" lon="2.32676">
        <ele>49</ele>
        <time>2013-02-16T13:51:04Z</time>
      </trkpt>
      <trkpt lat="48.851" lon="2.32682">
        <ele>44</ele>
        <time>2013-02-16T13:51:08Z</time>
      </trkpt>
      <trkpt lat="48.85095" lon="2.32686">
        <ele>49</ele>
        <time>2013-02-16T13:51:10Z</time>
      </trkpt>
      <trkpt lat="48.8509" lon="2.3269">
        <ele>51</ele>
        <time>2013-02-16T13:51:12Z</time>
      </trkpt>
      <trkpt lat="48.85086" lon="2.32695">
        <ele>56</ele>
        <time>2013-02-16T13:51:14Z</time>
      </trkpt>
      <trkpt lat="48.8508" lon="2.32705">
        <ele>63</ele>
        <time>2013-02-16T13:51:17Z</time>
      </trkpt>
      <trkpt lat="48.85064" lon="2.32705">
        <ele>70</ele>
        <time>2013-02-16T13:51:22Z</time>
      </trkpt>
      <trkpt lat="48.85057" lon="2.32703">
        <ele>77</ele>
        <time>2013-02-16T13:51:24Z</time>
      </trkpt>
      <trkpt lat="48.85051" lon="2.32704">
        <ele>74</ele>
        <time>2013-02-16T13:51:27Z</time>
      </trkpt>
      <trkpt lat="48.85043" lon="2.32708">
        <ele>63</ele>
        <time>2013-02-16T13:51:29Z</time>
      </trkpt>
      <trkpt lat="48.85023" lon="2.32714">
        <ele>61</ele>
        <time>2013-02-16T13:51:34Z</time>
      </trkpt>
      <trkpt lat="48.85019" lon="2.32709">
        <ele>65</ele>
        <time>2013-02-16T13:51:36Z</time>
      </trkpt>
      <trkpt lat="48.8501" lon="2.32703">
        <ele>72</ele>
        <time>2013-02-16T13:51:47Z</time>
      </trkpt>
      <trkpt lat="48.85002" lon="2.32702">
        <ele>73</ele>
        <time>2013-02-16T13:51:50Z</time>
      </trkpt>
      <trkpt lat="48.84987" lon="2.32708">
        <ele>85</ele>
        <time>2013-02-16T13:51:54Z</time>
      </trkpt>
      <trkpt lat="48.8497" lon="2.32723">
        <ele>90</ele>
        <time>2013-02-16T13:51:58Z</time>
      </trkpt>
      <trkpt lat="48.84929" lon="2.32758">
        <ele>101</ele>
        <time>2013-02-16T13:52:06Z</time>
      </trkpt>
      <trkpt lat="48.84923" lon="2.32761">
        <ele>101</ele>
        <time>2013-02-16T13:52:07Z</time>
      </trkpt>
      <trkpt lat="48.84917" lon="2.32763">
        <ele>98</ele>
        <time>2013-02-16T13:52:08Z</time>
      </trkpt>
      <trkpt lat="48.84897" lon="2.32772">
        <ele>93</ele>
        <time>2013-02-16T13:52:12Z</time>
      </trkpt>
      <trkpt lat="48.84892" lon="2.32776">
        <ele>89</ele>
        <time>2013-02-16T13:52:13Z</time>
      </trkpt>
      <trkpt lat="48.84883" lon="2.3278">
        <ele>88</ele>
        <time>2013-02-16T13:52:15Z</time>
      </trkpt>
      <trkpt lat="48.84865" lon="2.32789">
        <ele>86</ele>
        <time>2013-02-16T13:52:20Z</time>
      </trkpt>
      <trkpt lat="48.84858" lon="2.32791">
        <ele>84</ele>
        <time>2013-02-16T13:52:23Z</time>
      </trkpt>
      <trkpt lat="48.84853" lon="2.32793">
        <ele>86</ele>
        <time>2013-02-16T13:52:25Z</time>
      </trkpt>
      <trkpt lat="48.84834" lon="2.328">
        <ele>61</ele>
        <time>2013-02-16T13:52:30Z</time>
      </trkpt>
      <trkpt lat="48.84826" lon="2.32801">
        <ele>55</ele>
        <time>2013-02-16T13:52:32Z</time>
      </trkpt>
      <trkpt lat="48.84807" lon="2.328">
        <ele>48</ele>
        <time>2013-02-16T13:52:36Z</time>
      </trkpt>
      <trkpt lat="48.848" lon="2.32798">
        <ele>47</ele>
        <time>2013-02-16T13:52:39Z</time>
      </trkpt>
      <trkpt lat="48.84795" lon="2.32795">
        <ele>44</ele>
        <time>2013-02-16T13:52:42Z</time>
      </trkpt>
      <trkpt lat="48.84794" lon="2.32785">
        <ele>42</ele>
        <time>2013-02-16T13:52:47Z</time>
      </trkpt>
      <trkpt lat="48.84792" lon="2.32775">
        <ele>35</ele>
        <time>2013-02-16T13:52:50Z</time>
      </trkpt>
      <trkpt lat="48.84785" lon="2.3277">
        <ele>32</ele>
        <time>2013-02-16T13:52:53Z</time>
      </trkpt>
      <trkpt lat="48.84778" lon="2.32762">
        <ele>31</ele>
        <time>2013-02-16T13:52:56Z</time>
      </trkpt>
      <trkpt lat="48.84773" lon="2.32753">
        <ele>27</ele>
        <time>2013-02-16T13:52:59Z</time>
      </trkpt>
      <trkpt lat="48.84762" lon="2.32732">
        <ele>33</ele>
        <time>2013-02-16T13:53:08Z</time>
      </trkpt>
      <trkpt lat="48.84756" lon="2.32728">
        <ele>32</ele>
        <time>2013-02-16T13:53:10Z</time>
      </trkpt>
      <trkpt lat="48.84749" lon="2.32721">
        <ele>31</ele>
        <time>2013-02-16T13:53:13Z</time>
      </trkpt>
      <trkpt lat="48.84734" lon="2.32711">
        <ele>20</ele>
        <time>2013-02-16T13:53:20Z</time>
      </trkpt>
      <trkpt lat="48.84729" lon="2.32712">
        <ele>31</ele>
        <time>2013-02-16T13:53:25Z</time>
      </trkpt>
      <trkpt lat="48.84725" lon="2.32705">
        <ele>35</ele>
        <time>2013-02-16T13:53:28Z</time>
      </trkpt>
      <trkpt lat="48.84707" lon="2.3268">
        <ele>37</ele>
        <time>2013-02-16T13:53:41Z</time>
      </trkpt>
      <trkpt lat="48.84701" lon="2.32676">
        <ele>35</ele>
        <time>2013-02-16T13:53:44Z</time>
      </trkpt>
      <trkpt lat="48.84696" lon="2.32671">
        <ele>35</ele>
        <time>2013-02-16T13:53:47Z</time>
      </trkpt>
      <trkpt lat="48.84691" lon="2.32665">
        <ele>35</ele>
        <time>2013-02-16T13:53:51Z</time>
      </trkpt>
      <trkpt lat="48.84686" lon="2.32665">
        <ele>35</ele>
        <time>2013-02-16T13:53:55Z</time>
      </trkpt>
      <trkpt lat="48.84672" lon="2.32662">
        <ele>23</ele>
        <time>2013-02-16T13:54:22Z</time>
      </trkpt>
      <trkpt lat="48.84667" lon="2.32659">
        <ele>18</ele>
        <time>2013-02-16T13:54:24Z</time>
      </trkpt>
      <trkpt lat="48.84656" lon="2.32654">
        <ele>24</ele>
        <time>2013-02-16T13:54:27Z</time>
      </trkpt>
      <trkpt lat="48.84648" lon="2.32657">
        <ele>23</ele>
        <time>2013-02-16T13:54:29Z</time>
      </trkpt>
      <trkpt lat="48.84641" lon="2.32654">
        <ele>20</ele>
        <time>2013-02-16T13:54:31Z</time>
      </trkpt>
      <trkpt lat="48.84636" lon="2.32651">
        <ele>22</ele>
        <time>2013-02-16T13:54:33Z</time>
      </trkpt>
      <trkpt lat="48.8463" lon="2.32649">
        <ele>27</ele>
        <time>2013-02-16T13:54:36Z</time>
      </trkpt>
      <trkpt lat="48.84623" lon="2.32642">
        <ele>25</ele>
        <time>2013-02-16T13:54:40Z</time>
      </trkpt>
      <trkpt lat="48.84618" lon="2.3264">
        <ele>30</ele>
        <time>2013-02-16T13:54:43Z</time>
      </trkpt>
      <trkpt lat="48.84612" lon="2.32636">
        <ele>21</ele>
        <time>2013-02-16T13:54:47Z</time>
      </trkpt>
      <trkpt lat="48.84609" lon="2.32629">
        <ele>23</ele>
        <time>2013-02-16T13:54:53Z</time>
      </trkpt>
      <trkpt lat="48.84605" lon="2.32624">
        <ele>22</ele>
        <time>2013-02-16T13:54:55Z</time>
      </trkpt>
      <trkpt lat="48.846" lon="2.32616">
        <ele>23</ele>
        <time>2013-02-16T13:54:59Z</time>
      </trkpt>
      <trkpt lat="48.84595" lon="2.32612">
        <ele>24</ele>
        <time>2013-02-16T13:55:05Z</time>
      </trkpt>
      <trkpt lat="48.8459" lon="2.32609">
        <ele>26</ele>
        <time>2013-02-16T13:55:09Z</time>
      </trkpt>
      <trkpt lat="48.84584" lon="2.32603">
        <ele>30</ele>
        <time>2013-02-16T13:55:11Z</time>
      </trkpt>
      <trkpt lat="48.84569" lon="2.32581">
        <ele>38</ele>
        <time>2013-02-16T13:55:16Z</time>
      </trkpt>
      <trkpt lat="48.84565" lon="2.3257">
        <ele>35</ele>
        <time>2013-02-16T13:55:18Z</time>
      </trkpt>
      <trkpt lat="48.84562" lon="2.32558">
        <ele>34</ele>
        <time>2013-02-16T13:55:20Z</time>
      </trkpt>
      <trkpt lat="48.84554" lon="2.32553">
        <ele>30</ele>
        <time>2013-02-16T13:55:22Z</time>
      </trkpt>
      <trkpt lat="48.8455" lon="2.32548">
        <ele>32</ele>
        <time>2013-02-16T13:55:23Z</time>
      </trkpt>
      <trkpt lat="48.84545" lon="2.32546">
        <ele>32</ele>
        <time>2013-02-16T13:55:24Z</time>
      </trkpt>
      <trkpt lat="48.84536" lon="2.32539">
        <ele>32</ele>
        <time>2013-02-16T13:55:26Z</time>
      </trkpt>
      <trkpt lat="48.84518" lon="2.32521">
        <ele>30</ele>
        <time>2013-02-16T13:55:30Z</time>
      </trkpt>
      <trkpt lat="48.84485" lon="2.32486">
        <ele>37</ele>
        <time>2013-02-16T13:55:40Z</time>
      </trkpt>
      <trkpt lat="48.84479" lon="2.3248">
        <ele>34</ele>
        <time>2013-02-16T13:55:42Z</time>
      </trkpt>
      <trkpt lat="48.84472" lon="2.32477">
        <ele>30</ele>
        <time>2013-02-16T13:55:44Z</time>
      </trkpt>
      <trkpt lat="48.84467" lon="2.32473">
        <ele>26</ele>
        <time>2013-02-16T13:55:47Z</time>
      </trkpt>
      <trkpt lat="48.84463" lon="2.32468">
        <ele>28</ele>
        <time>2013-02-16T13:55:49Z</time>
      </trkpt>
      <trkpt lat="48.84455" lon="2.32459">
        <ele>41</ele>
        <time>2013-02-16T13:55:53Z</time>
      </trkpt>
      <trkpt lat="48.84449" lon="2.32456">
        <ele>33</ele>
        <time>2013-02-16T13:55:57Z</time>
      </trkpt>
      <trkpt lat="48.84443" lon="2.32459">
        <ele>32</ele>
        <time>2013-02-16T13:56:01Z</time>
      </trkpt>
      <trkpt lat="48.84438" lon="2.32458">
        <ele>39</ele>
        <time>2013-02-16T13:56:04Z</time>
      </trkpt>
      <trkpt lat="48.84432" lon="2.32454">
        <ele>40</ele>
        <time>2013-02-16T13:56:07Z</time>
      </trkpt>
      <trkpt lat="48.84424" lon="2.32443">
        <ele>44</ele>
        <time>2013-02-16T13:56:11Z</time>
      </trkpt>
      <trkpt lat="48.84423" lon="2.32434">
        <ele>45</ele>
        <time>2013-02-16T13:56:14Z</time>
      </trkpt>
      <trkpt lat="48.84425" lon="2.32426">
        <ele>39</ele>
        <time>2013-02-16T13:56:18Z</time>
      </trkpt>
      <trkpt lat="48.84427" lon="2.32413">
        <ele>70</ele>
        <time>2013-02-16T13:56:58Z</time>
      </trkpt>
      <trkpt lat="48.84422" lon="2.3241">
        <ele>65</ele>
        <time>2013-02-16T13:57:01Z</time>
      </trkpt>
      <trkpt lat="48.84416" lon="2.32413">
        <ele>62</ele>
        <time>2013-02-16T13:57:03Z</time>
      </trkpt>
      <trkpt lat="48.8441" lon="2.32413">
        <ele>56</ele>
        <time>2013-02-16T13:57:05Z</time>
      </trkpt>
      <trkpt lat="48.84399" lon="2.32415">
        <ele>52</ele>
        <time>2013-02-16T13:57:08Z</time>
      </trkpt>
      <trkpt lat="48.84393" lon="2.32418">
        <ele>48</ele>
        <time>2013-02-16T13:57:11Z</time>
      </trkpt>
      <trkpt lat="48.84388" lon="2.32422">
        <ele>48</ele>
        <time>2013-02-16T13:57:13Z</time>
      </trkpt>
      <trkpt lat="48.84386" lon="2.3243">
        <ele>44</ele>
        <time>2013-02-16T13:57:15Z</time>
      </trkpt>
      <trkpt lat="48.84385" lon="2.32438">
        <ele>51</ele>
        <time>2013-02-16T13:57:19Z</time>
      </trkpt>
      <trkpt lat="48.84382" lon="2.32445">
        <ele>33</ele>
        <time>2013-02-16T13:57:29Z</time>
      </trkpt>
      <trkpt lat="48.84381" lon="2.32453">
        <ele>33</ele>
        <time>2013-02-16T13:57:31Z</time>
      </trkpt>
      <trkpt lat="48.84378" lon="2.32466">
        <ele>33</ele>
        <time>2013-02-16T13:57:36Z</time>
      </trkpt>
      <trkpt lat="48.84375" lon="2.32473">
        <ele>35</ele>
        <time>2013-02-16T13:57:39Z</time>
      </trkpt>
      <trkpt lat="48.84373" lon="2.32486">
        <ele>55</ele>
        <time>2013-02-16T13:57:56Z</time>
      </trkpt>
      <trkpt lat="48.84369" lon="2.32499">
        <ele>57</ele>
        <time>2013-02-16T13:58:12Z</time>
      </trkpt>
      <trkpt lat="48.84363" lon="2.32518">
        <ele>55</ele>
        <time>2013-02-16T13:58:19Z</time>
      </trkpt>
      <trkpt lat="48.84359" lon="2.32523">
        <ele>52</ele>
        <time>2013-02-16T13:58:21Z</time>
      </trkpt>
      <trkpt lat="48.84355" lon="2.32533">
        <ele>53</ele>
        <time>2013-02-16T13:58:24Z</time>
      </trkpt>
      <trkpt lat="48.84351" lon="2.32539">
        <ele>54</ele>
        <time>2013-02-16T13:58:28Z</time>
      </trkpt>
      <trkpt lat="48.84349" lon="2.32547">
        <ele>53</ele>
        <time>2013-02-16T13:58:31Z</time>
      </trkpt>
      <trkpt lat="48.84341" lon="2.32576">
        <ele>46</ele>
        <time>2013-02-16T13:58:42Z</time>
      </trkpt>
      <trkpt lat="48.84335" lon="2.32582">
        <ele>52</ele>
        <time>2013-02-16T13:58:45Z</time>
      </trkpt>
      <trkpt lat="48.84322" lon="2.32598">
        <ele>72</ele>
        <time>2013-02-16T13:58:53Z</time>
      </trkpt>
      <trkpt lat="48.84317" lon="2.32606">
        <ele>73</ele>
        <time>2013-02-16T13:58:57Z</time>
      </trkpt>
      <trkpt lat="48.84315" lon="2.32614">
        <ele>70</ele>
        <time>2013-02-16T13:59:00Z</time>
      </trkpt>
      <trkpt lat="48.84312" lon="2.32624">
        <ele>41</ele>
        <time>2013-02-16T13:59:23Z</time>
      </trkpt>
      <trkpt lat="48.84311" lon="2.32634">
        <ele>41</ele>
        <time>2013-02-16T13:59:25Z</time>
      </trkpt>
      <trkpt lat="48.84309" lon="2.32642">
        <ele>49</ele>
        <time>2013-02-16T13:59:28Z</time>
      </trkpt>
      <trkpt lat="48.84308" lon="2.32653">
        <ele>51</ele>
        <time>2013-02-16T13:59:31Z</time>
      </trkpt>
      <trkpt lat="48.84304" lon="2.32661">
        <ele>61</ele>
        <time>2013-02-16T13:59:34Z</time>
      </trkpt>
      <trkpt lat="48.84299" lon="2.32668">
        <ele>75</ele>
        <time>2013-02-16T13:59:37Z</time>
      </trkpt>
      <trkpt lat="48.84294" lon="2.32673">
        <ele>88</ele>
        <time>2013-02-16T13:59:41Z</time>
      </trkpt>
      <trkpt lat="48.84292" lon="2.32682">
        <ele>106</ele>
        <time>2013-02-16T13:59:45Z</time>
      </trkpt>
      <trkpt lat="48.84288" lon="2.3269">
        <ele>90</ele>
        <time>2013-02-16T13:59:48Z</time>
      </trkpt>
      <trkpt lat="48.84278" lon="2.32711">
        <ele>69</ele>
        <time>2013-02-16T13:59:53Z</time>
      </trkpt>
      <trkpt lat="48.84277" lon="2.32718">
        <ele>67</ele>
        <time>2013-02-16T13:59:55Z</time>
      </trkpt>
      <trkpt lat="48.84276" lon="2.32729">
        <ele>69</ele>
        <time>2013-02-16T13:59:58Z</time>
      </trkpt>
      <trkpt lat="48.84274" lon="2.32745">
        <ele>81</ele>
        <time>2013-02-16T14:00:03Z</time>
      </trkpt>
      <trkpt lat="48.8427" lon="2.32752">
        <ele>85</ele>
        <time>2013-02-16T14:00:06Z</time>
      </trkpt>
      <trkpt lat="48.84267" lon="2.3276">
        <ele>98</ele>
        <time>2013-02-16T14:00:09Z</time>
      </trkpt>
      <trkpt lat="48.84263" lon="2.32771">
        <ele>90</ele>
        <time>2013-02-16T14:00:14Z</time>
      </trkpt>
      <trkpt lat="48.84249" lon="2.32798">
        <ele>79</ele>
        <time>2013-02-16T14:00:23Z</time>
      </trkpt>
      <trkpt lat="48.84247" lon="2.32799">
        <ele>84</ele>
        <time>2013-02-16T14:00:25Z</time>
      </trkpt>
      <trkpt lat="48.84245" lon="2.32808">
        <ele>88</ele>
        <time>2013-02-16T14:00:29Z</time>
      </trkpt>
      <trkpt lat="48.84241" lon="2.32831">
        <ele>94</ele>
        <time>2013-02-16T14:00:37Z</time>
      </trkpt>
      <trkpt lat="48.84237" lon="2.32849">
        <ele>108</ele>
        <time>2013-02-16T14:00:43Z</time>
      </trkpt>
      <trkpt lat="48.84234" lon="2.32857">
        <ele>108</ele>
        <time>2013-02-16T14:00:46Z</time>
      </trkpt>
      <trkpt lat="48.84225" lon="2.32883">
        <ele>105</ele>
        <time>2013-02-16T14:00:54Z</time>
      </trkpt>
      <trkpt lat="48.84223" lon="2.32891">
        <ele>104</ele>
        <time>2013-02-16T14:00:56Z</time>
      </trkpt>
      <trkpt lat="48.84221" lon="2.32898">
        <ele>100</ele>
        <time>2013-02-16T14:00:58Z</time>
      </trkpt>
      <trkpt lat="48.84219" lon="2.32909">
        <ele>99</ele>
        <time>2013-02-16T14:01:00Z</time>
      </trkpt>
      <trkpt lat="48.84217" lon="2.32921">
        <ele>97</ele>
        <time>2013-02-16T14:01:02Z</time>
      </trkpt>
      <trkpt lat="48.84215" lon="2.32928">
        <ele>97</ele>
        <time>2013-02-16T14:01:04Z</time>
      </trkpt>
      <trkpt lat="48.8421" lon="2.32937">
        <ele>98</ele>
        <time>2013-02-16T14:01:07Z</time>
      </trkpt>
      <trkpt lat="48.84199" lon="2.32954">
        <ele>77</ele>
        <time>2013-02-16T14:01:12Z</time>
      </trkpt>
      <trkpt lat="48.84197" lon="2.32957">
        <ele>73</ele>
        <time>2013-02-16T14:01:13Z</time>
      </trkpt>
      <trkpt lat="48.84192" lon="2.32968">
        <ele>71</ele>
        <time>2013-02-16T14:01:15Z</time>
      </trkpt>
      <trkpt lat="48.84189" lon="2.32979">
        <ele>65</ele>
        <time>2013-02-16T14:01:18Z</time>
      </trkpt>
      <trkpt lat="48.84187" lon="2.32989">
        <ele>62</ele>
        <time>2013-02-16T14:01:19Z</time>
      </trkpt>
      <trkpt lat="48.84181" lon="2.33019">
        <ele>73</ele>
        <time>2013-02-16T14:01:26Z</time>
      </trkpt>
      <trkpt lat="48.84175" lon="2.33043">
        <ele>80</ele>
        <time>2013-02-16T14:01:31Z</time>
      </trkpt>
      <trkpt lat="48.84171" lon="2.33055">
        <ele>88</ele>
        <time>2013-02-16T14:01:34Z</time>
      </trkpt>
      <trkpt lat="48.84168" lon="2.33061">
        <ele>92</ele>
        <time>2013-02-16T14:01:36Z</time>
      </trkpt>
      <trkpt lat="48.8416" lon="2.33078">
        <ele>106</ele>
        <time>2013-02-16T14:01:41Z</time>
      </trkpt>
      <trkpt lat="48.84158" lon="2.33087">
        <ele>103</ele>
        <time>2013-02-16T14:01:43Z</time>
      </trkpt>
      <trkpt lat="48.84154" lon="2.33102">
        <ele>83</ele>
        <time>2013-02-16T14:01:46Z</time>
      </trkpt>
      <trkpt lat="48.84149" lon="2.33112">
        <ele>71</ele>
        <time>2013-02-16T14:01:48Z</time>
      </trkpt>
      <trkpt lat="48.84138" lon="2.33138">
        <ele>77</ele>
        <time>2013-02-16T14:01:56Z</time>
      </trkpt>
      <trkpt lat="48.84136" lon="2.33146">
        <ele>84</ele>
        <time>2013-02-16T14:01:58Z</time>
      </trkpt>
      <trkpt lat="48.84133" lon="2.33153">
        <ele>84</ele>
        <time>2013-02-16T14:02:01Z</time>
      </trkpt>
      <trkpt lat="48.84132" lon="2.33163">
        <ele>89</ele>
        <time>2013-02-16T14:02:04Z</time>
      </trkpt>
      <trkpt lat="48.84128" lon="2.33177">
        <ele>86</ele>
        <time>2013-02-16T14:02:11Z</time>
      </trkpt>
      <trkpt lat="48.84109" lon="2.33257">
        <ele>116</ele>
        <time>2013-02-16T14:02:33Z</time>
      </trkpt>
      <trkpt lat="48.84106" lon="2.33264">
        <ele>113</ele>
        <time>2013-02-16T14:02:35Z</time>
      </trkpt>
      <trkpt lat="48.84094" lon="2.33289">
        <ele>112</ele>
        <time>2013-02-16T14:02:41Z</time>
      </trkpt>
      <trkpt lat="48.84089" lon="2.33298">
        <ele>111</ele>
        <time>2013-02-16T14:02:44Z</time>
      </trkpt>
      <trkpt lat="48.84086" lon="2.33308">
        <ele>113</ele>
        <time>2013-02-16T14:02:46Z</time>
      </trkpt>
      <trkpt lat="48.84075" lon="2.33337">
        <ele>96</ele>
        <time>2013-02-16T14:02:51Z</time>
      </trkpt>
      <trkpt lat="48.84067" lon="2.33358">
        <ele>95</ele>
        <time>2013-02-16T14:02:54Z</time>
      </trkpt>
      <trkpt lat="48.84063" lon="2.33369">
        <ele>98</ele>
        <time>2013-02-16T14:02:56Z</time>
      </trkpt>
      <trkpt lat="48.84057" lon="2.33382">
        <ele>90</ele>
        <time>2013-02-16T14:02:58Z</time>
      </trkpt>
      <trkpt lat="48.84054" lon="2.33389">
        <ele>92</ele>
        <time>2013-02-16T14:02:59Z</time>
      </trkpt>
      <trkpt lat="48.8405" lon="2.33404">
        <ele>89</ele>
        <time>2013-02-16T14:03:01Z</time>
      </trkpt>
      <trkpt lat="48.84043" lon="2.33431">
        <ele>92</ele>
        <time>2013-02-16T14:03:05Z</time>
      </trkpt>
      <trkpt lat="48.84038" lon="2.33441">
        <ele>94</ele>
        <time>2013-02-16T14:03:07Z</time>
      </trkpt>
      <trkpt lat="48.84036" lon="2.33447">
        <ele>93</ele>
        <time>2013-02-16T14:03:08Z</time>
      </trkpt>
      <trkpt lat="48.84034" lon="2.33455">
        <ele>86</ele>
        <time>2013-02-16T14:03:09Z</time>
      </trkpt>
      <trkpt lat="48.84032" lon="2.33463">
        <ele>86</ele>
        <time>2013-02-16T14:03:10Z</time>
      </trkpt>
      <trkpt lat="48.84024" lon="2.33489">
        <ele>94</ele>
        <time>2013-02-16T14:03:14Z</time>
      </trkpt>
      <trkpt lat="48.84019" lon="2.33501">
        <ele>92</ele>
        <time>2013-02-16T14:03:16Z</time>
      </trkpt>
      <trkpt lat="48.84016" lon="2.33516">
        <ele>94</ele>
        <time>2013-02-16T14:03:18Z</time>
      </trkpt>
      <trkpt lat="48.83988" lon="2.33633">
        <ele>109</ele>
        <time>2013-02-16T14:03:44Z</time>
      </trkpt>
      <trkpt lat="48.83985" lon="2.33655">
        <ele>89</ele>
        <time>2013-02-16T14:03:48Z</time>
      </trkpt>
      <trkpt lat="48.83989" lon="2.3367">
        <ele>68</ele>
        <time>2013-02-16T14:03:52Z</time>
      </trkpt>
      <trkpt lat="48.83991" lon="2.33674">
        <ele>62</ele>
        <time>2013-02-16T14:03:53Z</time>
      </trkpt>
      <trkpt lat="48.83992" lon="2.33678">
        <ele>59</ele>
        <time>2013-02-16T14:03:54Z</time>
      </trkpt>
      <trkpt lat="48.83997" lon="2.33686">
        <ele>56</ele>
        <time>2013-02-16T14:03:56Z</time>
      </trkpt>
      <trkpt lat="48.84002" lon="2.33693">
        <ele>54</ele>
        <time>2013-02-16T14:03:58Z</time>
      </trkpt>
      <trkpt lat="48.84009" lon="2.33702">
        <ele>56</ele>
        <time>2013-02-16T14:04:01Z</time>
      </trkpt>
      <trkpt lat="48.84015" lon="2.33709">
        <ele>58</ele>
        <time>2013-02-16T14:04:03Z</time>
      </trkpt>
      <trkpt lat="48.84024" lon="2.33718">
        <ele>79</ele>
        <time>2013-02-16T14:04:06Z</time>
      </trkpt>
      <trkpt lat="48.84031" lon="2.3372">
        <ele>79</ele>
        <time>2013-02-16T14:04:08Z</time>
      </trkpt>
      <trkpt lat="48.84052" lon="2.33725">
        <ele>78</ele>
        <time>2013-02-16T14:04:13Z</time>
      </trkpt>
      <trkpt lat="48.84073" lon="2.33728">
        <ele>76</ele>
        <time>2013-02-16T14:04:19Z</time>
      </trkpt>
      <trkpt lat="48.84093" lon="2.33734">
        <ele>68</ele>
        <time>2013-02-16T14:04:25Z</time>
      </trkpt>
      <trkpt lat="48.84098" lon="2.33737">
        <ele>65</ele>
        <time>2013-02-16T14:04:27Z</time>
      </trkpt>
      <trkpt lat="48.8412" lon="2.33747">
        <ele>54</ele>
        <time>2013-02-16T14:04:34Z</time>
      </trkpt>
      <trkpt lat="48.84127" lon="2.3375">
        <ele>52</ele>
        <time>2013-02-16T14:04:36Z</time>
      </trkpt>
      <trkpt lat="48.84138" lon="2.33755">
        <ele>49</ele>
        <time>2013-02-16T14:04:39Z</time>
      </trkpt>
      <trkpt lat="48.84144" lon="2.33762">
        <ele>49</ele>
        <time>2013-02-16T14:04:41Z</time>
      </trkpt>
      <trkpt lat="48.8415" lon="2.33767">
        <ele>50</ele>
        <time>2013-02-16T14:04:43Z</time>
      </trkpt>
      <trkpt lat="48.84161" lon="2.33781">
        <ele>49</ele>
        <time>2013-02-16T14:04:49Z</time>
      </trkpt>
      <trkpt lat="48.84162" lon="2.33788">
        <ele>45</ele>
        <time>2013-02-16T14:04:54Z</time>
      </trkpt>
      <trkpt lat="48.84168" lon="2.33791">
        <ele>56</ele>
        <time>2013-02-16T14:05:03Z</time>
      </trkpt>
      <trkpt lat="48.84174" lon="2.33793">
        <ele>53</ele>
        <time>2013-02-16T14:05:05Z</time>
      </trkpt>
      <trkpt lat="48.84183" lon="2.33793">
        <ele>60</ele>
        <time>2013-02-16T14:05:09Z</time>
      </trkpt>
      <trkpt lat="48.84205" lon="2.33796">
        <ele>62</ele>
        <time>2013-02-16T14:05:16Z</time>
      </trkpt>
      <trkpt lat="48.84211" lon="2.33798">
        <ele>61</ele>
        <time>2013-02-16T14:05:18Z</time>
      </trkpt>
      <trkpt lat="48.84217" lon="2.33798">
        <ele>60</ele>
        <time>2013-02-16T14:05:20Z</time>
      </trkpt>
      <trkpt lat="48.84224" lon="2.33801">
        <ele>59</ele>
        <time>2013-02-16T14:05:23Z</time>
      </trkpt>
      <trkpt lat="48.84229" lon="2.33803">
        <ele>62</ele>
        <time>2013-02-16T14:05:25Z</time>
      </trkpt>
      <trkpt lat="48.84241" lon="2.33811">
        <ele>62</ele>
        <time>2013-02-16T14:05:30Z</time>
      </trkpt>
      <trkpt lat="48.84257" lon="2.33819">
        <ele>61</ele>
        <time>2013-02-16T14:05:35Z</time>
      </trkpt>
      <trkpt lat="48.84262" lon="2.33819">
        <ele>63</ele>
        <time>2013-02-16T14:05:37Z</time>
      </trkpt>
      <trkpt lat="48.84268" lon="2.33821">
        <ele>69</ele>
        <time>2013-02-16T14:05:40Z</time>
      </trkpt>
      <trkpt lat="48.84276" lon="2.33827">
        <ele>70</ele>
        <time>2013-02-16T14:05:43Z</time>
      </trkpt>
      <trkpt lat="48.84289" lon="2.33835">
        <ele>78</ele>
        <time>2013-02-16T14:05:47Z</time>
      </trkpt>
      <trkpt lat="48.84303" lon="2.33841">
        <ele>80</ele>
        <time>2013-02-16T14:05:51Z</time>
      </trkpt>
      <trkpt lat="48.84323" lon="2.33852">
        <ele>52</ele>
        <time>2013-02-16T14:05:56Z</time>
      </trkpt>
      <trkpt lat="48.8433" lon="2.33857">
        <ele>51</ele>
        <time>2013-02-16T14:05:58Z</time>
      </trkpt>
      <trkpt lat="48.84342" lon="2.33866">
        <ele>47</ele>
        <time>2013-02-16T14:06:02Z</time>
      </trkpt>
      <trkpt lat="48.84347" lon="2.33867">
        <ele>52</ele>
        <time>2013-02-16T14:06:04Z</time>
      </trkpt>
      <trkpt lat="48.84364" lon="2.33874">
        <ele>59</ele>
        <time>2013-02-16T14:06:09Z</time>
      </trkpt>
      <trkpt lat="48.84369" lon="2.33879">
        <ele>56</ele>
        <time>2013-02-16T14:06:10Z</time>
      </trkpt>
      <trkpt lat="48.84378" lon="2.33883">
        <ele>56</ele>
        <time>2013-02-16T14:06:12Z</time>
      </trkpt>
      <trkpt lat="48.84383" lon="2.3389">
        <ele>61</ele>
        <time>2013-02-16T14:06:14Z</time>
      </trkpt>
      <trkpt lat="48.84388" lon="2.33896">
        <ele>58</ele>
        <time>2013-02-16T14:06:16Z</time>
      </trkpt>
      <trkpt lat="48.84395" lon="2.33899">
        <ele>64</ele>
        <time>2013-02-16T14:06:18Z</time>
      </trkpt>
      <trkpt lat="48.84432" lon="2.33918">
        <ele>60</ele>
        <time>2013-02-16T14:06:32Z</time>
      </trkpt>
      <trkpt lat="48.84445" lon="2.33928">
        <ele>58</ele>
        <time>2013-02-16T14:06:37Z</time>
      </trkpt>
      <trkpt lat="48.84451" lon="2.33934">
        <ele>53</ele>
        <time>2013-02-16T14:06:39Z</time>
      </trkpt>
      <trkpt lat="48.84467" lon="2.3395">
        <ele>47</ele>
        <time>2013-02-16T14:06:44Z</time>
      </trkpt>
      <trkpt lat="48.84474" lon="2.33954">
        <ele>48</ele>
        <time>2013-02-16T14:06:46Z</time>
      </trkpt>
      <trkpt lat="48.84492" lon="2.33965">
        <ele>47</ele>
        <time>2013-02-16T14:06:51Z</time>
      </trkpt>
      <trkpt lat="48.845" lon="2.33969">
        <ele>47</ele>
        <time>2013-02-16T14:06:53Z</time>
      </trkpt>
      <trkpt lat="48.84537" lon="2.33986">
        <ele>43</ele>
        <time>2013-02-16T14:07:04Z</time>
      </trkpt>
      <trkpt lat="48.84542" lon="2.33986">
        <ele>48</ele>
        <time>2013-02-16T14:07:07Z</time>
      </trkpt>
      <trkpt lat="48.84547" lon="2.3399">
        <ele>40</ele>
        <time>2013-02-16T14:07:11Z</time>
      </trkpt>
      <trkpt lat="48.84565" lon="2.34001">
        <ele>45</ele>
        <time>2013-02-16T14:07:21Z</time>
      </trkpt>
      <trkpt lat="48.84572" lon="2.34008">
        <ele>43</ele>
        <time>2013-02-16T14:07:24Z</time>
      </trkpt>
      <trkpt lat="48.84585" lon="2.34017">
        <ele>42</ele>
        <time>2013-02-16T14:07:28Z</time>
      </trkpt>
      <trkpt lat="48.84591" lon="2.3402">
        <ele>42</ele>
        <time>2013-02-16T14:07:30Z</time>
      </trkpt>
      <trkpt lat="48.84598" lon="2.34023">
        <ele>43</ele>
        <time>2013-02-16T14:07:32Z</time>
      </trkpt>
      <trkpt lat="48.84604" lon="2.34024">
        <ele>43</ele>
        <time>2013-02-16T14:07:34Z</time>
      </trkpt>
      <trkpt lat="48.84611" lon="2.34028">
        <ele>48</ele>
        <time>2013-02-16T14:07:37Z</time>
      </trkpt>
      <trkpt lat="48.84616" lon="2.34034">
        <ele>39</ele>
        <time>2013-02-16T14:07:40Z</time>
      </trkpt>
      <trkpt lat="48.84622" lon="2.34036">
        <ele>42</ele>
        <time>2013-02-16T14:07:48Z</time>
      </trkpt>
      <trkpt lat="48.84629" lon="2.34039">
        <ele>41</ele>
        <time>2013-02-16T14:07:51Z</time>
      </trkpt>
      <trkpt lat="48.84633" lon="2.34045">
        <ele>44</ele>
        <time>2013-02-16T14:07:54Z</time>
      </trkpt>
      <trkpt lat="48.84639" lon="2.34047">
        <ele>49</ele>
        <time>2013-02-16T14:08:05Z</time>
      </trkpt>
      <trkpt lat="48.84644" lon="2.34052">
        <ele>53</ele>
        <time>2013-02-16T14:08:08Z</time>
      </trkpt>
      <trkpt lat="48.84651" lon="2.34056">
        <ele>49</ele>
        <time>2013-02-16T14:08:11Z</time>
      </trkpt>
      <trkpt lat="48.84656" lon="2.34057">
        <ele>53</ele>
        <time>2013-02-16T14:08:14Z</time>
      </trkpt>
      <trkpt lat="48.84662" lon="2.3406">
        <ele>55</ele>
        <time>2013-02-16T14:08:18Z</time>
      </trkpt>
      <trkpt lat="48.84666" lon="2.34065">
        <ele>65</ele>
        <time>2013-02-16T14:08:21Z</time>
      </trkpt>
      <trkpt lat="48.84674" lon="2.34072">
        <ele>61</ele>
        <time>2013-02-16T14:08:26Z</time>
      </trkpt>
      <trkpt lat="48.8468" lon="2.34073">
        <ele>64</ele>
        <time>2013-02-16T14:08:30Z</time>
      </trkpt>
      <trkpt lat="48.84685" lon="2.34071">
        <ele>59</ele>
        <time>2013-02-16T14:08:32Z</time>
      </trkpt>
      <trkpt lat="48.84699" lon="2.34071">
        <ele>52</ele>
        <time>2013-02-16T14:08:40Z</time>
      </trkpt>
      <trkpt lat="48.84704" lon="2.34079">
        <ele>48</ele>
        <time>2013-02-16T14:08:51Z</time>
      </trkpt>
      <trkpt lat="48.84708" lon="2.34083">
        <ele>52</ele>
        <time>2013-02-16T14:08:56Z</time>
      </trkpt>
      <trkpt lat="48.84716" lon="2.34091">
        <ele>45</ele>
        <time>2013-02-16T14:08:59Z</time>
      </trkpt>
      <trkpt lat="48.84718" lon="2.34102">
        <ele>42</ele>
        <time>2013-02-16T14:09:03Z</time>
      </trkpt>
      <trkpt lat="48.84719" lon="2.34109">
        <ele>47</ele>
        <time>2013-02-16T14:09:07Z</time>
      </trkpt>
      <trkpt lat="48.84721" lon="2.34117">
        <ele>47</ele>
        <time>2013-02-16T14:09:15Z</time>
      </trkpt>
      <trkpt lat="48.84719" lon="2.34124">
        <ele>55</ele>
        <time>2013-02-16T14:09:19Z</time>
      </trkpt>
      <trkpt lat="48.84717" lon="2.34134">
        <ele>56</ele>
        <time>2013-02-16T14:09:24Z</time>
      </trkpt>
      <trkpt lat="48.84714" lon="2.34142">
        <ele>54</ele>
        <time>2013-02-16T14:09:29Z</time>
      </trkpt>
      <trkpt lat="48.84714" lon="2.3415">
        <ele>68</ele>
        <time>2013-02-16T14:09:35Z</time>
      </trkpt>
      <trkpt lat="48.84717" lon="2.34159">
        <ele>69</ele>
        <time>2013-02-16T14:09:39Z</time>
      </trkpt>
      <trkpt lat="48.84725" lon="2.34158">
        <ele>50</ele>
        <time>2013-02-16T14:13:56Z</time>
      </trkpt>
      <trkpt lat="48.84719" lon="2.34155">
        <ele>56</ele>
        <time>2013-02-16T14:13:58Z</time>
      </trkpt>
      <trkpt lat="48.84715" lon="2.34151">
        <ele>62</ele>
        <time>2013-02-16T14:14:02Z</time>
      </trkpt>
      <trkpt lat="48.84719" lon="2.34143">
        <ele>55</ele>
        <time>2013-02-16T14:14:05Z</time>
      </trkpt>
      <trkpt lat="48.84723" lon="2.34136">
        <ele>48</ele>
        <time>2013-02-16T14:14:11Z</time>
      </trkpt>
      <trkpt lat="48.8473" lon="2.34135">
        <ele>44</ele>
        <time>2013-02-16T14:14:15Z</time>
      </trkpt>
      <trkpt lat="48.84736" lon="2.34138">
        <ele>34</ele>
        <time>2013-02-16T14:15:43Z</time>
      </trkpt>
      <trkpt lat="48.84741" lon="2.34141">
        <ele>38</ele>
        <time>2013-02-16T14:16:26Z</time>
      </trkpt>
      <trkpt lat="48.84738" lon="2.34134">
        <ele>110</ele>
        <time>2013-02-16T14:17:37Z</time>
      </trkpt>
      <trkpt lat="48.84733" lon="2.3414">
        <ele>39</ele>
        <time>2013-02-16T14:31:46Z</time>
      </trkpt>
      <trkpt lat="48.84731" lon="2.34148">
        <ele>43</ele>
        <time>2013-02-16T14:31:49Z</time>
      </trkpt>
      <trkpt lat="48.84727" lon="2.34155">
        <ele>44</ele>
        <time>2013-02-16T14:31:51Z</time>
      </trkpt>
      <trkpt lat="48.84724" lon="2.34163">
        <ele>48</ele>
        <time>2013-02-16T14:31:54Z</time>
      </trkpt>
      <trkpt lat="48.84723" lon="2.34171">
        <ele>55</ele>
        <time>2013-02-16T14:31:57Z</time>
      </trkpt>
      <trkpt lat="48.84721" lon="2.34179">
        <ele>59</ele>
        <time>2013-02-16T14:32:01Z</time>
      </trkpt>
      <trkpt lat="48.8472" lon="2.34183">
        <ele>56</ele>
        <time>2013-02-16T14:32:04Z</time>
      </trkpt>
      <trkpt lat="48.84725" lon="2.34189">
        <ele>55</ele>
        <time>2013-02-16T14:32:09Z</time>
      </trkpt>
      <trkpt lat="48.84729" lon="2.34193">
        <ele>53</ele>
        <time>2013-02-16T14:32:14Z</time>
      </trkpt>
      <trkpt lat="48.84735" lon="2.34195">
        <ele>56</ele>
        <time>2013-02-16T14:32:19Z</time>
      </trkpt>
      <trkpt lat="48.84741" lon="2.342">
        <ele>60</ele>
        <time>2013-02-16T14:32:23Z</time>
      </trkpt>
      <trkpt lat="48.84746" lon="2.34208">
        <ele>51</ele>
        <time>2013-02-16T14:32:28Z</time>
      </trkpt>
      <trkpt lat="48.84749" lon="2.34217">
        <ele>57</ele>
        <time>2013-02-16T14:32:42Z</time>
      </trkpt>
      <trkpt lat="48.84742" lon="2.34218">
        <ele>52</ele>
        <time>2013-02-16T14:32:45Z</time>
      </trkpt>
      <trkpt lat="48.84737" lon="2.34217">
        <ele>48</ele>
        <time>2013-02-16T14:32:47Z</time>
      </trkpt>
      <trkpt lat="48.84731" lon="2.34215">
        <ele>50</ele>
        <time>2013-02-16T14:32:50Z</time>
      </trkpt>
      <trkpt lat="48.84724" lon="2.34212">
        <ele>43</ele>
        <time>2013-02-16T14:32:52Z</time>
      </trkpt>
      <trkpt lat="48.84719" lon="2.34208">
        <ele>36</ele>
        <time>2013-02-16T14:32:54Z</time>
      </trkpt>
      <trkpt lat="48.84722" lon="2.34215">
        <ele>41</ele>
        <time>2013-02-16T14:33:06Z</time>
      </trkpt>
      <trkpt lat="48.8472" lon="2.34222">
        <ele>46</ele>
        <time>2013-02-16T14:33:09Z</time>
      </trkpt>
      <trkpt lat="48.84717" lon="2.34235">
        <ele>50</ele>
        <time>2013-02-16T14:33:13Z</time>
      </trkpt>
      <trkpt lat="48.84713" lon="2.34242">
        <ele>52</ele>
        <time>2013-02-16T14:33:15Z</time>
      </trkpt>
      <trkpt lat="48.8471" lon="2.34251">
        <ele>61</ele>
        <time>2013-02-16T14:33:18Z</time>
      </trkpt>
      <trkpt lat="48.84707" lon="2.34267">
        <ele>54</ele>
        <time>2013-02-16T14:33:24Z</time>
      </trkpt>
      <trkpt lat="48.84707" lon="2.34276">
        <ele>48</ele>
        <time>2013-02-16T14:33:27Z</time>
      </trkpt>
      <trkpt lat="48.84706" lon="2.34284">
        <ele>44</ele>
        <time>2013-02-16T14:33:30Z</time>
      </trkpt>
      <trkpt lat="48.84704" lon="2.34295">
        <ele>43</ele>
        <time>2013-02-16T14:33:35Z</time>
      </trkpt>
      <trkpt lat="48.84699" lon="2.34303">
        <ele>45</ele>
        <time>2013-02-16T14:33:38Z</time>
      </trkpt>
      <trkpt lat="48.84695" lon="2.3431">
        <ele>47</ele>
        <time>2013-02-16T14:33:40Z</time>
      </trkpt>
      <trkpt lat="48.84692" lon="2.34317">
        <ele>58</ele>
        <time>2013-02-16T14:33:43Z</time>
      </trkpt>
      <trkpt lat="48.84684" lon="2.34337">
        <ele>47</ele>
        <time>2013-02-16T14:33:52Z</time>
      </trkpt>
      <trkpt lat="48.84683" lon="2.34346">
        <ele>48</ele>
        <time>2013-02-16T14:33:54Z</time>
      </trkpt>
      <trkpt lat="48.84683" lon="2.34355">
        <ele>53</ele>
        <time>2013-02-16T14:33:57Z</time>
      </trkpt>
      <trkpt lat="48.8468" lon="2.34363">
        <ele>61</ele>
        <time>2013-02-16T14:34:00Z</time>
      </trkpt>
      <trkpt lat="48.84677" lon="2.34369">
        <ele>69</ele>
        <time>2013-02-16T14:34:03Z</time>
      </trkpt>
      <trkpt lat="48.84673" lon="2.34378">
        <ele>71</ele>
        <time>2013-02-16T14:34:06Z</time>
      </trkpt>
      <trkpt lat="48.84673" lon="2.34386">
        <ele>74</ele>
        <time>2013-02-16T14:34:08Z</time>
      </trkpt>
      <trkpt lat="48.84671" lon="2.34397">
        <ele>73</ele>
        <time>2013-02-16T14:34:10Z</time>
      </trkpt>
      <trkpt lat="48.8467" lon="2.34405">
        <ele>70</ele>
        <time>2013-02-16T14:34:12Z</time>
      </trkpt>
      <trkpt lat="48.84666" lon="2.34435">
        <ele>61</ele>
        <time>2013-02-16T14:34:22Z</time>
      </trkpt>
      <trkpt lat="48.84666" lon="2.34456">
        <ele>54</ele>
        <time>2013-02-16T14:34:26Z</time>
      </trkpt>
      <trkpt lat="48.84669" lon="2.34465">
        <ele>54</ele>
        <time>2013-02-16T14:34:29Z</time>
      </trkpt>
      <trkpt lat="48.84674" lon="2.34476">
        <ele>44</ele>
        <time>2013-02-16T14:34:33Z</time>
      </trkpt>
      <trkpt lat="48.84678" lon="2.34485">
        <ele>46</ele>
        <time>2013-02-16T14:34:36Z</time>
      </trkpt>
      <trkpt lat="48.84685" lon="2.34511">
        <ele>45</ele>
        <time>2013-02-16T14:34:46Z</time>
      </trkpt>
      <trkpt lat="48.84687" lon="2.34518">
        <ele>47</ele>
        <time>2013-02-16T14:34:49Z</time>
      </trkpt>
      <trkpt lat="48.84694" lon="2.34523">
        <ele>40</ele>
        <time>2013-02-16T14:34:53Z</time>
      </trkpt>
      <trkpt lat="48.847" lon="2.34528">
        <ele>46</ele>
        <time>2013-02-16T14:34:57Z</time>
      </trkpt>
      <trkpt lat="48.84705" lon="2.34534">
        <ele>44</ele>
        <time>2013-02-16T14:35:01Z</time>
      </trkpt>
      <trkpt lat="48.84702" lon="2.34542">
        <ele>45</ele>
        <time>2013-02-16T14:35:04Z</time>
      </trkpt>
      <trkpt lat="48.847" lon="2.34552">
        <ele>44</ele>
        <time>2013-02-16T14:35:07Z</time>
      </trkpt>
      <trkpt lat="48.84695" lon="2.34578">
        <ele>48</ele>
        <time>2013-02-16T14:35:15Z</time>
      </trkpt>
      <trkpt lat="48.84694" lon="2.34588">
        <ele>52</ele>
        <time>2013-02-16T14:35:18Z</time>
      </trkpt>
      <trkpt lat="48.84691" lon="2.34597">
        <ele>50</ele>
        <time>2013-02-16T14:35:21Z</time>
      </trkpt>
      <trkpt lat="48.84681" lon="2.34623">
        <ele>58</ele>
        <time>2013-02-16T14:35:30Z</time>
      </trkpt>
      <trkpt lat="48.8468" lon="2.34635">
        <ele>58</ele>
        <time>2013-02-16T14:35:33Z</time>
      </trkpt>
      <trkpt lat="48.84683" lon="2.3464">
        <ele>60</ele>
        <time>2013-02-16T14:35:35Z</time>
      </trkpt>
      <trkpt lat="48.84688" lon="2.34643">
        <ele>57</ele>
        <time>2013-02-16T14:35:37Z</time>
      </trkpt>
      <trkpt lat="48.84693" lon="2.34644">
        <ele>60</ele>
        <time>2013-02-16T14:35:39Z</time>
      </trkpt>
      <trkpt lat="48.84702" lon="2.34645">
        <ele>58</ele>
        <time>2013-02-16T14:35:41Z</time>
      </trkpt>
      <trkpt lat="48.84709" lon="2.34651">
        <ele>53</ele>
        <time>2013-02-16T14:35:43Z</time>
      </trkpt>
      <trkpt lat="48.84717" lon="2.34659">
        <ele>51</ele>
        <time>2013-02-16T14:35:45Z</time>
      </trkpt>
      <trkpt lat="48.84721" lon="2.34664">
        <ele>52</ele>
        <time>2013-02-16T14:35:46Z</time>
      </trkpt>
      <trkpt lat="48.84729" lon="2.34671">
        <ele>51</ele>
        <time>2013-02-16T14:35:48Z</time>
      </trkpt>
      <trkpt lat="48.84747" lon="2.34684">
        <ele>52</ele>
        <time>2013-02-16T14:35:52Z</time>
      </trkpt>
      <trkpt lat="48.84752" lon="2.34685">
        <ele>54</ele>
        <time>2013-02-16T14:35:53Z</time>
      </trkpt>
      <trkpt lat="48.84812" lon="2.34708">
        <ele>47</ele>
        <time>2013-02-16T14:36:07Z</time>
      </trkpt>
      <trkpt lat="48.84818" lon="2.34712">
        <ele>47</ele>
        <time>2013-02-16T14:36:09Z</time>
      </trkpt>
      <trkpt lat="48.84837" lon="2.34728">
        <ele>42</ele>
        <time>2013-02-16T14:36:15Z</time>
      </trkpt>
      <trkpt lat="48.84841" lon="2.34733">
        <ele>36</ele>
        <time>2013-02-16T14:36:16Z</time>
      </trkpt>
      <trkpt lat="48.84853" lon="2.34741">
        <ele>38</ele>
        <time>2013-02-16T14:36:19Z</time>
      </trkpt>
      <trkpt lat="48.8486" lon="2.34745">
        <ele>40</ele>
        <time>2013-02-16T14:36:21Z</time>
      </trkpt>
      <trkpt lat="48.84866" lon="2.34745">
        <ele>36</ele>
        <time>2013-02-16T14:36:23Z</time>
      </trkpt>
      <trkpt lat="48.84872" lon="2.34746">
        <ele>33</ele>
        <time>2013-02-16T14:36:25Z</time>
      </trkpt>
      <trkpt lat="48.84882" lon="2.34752">
        <ele>35</ele>
        <time>2013-02-16T14:36:30Z</time>
      </trkpt>
      <trkpt lat="48.84883" lon="2.34761">
        <ele>35</ele>
        <time>2013-02-16T14:36:32Z</time>
      </trkpt>
      <trkpt lat="48.84883" lon="2.34777">
        <ele>43</ele>
        <time>2013-02-16T14:36:35Z</time>
      </trkpt>
      <trkpt lat="48.84882" lon="2.34785">
        <ele>46</ele>
        <time>2013-02-16T14:36:37Z</time>
      </trkpt>
      <trkpt lat="48.84883" lon="2.34793">
        <ele>49</ele>
        <time>2013-02-16T14:36:39Z</time>
      </trkpt>
      <trkpt lat="48.84886" lon="2.34804">
        <ele>52</ele>
        <time>2013-02-16T14:36:44Z</time>
      </trkpt>
      <trkpt lat="48.84891" lon="2.34803">
        <ele>54</ele>
        <time>2013-02-16T14:36:47Z</time>
      </trkpt>
      <trkpt lat="48.84896" lon="2.34798">
        <ele>58</ele>
        <time>2013-02-16T14:36:52Z</time>
      </trkpt>
      <trkpt lat="48.84898" lon="2.3479">
        <ele>54</ele>
        <time>2013-02-16T14:36:55Z</time>
      </trkpt>
      <trkpt lat="48.84904" lon="2.34781">
        <ele>55</ele>
        <time>2013-02-16T14:36:59Z</time>
      </trkpt>
      <trkpt lat="48.84906" lon="2.34772">
        <ele>50</ele>
        <time>2013-02-16T14:37:02Z</time>
      </trkpt>
      <trkpt lat="48.84908" lon="2.34756">
        <ele>72</ele>
        <time>2013-02-16T14:37:17Z</time>
      </trkpt>
      <trkpt lat="48.8491" lon="2.34748">
        <ele>69</ele>
        <time>2013-02-16T14:37:22Z</time>
      </trkpt>
      <trkpt lat="48.84914" lon="2.34743">
        <ele>67</ele>
        <time>2013-02-16T14:37:24Z</time>
      </trkpt>
      <trkpt lat="48.84922" lon="2.34742">
        <ele>65</ele>
        <time>2013-02-16T14:37:26Z</time>
      </trkpt>
      <trkpt lat="48.84927" lon="2.34745">
        <ele>62</ele>
        <time>2013-02-16T14:37:27Z</time>
      </trkpt>
      <trkpt lat="48.84932" lon="2.34751">
        <ele>59</ele>
        <time>2013-02-16T14:37:28Z</time>
      </trkpt>
      <trkpt lat="48.84946" lon="2.34762">
        <ele>51</ele>
        <time>2013-02-16T14:37:30Z</time>
      </trkpt>
      <trkpt lat="48.84954" lon="2.34766">
        <ele>47</ele>
        <time>2013-02-16T14:37:31Z</time>
      </trkpt>
      <trkpt lat="48.84959" lon="2.34769">
        <ele>48</ele>
        <time>2013-02-16T14:37:32Z</time>
      </trkpt>
      <trkpt lat="48.85002" lon="2.34804">
        <ele>37</ele>
        <time>2013-02-16T14:37:39Z</time>
      </trkpt>
      <trkpt lat="48.85018" lon="2.34822">
        <ele>34</ele>
        <time>2013-02-16T14:37:42Z</time>
      </trkpt>
      <trkpt lat="48.85022" lon="2.34834">
        <ele>31</ele>
        <time>2013-02-16T14:37:44Z</time>
      </trkpt>
      <trkpt lat="48.85029" lon="2.34848">
        <ele>25</ele>
        <time>2013-02-16T14:37:51Z</time>
      </trkpt>
      <trkpt lat="48.85028" lon="2.34858">
        <ele>25</ele>
        <time>2013-02-16T14:37:54Z</time>
      </trkpt>
      <trkpt lat="48.85032" lon="2.34865">
        <ele>34</ele>
        <time>2013-02-16T14:37:59Z</time>
      </trkpt>
      <trkpt lat="48.85037" lon="2.34867">
        <ele>36</ele>
        <time>2013-02-16T14:38:02Z</time>
      </trkpt>
      <trkpt lat="48.8504" lon="2.34874">
        <ele>40</ele>
        <time>2013-02-16T14:38:05Z</time>
      </trkpt>
      <trkpt lat="48.85046" lon="2.34877">
        <ele>41</ele>
        <time>2013-02-16T14:38:08Z</time>
      </trkpt>
      <trkpt lat="48.85038" lon="2.34832">
        <ele>44</ele>
        <time>2013-02-16T14:39:25Z</time>
      </trkpt>
      <trkpt lat="48.85009" lon="2.34844">
        <ele>44</ele>
        <time>2013-02-16T14:58:07Z</time>
      </trkpt>
      <trkpt lat="48.84993" lon="2.34883">
        <ele>43</ele>
        <time>2013-02-16T14:58:47Z</time>
      </trkpt>
      <trkpt lat="48.84912" lon="2.34971">
        <ele>43</ele>
        <time>2013-02-16T14:59:23Z</time>
      </trkpt>
      <trkpt lat="48.84886" lon="2.34991">
        <ele>44</ele>
        <time>2013-02-16T14:59:25Z</time>
      </trkpt>
      <trkpt lat="48.8483" lon="2.35023">
        <ele>46</ele>
        <time>2013-02-16T14:59:38Z</time>
      </trkpt>
      <trkpt lat="48.84806" lon="2.35056">
        <ele>46</ele>
        <time>2013-02-16T14:59:46Z</time>
      </trkpt>
      <trkpt lat="48.84768" lon="2.35077">
        <ele>45</ele>
        <time>2013-02-16T15:00:06Z</time>
      </trkpt>
      <trkpt lat="48.8474" lon="2.35099">
        <ele>46</ele>
        <time>2013-02-16T15:00:14Z</time>
      </trkpt>
      <trkpt lat="48.84715" lon="2.35128">
        <ele>47</ele>
        <time>2013-02-16T15:00:30Z</time>
      </trkpt>
      <trkpt lat="48.84687" lon="2.35149">
        <ele>49</ele>
        <time>2013-02-16T15:00:41Z</time>
      </trkpt>
      <trkpt lat="48.84649" lon="2.35169">
        <ele>52</ele>
        <time>2013-02-16T15:01:00Z</time>
      </trkpt>
      <trkpt lat="48.84604" lon="2.35187">
        <ele>56</ele>
        <time>2013-02-16T15:01:51Z</time>
      </trkpt>
      <trkpt lat="48.84604" lon="2.35187">
        <ele>56</ele>
        <time>2013-02-16T15:01:51Z</time>
      </trkpt>
      <trkpt lat="48.8445" lon="2.35292">
        <ele>58</ele>
        <time>2013-02-16T15:04:01Z</time>
      </trkpt>
      <trkpt lat="48.84419" lon="2.35357">
        <ele>56</ele>
        <time>2013-02-16T15:04:35Z</time>
      </trkpt>
      <trkpt lat="48.84382" lon="2.35363">
        <ele>51</ele>
        <time>2013-02-16T15:04:53Z</time>
      </trkpt>
      <trkpt lat="48.84371" lon="2.35398">
        <ele>51</ele>
        <time>2013-02-16T15:05:08Z</time>
      </trkpt>
      <trkpt lat="48.84375" lon="2.35477">
        <ele>50</ele>
        <time>2013-02-16T15:05:23Z</time>
      </trkpt>
      <trkpt lat="48.84404" lon="2.35493">
        <ele>51</ele>
        <time>2013-02-16T15:05:43Z</time>
      </trkpt>
      <trkpt lat="48.84439" lon="2.35481">
        <ele>53</ele>
        <time>2013-02-16T15:05:55Z</time>
      </trkpt>
      <trkpt lat="48.84472" lon="2.35474">
        <ele>54</ele>
        <time>2013-02-16T15:06:00Z</time>
      </trkpt>
      <trkpt lat="48.84502" lon="2.35463">
        <ele>55</ele>
        <time>2013-02-16T15:06:09Z</time>
      </trkpt>
      <trkpt lat="48.84541" lon="2.35464">
        <ele>56</ele>
        <time>2013-02-16T15:06:41Z</time>
      </trkpt>
      <trkpt lat="48.84601" lon="2.35486">
        <ele>70</ele>
        <time>2013-02-16T15:21:41Z</time>
      </trkpt>
      <trkpt lat="48.84648" lon="2.35472">
        <ele>69</ele>
        <time>2013-02-16T15:21:45Z</time>
      </trkpt>
      <trkpt lat="48.84653" lon="2.35478">
        <ele>83</ele>
        <time>2013-02-16T15:21:47Z</time>
      </trkpt>
      <trkpt lat="48.84649" lon="2.35484">
        <ele>88</ele>
        <time>2013-02-16T15:21:49Z</time>
      </trkpt>
      <trkpt lat="48.84643" lon="2.35491">
        <ele>94</ele>
        <time>2013-02-16T15:21:52Z</time>
      </trkpt>
      <trkpt lat="48.84639" lon="2.35497">
        <ele>90</ele>
        <time>2013-02-16T15:21:57Z</time>
      </trkpt>
      <trkpt lat="48.84628" lon="2.35509">
        <ele>95</ele>
        <time>2013-02-16T15:22:00Z</time>
      </trkpt>
      <trkpt lat="48.84621" lon="2.35508">
        <ele>91</ele>
        <time>2013-02-16T15:22:05Z</time>
      </trkpt>
      <trkpt lat="48.84633" lon="2.35491">
        <ele>106</ele>
        <time>2013-02-16T15:22:10Z</time>
      </trkpt>
      <trkpt lat="48.84646" lon="2.35477">
        <ele>100</ele>
        <time>2013-02-16T15:22:14Z</time>
      </trkpt>
      <trkpt lat="48.84648" lon="2.35473">
        <ele>103</ele>
        <time>2013-02-16T15:22:15Z</time>
      </trkpt>
      <trkpt lat="48.84658" lon="2.35466">
        <ele>89</ele>
        <time>2013-02-16T15:22:18Z</time>
      </trkpt>
      <trkpt lat="48.84664" lon="2.35458">
        <ele>85</ele>
        <time>2013-02-16T15:22:20Z</time>
      </trkpt>
      <trkpt lat="48.84669" lon="2.35451">
        <ele>86</ele>
        <time>2013-02-16T15:22:22Z</time>
      </trkpt>
      <trkpt lat="48.84681" lon="2.35441">
        <ele>79</ele>
        <time>2013-02-16T15:22:25Z</time>
      </trkpt>
      <trkpt lat="48.84692" lon="2.35429">
        <ele>74</ele>
        <time>2013-02-16T15:22:28Z</time>
      </trkpt>
      <trkpt lat="48.847" lon="2.35424">
        <ele>71</ele>
        <time>2013-02-16T15:22:30Z</time>
      </trkpt>
      <trkpt lat="48.84704" lon="2.35419">
        <ele>71</ele>
        <time>2013-02-16T15:22:31Z</time>
      </trkpt>
      <trkpt lat="48.84709" lon="2.35409">
        <ele>75</ele>
        <time>2013-02-16T15:22:33Z</time>
      </trkpt>
      <trkpt lat="48.84724" lon="2.35388">
        <ele>65</ele>
        <time>2013-02-16T15:22:38Z</time>
      </trkpt>
      <trkpt lat="48.8473" lon="2.3537">
        <ele>68</ele>
        <time>2013-02-16T15:22:42Z</time>
      </trkpt>
      <trkpt lat="48.8473" lon="2.35362">
        <ele>59</ele>
        <time>2013-02-16T15:22:45Z</time>
      </trkpt>
      <trkpt lat="48.84732" lon="2.35348">
        <ele>60</ele>
        <time>2013-02-16T15:22:49Z</time>
      </trkpt>
      <trkpt lat="48.84734" lon="2.35338">
        <ele>49</ele>
        <time>2013-02-16T15:22:52Z</time>
      </trkpt>
      <trkpt lat="48.84743" lon="2.35338">
        <ele>52</ele>
        <time>2013-02-16T15:22:56Z</time>
      </trkpt>
      <trkpt lat="48.84747" lon="2.35334">
        <ele>43</ele>
        <time>2013-02-16T15:23:04Z</time>
      </trkpt>
      <trkpt lat="48.84753" lon="2.35339">
        <ele>38</ele>
        <time>2013-02-16T15:23:09Z</time>
      </trkpt>
      <trkpt lat="48.84764" lon="2.35354">
        <ele>36</ele>
        <time>2013-02-16T15:23:16Z</time>
      </trkpt>
      <trkpt lat="48.84768" lon="2.35361">
        <ele>37</ele>
        <time>2013-02-16T15:23:18Z</time>
      </trkpt>
      <trkpt lat="48.84775" lon="2.35371">
        <ele>33</ele>
        <time>2013-02-16T15:23:22Z</time>
      </trkpt>
      <trkpt lat="48.84781" lon="2.35376">
        <ele>26</ele>
        <time>2013-02-16T15:23:25Z</time>
      </trkpt>
      <trkpt lat="48.84785" lon="2.35382">
        <ele>24</ele>
        <time>2013-02-16T15:23:27Z</time>
      </trkpt>
      <trkpt lat="48.8479" lon="2.35385">
        <ele>29</ele>
        <time>2013-02-16T15:23:29Z</time>
      </trkpt>
      <trkpt lat="48.84792" lon="2.35393">
        <ele>25</ele>
        <time>2013-02-16T15:23:31Z</time>
      </trkpt>
      <trkpt lat="48.84794" lon="2.35402">
        <ele>7</ele>
        <time>2013-02-16T15:23:35Z</time>
      </trkpt>
      <trkpt lat="48.84798" lon="2.3541">
        <ele>6</ele>
        <time>2013-02-16T15:23:39Z</time>
      </trkpt>
      <trkpt lat="48.84799" lon="2.35418">
        <ele>6</ele>
        <time>2013-02-16T15:23:40Z</time>
      </trkpt>
      <trkpt lat="48.84805" lon="2.35446">
        <ele>37</ele>
        <time>2013-02-16T15:23:52Z</time>
      </trkpt>
      <trkpt lat="48.8481" lon="2.35452">
        <ele>42</ele>
        <time>2013-02-16T15:23:56Z</time>
      </trkpt>
      <trkpt lat="48.84815" lon="2.35456">
        <ele>37</ele>
        <time>2013-02-16T15:23:59Z</time>
      </trkpt>
      <trkpt lat="48.84821" lon="2.35464">
        <ele>30</ele>
        <time>2013-02-16T15:24:02Z</time>
      </trkpt>
      <trkpt lat="48.84826" lon="2.35471">
        <ele>29</ele>
        <time>2013-02-16T15:24:04Z</time>
      </trkpt>
      <trkpt lat="48.84837" lon="2.35487">
        <ele>25</ele>
        <time>2013-02-16T15:24:09Z</time>
      </trkpt>
      <trkpt lat="48.8485" lon="2.3551">
        <ele>24</ele>
        <time>2013-02-16T15:24:15Z</time>
      </trkpt>
      <trkpt lat="48.84855" lon="2.35515">
        <ele>19</ele>
        <time>2013-02-16T15:24:17Z</time>
      </trkpt>
      <trkpt lat="48.84859" lon="2.3552">
        <ele>17</ele>
        <time>2013-02-16T15:24:19Z</time>
      </trkpt>
      <trkpt lat="48.84889" lon="2.3556">
        <ele>24</ele>
        <time>2013-02-16T15:24:34Z</time>
      </trkpt>
      <trkpt lat="48.84894" lon="2.35563">
        <ele>24</ele>
        <time>2013-02-16T15:24:36Z</time>
      </trkpt>
      <trkpt lat="48.84902" lon="2.35573">
        <ele>14</ele>
        <time>2013-02-16T15:24:41Z</time>
      </trkpt>
      <trkpt lat="48.84906" lon="2.35579">
        <ele>13</ele>
        <time>2013-02-16T15:24:44Z</time>
      </trkpt>
      <trkpt lat="48.84911" lon="2.35586">
        <ele>14</ele>
        <time>2013-02-16T15:24:47Z</time>
      </trkpt>
      <trkpt lat="48.84916" lon="2.35591">
        <ele>11</ele>
        <time>2013-02-16T15:24:50Z</time>
      </trkpt>
      <trkpt lat="48.8492" lon="2.35596">
        <ele>3</ele>
        <time>2013-02-16T15:24:54Z</time>
      </trkpt>
      <trkpt lat="48.84922" lon="2.35604">
        <ele>33</ele>
        <time>2013-02-16T15:25:07Z</time>
      </trkpt>
      <trkpt lat="48.84921" lon="2.35612">
        <ele>32</ele>
        <time>2013-02-16T15:25:11Z</time>
      </trkpt>
      <trkpt lat="48.84919" lon="2.35642">
        <ele>30</ele>
        <time>2013-02-16T15:25:19Z</time>
      </trkpt>
      <trkpt lat="48.84918" lon="2.35657">
        <ele>28</ele>
        <time>2013-02-16T15:25:23Z</time>
      </trkpt>
      <trkpt lat="48.84918" lon="2.35666">
        <ele>31</ele>
        <time>2013-02-16T15:25:26Z</time>
      </trkpt>
      <trkpt lat="48.84917" lon="2.35679">
        <ele>42</ele>
        <time>2013-02-16T15:25:34Z</time>
      </trkpt>
      <trkpt lat="48.84916" lon="2.35687">
        <ele>37</ele>
        <time>2013-02-16T15:25:38Z</time>
      </trkpt>
      <trkpt lat="48.8492" lon="2.35694">
        <ele>31</ele>
        <time>2013-02-16T15:25:50Z</time>
      </trkpt>
      <trkpt lat="48.8492" lon="2.35703">
        <ele>36</ele>
        <time>2013-02-16T15:26:05Z</time>
      </trkpt>
      <trkpt lat="48.84926" lon="2.3571">
        <ele>27</ele>
        <time>2013-02-16T15:26:09Z</time>
      </trkpt>
      <trkpt lat="48.84933" lon="2.35711">
        <ele>30</ele>
        <time>2013-02-16T15:26:20Z</time>
      </trkpt>
      <trkpt lat="48.84938" lon="2.3572">
        <ele>30</ele>
        <time>2013-02-16T15:26:25Z</time>
      </trkpt>
      <trkpt lat="48.8494" lon="2.3573">
        <ele>27</ele>
        <time>2013-02-16T15:26:28Z</time>
      </trkpt>
      <trkpt lat="48.84944" lon="2.35738">
        <ele>28</ele>
        <time>2013-02-16T15:26:31Z</time>
      </trkpt>
      <trkpt lat="48.84973" lon="2.35813">
        <ele>31</ele>
        <time>2013-02-16T15:26:47Z</time>
      </trkpt>
      <trkpt lat="48.84976" lon="2.35824">
        <ele>29</ele>
        <time>2013-02-16T15:26:49Z</time>
      </trkpt>
      <trkpt lat="48.84982" lon="2.35843">
        <ele>26</ele>
        <time>2013-02-16T15:26:53Z</time>
      </trkpt>
      <trkpt lat="48.84985" lon="2.35851">
        <ele>26</ele>
        <time>2013-02-16T15:26:56Z</time>
      </trkpt>
      <trkpt lat="48.84986" lon="2.35853">
        <ele>45</ele>
        <time>2013-02-16T15:27:04Z</time>
      </trkpt>
      <trkpt lat="48.84986" lon="2.35849">
        <ele>37</ele>
        <time>2013-02-16T15:27:26Z</time>
      </trkpt>
      <trkpt lat="48.84984" lon="2.35842">
        <ele>39</ele>
        <time>2013-02-16T15:27:28Z</time>
      </trkpt>
      <trkpt lat="48.8498" lon="2.35835">
        <ele>39</ele>
        <time>2013-02-16T15:27:31Z</time>
      </trkpt>
      <trkpt lat="48.84979" lon="2.35825">
        <ele>40</ele>
        <time>2013-02-16T15:27:34Z</time>
      </trkpt>
      <trkpt lat="48.84977" lon="2.35815">
        <ele>35</ele>
        <time>2013-02-16T15:27:37Z</time>
      </trkpt>
      <trkpt lat="48.84975" lon="2.35803">
        <ele>31</ele>
        <time>2013-02-16T15:27:40Z</time>
      </trkpt>
      <trkpt lat="48.84973" lon="2.35793">
        <ele>32</ele>
        <time>2013-02-16T15:27:42Z</time>
      </trkpt>
      <trkpt lat="48.8497" lon="2.35785">
        <ele>32</ele>
        <time>2013-02-16T15:27:44Z</time>
      </trkpt>
      <trkpt lat="48.84967" lon="2.35777">
        <ele>29</ele>
        <time>2013-02-16T15:27:46Z</time>
      </trkpt>
      <trkpt lat="48.84964" lon="2.35762">
        <ele>33</ele>
        <time>2013-02-16T15:27:49Z</time>
      </trkpt>
      <trkpt lat="48.84957" lon="2.35738">
        <ele>35</ele>
        <time>2013-02-16T15:27:54Z</time>
      </trkpt>
      <trkpt lat="48.84954" lon="2.35732">
        <ele>32</ele>
        <time>2013-02-16T15:27:56Z</time>
      </trkpt>
      <trkpt lat="48.84949" lon="2.35721">
        <ele>37</ele>
        <time>2013-02-16T15:27:59Z</time>
      </trkpt>
      <trkpt lat="48.84944" lon="2.35711">
        <ele>40</ele>
        <time>2013-02-16T15:28:02Z</time>
      </trkpt>
      <trkpt lat="48.84937" lon="2.35708">
        <ele>39</ele>
        <time>2013-02-16T15:28:05Z</time>
      </trkpt>
      <trkpt lat="48.84931" lon="2.3571">
        <ele>38</ele>
        <time>2013-02-16T15:28:07Z</time>
      </trkpt>
      <trkpt lat="48.84925" lon="2.35718">
        <ele>36</ele>
        <time>2013-02-16T15:28:11Z</time>
      </trkpt>
      <trkpt lat="48.84912" lon="2.35737">
        <ele>28</ele>
        <time>2013-02-16T15:28:17Z</time>
      </trkpt>
      <trkpt lat="48.84908" lon="2.35745">
        <ele>24</ele>
        <time>2013-02-16T15:28:19Z</time>
      </trkpt>
      <trkpt lat="48.84907" lon="2.35754">
        <ele>25</ele>
        <time>2013-02-16T15:28:21Z</time>
      </trkpt>
      <trkpt lat="48.8491" lon="2.35763">
        <ele>29</ele>
        <time>2013-02-16T15:28:23Z</time>
      </trkpt>
      <trkpt lat="48.84911" lon="2.35772">
        <ele>25</ele>
        <time>2013-02-16T15:28:25Z</time>
      </trkpt>
      <trkpt lat="48.84912" lon="2.35779">
        <ele>30</ele>
        <time>2013-02-16T15:28:27Z</time>
      </trkpt>
      <trkpt lat="48.84911" lon="2.35787">
        <ele>30</ele>
        <time>2013-02-16T15:28:29Z</time>
      </trkpt>
      <trkpt lat="48.84906" lon="2.35815">
        <ele>32</ele>
        <time>2013-02-16T15:28:35Z</time>
      </trkpt>
      <trkpt lat="48.84903" lon="2.35828">
        <ele>29</ele>
        <time>2013-02-16T15:28:38Z</time>
      </trkpt>
      <trkpt lat="48.84901" lon="2.35838">
        <ele>28</ele>
        <time>2013-02-16T15:28:40Z</time>
      </trkpt>
      <trkpt lat="48.84899" lon="2.35849">
        <ele>28</ele>
        <time>2013-02-16T15:28:42Z</time>
      </trkpt>
      <trkpt lat="48.84897" lon="2.35858">
        <ele>27</ele>
        <time>2013-02-16T15:28:44Z</time>
      </trkpt>
      <trkpt lat="48.84895" lon="2.35877">
        <ele>24</ele>
        <time>2013-02-16T15:28:47Z</time>
      </trkpt>
      <trkpt lat="48.84895" lon="2.35889">
        <ele>25</ele>
        <time>2013-02-16T15:28:49Z</time>
      </trkpt>
      <trkpt lat="48.84891" lon="2.35901">
        <ele>27</ele>
        <time>2013-02-16T15:28:52Z</time>
      </trkpt>
      <trkpt lat="48.84884" lon="2.35907">
        <ele>27</ele>
        <time>2013-02-16T15:28:55Z</time>
      </trkpt>
      <trkpt lat="48.84879" lon="2.3591">
        <ele>29</ele>
        <time>2013-02-16T15:28:58Z</time>
      </trkpt>
      <trkpt lat="48.84872" lon="2.35913">
        <ele>25</ele>
        <time>2013-02-16T15:29:02Z</time>
      </trkpt>
      <trkpt lat="48.8487" lon="2.35905">
        <ele>26</ele>
        <time>2013-02-16T15:29:07Z</time>
      </trkpt>
      <trkpt lat="48.84869" lon="2.35895">
        <ele>29</ele>
        <time>2013-02-16T15:29:11Z</time>
      </trkpt>
      <trkpt lat="48.84869" lon="2.35887">
        <ele>21</ele>
        <time>2013-02-16T15:29:19Z</time>
      </trkpt>
      <trkpt lat="48.84861" lon="2.35884">
        <ele>29</ele>
        <time>2013-02-16T15:29:27Z</time>
      </trkpt>
      <trkpt lat="48.84855" lon="2.35881">
        <ele>31</ele>
        <time>2013-02-16T15:29:31Z</time>
      </trkpt>
      <trkpt lat="48.84851" lon="2.35887">
        <ele>29</ele>
        <time>2013-02-16T15:29:35Z</time>
      </trkpt>
      <trkpt lat="48.84836" lon="2.35902">
        <ele>19</ele>
        <time>2013-02-16T15:29:47Z</time>
      </trkpt>
      <trkpt lat="48.84822" lon="2.35913">
        <ele>14</ele>
        <time>2013-02-16T15:29:54Z</time>
      </trkpt>
      <trkpt lat="48.84817" lon="2.35916">
        <ele>17</ele>
        <time>2013-02-16T15:29:56Z</time>
      </trkpt>
      <trkpt lat="48.84812" lon="2.35919">
        <ele>19</ele>
        <time>2013-02-16T15:29:58Z</time>
      </trkpt>
      <trkpt lat="48.84808" lon="2.35922">
        <ele>18</ele>
        <time>2013-02-16T15:30:00Z</time>
      </trkpt>
      <trkpt lat="48.84802" lon="2.35928">
        <ele>12</ele>
        <time>2013-02-16T15:30:03Z</time>
      </trkpt>
      <trkpt lat="48.84797" lon="2.35932">
        <ele>13</ele>
        <time>2013-02-16T15:30:05Z</time>
      </trkpt>
      <trkpt lat="48.84789" lon="2.35934">
        <ele>15</ele>
        <time>2013-02-16T15:30:07Z</time>
      </trkpt>
      <trkpt lat="48.84782" lon="2.35934">
        <ele>16</ele>
        <time>2013-02-16T15:30:10Z</time>
      </trkpt>
      <trkpt lat="48.84764" lon="2.35937">
        <ele>31</ele>
        <time>2013-02-16T15:30:17Z</time>
      </trkpt>
      <trkpt lat="48.84757" lon="2.35942">
        <ele>36</ele>
        <time>2013-02-16T15:30:20Z</time>
      </trkpt>
      <trkpt lat="48.84748" lon="2.3595">
        <ele>34</ele>
        <time>2013-02-16T15:30:24Z</time>
      </trkpt>
      <trkpt lat="48.84744" lon="2.35958">
        <ele>35</ele>
        <time>2013-02-16T15:30:26Z</time>
      </trkpt>
      <trkpt lat="48.84735" lon="2.3598">
        <ele>38</ele>
        <time>2013-02-16T15:30:31Z</time>
      </trkpt>
      <trkpt lat="48.84734" lon="2.35988">
        <ele>42</ele>
        <time>2013-02-16T15:30:32Z</time>
      </trkpt>
      <trkpt lat="48.84737" lon="2.36001">
        <ele>39</ele>
        <time>2013-02-16T15:30:33Z</time>
      </trkpt>
      <trkpt lat="48.84742" lon="2.36013">
        <ele>40</ele>
        <time>2013-02-16T15:30:34Z</time>
      </trkpt>
      <trkpt lat="48.84745" lon="2.36022">
        <ele>36</ele>
        <time>2013-02-16T15:30:35Z</time>
      </trkpt>
      <trkpt lat="48.84747" lon="2.36041">
        <ele>30</ele>
        <time>2013-02-16T15:30:37Z</time>
      </trkpt>
      <trkpt lat="48.84747" lon="2.36056">
        <ele>29</ele>
        <time>2013-02-16T15:30:39Z</time>
      </trkpt>
      <trkpt lat="48.84745" lon="2.36079">
        <ele>23</ele>
        <time>2013-02-16T15:30:46Z</time>
      </trkpt>
      <trkpt lat="48.84742" lon="2.36086">
        <ele>22</ele>
        <time>2013-02-16T15:30:49Z</time>
      </trkpt>
      <trkpt lat="48.84739" lon="2.36095">
        <ele>20</ele>
        <time>2013-02-16T15:30:51Z</time>
      </trkpt>
      <trkpt lat="48.84728" lon="2.36113">
        <ele>21</ele>
        <time>2013-02-16T15:30:55Z</time>
      </trkpt>
      <trkpt lat="48.84723" lon="2.36114">
        <ele>26</ele>
        <time>2013-02-16T15:30:57Z</time>
      </trkpt>
      <trkpt lat="48.84716" lon="2.36115">
        <ele>38</ele>
        <time>2013-02-16T15:30:58Z</time>
      </trkpt>
      <trkpt lat="48.8471" lon="2.36115">
        <ele>39</ele>
        <time>2013-02-16T15:31:00Z</time>
      </trkpt>
      <trkpt lat="48.84693" lon="2.36115">
        <ele>36</ele>
        <time>2013-02-16T15:31:11Z</time>
      </trkpt>
      <trkpt lat="48.847" lon="2.36119">
        <ele>42</ele>
        <time>2013-02-16T15:31:19Z</time>
      </trkpt>
      <trkpt lat="48.84705" lon="2.36121">
        <ele>41</ele>
        <time>2013-02-16T15:31:21Z</time>
      </trkpt>
      <trkpt lat="48.84711" lon="2.36113">
        <ele>42</ele>
        <time>2013-02-16T15:31:25Z</time>
      </trkpt>
      <trkpt lat="48.84713" lon="2.36105">
        <ele>43</ele>
        <time>2013-02-16T15:31:27Z</time>
      </trkpt>
      <trkpt lat="48.8472" lon="2.36099">
        <ele>37</ele>
        <time>2013-02-16T15:31:29Z</time>
      </trkpt>
      <trkpt lat="48.84734" lon="2.36082">
        <ele>35</ele>
        <time>2013-02-16T15:31:33Z</time>
      </trkpt>
      <trkpt lat="48.84739" lon="2.36074">
        <ele>31</ele>
        <time>2013-02-16T15:31:35Z</time>
      </trkpt>
      <trkpt lat="48.84753" lon="2.36055">
        <ele>30</ele>
        <time>2013-02-16T15:31:41Z</time>
      </trkpt>
      <trkpt lat="48.84758" lon="2.3605">
        <ele>29</ele>
        <time>2013-02-16T15:31:43Z</time>
      </trkpt>
      <trkpt lat="48.84765" lon="2.36048">
        <ele>32</ele>
        <time>2013-02-16T15:31:45Z</time>
      </trkpt>
      <trkpt lat="48.84771" lon="2.36037">
        <ele>32</ele>
        <time>2013-02-16T15:31:48Z</time>
      </trkpt>
      <trkpt lat="48.84772" lon="2.36028">
        <ele>32</ele>
        <time>2013-02-16T15:31:50Z</time>
      </trkpt>
      <trkpt lat="48.84775" lon="2.36019">
        <ele>36</ele>
        <time>2013-02-16T15:31:52Z</time>
      </trkpt>
      <trkpt lat="48.84779" lon="2.36012">
        <ele>34</ele>
        <time>2013-02-16T15:31:54Z</time>
      </trkpt>
      <trkpt lat="48.84783" lon="2.36007">
        <ele>33</ele>
        <time>2013-02-16T15:31:56Z</time>
      </trkpt>
      <trkpt lat="48.84791" lon="2.35997">
        <ele>31</ele>
        <time>2013-02-16T15:32:01Z</time>
      </trkpt>
      <trkpt lat="48.84795" lon="2.35989">
        <ele>34</ele>
        <time>2013-02-16T15:32:04Z</time>
      </trkpt>
      <trkpt lat="48.84797" lon="2.3598">
        <ele>41</ele>
        <time>2013-02-16T15:32:07Z</time>
      </trkpt>
      <trkpt lat="48.84789" lon="2.35986">
        <ele>42</ele>
        <time>2013-02-16T15:32:16Z</time>
      </trkpt>
      <trkpt lat="48.84785" lon="2.35993">
        <ele>35</ele>
        <time>2013-02-16T15:32:19Z</time>
      </trkpt>
      <trkpt lat="48.84778" lon="2.36001">
        <ele>29</ele>
        <time>2013-02-16T15:32:23Z</time>
      </trkpt>
      <trkpt lat="48.84759" lon="2.36023">
        <ele>24</ele>
        <time>2013-02-16T15:32:30Z</time>
      </trkpt>
      <trkpt lat="48.84754" lon="2.36028">
        <ele>22</ele>
        <time>2013-02-16T15:32:32Z</time>
      </trkpt>
      <trkpt lat="48.84748" lon="2.36033">
        <ele>21</ele>
        <time>2013-02-16T15:32:34Z</time>
      </trkpt>
      <trkpt lat="48.84728" lon="2.36046">
        <ele>11</ele>
        <time>2013-02-16T15:32:39Z</time>
      </trkpt>
      <trkpt lat="48.84721" lon="2.36051">
        <ele>13</ele>
        <time>2013-02-16T15:32:41Z</time>
      </trkpt>
      <trkpt lat="48.84713" lon="2.36056">
        <ele>12</ele>
        <time>2013-02-16T15:32:43Z</time>
      </trkpt>
      <trkpt lat="48.84708" lon="2.36062">
        <ele>15</ele>
        <time>2013-02-16T15:32:45Z</time>
      </trkpt>
      <trkpt lat="48.84703" lon="2.36069">
        <ele>8</ele>
        <time>2013-02-16T15:32:47Z</time>
      </trkpt>
      <trkpt lat="48.84693" lon="2.36088">
        <ele>11</ele>
        <time>2013-02-16T15:32:52Z</time>
      </trkpt>
      <trkpt lat="48.8468" lon="2.3611">
        <ele>26</ele>
        <time>2013-02-16T15:33:00Z</time>
      </trkpt>
      <trkpt lat="48.84673" lon="2.3612">
        <ele>28</ele>
        <time>2013-02-16T15:33:03Z</time>
      </trkpt>
      <trkpt lat="48.84668" lon="2.36126">
        <ele>26</ele>
        <time>2013-02-16T15:33:05Z</time>
      </trkpt>
      <trkpt lat="48.84663" lon="2.36132">
        <ele>24</ele>
        <time>2013-02-16T15:33:21Z</time>
      </trkpt>
      <trkpt lat="48.84671" lon="2.3613">
        <ele>25</ele>
        <time>2013-02-16T15:33:24Z</time>
      </trkpt>
      <trkpt lat="48.84675" lon="2.36124">
        <ele>32</ele>
        <time>2013-02-16T15:33:28Z</time>
      </trkpt>
      <trkpt lat="48.8468" lon="2.36119">
        <ele>33</ele>
        <time>2013-02-16T15:33:33Z</time>
      </trkpt>
      <trkpt lat="48.84675" lon="2.36114">
        <ele>26</ele>
        <time>2013-02-16T15:33:51Z</time>
      </trkpt>
      <trkpt lat="48.84668" lon="2.36117">
        <ele>26</ele>
        <time>2013-02-16T15:33:54Z</time>
      </trkpt>
      <trkpt lat="48.84663" lon="2.36122">
        <ele>24</ele>
        <time>2013-02-16T15:33:56Z</time>
      </trkpt>
      <trkpt lat="48.84659" lon="2.3613">
        <ele>29</ele>
        <time>2013-02-16T15:33:58Z</time>
      </trkpt>
      <trkpt lat="48.84654" lon="2.36138">
        <ele>25</ele>
        <time>2013-02-16T15:34:01Z</time>
      </trkpt>
      <trkpt lat="48.84648" lon="2.36142">
        <ele>33</ele>
        <time>2013-02-16T15:34:03Z</time>
      </trkpt>
      <trkpt lat="48.84642" lon="2.36149">
        <ele>25</ele>
        <time>2013-02-16T15:34:05Z</time>
      </trkpt>
      <trkpt lat="48.84631" lon="2.36165">
        <ele>19</ele>
        <time>2013-02-16T15:34:10Z</time>
      </trkpt>
      <trkpt lat="48.84626" lon="2.36174">
        <ele>16</ele>
        <time>2013-02-16T15:34:12Z</time>
      </trkpt>
      <trkpt lat="48.8462" lon="2.36181">
        <ele>19</ele>
        <time>2013-02-16T15:34:14Z</time>
      </trkpt>
      <trkpt lat="48.84604" lon="2.362">
        <ele>20</ele>
        <time>2013-02-16T15:34:20Z</time>
      </trkpt>
      <trkpt lat="48.84598" lon="2.36209">
        <ele>18</ele>
        <time>2013-02-16T15:34:22Z</time>
      </trkpt>
      <trkpt lat="48.84592" lon="2.36218">
        <ele>22</ele>
        <time>2013-02-16T15:34:24Z</time>
      </trkpt>
      <trkpt lat="48.84586" lon="2.36224">
        <ele>30</ele>
        <time>2013-02-16T15:34:26Z</time>
      </trkpt>
      <trkpt lat="48.84583" lon="2.36231">
        <ele>26</ele>
        <time>2013-02-16T15:34:28Z</time>
      </trkpt>
      <trkpt lat="48.84573" lon="2.36247">
        <ele>32</ele>
        <time>2013-02-16T15:34:33Z</time>
      </trkpt>
      <trkpt lat="48.84567" lon="2.36255">
        <ele>26</ele>
        <time>2013-02-16T15:34:35Z</time>
      </trkpt>
      <trkpt lat="48.8456" lon="2.36267">
        <ele>23</ele>
        <time>2013-02-16T15:34:38Z</time>
      </trkpt>
      <trkpt lat="48.84554" lon="2.36275">
        <ele>23</ele>
        <time>2013-02-16T15:34:40Z</time>
      </trkpt>
      <trkpt lat="48.84541" lon="2.36292">
        <ele>23</ele>
        <time>2013-02-16T15:34:45Z</time>
      </trkpt>
      <trkpt lat="48.84525" lon="2.36315">
        <ele>21</ele>
        <time>2013-02-16T15:34:52Z</time>
      </trkpt>
      <trkpt lat="48.84521" lon="2.36322">
        <ele>22</ele>
        <time>2013-02-16T15:34:54Z</time>
      </trkpt>
      <trkpt lat="48.84516" lon="2.3633">
        <ele>30</ele>
        <time>2013-02-16T15:34:56Z</time>
      </trkpt>
      <trkpt lat="48.84505" lon="2.36343">
        <ele>25</ele>
        <time>2013-02-16T15:35:01Z</time>
      </trkpt>
      <trkpt lat="48.845" lon="2.36351">
        <ele>26</ele>
        <time>2013-02-16T15:35:04Z</time>
      </trkpt>
      <trkpt lat="48.84487" lon="2.36371">
        <ele>35</ele>
        <time>2013-02-16T15:35:10Z</time>
      </trkpt>
      <trkpt lat="48.84483" lon="2.36377">
        <ele>35</ele>
        <time>2013-02-16T15:35:12Z</time>
      </trkpt>
      <trkpt lat="48.84477" lon="2.36387">
        <ele>34</ele>
        <time>2013-02-16T15:35:17Z</time>
      </trkpt>
      <trkpt lat="48.84479" lon="2.36395">
        <ele>30</ele>
        <time>2013-02-16T15:35:25Z</time>
      </trkpt>
      <trkpt lat="48.84482" lon="2.36418">
        <ele>36</ele>
        <time>2013-02-16T15:35:35Z</time>
      </trkpt>
      <trkpt lat="48.84479" lon="2.36425">
        <ele>30</ele>
        <time>2013-02-16T15:35:39Z</time>
      </trkpt>
      <trkpt lat="48.84475" lon="2.36432">
        <ele>31</ele>
        <time>2013-02-16T15:35:43Z</time>
      </trkpt>
      <trkpt lat="48.84469" lon="2.36436">
        <ele>32</ele>
        <time>2013-02-16T15:35:46Z</time>
      </trkpt>
      <trkpt lat="48.84463" lon="2.36443">
        <ele>27</ele>
        <time>2013-02-16T15:35:48Z</time>
      </trkpt>
      <trkpt lat="48.84457" lon="2.36453">
        <ele>25</ele>
        <time>2013-02-16T15:35:51Z</time>
      </trkpt>
      <trkpt lat="48.84454" lon="2.36462">
        <ele>26</ele>
        <time>2013-02-16T15:35:53Z</time>
      </trkpt>
      <trkpt lat="48.84452" lon="2.3647">
        <ele>31</ele>
        <time>2013-02-16T15:35:55Z</time>
      </trkpt>
      <trkpt lat="48.84448" lon="2.36481">
        <ele>32</ele>
        <time>2013-02-16T15:35:59Z</time>
      </trkpt>
      <trkpt lat="48.84447" lon="2.3649">
        <ele>32</ele>
        <time>2013-02-16T15:36:02Z</time>
      </trkpt>
      <trkpt lat="48.84449" lon="2.36499">
        <ele>34</ele>
        <time>2013-02-16T15:36:05Z</time>
      </trkpt>
      <trkpt lat="48.84453" lon="2.36504">
        <ele>37</ele>
        <time>2013-02-16T15:36:08Z</time>
      </trkpt>
      <trkpt lat="48.84458" lon="2.3651">
        <ele>29</ele>
        <time>2013-02-16T15:36:11Z</time>
      </trkpt>
      <trkpt lat="48.84462" lon="2.36517">
        <ele>32</ele>
        <time>2013-02-16T15:36:14Z</time>
      </trkpt>
      <trkpt lat="48.84474" lon="2.3654">
        <ele>33</ele>
        <time>2013-02-16T15:36:22Z</time>
      </trkpt>
      <trkpt lat="48.84477" lon="2.36548">
        <ele>31</ele>
        <time>2013-02-16T15:36:24Z</time>
      </trkpt>
      <trkpt lat="48.84483" lon="2.36556">
        <ele>25</ele>
        <time>2013-02-16T15:36:27Z</time>
      </trkpt>
      <trkpt lat="48.84489" lon="2.36562">
        <ele>25</ele>
        <time>2013-02-16T15:36:30Z</time>
      </trkpt>
      <trkpt lat="48.84492" lon="2.36568">
        <ele>24</ele>
        <time>2013-02-16T15:36:32Z</time>
      </trkpt>
      <trkpt lat="48.84493" lon="2.36571">
        <ele>25</ele>
        <time>2013-02-16T15:36:33Z</time>
      </trkpt>
      <trkpt lat="48.84497" lon="2.36577">
        <ele>26</ele>
        <time>2013-02-16T15:36:35Z</time>
      </trkpt>
      <trkpt lat="48.845" lon="2.36584">
        <ele>29</ele>
        <time>2013-02-16T15:36:37Z</time>
      </trkpt>
      <trkpt lat="48.84504" lon="2.3659">
        <ele>28</ele>
        <time>2013-02-16T15:36:39Z</time>
      </trkpt>
      <trkpt lat="48.84509" lon="2.36597">
        <ele>30</ele>
        <time>2013-02-16T15:36:42Z</time>
      </trkpt>
      <trkpt lat="48.84513" lon="2.36606">
        <ele>30</ele>
        <time>2013-02-16T15:36:45Z</time>
      </trkpt>
      <trkpt lat="48.84517" lon="2.36613">
        <ele>30</ele>
        <time>2013-02-16T15:36:48Z</time>
      </trkpt>
      <trkpt lat="48.84528" lon="2.36635">
        <ele>35</ele>
        <time>2013-02-16T15:36:57Z</time>
      </trkpt>
      <trkpt lat="48.84537" lon="2.36649">
        <ele>28</ele>
        <time>2013-02-16T15:37:04Z</time>
      </trkpt>
      <trkpt lat="48.84539" lon="2.36654">
        <ele>28</ele>
        <time>2013-02-16T15:37:06Z</time>
      </trkpt>
      <trkpt lat="48.84541" lon="2.36659">
        <ele>35</ele>
        <time>2013-02-16T15:37:08Z</time>
      </trkpt>
      <trkpt lat="48.84542" lon="2.36662">
        <ele>34</ele>
        <time>2013-02-16T15:37:09Z</time>
      </trkpt>
      <trkpt lat="48.84544" lon="2.36665">
        <ele>34</ele>
        <time>2013-02-16T15:37:10Z</time>
      </trkpt>
      <trkpt lat="48.84547" lon="2.36671">
        <ele>36</ele>
        <time>2013-02-16T15:37:12Z</time>
      </trkpt>
      <trkpt lat="48.84557" lon="2.36686">
        <ele>32</ele>
        <time>2013-02-16T15:37:17Z</time>
      </trkpt>
      <trkpt lat="48.84561" lon="2.3669">
        <ele>30</ele>
        <time>2013-02-16T15:37:19Z</time>
      </trkpt>
      <trkpt lat="48.84575" lon="2.36704">
        <ele>34</ele>
        <time>2013-02-16T15:37:25Z</time>
      </trkpt>
      <trkpt lat="48.84577" lon="2.36707">
        <ele>35</ele>
        <time>2013-02-16T15:37:26Z</time>
      </trkpt>
      <trkpt lat="48.84579" lon="2.36709">
        <ele>35</ele>
        <time>2013-02-16T15:37:27Z</time>
      </trkpt>
      <trkpt lat="48.84583" lon="2.36712">
        <ele>31</ele>
        <time>2013-02-16T15:37:29Z</time>
      </trkpt>
      <trkpt lat="48.84585" lon="2.36713">
        <ele>31</ele>
        <time>2013-02-16T15:37:30Z</time>
      </trkpt>
      <trkpt lat="48.84588" lon="2.36713">
        <ele>31</ele>
        <time>2013-02-16T15:37:31Z</time>
      </trkpt>
      <trkpt lat="48.84594" lon="2.3671">
        <ele>27</ele>
        <time>2013-02-16T15:37:35Z</time>
      </trkpt>
      <trkpt lat="48.8459" lon="2.36723">
        <ele>23</ele>
        <time>2013-02-16T15:37:41Z</time>
      </trkpt>
      <trkpt lat="48.84586" lon="2.36728">
        <ele>29</ele>
        <time>2013-02-16T15:37:45Z</time>
      </trkpt>
      <trkpt lat="48.84585" lon="2.36737">
        <ele>31</ele>
        <time>2013-02-16T15:37:49Z</time>
      </trkpt>
      <trkpt lat="48.84589" lon="2.36742">
        <ele>32</ele>
        <time>2013-02-16T15:37:52Z</time>
      </trkpt>
      <trkpt lat="48.84594" lon="2.36741">
        <ele>25</ele>
        <time>2013-02-16T15:37:55Z</time>
      </trkpt>
      <trkpt lat="48.84598" lon="2.36736">
        <ele>27</ele>
        <time>2013-02-16T15:37:57Z</time>
      </trkpt>
      <trkpt lat="48.84605" lon="2.36729">
        <ele>25</ele>
        <time>2013-02-16T15:38:00Z</time>
      </trkpt>
      <trkpt lat="48.8462" lon="2.3671">
        <ele>31</ele>
        <time>2013-02-16T15:38:07Z</time>
      </trkpt>
      <trkpt lat="48.84623" lon="2.36702">
        <ele>27</ele>
        <time>2013-02-16T15:38:10Z</time>
      </trkpt>
      <trkpt lat="48.84628" lon="2.36691">
        <ele>38</ele>
        <time>2013-02-16T15:38:27Z</time>
      </trkpt>
      <trkpt lat="48.84633" lon="2.36684">
        <ele>52</ele>
        <time>2013-02-16T15:38:48Z</time>
      </trkpt>
      <trkpt lat="48.84638" lon="2.3669">
        <ele>49</ele>
        <time>2013-02-16T15:38:52Z</time>
      </trkpt>
      <trkpt lat="48.84643" lon="2.36692">
        <ele>46</ele>
        <time>2013-02-16T15:38:55Z</time>
      </trkpt>
      <trkpt lat="48.84649" lon="2.36692">
        <ele>44</ele>
        <time>2013-02-16T15:38:58Z</time>
      </trkpt>
      <trkpt lat="48.84654" lon="2.36694">
        <ele>41</ele>
        <time>2013-02-16T15:39:01Z</time>
      </trkpt>
      <trkpt lat="48.84668" lon="2.367">
        <ele>41</ele>
        <time>2013-02-16T15:39:08Z</time>
      </trkpt>
      <trkpt lat="48.84672" lon="2.36703">
        <ele>39</ele>
        <time>2013-02-16T15:39:10Z</time>
      </trkpt>
      <trkpt lat="48.84689" lon="2.36717">
        <ele>40</ele>
        <time>2013-02-16T15:39:16Z</time>
      </trkpt>
      <trkpt lat="48.84696" lon="2.36724">
        <ele>33</ele>
        <time>2013-02-16T15:39:18Z</time>
      </trkpt>
      <trkpt lat="48.84709" lon="2.36728">
        <ele>36</ele>
        <time>2013-02-16T15:39:21Z</time>
      </trkpt>
      <trkpt lat="48.84732" lon="2.36738">
        <ele>32</ele>
        <time>2013-02-16T15:39:26Z</time>
      </trkpt>
      <trkpt lat="48.84737" lon="2.36742">
        <ele>33</ele>
        <time>2013-02-16T15:39:27Z</time>
      </trkpt>
      <trkpt lat="48.84744" lon="2.36746">
        <ele>37</ele>
        <time>2013-02-16T15:39:28Z</time>
      </trkpt>
      <trkpt lat="48.84764" lon="2.36759">
        <ele>30</ele>
        <time>2013-02-16T15:39:32Z</time>
      </trkpt>
      <trkpt lat="48.84772" lon="2.36765">
        <ele>31</ele>
        <time>2013-02-16T15:39:34Z</time>
      </trkpt>
      <trkpt lat="48.84781" lon="2.36767">
        <ele>31</ele>
        <time>2013-02-16T15:39:37Z</time>
      </trkpt>
      <trkpt lat="48.84786" lon="2.36773">
        <ele>33</ele>
        <time>2013-02-16T15:39:39Z</time>
      </trkpt>
      <trkpt lat="48.84791" lon="2.36772">
        <ele>33</ele>
        <time>2013-02-16T15:39:40Z</time>
      </trkpt>
      <trkpt lat="48.84797" lon="2.36774">
        <ele>35</ele>
        <time>2013-02-16T15:39:41Z</time>
      </trkpt>
      <trkpt lat="48.84819" lon="2.3678">
        <ele>40</ele>
        <time>2013-02-16T15:39:46Z</time>
      </trkpt>
      <trkpt lat="48.84827" lon="2.36784">
        <ele>38</ele>
        <time>2013-02-16T15:39:48Z</time>
      </trkpt>
      <trkpt lat="48.84845" lon="2.36795">
        <ele>38</ele>
        <time>2013-02-16T15:39:54Z</time>
      </trkpt>
      <trkpt lat="48.84851" lon="2.36797">
        <ele>36</ele>
        <time>2013-02-16T15:39:55Z</time>
      </trkpt>
      <trkpt lat="48.8486" lon="2.36802">
        <ele>35</ele>
        <time>2013-02-16T15:39:57Z</time>
      </trkpt>
      <trkpt lat="48.84879" lon="2.36811">
        <ele>32</ele>
        <time>2013-02-16T15:40:03Z</time>
      </trkpt>
      <trkpt lat="48.84885" lon="2.36813">
        <ele>36</ele>
        <time>2013-02-16T15:40:06Z</time>
      </trkpt>
      <trkpt lat="48.84892" lon="2.36813">
        <ele>29</ele>
        <time>2013-02-16T15:40:08Z</time>
      </trkpt>
      <trkpt lat="48.84899" lon="2.36811">
        <ele>31</ele>
        <time>2013-02-16T15:40:12Z</time>
      </trkpt>
      <trkpt lat="48.84905" lon="2.36815">
        <ele>41</ele>
        <time>2013-02-16T15:40:26Z</time>
      </trkpt>
      <trkpt lat="48.8491" lon="2.36817">
        <ele>33</ele>
        <time>2013-02-16T15:40:29Z</time>
      </trkpt>
      <trkpt lat="48.84915" lon="2.36819">
        <ele>34</ele>
        <time>2013-02-16T15:40:31Z</time>
      </trkpt>
      <trkpt lat="48.84931" lon="2.36831">
        <ele>31</ele>
        <time>2013-02-16T15:40:36Z</time>
      </trkpt>
      <trkpt lat="48.84949" lon="2.36843">
        <ele>30</ele>
        <time>2013-02-16T15:40:41Z</time>
      </trkpt>
      <trkpt lat="48.84965" lon="2.36852">
        <ele>32</ele>
        <time>2013-02-16T15:40:46Z</time>
      </trkpt>
      <trkpt lat="48.84973" lon="2.36853">
        <ele>30</ele>
        <time>2013-02-16T15:40:48Z</time>
      </trkpt>
      <trkpt lat="48.8498" lon="2.36855">
        <ele>34</ele>
        <time>2013-02-16T15:40:50Z</time>
      </trkpt>
      <trkpt lat="48.84988" lon="2.36857">
        <ele>31</ele>
        <time>2013-02-16T15:40:52Z</time>
      </trkpt>
      <trkpt lat="48.85013" lon="2.36863">
        <ele>25</ele>
        <time>2013-02-16T15:40:59Z</time>
      </trkpt>
      <trkpt lat="48.85022" lon="2.36866">
        <ele>24</ele>
        <time>2013-02-16T15:41:01Z</time>
      </trkpt>
      <trkpt lat="48.8503" lon="2.36868">
        <ele>28</ele>
        <time>2013-02-16T15:41:03Z</time>
      </trkpt>
      <trkpt lat="48.85036" lon="2.36872">
        <ele>32</ele>
        <time>2013-02-16T15:41:05Z</time>
      </trkpt>
      <trkpt lat="48.85055" lon="2.36883">
        <ele>36</ele>
        <time>2013-02-16T15:41:12Z</time>
      </trkpt>
      <trkpt lat="48.8506" lon="2.36886">
        <ele>34</ele>
        <time>2013-02-16T15:41:14Z</time>
      </trkpt>
      <trkpt lat="48.85065" lon="2.36888">
        <ele>34</ele>
        <time>2013-02-16T15:41:16Z</time>
      </trkpt>
      <trkpt lat="48.85085" lon="2.36896">
        <ele>40</ele>
        <time>2013-02-16T15:41:23Z</time>
      </trkpt>
      <trkpt lat="48.8509" lon="2.36898">
        <ele>42</ele>
        <time>2013-02-16T15:41:25Z</time>
      </trkpt>
      <trkpt lat="48.85109" lon="2.36911">
        <ele>37</ele>
        <time>2013-02-16T15:41:31Z</time>
      </trkpt>
      <trkpt lat="48.85115" lon="2.36913">
        <ele>40</ele>
        <time>2013-02-16T15:41:34Z</time>
      </trkpt>
      <trkpt lat="48.85125" lon="2.36919">
        <ele>40</ele>
        <time>2013-02-16T15:41:37Z</time>
      </trkpt>
      <trkpt lat="48.85143" lon="2.36931">
        <ele>33</ele>
        <time>2013-02-16T15:41:45Z</time>
      </trkpt>
      <trkpt lat="48.8515" lon="2.36933">
        <ele>34</ele>
        <time>2013-02-16T15:41:47Z</time>
      </trkpt>
      <trkpt lat="48.85157" lon="2.36933">
        <ele>33</ele>
        <time>2013-02-16T15:41:49Z</time>
      </trkpt>
      <trkpt lat="48.85173" lon="2.36935">
        <ele>29</ele>
        <time>2013-02-16T15:41:53Z</time>
      </trkpt>
      <trkpt lat="48.85193" lon="2.36935">
        <ele>22</ele>
        <time>2013-02-16T15:42:03Z</time>
      </trkpt>
      <trkpt lat="48.85198" lon="2.36937">
        <ele>31</ele>
        <time>2013-02-16T15:42:08Z</time>
      </trkpt>
      <trkpt lat="48.85203" lon="2.36935">
        <ele>32</ele>
        <time>2013-02-16T15:42:12Z</time>
      </trkpt>
      <trkpt lat="48.85214" lon="2.36927">
        <ele>41</ele>
        <time>2013-02-16T15:42:24Z</time>
      </trkpt>
      <trkpt lat="48.8522" lon="2.36925">
        <ele>36</ele>
        <time>2013-02-16T15:42:27Z</time>
      </trkpt>
      <trkpt lat="48.85227" lon="2.36925">
        <ele>39</ele>
        <time>2013-02-16T15:42:33Z</time>
      </trkpt>
      <trkpt lat="48.85232" lon="2.36927">
        <ele>40</ele>
        <time>2013-02-16T15:42:36Z</time>
      </trkpt>
      <trkpt lat="48.85238" lon="2.36926">
        <ele>33</ele>
        <time>2013-02-16T15:42:39Z</time>
      </trkpt>
      <trkpt lat="48.85245" lon="2.36918">
        <ele>46</ele>
        <time>2013-02-16T15:42:47Z</time>
      </trkpt>
      <trkpt lat="48.85243" lon="2.36911">
        <ele>39</ele>
        <time>2013-02-16T15:43:00Z</time>
      </trkpt>
      <trkpt lat="48.8524" lon="2.36918">
        <ele>40</ele>
        <time>2013-02-16T15:43:11Z</time>
      </trkpt>
      <trkpt lat="48.85234" lon="2.36917">
        <ele>90</ele>
        <time>2013-02-16T15:43:48Z</time>
      </trkpt>
      <trkpt lat="48.85219" lon="2.36921">
        <ele>91</ele>
        <time>2013-02-16T15:43:49Z</time>
      </trkpt>
      <trkpt lat="48.85213" lon="2.36926">
        <ele>91</ele>
        <time>2013-02-16T15:43:53Z</time>
      </trkpt>
      <trkpt lat="48.85218" lon="2.36933">
        <ele>95</ele>
        <time>2013-02-16T15:43:55Z</time>
      </trkpt>
      <trkpt lat="48.85227" lon="2.36939">
        <ele>91</ele>
        <time>2013-02-16T15:43:57Z</time>
      </trkpt>
      <trkpt lat="48.85232" lon="2.36944">
        <ele>95</ele>
        <time>2013-02-16T15:43:58Z</time>
      </trkpt>
      <trkpt lat="48.85249" lon="2.36962">
        <ele>83</ele>
        <time>2013-02-16T15:44:04Z</time>
      </trkpt>
      <trkpt lat="48.85255" lon="2.36965">
        <ele>82</ele>
        <time>2013-02-16T15:44:06Z</time>
      </trkpt>
      <trkpt lat="48.85261" lon="2.36968">
        <ele>65</ele>
        <time>2013-02-16T15:44:11Z</time>
      </trkpt>
      <trkpt lat="48.85266" lon="2.36976">
        <ele>61</ele>
        <time>2013-02-16T15:44:14Z</time>
      </trkpt>
      <trkpt lat="48.8527" lon="2.36982">
        <ele>57</ele>
        <time>2013-02-16T15:44:17Z</time>
      </trkpt>
      <trkpt lat="48.85276" lon="2.36985">
        <ele>50</ele>
        <time>2013-02-16T15:44:19Z</time>
      </trkpt>
      <trkpt lat="48.85281" lon="2.36984">
        <ele>46</ele>
        <time>2013-02-16T15:44:21Z</time>
      </trkpt>
      <trkpt lat="48.85287" lon="2.36986">
        <ele>43</ele>
        <time>2013-02-16T15:44:25Z</time>
      </trkpt>
      <trkpt lat="48.85291" lon="2.36993">
        <ele>44</ele>
        <time>2013-02-16T15:44:29Z</time>
      </trkpt>
      <trkpt lat="48.85303" lon="2.37015">
        <ele>43</ele>
        <time>2013-02-16T15:44:40Z</time>
      </trkpt>
      <trkpt lat="48.85307" lon="2.3702">
        <ele>40</ele>
        <time>2013-02-16T15:44:58Z</time>
      </trkpt>
      <trkpt lat="48.85316" lon="2.37027">
        <ele>39</ele>
        <time>2013-02-16T15:45:02Z</time>
      </trkpt>
      <trkpt lat="48.85323" lon="2.37025">
        <ele>42</ele>
        <time>2013-02-16T15:45:06Z</time>
      </trkpt>
      <trkpt lat="48.85327" lon="2.3702">
        <ele>42</ele>
        <time>2013-02-16T15:45:11Z</time>
      </trkpt>
      <trkpt lat="48.85329" lon="2.37013">
        <ele>24</ele>
        <time>2013-02-16T15:45:23Z</time>
      </trkpt>
      <trkpt lat="48.85334" lon="2.37008">
        <ele>32</ele>
        <time>2013-02-16T15:45:29Z</time>
      </trkpt>
      <trkpt lat="48.85338" lon="2.37002">
        <ele>32</ele>
        <time>2013-02-16T15:45:42Z</time>
      </trkpt>
      <trkpt lat="48.8534" lon="2.37002">
        <ele>31</ele>
        <time>2013-02-16T15:45:44Z</time>
      </trkpt>
      <trkpt lat="48.85342" lon="2.37">
        <ele>39</ele>
        <time>2013-02-16T15:45:46Z</time>
      </trkpt>
      <trkpt lat="48.85345" lon="2.36999">
        <ele>39</ele>
        <time>2013-02-16T15:45:48Z</time>
      </trkpt>
      <trkpt lat="48.85357" lon="2.36989">
        <ele>38</ele>
        <time>2013-02-16T15:45:55Z</time>
      </trkpt>
      <trkpt lat="48.85364" lon="2.36989">
        <ele>38</ele>
        <time>2013-02-16T15:45:58Z</time>
      </trkpt>
      <trkpt lat="48.85369" lon="2.3699">
        <ele>39</ele>
        <time>2013-02-16T15:46:02Z</time>
      </trkpt>
      <trkpt lat="48.85375" lon="2.36993">
        <ele>42</ele>
        <time>2013-02-16T15:46:07Z</time>
      </trkpt>
      <trkpt lat="48.85385" lon="2.37001">
        <ele>38</ele>
        <time>2013-02-16T15:46:12Z</time>
      </trkpt>
      <trkpt lat="48.85394" lon="2.37005">
        <ele>41</ele>
        <time>2013-02-16T15:46:19Z</time>
      </trkpt>
      <trkpt lat="48.85401" lon="2.37002">
        <ele>44</ele>
        <time>2013-02-16T15:46:24Z</time>
      </trkpt>
      <trkpt lat="48.85416" lon="2.37001">
        <ele>43</ele>
        <time>2013-02-16T15:46:33Z</time>
      </trkpt>
      <trkpt lat="48.85425" lon="2.37005">
        <ele>47</ele>
        <time>2013-02-16T15:46:43Z</time>
      </trkpt>
      <trkpt lat="48.85428" lon="2.36993">
        <ele>55</ele>
        <time>2013-02-16T15:46:49Z</time>
      </trkpt>
      <trkpt lat="48.85433" lon="2.36993">
        <ele>46</ele>
        <time>2013-02-16T15:46:58Z</time>
      </trkpt>
      <trkpt lat="48.85436" lon="2.36984">
        <ele>40</ele>
        <time>2013-02-16T15:47:12Z</time>
      </trkpt>
      <trkpt lat="48.8544" lon="2.36975">
        <ele>42</ele>
        <time>2013-02-16T15:47:18Z</time>
      </trkpt>
      <trkpt lat="48.85445" lon="2.36982">
        <ele>37</ele>
        <time>2013-02-16T15:47:39Z</time>
      </trkpt>
      <trkpt lat="48.85444" lon="2.36989">
        <ele>42</ele>
        <time>2013-02-16T15:47:50Z</time>
      </trkpt>
      <trkpt lat="48.85449" lon="2.36996">
        <ele>41</ele>
        <time>2013-02-16T15:48:23Z</time>
      </trkpt>
      <trkpt lat="48.85455" lon="2.37003">
        <ele>35</ele>
        <time>2013-02-16T15:48:30Z</time>
      </trkpt>
      <trkpt lat="48.85461" lon="2.37004">
        <ele>30</ele>
        <time>2013-02-16T15:48:37Z</time>
      </trkpt>
      <trkpt lat="48.85466" lon="2.37008">
        <ele>28</ele>
        <time>2013-02-16T15:48:45Z</time>
      </trkpt>
      <trkpt lat="48.85472" lon="2.37011">
        <ele>18</ele>
        <time>2013-02-16T15:48:52Z</time>
      </trkpt>
      <trkpt lat="48.85477" lon="2.37012">
        <ele>11</ele>
        <time>2013-02-16T15:48:55Z</time>
      </trkpt>
      <trkpt lat="48.85482" lon="2.37014">
        <ele>17</ele>
        <time>2013-02-16T15:48:58Z</time>
      </trkpt>
      <trkpt lat="48.85489" lon="2.37016">
        <ele>30</ele>
        <time>2013-02-16T15:49:02Z</time>
      </trkpt>
      <trkpt lat="48.85495" lon="2.37021">
        <ele>36</ele>
        <time>2013-02-16T15:49:07Z</time>
      </trkpt>
      <trkpt lat="48.85504" lon="2.37025">
        <ele>39</ele>
        <time>2013-02-16T15:49:19Z</time>
      </trkpt>
      <trkpt lat="48.85512" lon="2.37027">
        <ele>42</ele>
        <time>2013-02-16T15:49:25Z</time>
      </trkpt>
      <trkpt lat="48.85514" lon="2.37034">
        <ele>40</ele>
        <time>2013-02-16T15:49:28Z</time>
      </trkpt>
      <trkpt lat="48.85521" lon="2.37038">
        <ele>38</ele>
        <time>2013-02-16T15:49:32Z</time>
      </trkpt>
      <trkpt lat="48.85527" lon="2.37041">
        <ele>41</ele>
        <time>2013-02-16T15:49:36Z</time>
      </trkpt>
      <trkpt lat="48.85534" lon="2.37041">
        <ele>35</ele>
        <time>2013-02-16T15:49:40Z</time>
      </trkpt>
      <trkpt lat="48.8554" lon="2.3704">
        <ele>35</ele>
        <time>2013-02-16T15:49:44Z</time>
      </trkpt>
      <trkpt lat="48.85549" lon="2.37043">
        <ele>32</ele>
        <time>2013-02-16T15:49:53Z</time>
      </trkpt>
      <trkpt lat="48.85554" lon="2.37046">
        <ele>36</ele>
        <time>2013-02-16T15:49:55Z</time>
      </trkpt>
      <trkpt lat="48.85571" lon="2.37057">
        <ele>40</ele>
        <time>2013-02-16T15:50:04Z</time>
      </trkpt>
      <trkpt lat="48.85576" lon="2.37062">
        <ele>41</ele>
        <time>2013-02-16T15:50:07Z</time>
      </trkpt>
      <trkpt lat="48.85581" lon="2.37064">
        <ele>39</ele>
        <time>2013-02-16T15:50:11Z</time>
      </trkpt>
      <trkpt lat="48.85603" lon="2.37071">
        <ele>30</ele>
        <time>2013-02-16T15:50:20Z</time>
      </trkpt>
      <trkpt lat="48.85608" lon="2.37074">
        <ele>27</ele>
        <time>2013-02-16T15:50:22Z</time>
      </trkpt>
      <trkpt lat="48.85625" lon="2.37084">
        <ele>35</ele>
        <time>2013-02-16T15:50:30Z</time>
      </trkpt>
      <trkpt lat="48.85638" lon="2.37089">
        <ele>42</ele>
        <time>2013-02-16T15:50:36Z</time>
      </trkpt>
      <trkpt lat="48.85647" lon="2.37086">
        <ele>31</ele>
        <time>2013-02-16T15:50:39Z</time>
      </trkpt>
      <trkpt lat="48.85656" lon="2.37081">
        <ele>29</ele>
        <time>2013-02-16T15:50:42Z</time>
      </trkpt>
      <trkpt lat="48.85662" lon="2.3708">
        <ele>33</ele>
        <time>2013-02-16T15:50:44Z</time>
      </trkpt>
      <trkpt lat="48.85682" lon="2.37077">
        <ele>34</ele>
        <time>2013-02-16T15:50:52Z</time>
      </trkpt>
      <trkpt lat="48.85687" lon="2.37077">
        <ele>33</ele>
        <time>2013-02-16T15:50:54Z</time>
      </trkpt>
      <trkpt lat="48.85693" lon="2.37078">
        <ele>31</ele>
        <time>2013-02-16T15:50:56Z</time>
      </trkpt>
      <trkpt lat="48.85712" lon="2.37084">
        <ele>29</ele>
        <time>2013-02-16T15:51:03Z</time>
      </trkpt>
      <trkpt lat="48.85717" lon="2.37086">
        <ele>30</ele>
        <time>2013-02-16T15:51:05Z</time>
      </trkpt>
      <trkpt lat="48.85723" lon="2.3709">
        <ele>31</ele>
        <time>2013-02-16T15:51:07Z</time>
      </trkpt>
      <trkpt lat="48.85728" lon="2.37091">
        <ele>27</ele>
        <time>2013-02-16T15:51:09Z</time>
      </trkpt>
      <trkpt lat="48.85737" lon="2.37096">
        <ele>34</ele>
        <time>2013-02-16T15:51:12Z</time>
      </trkpt>
      <trkpt lat="48.85744" lon="2.37096">
        <ele>32</ele>
        <time>2013-02-16T15:51:14Z</time>
      </trkpt>
      <trkpt lat="48.8575" lon="2.37099">
        <ele>31</ele>
        <time>2013-02-16T15:51:17Z</time>
      </trkpt>
      <trkpt lat="48.85756" lon="2.37102">
        <ele>32</ele>
        <time>2013-02-16T15:51:18Z</time>
      </trkpt>
      <trkpt lat="48.85775" lon="2.37111">
        <ele>21</ele>
        <time>2013-02-16T15:51:27Z</time>
      </trkpt>
      <trkpt lat="48.85782" lon="2.37115">
        <ele>25</ele>
        <time>2013-02-16T15:51:33Z</time>
      </trkpt>
      <trkpt lat="48.85785" lon="2.37124">
        <ele>30</ele>
        <time>2013-02-16T15:51:39Z</time>
      </trkpt>
      <trkpt lat="48.85788" lon="2.37132">
        <ele>28</ele>
        <time>2013-02-16T15:51:42Z</time>
      </trkpt>
      <trkpt lat="48.85791" lon="2.3714">
        <ele>26</ele>
        <time>2013-02-16T15:51:46Z</time>
      </trkpt>
      <trkpt lat="48.85801" lon="2.37152">
        <ele>35</ele>
        <time>2013-02-16T15:51:49Z</time>
      </trkpt>
      <trkpt lat="48.85808" lon="2.37158">
        <ele>37</ele>
        <time>2013-02-16T15:51:52Z</time>
      </trkpt>
      <trkpt lat="48.85812" lon="2.37164">
        <ele>29</ele>
        <time>2013-02-16T15:51:53Z</time>
      </trkpt>
      <trkpt lat="48.85817" lon="2.37168">
        <ele>32</ele>
        <time>2013-02-16T15:51:55Z</time>
      </trkpt>
      <trkpt lat="48.85834" lon="2.37181">
        <ele>44</ele>
        <time>2013-02-16T15:52:03Z</time>
      </trkpt>
      <trkpt lat="48.8584" lon="2.37183">
        <ele>43</ele>
        <time>2013-02-16T15:52:06Z</time>
      </trkpt>
      <trkpt lat="48.85845" lon="2.37182">
        <ele>45</ele>
        <time>2013-02-16T15:52:08Z</time>
      </trkpt>
      <trkpt lat="48.8585" lon="2.37184">
        <ele>48</ele>
        <time>2013-02-16T15:52:10Z</time>
      </trkpt>
      <trkpt lat="48.85858" lon="2.37189">
        <ele>41</ele>
        <time>2013-02-16T15:52:12Z</time>
      </trkpt>
      <trkpt lat="48.85876" lon="2.37199">
        <ele>53</ele>
        <time>2013-02-16T15:52:20Z</time>
      </trkpt>
      <trkpt lat="48.85886" lon="2.37201">
        <ele>41</ele>
        <time>2013-02-16T15:52:22Z</time>
      </trkpt>
      <trkpt lat="48.85892" lon="2.37204">
        <ele>45</ele>
        <time>2013-02-16T15:52:24Z</time>
      </trkpt>
      <trkpt lat="48.8591" lon="2.37213">
        <ele>41</ele>
        <time>2013-02-16T15:52:31Z</time>
      </trkpt>
      <trkpt lat="48.85918" lon="2.37214">
        <ele>40</ele>
        <time>2013-02-16T15:52:32Z</time>
      </trkpt>
      <trkpt lat="48.85926" lon="2.37214">
        <ele>38</ele>
        <time>2013-02-16T15:52:34Z</time>
      </trkpt>
      <trkpt lat="48.85932" lon="2.37216">
        <ele>37</ele>
        <time>2013-02-16T15:52:37Z</time>
      </trkpt>
      <trkpt lat="48.85941" lon="2.37221">
        <ele>41</ele>
        <time>2013-02-16T15:52:38Z</time>
      </trkpt>
      <trkpt lat="48.85954" lon="2.37232">
        <ele>36</ele>
        <time>2013-02-16T15:52:42Z</time>
      </trkpt>
      <trkpt lat="48.85968" lon="2.3724">
        <ele>52</ele>
        <time>2013-02-16T15:52:47Z</time>
      </trkpt>
      <trkpt lat="48.85974" lon="2.37243">
        <ele>53</ele>
        <time>2013-02-16T15:52:50Z</time>
      </trkpt>
      <trkpt lat="48.85992" lon="2.37251">
        <ele>49</ele>
        <time>2013-02-16T15:52:53Z</time>
      </trkpt>
      <trkpt lat="48.86003" lon="2.37258">
        <ele>48</ele>
        <time>2013-02-16T15:52:56Z</time>
      </trkpt>
      <trkpt lat="48.8602" lon="2.37266">
        <ele>40</ele>
        <time>2013-02-16T15:53:03Z</time>
      </trkpt>
      <trkpt lat="48.86026" lon="2.37265">
        <ele>41</ele>
        <time>2013-02-16T15:53:05Z</time>
      </trkpt>
      <trkpt lat="48.86031" lon="2.37261">
        <ele>46</ele>
        <time>2013-02-16T15:53:06Z</time>
      </trkpt>
      <trkpt lat="48.86036" lon="2.37259">
        <ele>48</ele>
        <time>2013-02-16T15:53:08Z</time>
      </trkpt>
      <trkpt lat="48.86041" lon="2.37258">
        <ele>51</ele>
        <time>2013-02-16T15:53:10Z</time>
      </trkpt>
      <trkpt lat="48.86047" lon="2.37259">
        <ele>54</ele>
        <time>2013-02-16T15:53:12Z</time>
      </trkpt>
      <trkpt lat="48.86053" lon="2.37262">
        <ele>55</ele>
        <time>2013-02-16T15:53:15Z</time>
      </trkpt>
      <trkpt lat="48.86059" lon="2.37264">
        <ele>54</ele>
        <time>2013-02-16T15:53:16Z</time>
      </trkpt>
      <trkpt lat="48.86064" lon="2.37271">
        <ele>54</ele>
        <time>2013-02-16T15:53:19Z</time>
      </trkpt>
      <trkpt lat="48.86071" lon="2.37275">
        <ele>56</ele>
        <time>2013-02-16T15:53:21Z</time>
      </trkpt>
      <trkpt lat="48.86086" lon="2.3728">
        <ele>55</ele>
        <time>2013-02-16T15:53:27Z</time>
      </trkpt>
      <trkpt lat="48.86094" lon="2.3728">
        <ele>59</ele>
        <time>2013-02-16T15:53:29Z</time>
      </trkpt>
      <trkpt lat="48.86132" lon="2.3728">
        <ele>64</ele>
        <time>2013-02-16T15:53:40Z</time>
      </trkpt>
      <trkpt lat="48.86147" lon="2.37279">
        <ele>71</ele>
        <time>2013-02-16T15:53:43Z</time>
      </trkpt>
      <trkpt lat="48.86165" lon="2.37275">
        <ele>60</ele>
        <time>2013-02-16T15:53:49Z</time>
      </trkpt>
      <trkpt lat="48.8617" lon="2.37275">
        <ele>53</ele>
        <time>2013-02-16T15:53:50Z</time>
      </trkpt>
      <trkpt lat="48.86176" lon="2.37277">
        <ele>50</ele>
        <time>2013-02-16T15:53:51Z</time>
      </trkpt>
      <trkpt lat="48.86188" lon="2.37278">
        <ele>47</ele>
        <time>2013-02-16T15:53:55Z</time>
      </trkpt>
      <trkpt lat="48.86198" lon="2.37277">
        <ele>46</ele>
        <time>2013-02-16T15:53:57Z</time>
      </trkpt>
      <trkpt lat="48.86211" lon="2.3727">
        <ele>39</ele>
        <time>2013-02-16T15:54:01Z</time>
      </trkpt>
      <trkpt lat="48.86216" lon="2.37264">
        <ele>31</ele>
        <time>2013-02-16T15:54:03Z</time>
      </trkpt>
      <trkpt lat="48.86219" lon="2.37258">
        <ele>32</ele>
        <time>2013-02-16T15:54:05Z</time>
      </trkpt>
      <trkpt lat="48.86228" lon="2.37247">
        <ele>24</ele>
        <time>2013-02-16T15:54:09Z</time>
      </trkpt>
      <trkpt lat="48.86244" lon="2.3723">
        <ele>12</ele>
        <time>2013-02-16T15:54:18Z</time>
      </trkpt>
      <trkpt lat="48.86249" lon="2.37227">
        <ele>16</ele>
        <time>2013-02-16T15:54:21Z</time>
      </trkpt>
      <trkpt lat="48.86256" lon="2.37225">
        <ele>15</ele>
        <time>2013-02-16T15:54:23Z</time>
      </trkpt>
      <trkpt lat="48.86252" lon="2.37231">
        <ele>42</ele>
        <time>2013-02-16T15:54:41Z</time>
      </trkpt>
      <trkpt lat="48.86258" lon="2.37232">
        <ele>43</ele>
        <time>2013-02-16T15:54:47Z</time>
      </trkpt>
      <trkpt lat="48.86263" lon="2.37227">
        <ele>50</ele>
        <time>2013-02-16T15:54:51Z</time>
      </trkpt>
      <trkpt lat="48.86269" lon="2.37224">
        <ele>47</ele>
        <time>2013-02-16T15:54:53Z</time>
      </trkpt>
      <trkpt lat="48.86276" lon="2.37217">
        <ele>47</ele>
        <time>2013-02-16T15:54:55Z</time>
      </trkpt>
      <trkpt lat="48.86283" lon="2.37212">
        <ele>48</ele>
        <time>2013-02-16T15:54:57Z</time>
      </trkpt>
      <trkpt lat="48.86364" lon="2.37159">
        <ele>51</ele>
        <time>2013-02-16T15:55:25Z</time>
      </trkpt>
      <trkpt lat="48.8637" lon="2.37156">
        <ele>52</ele>
        <time>2013-02-16T15:55:27Z</time>
      </trkpt>
      <trkpt lat="48.86388" lon="2.37146">
        <ele>38</ele>
        <time>2013-02-16T15:55:33Z</time>
      </trkpt>
      <trkpt lat="48.86393" lon="2.37141">
        <ele>38</ele>
        <time>2013-02-16T15:55:35Z</time>
      </trkpt>
      <trkpt lat="48.86399" lon="2.37138">
        <ele>42</ele>
        <time>2013-02-16T15:55:37Z</time>
      </trkpt>
      <trkpt lat="48.86408" lon="2.37133">
        <ele>42</ele>
        <time>2013-02-16T15:55:41Z</time>
      </trkpt>
      <trkpt lat="48.86413" lon="2.37127">
        <ele>37</ele>
        <time>2013-02-16T15:55:43Z</time>
      </trkpt>
      <trkpt lat="48.86416" lon="2.3712">
        <ele>28</ele>
        <time>2013-02-16T15:55:50Z</time>
      </trkpt>
      <trkpt lat="48.8641" lon="2.37107">
        <ele>30</ele>
        <time>2013-02-16T15:55:54Z</time>
      </trkpt>
      <trkpt lat="48.86407" lon="2.37098">
        <ele>29</ele>
        <time>2013-02-16T15:56:01Z</time>
      </trkpt>
      <trkpt lat="48.86412" lon="2.37094">
        <ele>36</ele>
        <time>2013-02-16T15:56:03Z</time>
      </trkpt>
      <trkpt lat="48.86414" lon="2.37084">
        <ele>29</ele>
        <time>2013-02-16T15:56:10Z</time>
      </trkpt>
      <trkpt lat="48.86419" lon="2.37091">
        <ele>38</ele>
        <time>2013-02-16T15:56:38Z</time>
      </trkpt>
      <trkpt lat="48.86424" lon="2.37095">
        <ele>22</ele>
        <time>2013-02-16T15:56:51Z</time>
      </trkpt>
      <trkpt lat="48.8643" lon="2.37091">
        <ele>30</ele>
        <time>2013-02-16T15:57:00Z</time>
      </trkpt>
      <trkpt lat="48.86435" lon="2.37097">
        <ele>24</ele>
        <time>2013-02-16T15:57:16Z</time>
      </trkpt>
      <trkpt lat="48.86442" lon="2.37103">
        <ele>25</ele>
        <time>2013-02-16T15:57:25Z</time>
      </trkpt>
      <trkpt lat="48.86449" lon="2.37102">
        <ele>27</ele>
        <time>2013-02-16T15:57:30Z</time>
      </trkpt>
      <trkpt lat="48.86452" lon="2.37097">
        <ele>27</ele>
        <time>2013-02-16T15:57:38Z</time>
      </trkpt>
      <trkpt lat="48.86457" lon="2.37093">
        <ele>26</ele>
        <time>2013-02-16T15:57:51Z</time>
      </trkpt>
      <trkpt lat="48.86461" lon="2.37089">
        <ele>39</ele>
        <time>2013-02-16T15:57:59Z</time>
      </trkpt>
      <trkpt lat="48.86465" lon="2.37081">
        <ele>39</ele>
        <time>2013-02-16T15:58:06Z</time>
      </trkpt>
      <trkpt lat="48.8647" lon="2.37076">
        <ele>33</ele>
        <time>2013-02-16T15:58:10Z</time>
      </trkpt>
      <trkpt lat="48.86475" lon="2.37068">
        <ele>26</ele>
        <time>2013-02-16T15:58:18Z</time>
      </trkpt>
      <trkpt lat="48.86482" lon="2.37055">
        <ele>26</ele>
        <time>2013-02-16T15:58:32Z</time>
      </trkpt>
      <trkpt lat="48.86485" lon="2.37047">
        <ele>48</ele>
        <time>2013-02-16T15:59:08Z</time>
      </trkpt>
      <trkpt lat="48.86491" lon="2.37044">
        <ele>48</ele>
        <time>2013-02-16T15:59:25Z</time>
      </trkpt>
      <trkpt lat="48.86498" lon="2.3704">
        <ele>34</ele>
        <time>2013-02-16T16:00:03Z</time>
      </trkpt>
      <trkpt lat="48.86503" lon="2.37035">
        <ele>37</ele>
        <time>2013-02-16T16:00:47Z</time>
      </trkpt>
      <trkpt lat="48.8651" lon="2.3703">
        <ele>27</ele>
        <time>2013-02-16T16:00:59Z</time>
      </trkpt>
      <trkpt lat="48.86516" lon="2.37027">
        <ele>21</ele>
        <time>2013-02-16T16:01:04Z</time>
      </trkpt>
      <trkpt lat="48.86521" lon="2.37024">
        <ele>18</ele>
        <time>2013-02-16T16:01:07Z</time>
      </trkpt>
      <trkpt lat="48.86527" lon="2.37015">
        <ele>23</ele>
        <time>2013-02-16T16:01:25Z</time>
      </trkpt>
      <trkpt lat="48.86532" lon="2.37013">
        <ele>29</ele>
        <time>2013-02-16T16:01:39Z</time>
      </trkpt>
      <trkpt lat="48.86536" lon="2.37017">
        <ele>26</ele>
        <time>2013-02-16T16:01:45Z</time>
      </trkpt>
      <trkpt lat="48.86541" lon="2.37011">
        <ele>35</ele>
        <time>2013-02-16T16:02:24Z</time>
      </trkpt>
      <trkpt lat="48.86544" lon="2.37005">
        <ele>24</ele>
        <time>2013-02-16T16:02:31Z</time>
      </trkpt>
      <trkpt lat="48.8655" lon="2.36995">
        <ele>27</ele>
        <time>2013-02-16T16:02:50Z</time>
      </trkpt>
      <trkpt lat="48.86546" lon="2.36985">
        <ele>36</ele>
        <time>2013-02-16T16:03:08Z</time>
      </trkpt>
      <trkpt lat="48.86553" lon="2.36987">
        <ele>34</ele>
        <time>2013-02-16T16:03:36Z</time>
      </trkpt>
      <trkpt lat="48.8656" lon="2.36983">
        <ele>29</ele>
        <time>2013-02-16T16:03:55Z</time>
      </trkpt>
      <trkpt lat="48.86565" lon="2.36988">
        <ele>32</ele>
        <time>2013-02-16T16:04:16Z</time>
      </trkpt>
      <trkpt lat="48.8657" lon="2.36994">
        <ele>36</ele>
        <time>2013-02-16T16:04:30Z</time>
      </trkpt>
      <trkpt lat="48.86575" lon="2.36993">
        <ele>25</ele>
        <time>2013-02-16T16:04:46Z</time>
      </trkpt>
      <trkpt lat="48.86577" lon="2.36992">
        <ele>20</ele>
        <time>2013-02-16T16:04:51Z</time>
      </trkpt>
      <trkpt lat="48.8658" lon="2.36984">
        <ele>26</ele>
        <time>2013-02-16T16:05:01Z</time>
      </trkpt>
      <trkpt lat="48.86578" lon="2.36975">
        <ele>25</ele>
        <time>2013-02-16T16:05:07Z</time>
      </trkpt>
      <trkpt lat="48.86579" lon="2.36965">
        <ele>32</ele>
        <time>2013-02-16T16:05:11Z</time>
      </trkpt>
      <trkpt lat="48.86582" lon="2.36959">
        <ele>34</ele>
        <time>2013-02-16T16:05:16Z</time>
      </trkpt>
      <trkpt lat="48.86579" lon="2.36952">
        <ele>46</ele>
        <time>2013-02-16T16:05:27Z</time>
      </trkpt>
      <trkpt lat="48.86574" lon="2.3695">
        <ele>51</ele>
        <time>2013-02-16T16:05:31Z</time>
      </trkpt>
      <trkpt lat="48.8658" lon="2.36948">
        <ele>34</ele>
        <time>2013-02-16T16:05:57Z</time>
      </trkpt>
      <trkpt lat="48.86588" lon="2.36941">
        <ele>32</ele>
        <time>2013-02-16T16:06:04Z</time>
      </trkpt>
      <trkpt lat="48.86593" lon="2.36932">
        <ele>31</ele>
        <time>2013-02-16T16:06:07Z</time>
      </trkpt>
      <trkpt lat="48.86597" lon="2.36927">
        <ele>35</ele>
        <time>2013-02-16T16:06:10Z</time>
      </trkpt>
      <trkpt lat="48.86602" lon="2.36924">
        <ele>37</ele>
        <time>2013-02-16T16:06:12Z</time>
      </trkpt>
      <trkpt lat="48.86611" lon="2.36921">
        <ele>34</ele>
        <time>2013-02-16T16:06:18Z</time>
      </trkpt>
      <trkpt lat="48.86619" lon="2.36914">
        <ele>31</ele>
        <time>2013-02-16T16:06:21Z</time>
      </trkpt>
      <trkpt lat="48.8662" lon="2.36905">
        <ele>21</ele>
        <time>2013-02-16T16:06:24Z</time>
      </trkpt>
      <trkpt lat="48.86616" lon="2.36897">
        <ele>29</ele>
        <time>2013-02-16T16:06:32Z</time>
      </trkpt>
      <trkpt lat="48.86604" lon="2.36909">
        <ele>44</ele>
        <time>2013-02-16T16:06:52Z</time>
      </trkpt>
      <trkpt lat="48.8662" lon="2.3691">
        <ele>43</ele>
        <time>2013-02-16T16:07:18Z</time>
      </trkpt>
      <trkpt lat="48.86624" lon="2.36905">
        <ele>43</ele>
        <time>2013-02-16T16:07:20Z</time>
      </trkpt>
      <trkpt lat="48.86625" lon="2.36897">
        <ele>42</ele>
        <time>2013-02-16T16:07:23Z</time>
      </trkpt>
      <trkpt lat="48.86631" lon="2.36869">
        <ele>39</ele>
        <time>2013-02-16T16:07:32Z</time>
      </trkpt>
      <trkpt lat="48.86634" lon="2.3686">
        <ele>37</ele>
        <time>2013-02-16T16:07:36Z</time>
      </trkpt>
      <trkpt lat="48.86638" lon="2.36854">
        <ele>38</ele>
        <time>2013-02-16T16:07:49Z</time>
      </trkpt>
      <trkpt lat="48.86643" lon="2.36858">
        <ele>36</ele>
        <time>2013-02-16T16:07:57Z</time>
      </trkpt>
      <trkpt lat="48.86647" lon="2.36863">
        <ele>34</ele>
        <time>2013-02-16T16:08:01Z</time>
      </trkpt>
      <trkpt lat="48.86648" lon="2.36864">
        <ele>35</ele>
        <time>2013-02-16T16:08:05Z</time>
      </trkpt>
      <trkpt lat="48.86652" lon="2.3686">
        <ele>30</ele>
        <time>2013-02-16T16:08:12Z</time>
      </trkpt>
      <trkpt lat="48.86656" lon="2.36862">
        <ele>27</ele>
        <time>2013-02-16T16:08:20Z</time>
      </trkpt>
      <trkpt lat="48.86657" lon="2.3687">
        <ele>33</ele>
        <time>2013-02-16T16:08:45Z</time>
      </trkpt>
      <trkpt lat="48.86656" lon="2.36872">
        <ele>33</ele>
        <time>2013-02-16T16:08:46Z</time>
      </trkpt>
      <trkpt lat="48.86655" lon="2.36882">
        <ele>28</ele>
        <time>2013-02-16T16:08:49Z</time>
      </trkpt>
      <trkpt lat="48.86657" lon="2.36889">
        <ele>29</ele>
        <time>2013-02-16T16:08:52Z</time>
      </trkpt>
      <trkpt lat="48.86658" lon="2.3689">
        <ele>26</ele>
        <time>2013-02-16T16:08:54Z</time>
      </trkpt>
      <trkpt lat="48.86663" lon="2.36887">
        <ele>25</ele>
        <time>2013-02-16T16:08:57Z</time>
      </trkpt>
      <trkpt lat="48.86668" lon="2.36885">
        <ele>28</ele>
        <time>2013-02-16T16:08:59Z</time>
      </trkpt>
      <trkpt lat="48.86674" lon="2.3688">
        <ele>27</ele>
        <time>2013-02-16T16:09:02Z</time>
      </trkpt>
      <trkpt lat="48.86696" lon="2.36863">
        <ele>45</ele>
        <time>2013-02-16T16:09:14Z</time>
      </trkpt>
      <trkpt lat="48.86712" lon="2.36855">
        <ele>46</ele>
        <time>2013-02-16T16:09:20Z</time>
      </trkpt>
      <trkpt lat="48.86725" lon="2.36846">
        <ele>36</ele>
        <time>2013-02-16T16:09:24Z</time>
      </trkpt>
      <trkpt lat="48.8673" lon="2.36842">
        <ele>37</ele>
        <time>2013-02-16T16:09:25Z</time>
      </trkpt>
      <trkpt lat="48.86738" lon="2.36835">
        <ele>38</ele>
        <time>2013-02-16T16:09:28Z</time>
      </trkpt>
      <trkpt lat="48.86741" lon="2.36833">
        <ele>40</ele>
        <time>2013-02-16T16:09:30Z</time>
      </trkpt>
      <trkpt lat="48.86747" lon="2.36829">
        <ele>39</ele>
        <time>2013-02-16T16:09:31Z</time>
      </trkpt>
      <trkpt lat="48.86761" lon="2.36817">
        <ele>41</ele>
        <time>2013-02-16T16:09:38Z</time>
      </trkpt>
      <trkpt lat="48.86768" lon="2.3681">
        <ele>41</ele>
        <time>2013-02-16T16:09:41Z</time>
      </trkpt>
      <trkpt lat="48.86775" lon="2.36805">
        <ele>44</ele>
        <time>2013-02-16T16:09:44Z</time>
      </trkpt>
      <trkpt lat="48.86785" lon="2.36801">
        <ele>45</ele>
        <time>2013-02-16T16:09:48Z</time>
      </trkpt>
      <trkpt lat="48.86796" lon="2.36794">
        <ele>53</ele>
        <time>2013-02-16T16:09:52Z</time>
      </trkpt>
      <trkpt lat="48.86812" lon="2.3678">
        <ele>63</ele>
        <time>2013-02-16T16:09:58Z</time>
      </trkpt>
      <trkpt lat="48.86817" lon="2.36773">
        <ele>73</ele>
        <time>2013-02-16T16:10:01Z</time>
      </trkpt>
      <trkpt lat="48.86824" lon="2.36768">
        <ele>74</ele>
        <time>2013-02-16T16:10:04Z</time>
      </trkpt>
      <trkpt lat="48.86834" lon="2.36764">
        <ele>74</ele>
        <time>2013-02-16T16:10:07Z</time>
      </trkpt>
      <trkpt lat="48.86843" lon="2.36764">
        <ele>64</ele>
        <time>2013-02-16T16:10:09Z</time>
      </trkpt>
      <trkpt lat="48.86853" lon="2.36757">
        <ele>54</ele>
        <time>2013-02-16T16:10:12Z</time>
      </trkpt>
      <trkpt lat="48.86859" lon="2.36758">
        <ele>50</ele>
        <time>2013-02-16T16:10:14Z</time>
      </trkpt>
      <trkpt lat="48.86864" lon="2.36758">
        <ele>49</ele>
        <time>2013-02-16T16:10:18Z</time>
      </trkpt>
      <trkpt lat="48.86871" lon="2.36761">
        <ele>28</ele>
        <time>2013-02-16T16:10:22Z</time>
      </trkpt>
      <trkpt lat="48.86879" lon="2.36762">
        <ele>31</ele>
        <time>2013-02-16T16:10:25Z</time>
      </trkpt>
      <trkpt lat="48.86884" lon="2.3676">
        <ele>29</ele>
        <time>2013-02-16T16:10:28Z</time>
      </trkpt>
      <trkpt lat="48.86886" lon="2.36758">
        <ele>27</ele>
        <time>2013-02-16T16:10:30Z</time>
      </trkpt>
      <trkpt lat="48.86889" lon="2.36758">
        <ele>22</ele>
        <time>2013-02-16T16:10:32Z</time>
      </trkpt>
      <trkpt lat="48.86892" lon="2.36757">
        <ele>24</ele>
        <time>2013-02-16T16:10:34Z</time>
      </trkpt>
      <trkpt lat="48.86897" lon="2.36754">
        <ele>21</ele>
        <time>2013-02-16T16:10:36Z</time>
      </trkpt>
      <trkpt lat="48.86906" lon="2.36748">
        <ele>27</ele>
        <time>2013-02-16T16:10:39Z</time>
      </trkpt>
      <trkpt lat="48.8691" lon="2.36743">
        <ele>26</ele>
        <time>2013-02-16T16:10:41Z</time>
      </trkpt>
      <trkpt lat="48.86916" lon="2.36738">
        <ele>33</ele>
        <time>2013-02-16T16:10:43Z</time>
      </trkpt>
      <trkpt lat="48.86926" lon="2.36729">
        <ele>32</ele>
        <time>2013-02-16T16:10:46Z</time>
      </trkpt>
      <trkpt lat="48.8693" lon="2.36726">
        <ele>29</ele>
        <time>2013-02-16T16:10:48Z</time>
      </trkpt>
      <trkpt lat="48.86936" lon="2.36721">
        <ele>38</ele>
        <time>2013-02-16T16:10:51Z</time>
      </trkpt>
      <trkpt lat="48.86942" lon="2.36718">
        <ele>32</ele>
        <time>2013-02-16T16:10:53Z</time>
      </trkpt>
      <trkpt lat="48.8698" lon="2.367">
        <ele>25</ele>
        <time>2013-02-16T16:11:04Z</time>
      </trkpt>
      <trkpt lat="48.86985" lon="2.36698">
        <ele>15</ele>
        <time>2013-02-16T16:11:05Z</time>
      </trkpt>
      <trkpt lat="48.86993" lon="2.36693">
        <ele>12</ele>
        <time>2013-02-16T16:11:07Z</time>
      </trkpt>
      <trkpt lat="48.86994" lon="2.36686">
        <ele>18</ele>
        <time>2013-02-16T16:11:23Z</time>
      </trkpt>
      <trkpt lat="48.86997" lon="2.36676">
        <ele>28</ele>
        <time>2013-02-16T16:11:30Z</time>
      </trkpt>
      <trkpt lat="48.87003" lon="2.36677">
        <ele>37</ele>
        <time>2013-02-16T16:11:34Z</time>
      </trkpt>
      <trkpt lat="48.87008" lon="2.36679">
        <ele>37</ele>
        <time>2013-02-16T16:11:37Z</time>
      </trkpt>
      <trkpt lat="48.87014" lon="2.3668">
        <ele>39</ele>
        <time>2013-02-16T16:11:39Z</time>
      </trkpt>
      <trkpt lat="48.87021" lon="2.36674">
        <ele>33</ele>
        <time>2013-02-16T16:11:41Z</time>
      </trkpt>
      <trkpt lat="48.87027" lon="2.36669">
        <ele>33</ele>
        <time>2013-02-16T16:11:43Z</time>
      </trkpt>
      <trkpt lat="48.87031" lon="2.36664">
        <ele>29</ele>
        <time>2013-02-16T16:11:46Z</time>
      </trkpt>
      <trkpt lat="48.87047" lon="2.36643">
        <ele>33</ele>
        <time>2013-02-16T16:11:54Z</time>
      </trkpt>
      <trkpt lat="48.87052" lon="2.36639">
        <ele>29</ele>
        <time>2013-02-16T16:11:56Z</time>
      </trkpt>
      <trkpt lat="48.87058" lon="2.36636">
        <ele>37</ele>
        <time>2013-02-16T16:11:58Z</time>
      </trkpt>
      <trkpt lat="48.87069" lon="2.36627">
        <ele>34</ele>
        <time>2013-02-16T16:12:05Z</time>
      </trkpt>
      <trkpt lat="48.87074" lon="2.3662">
        <ele>39</ele>
        <time>2013-02-16T16:12:09Z</time>
      </trkpt>
      <trkpt lat="48.87078" lon="2.36616">
        <ele>40</ele>
        <time>2013-02-16T16:12:11Z</time>
      </trkpt>
      <trkpt lat="48.87084" lon="2.36614">
        <ele>42</ele>
        <time>2013-02-16T16:12:13Z</time>
      </trkpt>
      <trkpt lat="48.87098" lon="2.36607">
        <ele>22</ele>
        <time>2013-02-16T16:12:23Z</time>
      </trkpt>
      <trkpt lat="48.87111" lon="2.36603">
        <ele>19</ele>
        <time>2013-02-16T16:12:31Z</time>
      </trkpt>
      <trkpt lat="48.87117" lon="2.366">
        <ele>27</ele>
        <time>2013-02-16T16:12:34Z</time>
      </trkpt>
      <trkpt lat="48.87122" lon="2.36595">
        <ele>22</ele>
        <time>2013-02-16T16:12:39Z</time>
      </trkpt>
      <trkpt lat="48.87137" lon="2.36576">
        <ele>30</ele>
        <time>2013-02-16T16:12:48Z</time>
      </trkpt>
      <trkpt lat="48.87146" lon="2.36569">
        <ele>29</ele>
        <time>2013-02-16T16:12:55Z</time>
      </trkpt>
      <trkpt lat="48.87151" lon="2.36566">
        <ele>29</ele>
        <time>2013-02-16T16:12:57Z</time>
      </trkpt>
      <trkpt lat="48.87156" lon="2.36563">
        <ele>28</ele>
        <time>2013-02-16T16:12:59Z</time>
      </trkpt>
      <trkpt lat="48.87175" lon="2.3655">
        <ele>29</ele>
        <time>2013-02-16T16:13:18Z</time>
      </trkpt>
      <trkpt lat="48.87184" lon="2.3654">
        <ele>38</ele>
        <time>2013-02-16T16:13:22Z</time>
      </trkpt>
      <trkpt lat="48.87187" lon="2.36534">
        <ele>38</ele>
        <time>2013-02-16T16:13:24Z</time>
      </trkpt>
      <trkpt lat="48.87193" lon="2.3653">
        <ele>38</ele>
        <time>2013-02-16T16:13:27Z</time>
      </trkpt>
      <trkpt lat="48.87205" lon="2.36522">
        <ele>39</ele>
        <time>2013-02-16T16:13:34Z</time>
      </trkpt>
      <trkpt lat="48.8721" lon="2.36516">
        <ele>32</ele>
        <time>2013-02-16T16:13:37Z</time>
      </trkpt>
      <trkpt lat="48.87215" lon="2.36512">
        <ele>32</ele>
        <time>2013-02-16T16:13:39Z</time>
      </trkpt>
      <trkpt lat="48.87221" lon="2.36509">
        <ele>29</ele>
        <time>2013-02-16T16:13:43Z</time>
      </trkpt>
      <trkpt lat="48.87226" lon="2.36505">
        <ele>32</ele>
        <time>2013-02-16T16:13:46Z</time>
      </trkpt>
      <trkpt lat="48.87243" lon="2.36492">
        <ele>39</ele>
        <time>2013-02-16T16:13:56Z</time>
      </trkpt>
      <trkpt lat="48.87247" lon="2.36487">
        <ele>41</ele>
        <time>2013-02-16T16:13:59Z</time>
      </trkpt>
      <trkpt lat="48.87252" lon="2.36484">
        <ele>43</ele>
        <time>2013-02-16T16:14:02Z</time>
      </trkpt>
      <trkpt lat="48.87259" lon="2.36479">
        <ele>41</ele>
        <time>2013-02-16T16:14:05Z</time>
      </trkpt>
      <trkpt lat="48.87267" lon="2.36472">
        <ele>40</ele>
        <time>2013-02-16T16:14:10Z</time>
      </trkpt>
      <trkpt lat="48.87272" lon="2.36468">
        <ele>42</ele>
        <time>2013-02-16T16:14:13Z</time>
      </trkpt>
      <trkpt lat="48.87277" lon="2.36462">
        <ele>42</ele>
        <time>2013-02-16T16:14:17Z</time>
      </trkpt>
      <trkpt lat="48.87289" lon="2.3645">
        <ele>45</ele>
        <time>2013-02-16T16:14:35Z</time>
      </trkpt>
      <trkpt lat="48.87296" lon="2.36448">
        <ele>47</ele>
        <time>2013-02-16T16:14:40Z</time>
      </trkpt>
      <trkpt lat="48.87304" lon="2.36445">
        <ele>43</ele>
        <time>2013-02-16T16:14:45Z</time>
      </trkpt>
      <trkpt lat="48.87309" lon="2.36444">
        <ele>41</ele>
        <time>2013-02-16T16:14:48Z</time>
      </trkpt>
      <trkpt lat="48.87316" lon="2.36443">
        <ele>46</ele>
        <time>2013-02-16T16:14:52Z</time>
      </trkpt>
      <trkpt lat="48.87319" lon="2.36436">
        <ele>36</ele>
        <time>2013-02-16T16:15:04Z</time>
      </trkpt>
      <trkpt lat="48.87324" lon="2.3643">
        <ele>43</ele>
        <time>2013-02-16T16:15:15Z</time>
      </trkpt>
      <trkpt lat="48.87331" lon="2.36431">
        <ele>46</ele>
        <time>2013-02-16T16:15:17Z</time>
      </trkpt>
      <trkpt lat="48.87339" lon="2.36426">
        <ele>46</ele>
        <time>2013-02-16T16:15:21Z</time>
      </trkpt>
      <trkpt lat="48.87344" lon="2.36422">
        <ele>51</ele>
        <time>2013-02-16T16:15:22Z</time>
      </trkpt>
      <trkpt lat="48.8736" lon="2.36407">
        <ele>44</ele>
        <time>2013-02-16T16:15:29Z</time>
      </trkpt>
      <trkpt lat="48.87367" lon="2.36405">
        <ele>41</ele>
        <time>2013-02-16T16:15:31Z</time>
      </trkpt>
      <trkpt lat="48.87374" lon="2.36396">
        <ele>43</ele>
        <time>2013-02-16T16:15:33Z</time>
      </trkpt>
      <trkpt lat="48.87382" lon="2.36389">
        <ele>40</ele>
        <time>2013-02-16T16:15:36Z</time>
      </trkpt>
      <trkpt lat="48.87388" lon="2.36388">
        <ele>34</ele>
        <time>2013-02-16T16:15:37Z</time>
      </trkpt>
      <trkpt lat="48.874" lon="2.3638">
        <ele>22</ele>
        <time>2013-02-16T16:15:40Z</time>
      </trkpt>
      <trkpt lat="48.87407" lon="2.3637">
        <ele>31</ele>
        <time>2013-02-16T16:15:43Z</time>
      </trkpt>
      <trkpt lat="48.87417" lon="2.3636">
        <ele>33</ele>
        <time>2013-02-16T16:15:48Z</time>
      </trkpt>
      <trkpt lat="48.87423" lon="2.36356">
        <ele>28</ele>
        <time>2013-02-16T16:15:49Z</time>
      </trkpt>
      <trkpt lat="48.87431" lon="2.36354">
        <ele>31</ele>
        <time>2013-02-16T16:15:53Z</time>
      </trkpt>
      <trkpt lat="48.87437" lon="2.36354">
        <ele>32</ele>
        <time>2013-02-16T16:15:55Z</time>
      </trkpt>
      <trkpt lat="48.87455" lon="2.36358">
        <ele>30</ele>
        <time>2013-02-16T16:16:02Z</time>
      </trkpt>
      <trkpt lat="48.87462" lon="2.3636">
        <ele>33</ele>
        <time>2013-02-16T16:16:04Z</time>
      </trkpt>
      <trkpt lat="48.87467" lon="2.36363">
        <ele>39</ele>
        <time>2013-02-16T16:16:05Z</time>
      </trkpt>
      <trkpt lat="48.87473" lon="2.36369">
        <ele>39</ele>
        <time>2013-02-16T16:16:08Z</time>
      </trkpt>
      <trkpt lat="48.87478" lon="2.36373">
        <ele>43</ele>
        <time>2013-02-16T16:16:25Z</time>
      </trkpt>
      <trkpt lat="48.87483" lon="2.36376">
        <ele>44</ele>
        <time>2013-02-16T16:16:28Z</time>
      </trkpt>
      <trkpt lat="48.87489" lon="2.3638">
        <ele>40</ele>
        <time>2013-02-16T16:16:30Z</time>
      </trkpt>
      <trkpt lat="48.87504" lon="2.36397">
        <ele>43</ele>
        <time>2013-02-16T16:16:35Z</time>
      </trkpt>
      <trkpt lat="48.87513" lon="2.36408">
        <ele>44</ele>
        <time>2013-02-16T16:16:37Z</time>
      </trkpt>
      <trkpt lat="48.87518" lon="2.36413">
        <ele>45</ele>
        <time>2013-02-16T16:16:39Z</time>
      </trkpt>
      <trkpt lat="48.8753" lon="2.36427">
        <ele>45</ele>
        <time>2013-02-16T16:16:43Z</time>
      </trkpt>
      <trkpt lat="48.87536" lon="2.36431">
        <ele>45</ele>
        <time>2013-02-16T16:16:45Z</time>
      </trkpt>
      <trkpt lat="48.87554" lon="2.36443">
        <ele>46</ele>
        <time>2013-02-16T16:16:51Z</time>
      </trkpt>
      <trkpt lat="48.87559" lon="2.36445">
        <ele>48</ele>
        <time>2013-02-16T16:16:52Z</time>
      </trkpt>
      <trkpt lat="48.87578" lon="2.36457">
        <ele>49</ele>
        <time>2013-02-16T16:16:58Z</time>
      </trkpt>
      <trkpt lat="48.87592" lon="2.36469">
        <ele>54</ele>
        <time>2013-02-16T16:17:03Z</time>
      </trkpt>
      <trkpt lat="48.87608" lon="2.3648">
        <ele>52</ele>
        <time>2013-02-16T16:17:09Z</time>
      </trkpt>
      <trkpt lat="48.87617" lon="2.36482">
        <ele>50</ele>
        <time>2013-02-16T16:17:12Z</time>
      </trkpt>
      <trkpt lat="48.87623" lon="2.36484">
        <ele>49</ele>
        <time>2013-02-16T16:17:14Z</time>
      </trkpt>
      <trkpt lat="48.87631" lon="2.36489">
        <ele>53</ele>
        <time>2013-02-16T16:17:16Z</time>
      </trkpt>
      <trkpt lat="48.87647" lon="2.36505">
        <ele>50</ele>
        <time>2013-02-16T16:17:23Z</time>
      </trkpt>
      <trkpt lat="48.87662" lon="2.36519">
        <ele>52</ele>
        <time>2013-02-16T16:17:30Z</time>
      </trkpt>
      <trkpt lat="48.87666" lon="2.36526">
        <ele>48</ele>
        <time>2013-02-16T16:18:04Z</time>
      </trkpt>
      <trkpt lat="48.87671" lon="2.36531">
        <ele>53</ele>
        <time>2013-02-16T16:18:10Z</time>
      </trkpt>
      <trkpt lat="48.87676" lon="2.36533">
        <ele>50</ele>
        <time>2013-02-16T16:18:13Z</time>
      </trkpt>
      <trkpt lat="48.87683" lon="2.36538">
        <ele>47</ele>
        <time>2013-02-16T16:18:17Z</time>
      </trkpt>
      <trkpt lat="48.87689" lon="2.36545">
        <ele>47</ele>
        <time>2013-02-16T16:18:20Z</time>
      </trkpt>
      <trkpt lat="48.87695" lon="2.36552">
        <ele>47</ele>
        <time>2013-02-16T16:18:23Z</time>
      </trkpt>
      <trkpt lat="48.87707" lon="2.36567">
        <ele>50</ele>
        <time>2013-02-16T16:18:28Z</time>
      </trkpt>
      <trkpt lat="48.87715" lon="2.36579">
        <ele>44</ele>
        <time>2013-02-16T16:18:33Z</time>
      </trkpt>
      <trkpt lat="48.87717" lon="2.36584">
        <ele>46</ele>
        <time>2013-02-16T16:18:35Z</time>
      </trkpt>
      <trkpt lat="48.87724" lon="2.366">
        <ele>50</ele>
        <time>2013-02-16T16:18:42Z</time>
      </trkpt>
      <trkpt lat="48.87725" lon="2.36602">
        <ele>49</ele>
        <time>2013-02-16T16:18:43Z</time>
      </trkpt>
      <trkpt lat="48.87728" lon="2.36605">
        <ele>47</ele>
        <time>2013-02-16T16:18:45Z</time>
      </trkpt>
      <trkpt lat="48.87732" lon="2.36607">
        <ele>46</ele>
        <time>2013-02-16T16:18:47Z</time>
      </trkpt>
      <trkpt lat="48.87746" lon="2.36615">
        <ele>49</ele>
        <time>2013-02-16T16:18:55Z</time>
      </trkpt>
      <trkpt lat="48.87754" lon="2.36621">
        <ele>58</ele>
        <time>2013-02-16T16:19:00Z</time>
      </trkpt>
      <trkpt lat="48.87772" lon="2.36632">
        <ele>36</ele>
        <time>2013-02-16T16:19:06Z</time>
      </trkpt>
      <trkpt lat="48.87776" lon="2.36637">
        <ele>38</ele>
        <time>2013-02-16T16:19:08Z</time>
      </trkpt>
      <trkpt lat="48.87799" lon="2.36661">
        <ele>42</ele>
        <time>2013-02-16T16:19:21Z</time>
      </trkpt>
      <trkpt lat="48.87804" lon="2.36665">
        <ele>44</ele>
        <time>2013-02-16T16:19:24Z</time>
      </trkpt>
      <trkpt lat="48.87811" lon="2.36665">
        <ele>44</ele>
        <time>2013-02-16T16:19:27Z</time>
      </trkpt>
      <trkpt lat="48.87816" lon="2.36666">
        <ele>44</ele>
        <time>2013-02-16T16:19:30Z</time>
      </trkpt>
      <trkpt lat="48.87821" lon="2.36668">
        <ele>46</ele>
        <time>2013-02-16T16:19:33Z</time>
      </trkpt>
      <trkpt lat="48.87829" lon="2.36671">
        <ele>49</ele>
        <time>2013-02-16T16:19:37Z</time>
      </trkpt>
      <trkpt lat="48.87835" lon="2.36672">
        <ele>55</ele>
        <time>2013-02-16T16:19:40Z</time>
      </trkpt>
      <trkpt lat="48.87841" lon="2.36674">
        <ele>57</ele>
        <time>2013-02-16T16:19:43Z</time>
      </trkpt>
      <trkpt lat="48.87846" lon="2.36673">
        <ele>58</ele>
        <time>2013-02-16T16:19:46Z</time>
      </trkpt>
      <trkpt lat="48.87851" lon="2.36673">
        <ele>62</ele>
        <time>2013-02-16T16:19:49Z</time>
      </trkpt>
      <trkpt lat="48.87857" lon="2.36679">
        <ele>61</ele>
        <time>2013-02-16T16:19:53Z</time>
      </trkpt>
      <trkpt lat="48.87863" lon="2.36681">
        <ele>67</ele>
        <time>2013-02-16T16:19:56Z</time>
      </trkpt>
      <trkpt lat="48.87868" lon="2.36683">
        <ele>62</ele>
        <time>2013-02-16T16:19:58Z</time>
      </trkpt>
      <trkpt lat="48.87888" lon="2.36695">
        <ele>60</ele>
        <time>2013-02-16T16:20:07Z</time>
      </trkpt>
      <trkpt lat="48.87893" lon="2.36699">
        <ele>57</ele>
        <time>2013-02-16T16:20:09Z</time>
      </trkpt>
      <trkpt lat="48.87906" lon="2.36711">
        <ele>67</ele>
        <time>2013-02-16T16:20:16Z</time>
      </trkpt>
      <trkpt lat="48.8791" lon="2.36717">
        <ele>54</ele>
        <time>2013-02-16T16:20:20Z</time>
      </trkpt>
      <trkpt lat="48.87926" lon="2.36741">
        <ele>52</ele>
        <time>2013-02-16T16:20:28Z</time>
      </trkpt>
      <trkpt lat="48.87935" lon="2.36758">
        <ele>48</ele>
        <time>2013-02-16T16:20:30Z</time>
      </trkpt>
      <trkpt lat="48.87937" lon="2.36765">
        <ele>46</ele>
        <time>2013-02-16T16:20:34Z</time>
      </trkpt>
      <trkpt lat="48.8794" lon="2.36777">
        <ele>45</ele>
        <time>2013-02-16T16:20:38Z</time>
      </trkpt>
      <trkpt lat="48.87942" lon="2.36785">
        <ele>46</ele>
        <time>2013-02-16T16:20:40Z</time>
      </trkpt>
      <trkpt lat="48.87936" lon="2.36794">
        <ele>44</ele>
        <time>2013-02-16T16:20:46Z</time>
      </trkpt>
      <trkpt lat="48.87931" lon="2.36804">
        <ele>43</ele>
        <time>2013-02-16T16:20:50Z</time>
      </trkpt>
      <trkpt lat="48.87926" lon="2.36809">
        <ele>41</ele>
        <time>2013-02-16T16:20:54Z</time>
      </trkpt>
      <trkpt lat="48.87919" lon="2.36823">
        <ele>45</ele>
        <time>2013-02-16T16:21:29Z</time>
      </trkpt>
      <trkpt lat="48.8792" lon="2.36831">
        <ele>46</ele>
        <time>2013-02-16T16:21:37Z</time>
      </trkpt>
      <trkpt lat="48.87924" lon="2.36834">
        <ele>74</ele>
        <time>2013-02-16T16:23:15Z</time>
      </trkpt>
      <trkpt lat="48.87931" lon="2.36826">
        <ele>64</ele>
        <time>2013-02-16T16:23:27Z</time>
      </trkpt>
      <trkpt lat="48.87938" lon="2.36821">
        <ele>54</ele>
        <time>2013-02-16T16:23:37Z</time>
      </trkpt>
      <trkpt lat="48.87931" lon="2.3682">
        <ele>56</ele>
        <time>2013-02-16T16:23:44Z</time>
      </trkpt>
      <trkpt lat="48.87926" lon="2.36824">
        <ele>51</ele>
        <time>2013-02-16T16:23:48Z</time>
      </trkpt>
      <trkpt lat="48.87923" lon="2.36834">
        <ele>49</ele>
        <time>2013-02-16T16:23:52Z</time>
      </trkpt>
      <trkpt lat="48.87922" lon="2.36842">
        <ele>46</ele>
        <time>2013-02-16T16:23:54Z</time>
      </trkpt>
      <trkpt lat="48.87918" lon="2.36856">
        <ele>50</ele>
        <time>2013-02-16T16:23:57Z</time>
      </trkpt>
      <trkpt lat="48.87911" lon="2.36863">
        <ele>47</ele>
        <time>2013-02-16T16:23:59Z</time>
      </trkpt>
      <trkpt lat="48.87903" lon="2.36876">
        <ele>46</ele>
        <time>2013-02-16T16:24:02Z</time>
      </trkpt>
      <trkpt lat="48.87888" lon="2.36896">
        <ele>43</ele>
        <time>2013-02-16T16:24:09Z</time>
      </trkpt>
      <trkpt lat="48.8788" lon="2.36909">
        <ele>42</ele>
        <time>2013-02-16T16:24:13Z</time>
      </trkpt>
      <trkpt lat="48.87867" lon="2.36931">
        <ele>46</ele>
        <time>2013-02-16T16:24:19Z</time>
      </trkpt>
      <trkpt lat="48.87857" lon="2.36951">
        <ele>47</ele>
        <time>2013-02-16T16:24:24Z</time>
      </trkpt>
      <trkpt lat="48.87855" lon="2.36961">
        <ele>45</ele>
        <time>2013-02-16T16:24:27Z</time>
      </trkpt>
      <trkpt lat="48.87853" lon="2.36968">
        <ele>44</ele>
        <time>2013-02-16T16:24:30Z</time>
      </trkpt>
      <trkpt lat="48.8785" lon="2.36975">
        <ele>47</ele>
        <time>2013-02-16T16:24:34Z</time>
      </trkpt>
      <trkpt lat="48.87847" lon="2.36984">
        <ele>46</ele>
        <time>2013-02-16T16:24:37Z</time>
      </trkpt>
      <trkpt lat="48.87848" lon="2.36992">
        <ele>40</ele>
        <time>2013-02-16T16:24:48Z</time>
      </trkpt>
      <trkpt lat="48.87852" lon="2.37">
        <ele>47</ele>
        <time>2013-02-16T16:24:53Z</time>
      </trkpt>
      <trkpt lat="48.87855" lon="2.37008">
        <ele>47</ele>
        <time>2013-02-16T16:24:57Z</time>
      </trkpt>
      <trkpt lat="48.87851" lon="2.37017">
        <ele>63</ele>
        <time>2013-02-16T16:25:09Z</time>
      </trkpt>
      <trkpt lat="48.87846" lon="2.3702">
        <ele>55</ele>
        <time>2013-02-16T16:25:16Z</time>
      </trkpt>
      <trkpt lat="48.87847" lon="2.37029">
        <ele>64</ele>
        <time>2013-02-16T16:25:19Z</time>
      </trkpt>
      <trkpt lat="48.87847" lon="2.37041">
        <ele>59</ele>
        <time>2013-02-16T16:25:22Z</time>
      </trkpt>
      <trkpt lat="48.87848" lon="2.37046">
        <ele>57</ele>
        <time>2013-02-16T16:25:24Z</time>
      </trkpt>
      <trkpt lat="48.87855" lon="2.3705">
        <ele>54</ele>
        <time>2013-02-16T16:25:29Z</time>
      </trkpt>
      <trkpt lat="48.87862" lon="2.37049">
        <ele>52</ele>
        <time>2013-02-16T16:25:31Z</time>
      </trkpt>
      <trkpt lat="48.87871" lon="2.37051">
        <ele>57</ele>
        <time>2013-02-16T16:25:33Z</time>
      </trkpt>
      <trkpt lat="48.87876" lon="2.37051">
        <ele>54</ele>
        <time>2013-02-16T16:25:34Z</time>
      </trkpt>
      <trkpt lat="48.87886" lon="2.37049">
        <ele>53</ele>
        <time>2013-02-16T16:25:36Z</time>
      </trkpt>
      <trkpt lat="48.87891" lon="2.37049">
        <ele>58</ele>
        <time>2013-02-16T16:25:37Z</time>
      </trkpt>
      <trkpt lat="48.87933" lon="2.37051">
        <ele>51</ele>
        <time>2013-02-16T16:25:46Z</time>
      </trkpt>
      <trkpt lat="48.87944" lon="2.37053">
        <ele>48</ele>
        <time>2013-02-16T16:25:49Z</time>
      </trkpt>
      <trkpt lat="48.87952" lon="2.37057">
        <ele>47</ele>
        <time>2013-02-16T16:25:51Z</time>
      </trkpt>
      <trkpt lat="48.87957" lon="2.37059">
        <ele>46</ele>
        <time>2013-02-16T16:25:52Z</time>
      </trkpt>
      <trkpt lat="48.87966" lon="2.37059">
        <ele>45</ele>
        <time>2013-02-16T16:25:55Z</time>
      </trkpt>
      <trkpt lat="48.8798" lon="2.37062">
        <ele>49</ele>
        <time>2013-02-16T16:25:58Z</time>
      </trkpt>
      <trkpt lat="48.87984" lon="2.37067">
        <ele>48</ele>
        <time>2013-02-16T16:25:59Z</time>
      </trkpt>
      <trkpt lat="48.87988" lon="2.37076">
        <ele>45</ele>
        <time>2013-02-16T16:26:01Z</time>
      </trkpt>
      <trkpt lat="48.87994" lon="2.37083">
        <ele>44</ele>
        <time>2013-02-16T16:26:03Z</time>
      </trkpt>
      <trkpt lat="48.88002" lon="2.37085">
        <ele>50</ele>
        <time>2013-02-16T16:26:06Z</time>
      </trkpt>
      <trkpt lat="48.88009" lon="2.37084">
        <ele>49</ele>
        <time>2013-02-16T16:26:07Z</time>
      </trkpt>
      <trkpt lat="48.88016" lon="2.37081">
        <ele>49</ele>
        <time>2013-02-16T16:26:08Z</time>
      </trkpt>
      <trkpt lat="48.88038" lon="2.37068">
        <ele>46</ele>
        <time>2013-02-16T16:26:11Z</time>
      </trkpt>
      <trkpt lat="48.88057" lon="2.37058">
        <ele>45</ele>
        <time>2013-02-16T16:26:17Z</time>
      </trkpt>
      <trkpt lat="48.88062" lon="2.37055">
        <ele>52</ele>
        <time>2013-02-16T16:26:19Z</time>
      </trkpt>
      <trkpt lat="48.88067" lon="2.37054">
        <ele>57</ele>
        <time>2013-02-16T16:26:21Z</time>
      </trkpt>
      <trkpt lat="48.88075" lon="2.37055">
        <ele>59</ele>
        <time>2013-02-16T16:26:24Z</time>
      </trkpt>
      <trkpt lat="48.88082" lon="2.37054">
        <ele>59</ele>
        <time>2013-02-16T16:26:26Z</time>
      </trkpt>
      <trkpt lat="48.88106" lon="2.37049">
        <ele>63</ele>
        <time>2013-02-16T16:26:33Z</time>
      </trkpt>
      <trkpt lat="48.88113" lon="2.37046">
        <ele>70</ele>
        <time>2013-02-16T16:26:36Z</time>
      </trkpt>
      <trkpt lat="48.88119" lon="2.37043">
        <ele>66</ele>
        <time>2013-02-16T16:26:37Z</time>
      </trkpt>
      <trkpt lat="48.88131" lon="2.37038">
        <ele>69</ele>
        <time>2013-02-16T16:26:42Z</time>
      </trkpt>
      <trkpt lat="48.88153" lon="2.37036">
        <ele>50</ele>
        <time>2013-02-16T16:26:51Z</time>
      </trkpt>
      <trkpt lat="48.88162" lon="2.37041">
        <ele>54</ele>
        <time>2013-02-16T16:26:54Z</time>
      </trkpt>
      <trkpt lat="48.88173" lon="2.37044">
        <ele>55</ele>
        <time>2013-02-16T16:26:57Z</time>
      </trkpt>
      <trkpt lat="48.8818" lon="2.37044">
        <ele>56</ele>
        <time>2013-02-16T16:26:59Z</time>
      </trkpt>
      <trkpt lat="48.88222" lon="2.37044">
        <ele>47</ele>
        <time>2013-02-16T16:27:27Z</time>
      </trkpt>
      <trkpt lat="48.88229" lon="2.37051">
        <ele>47</ele>
        <time>2013-02-16T16:27:29Z</time>
      </trkpt>
      <trkpt lat="48.88235" lon="2.37051">
        <ele>47</ele>
        <time>2013-02-16T16:27:31Z</time>
      </trkpt>
      <trkpt lat="48.88245" lon="2.37046">
        <ele>52</ele>
        <time>2013-02-16T16:27:41Z</time>
      </trkpt>
      <trkpt lat="48.8825" lon="2.37043">
        <ele>50</ele>
        <time>2013-02-16T16:27:48Z</time>
      </trkpt>
      <trkpt lat="48.88256" lon="2.37042">
        <ele>45</ele>
        <time>2013-02-16T16:27:50Z</time>
      </trkpt>
      <trkpt lat="48.88262" lon="2.37043">
        <ele>43</ele>
        <time>2013-02-16T16:27:52Z</time>
      </trkpt>
      <trkpt lat="48.88268" lon="2.37046">
        <ele>47</ele>
        <time>2013-02-16T16:27:54Z</time>
      </trkpt>
      <trkpt lat="48.88273" lon="2.37052">
        <ele>49</ele>
        <time>2013-02-16T16:27:56Z</time>
      </trkpt>
      <trkpt lat="48.88278" lon="2.37057">
        <ele>38</ele>
        <time>2013-02-16T16:27:59Z</time>
      </trkpt>
      <trkpt lat="48.88283" lon="2.3706">
        <ele>41</ele>
        <time>2013-02-16T16:28:02Z</time>
      </trkpt>
      <trkpt lat="48.88288" lon="2.37056">
        <ele>38</ele>
        <time>2013-02-16T16:28:05Z</time>
      </trkpt>
      <trkpt lat="48.88292" lon="2.37051">
        <ele>37</ele>
        <time>2013-02-16T16:28:06Z</time>
      </trkpt>
      <trkpt lat="48.88298" lon="2.37041">
        <ele>40</ele>
        <time>2013-02-16T16:28:10Z</time>
      </trkpt>
      <trkpt lat="48.8831" lon="2.37021">
        <ele>43</ele>
        <time>2013-02-16T16:28:19Z</time>
      </trkpt>
      <trkpt lat="48.88316" lon="2.37016">
        <ele>47</ele>
        <time>2013-02-16T16:28:22Z</time>
      </trkpt>
      <trkpt lat="48.88326" lon="2.37007">
        <ele>48</ele>
        <time>2013-02-16T16:28:26Z</time>
      </trkpt>
      <trkpt lat="48.88331" lon="2.37006">
        <ele>48</ele>
        <time>2013-02-16T16:28:28Z</time>
      </trkpt>
      <trkpt lat="48.88335" lon="2.37005">
        <ele>51</ele>
        <time>2013-02-16T16:28:29Z</time>
      </trkpt>
      <trkpt lat="48.88342" lon="2.37006">
        <ele>44</ele>
        <time>2013-02-16T16:28:31Z</time>
      </trkpt>
      <trkpt lat="48.88344" lon="2.37006">
        <ele>44</ele>
        <time>2013-02-16T16:28:32Z</time>
      </trkpt>
      <trkpt lat="48.8835" lon="2.37006">
        <ele>40</ele>
        <time>2013-02-16T16:28:34Z</time>
      </trkpt>
      <trkpt lat="48.88362" lon="2.37004">
        <ele>36</ele>
        <time>2013-02-16T16:28:39Z</time>
      </trkpt>
      <trkpt lat="48.88367" lon="2.37001">
        <ele>38</ele>
        <time>2013-02-16T16:28:40Z</time>
      </trkpt>
      <trkpt lat="48.88369" lon="2.36999">
        <ele>38</ele>
        <time>2013-02-16T16:28:41Z</time>
      </trkpt>
      <trkpt lat="48.88374" lon="2.36994">
        <ele>42</ele>
        <time>2013-02-16T16:28:43Z</time>
      </trkpt>
      <trkpt lat="48.88376" lon="2.36991">
        <ele>46</ele>
        <time>2013-02-16T16:28:44Z</time>
      </trkpt>
      <trkpt lat="48.88379" lon="2.36988">
        <ele>44</ele>
        <time>2013-02-16T16:28:45Z</time>
      </trkpt>
      <trkpt lat="48.88381" lon="2.36984">
        <ele>42</ele>
        <time>2013-02-16T16:28:46Z</time>
      </trkpt>
      <trkpt lat="48.88382" lon="2.3698">
        <ele>40</ele>
        <time>2013-02-16T16:28:47Z</time>
      </trkpt>
      <trkpt lat="48.88384" lon="2.36973">
        <ele>42</ele>
        <time>2013-02-16T16:28:49Z</time>
      </trkpt>
      <trkpt lat="48.88385" lon="2.36968">
        <ele>43</ele>
        <time>2013-02-16T16:28:50Z</time>
      </trkpt>
      <trkpt lat="48.88391" lon="2.36936">
        <ele>43</ele>
        <time>2013-02-16T16:28:59Z</time>
      </trkpt>
      <trkpt lat="48.88394" lon="2.36931">
        <ele>45</ele>
        <time>2013-02-16T16:29:01Z</time>
      </trkpt>
      <trkpt lat="48.88398" lon="2.36926">
        <ele>45</ele>
        <time>2013-02-16T16:29:03Z</time>
      </trkpt>
      <trkpt lat="48.88404" lon="2.36921">
        <ele>43</ele>
        <time>2013-02-16T16:29:05Z</time>
      </trkpt>
      <trkpt lat="48.8841" lon="2.3692">
        <ele>43</ele>
        <time>2013-02-16T16:29:07Z</time>
      </trkpt>
      <trkpt lat="48.88414" lon="2.3692">
        <ele>43</ele>
        <time>2013-02-16T16:29:09Z</time>
      </trkpt>
      <trkpt lat="48.88418" lon="2.3692">
        <ele>49</ele>
        <time>2013-02-16T16:29:11Z</time>
      </trkpt>
      <trkpt lat="48.88423" lon="2.36924">
        <ele>53</ele>
        <time>2013-02-16T16:29:14Z</time>
      </trkpt>
      <trkpt lat="48.88425" lon="2.36929">
        <ele>49</ele>
        <time>2013-02-16T16:29:16Z</time>
      </trkpt>
      <trkpt lat="48.88426" lon="2.36935">
        <ele>48</ele>
        <time>2013-02-16T16:29:18Z</time>
      </trkpt>
      <trkpt lat="48.88429" lon="2.3695">
        <ele>43</ele>
        <time>2013-02-16T16:29:22Z</time>
      </trkpt>
      <trkpt lat="48.88431" lon="2.36958">
        <ele>42</ele>
        <time>2013-02-16T16:29:24Z</time>
      </trkpt>
      <trkpt lat="48.88432" lon="2.36966">
        <ele>44</ele>
        <time>2013-02-16T16:29:26Z</time>
      </trkpt>
      <trkpt lat="48.88436" lon="2.36983">
        <ele>43</ele>
        <time>2013-02-16T16:29:30Z</time>
      </trkpt>
      <trkpt lat="48.88438" lon="2.36991">
        <ele>45</ele>
        <time>2013-02-16T16:29:32Z</time>
      </trkpt>
      <trkpt lat="48.88442" lon="2.37">
        <ele>49</ele>
        <time>2013-02-16T16:29:34Z</time>
      </trkpt>
      <trkpt lat="48.88465" lon="2.37048">
        <ele>51</ele>
        <time>2013-02-16T16:29:46Z</time>
      </trkpt>
      <trkpt lat="48.8847" lon="2.37054">
        <ele>48</ele>
        <time>2013-02-16T16:29:48Z</time>
      </trkpt>
      <trkpt lat="48.88476" lon="2.37062">
        <ele>50</ele>
        <time>2013-02-16T16:29:50Z</time>
      </trkpt>
      <trkpt lat="48.88491" lon="2.37087">
        <ele>46</ele>
        <time>2013-02-16T16:29:56Z</time>
      </trkpt>
      <trkpt lat="48.88493" lon="2.37097">
        <ele>46</ele>
        <time>2013-02-16T16:29:57Z</time>
      </trkpt>
      <trkpt lat="48.88498" lon="2.37104">
        <ele>43</ele>
        <time>2013-02-16T16:29:59Z</time>
      </trkpt>
      <trkpt lat="48.88512" lon="2.37126">
        <ele>43</ele>
        <time>2013-02-16T16:30:05Z</time>
      </trkpt>
      <trkpt lat="48.88518" lon="2.37134">
        <ele>42</ele>
        <time>2013-02-16T16:30:06Z</time>
      </trkpt>
      <trkpt lat="48.88526" lon="2.37146">
        <ele>43</ele>
        <time>2013-02-16T16:30:10Z</time>
      </trkpt>
      <trkpt lat="48.88539" lon="2.37167">
        <ele>37</ele>
        <time>2013-02-16T16:30:15Z</time>
      </trkpt>
      <trkpt lat="48.88544" lon="2.37174">
        <ele>44</ele>
        <time>2013-02-16T16:30:16Z</time>
      </trkpt>
      <trkpt lat="48.88547" lon="2.37181">
        <ele>35</ele>
        <time>2013-02-16T16:30:18Z</time>
      </trkpt>
      <trkpt lat="48.88548" lon="2.37192">
        <ele>31</ele>
        <time>2013-02-16T16:30:20Z</time>
      </trkpt>
      <trkpt lat="48.88553" lon="2.3722">
        <ele>35</ele>
        <time>2013-02-16T16:30:27Z</time>
      </trkpt>
      <trkpt lat="48.88557" lon="2.3723">
        <ele>36</ele>
        <time>2013-02-16T16:30:29Z</time>
      </trkpt>
      <trkpt lat="48.88562" lon="2.37246">
        <ele>46</ele>
        <time>2013-02-16T16:30:32Z</time>
      </trkpt>
      <trkpt lat="48.88572" lon="2.37272">
        <ele>51</ele>
        <time>2013-02-16T16:30:38Z</time>
      </trkpt>
      <trkpt lat="48.88575" lon="2.37281">
        <ele>50</ele>
        <time>2013-02-16T16:30:40Z</time>
      </trkpt>
      <trkpt lat="48.88585" lon="2.37306">
        <ele>40</ele>
        <time>2013-02-16T16:30:46Z</time>
      </trkpt>
      <trkpt lat="48.88592" lon="2.37321">
        <ele>49</ele>
        <time>2013-02-16T16:30:52Z</time>
      </trkpt>
      <trkpt lat="48.88602" lon="2.37339">
        <ele>46</ele>
        <time>2013-02-16T16:31:14Z</time>
      </trkpt>
      <trkpt lat="48.88601" lon="2.37346">
        <ele>52</ele>
        <time>2013-02-16T16:32:32Z</time>
      </trkpt>
      <trkpt lat="48.88604" lon="2.37353">
        <ele>53</ele>
        <time>2013-02-16T16:34:51Z</time>
      </trkpt>
      <trkpt lat="48.88608" lon="2.37358">
        <ele>52</ele>
        <time>2013-02-16T16:34:53Z</time>
      </trkpt>
      <trkpt lat="48.88609" lon="2.37359">
        <ele>51</ele>
        <time>2013-02-16T16:34:54Z</time>
      </trkpt>
      <trkpt lat="48.88613" lon="2.37364">
        <ele>44</ele>
        <time>2013-02-16T16:34:59Z</time>
      </trkpt>
      <trkpt lat="48.88616" lon="2.37371">
        <ele>44</ele>
        <time>2013-02-16T16:35:02Z</time>
      </trkpt>
      <trkpt lat="48.88619" lon="2.37376">
        <ele>47</ele>
        <time>2013-02-16T16:35:04Z</time>
      </trkpt>
      <trkpt lat="48.88622" lon="2.37381">
        <ele>47</ele>
        <time>2013-02-16T16:35:06Z</time>
      </trkpt>
      <trkpt lat="48.88624" lon="2.37384">
        <ele>52</ele>
        <time>2013-02-16T16:35:07Z</time>
      </trkpt>
      <trkpt lat="48.88632" lon="2.37401">
        <ele>49</ele>
        <time>2013-02-16T16:35:12Z</time>
      </trkpt>
      <trkpt lat="48.88634" lon="2.37406">
        <ele>50</ele>
        <time>2013-02-16T16:35:13Z</time>
      </trkpt>
      <trkpt lat="48.88636" lon="2.37409">
        <ele>51</ele>
        <time>2013-02-16T16:35:14Z</time>
      </trkpt>
      <trkpt lat="48.88637" lon="2.37413">
        <ele>49</ele>
        <time>2013-02-16T16:35:15Z</time>
      </trkpt>
      <trkpt lat="48.88646" lon="2.37431">
        <ele>49</ele>
        <time>2013-02-16T16:35:19Z</time>
      </trkpt>
      <trkpt lat="48.88652" lon="2.3744">
        <ele>47</ele>
        <time>2013-02-16T16:35:21Z</time>
      </trkpt>
      <trkpt lat="48.88657" lon="2.37449">
        <ele>51</ele>
        <time>2013-02-16T16:35:24Z</time>
      </trkpt>
      <trkpt lat="48.8866" lon="2.37456">
        <ele>51</ele>
        <time>2013-02-16T16:35:26Z</time>
      </trkpt>
      <trkpt lat="48.88663" lon="2.37459">
        <ele>49</ele>
        <time>2013-02-16T16:35:27Z</time>
      </trkpt>
      <trkpt lat="48.8867" lon="2.3747">
        <ele>50</ele>
        <time>2013-02-16T16:35:31Z</time>
      </trkpt>
      <trkpt lat="48.88678" lon="2.37486">
        <ele>46</ele>
        <time>2013-02-16T16:35:35Z</time>
      </trkpt>
      <trkpt lat="48.88681" lon="2.37495">
        <ele>46</ele>
        <time>2013-02-16T16:35:37Z</time>
      </trkpt>
      <trkpt lat="48.88685" lon="2.37504">
        <ele>43</ele>
        <time>2013-02-16T16:35:39Z</time>
      </trkpt>
      <trkpt lat="48.88696" lon="2.37529">
        <ele>50</ele>
        <time>2013-02-16T16:35:45Z</time>
      </trkpt>
      <trkpt lat="48.88701" lon="2.37543">
        <ele>49</ele>
        <time>2013-02-16T16:35:48Z</time>
      </trkpt>
      <trkpt lat="48.88708" lon="2.37556">
        <ele>45</ele>
        <time>2013-02-16T16:35:51Z</time>
      </trkpt>
      <trkpt lat="48.88715" lon="2.37569">
        <ele>42</ele>
        <time>2013-02-16T16:35:56Z</time>
      </trkpt>
      <trkpt lat="48.88719" lon="2.37576">
        <ele>48</ele>
        <time>2013-02-16T16:35:58Z</time>
      </trkpt>
      <trkpt lat="48.88723" lon="2.37584">
        <ele>51</ele>
        <time>2013-02-16T16:36:00Z</time>
      </trkpt>
      <trkpt lat="48.88776" lon="2.37691">
        <ele>45</ele>
        <time>2013-02-16T16:36:25Z</time>
      </trkpt>
      <trkpt lat="48.88819" lon="2.37765">
        <ele>39</ele>
        <time>2013-02-16T16:36:44Z</time>
      </trkpt>
      <trkpt lat="48.8882" lon="2.37769">
        <ele>41</ele>
        <time>2013-02-16T16:36:45Z</time>
      </trkpt>
      <trkpt lat="48.88828" lon="2.37789">
        <ele>41</ele>
        <time>2013-02-16T16:36:49Z</time>
      </trkpt>
      <trkpt lat="48.88832" lon="2.37798">
        <ele>41</ele>
        <time>2013-02-16T16:36:51Z</time>
      </trkpt>
      <trkpt lat="48.88855" lon="2.37847">
        <ele>39</ele>
        <time>2013-02-16T16:37:05Z</time>
      </trkpt>
      <trkpt lat="48.88858" lon="2.37857">
        <ele>44</ele>
        <time>2013-02-16T16:37:07Z</time>
      </trkpt>
      <trkpt lat="48.88866" lon="2.37884">
        <ele>41</ele>
        <time>2013-02-16T16:37:16Z</time>
      </trkpt>
      <trkpt lat="48.88865" lon="2.37892">
        <ele>38</ele>
        <time>2013-02-16T16:37:19Z</time>
      </trkpt>
      <trkpt lat="48.88862" lon="2.379">
        <ele>44</ele>
        <time>2013-02-16T16:37:23Z</time>
      </trkpt>
      <trkpt lat="48.88854" lon="2.37907">
        <ele>48</ele>
        <time>2013-02-16T16:37:28Z</time>
      </trkpt>
      <trkpt lat="48.88846" lon="2.37916">
        <ele>51</ele>
        <time>2013-02-16T16:37:34Z</time>
      </trkpt>
      <trkpt lat="48.88842" lon="2.37923">
        <ele>42</ele>
        <time>2013-02-16T16:37:55Z</time>
      </trkpt>
      <trkpt lat="48.88846" lon="2.37929">
        <ele>38</ele>
        <time>2013-02-16T16:38:20Z</time>
      </trkpt>
      <trkpt lat="48.88851" lon="2.37936">
        <ele>40</ele>
        <time>2013-02-16T16:38:23Z</time>
      </trkpt>
      <trkpt lat="48.88856" lon="2.37944">
        <ele>45</ele>
        <time>2013-02-16T16:38:26Z</time>
      </trkpt>
      <trkpt lat="48.8886" lon="2.37953">
        <ele>41</ele>
        <time>2013-02-16T16:38:29Z</time>
      </trkpt>
      <trkpt lat="48.88865" lon="2.37962">
        <ele>41</ele>
        <time>2013-02-16T16:38:31Z</time>
      </trkpt>
      <trkpt lat="48.88868" lon="2.37969">
        <ele>42</ele>
        <time>2013-02-16T16:38:32Z</time>
      </trkpt>
      <trkpt lat="48.88871" lon="2.37972">
        <ele>42</ele>
        <time>2013-02-16T16:38:34Z</time>
      </trkpt>
      <trkpt lat="48.88873" lon="2.37977">
        <ele>40</ele>
        <time>2013-02-16T16:38:35Z</time>
      </trkpt>
      <trkpt lat="48.88875" lon="2.37982">
        <ele>43</ele>
        <time>2013-02-16T16:38:36Z</time>
      </trkpt>
      <trkpt lat="48.8888" lon="2.37993">
        <ele>38</ele>
        <time>2013-02-16T16:38:39Z</time>
      </trkpt>
      <trkpt lat="48.88917" lon="2.38068">
        <ele>36</ele>
        <time>2013-02-16T16:38:55Z</time>
      </trkpt>
      <trkpt lat="48.88919" lon="2.38072">
        <ele>38</ele>
        <time>2013-02-16T16:38:56Z</time>
      </trkpt>
      <trkpt lat="48.88927" lon="2.38087">
        <ele>42</ele>
        <time>2013-02-16T16:38:59Z</time>
      </trkpt>
      <trkpt lat="48.88929" lon="2.38092">
        <ele>42</ele>
        <time>2013-02-16T16:39:00Z</time>
      </trkpt>
      <trkpt lat="48.88933" lon="2.38099">
        <ele>37</ele>
        <time>2013-02-16T16:39:02Z</time>
      </trkpt>
      <trkpt lat="48.88949" lon="2.38132">
        <ele>37</ele>
        <time>2013-02-16T16:39:09Z</time>
      </trkpt>
      <trkpt lat="48.88951" lon="2.38136">
        <ele>37</ele>
        <time>2013-02-16T16:39:10Z</time>
      </trkpt>
      <trkpt lat="48.88953" lon="2.3814">
        <ele>36</ele>
        <time>2013-02-16T16:39:11Z</time>
      </trkpt>
      <trkpt lat="48.88955" lon="2.38145">
        <ele>34</ele>
        <time>2013-02-16T16:39:12Z</time>
      </trkpt>
      <trkpt lat="48.88957" lon="2.38149">
        <ele>37</ele>
        <time>2013-02-16T16:39:13Z</time>
      </trkpt>
      <trkpt lat="48.88972" lon="2.3818">
        <ele>32</ele>
        <time>2013-02-16T16:39:21Z</time>
      </trkpt>
      <trkpt lat="48.88977" lon="2.3819">
        <ele>29</ele>
        <time>2013-02-16T16:39:23Z</time>
      </trkpt>
      <trkpt lat="48.89028" lon="2.38294">
        <ele>55</ele>
        <time>2013-02-16T16:39:46Z</time>
      </trkpt>
      <trkpt lat="48.89054" lon="2.38348">
        <ele>38</ele>
        <time>2013-02-16T16:40:00Z</time>
      </trkpt>
      <trkpt lat="48.89059" lon="2.38355">
        <ele>42</ele>
        <time>2013-02-16T16:40:01Z</time>
      </trkpt>
      <trkpt lat="48.89088" lon="2.38401">
        <ele>45</ele>
        <time>2013-02-16T16:40:13Z</time>
      </trkpt>
      <trkpt lat="48.89089" lon="2.38405">
        <ele>46</ele>
        <time>2013-02-16T16:40:14Z</time>
      </trkpt>
      <trkpt lat="48.89112" lon="2.3845">
        <ele>44</ele>
        <time>2013-02-16T16:40:28Z</time>
      </trkpt>
      <trkpt lat="48.89114" lon="2.38457">
        <ele>48</ele>
        <time>2013-02-16T16:40:30Z</time>
      </trkpt>
      <trkpt lat="48.89117" lon="2.38464">
        <ele>44</ele>
        <time>2013-02-16T16:40:32Z</time>
      </trkpt>
      <trkpt lat="48.89121" lon="2.38472">
        <ele>38</ele>
        <time>2013-02-16T16:40:34Z</time>
      </trkpt>
      <trkpt lat="48.89125" lon="2.38481">
        <ele>37</ele>
        <time>2013-02-16T16:40:36Z</time>
      </trkpt>
      <trkpt lat="48.89128" lon="2.38489">
        <ele>33</ele>
        <time>2013-02-16T16:40:38Z</time>
      </trkpt>
      <trkpt lat="48.89133" lon="2.38499">
        <ele>33</ele>
        <time>2013-02-16T16:40:42Z</time>
      </trkpt>
      <trkpt lat="48.89142" lon="2.38519">
        <ele>34</ele>
        <time>2013-02-16T16:40:48Z</time>
      </trkpt>
      <trkpt lat="48.89149" lon="2.38532">
        <ele>32</ele>
        <time>2013-02-16T16:40:52Z</time>
      </trkpt>
      <trkpt lat="48.89155" lon="2.38538">
        <ele>32</ele>
        <time>2013-02-16T16:40:54Z</time>
      </trkpt>
      <trkpt lat="48.89158" lon="2.38539">
        <ele>36</ele>
        <time>2013-02-16T16:40:55Z</time>
      </trkpt>
      <trkpt lat="48.89164" lon="2.38541">
        <ele>38</ele>
        <time>2013-02-16T16:40:57Z</time>
      </trkpt>
      <trkpt lat="48.8917" lon="2.3854">
        <ele>41</ele>
        <time>2013-02-16T16:41:00Z</time>
      </trkpt>
      <trkpt lat="48.89177" lon="2.38538">
        <ele>45</ele>
        <time>2013-02-16T16:41:01Z</time>
      </trkpt>
      <trkpt lat="48.8919" lon="2.38536">
        <ele>45</ele>
        <time>2013-02-16T16:41:05Z</time>
      </trkpt>
      <trkpt lat="48.89198" lon="2.38537">
        <ele>38</ele>
        <time>2013-02-16T16:41:07Z</time>
      </trkpt>
      <trkpt lat="48.89206" lon="2.38539">
        <ele>43</ele>
        <time>2013-02-16T16:41:10Z</time>
      </trkpt>
      <trkpt lat="48.89221" lon="2.38545">
        <ele>48</ele>
        <time>2013-02-16T16:41:15Z</time>
      </trkpt>
      <trkpt lat="48.89224" lon="2.38547">
        <ele>46</ele>
        <time>2013-02-16T16:41:16Z</time>
      </trkpt>
      <trkpt lat="48.8923" lon="2.38552">
        <ele>46</ele>
        <time>2013-02-16T16:41:18Z</time>
      </trkpt>
      <trkpt lat="48.89236" lon="2.38558">
        <ele>43</ele>
        <time>2013-02-16T16:41:22Z</time>
      </trkpt>
      <trkpt lat="48.8924" lon="2.38565">
        <ele>42</ele>
        <time>2013-02-16T16:41:25Z</time>
      </trkpt>
      <trkpt lat="48.89247" lon="2.38571">
        <ele>42</ele>
        <time>2013-02-16T16:41:29Z</time>
      </trkpt>
      <trkpt lat="48.89253" lon="2.38571">
        <ele>43</ele>
        <time>2013-02-16T16:41:31Z</time>
      </trkpt>
      <trkpt lat="48.8926" lon="2.38566">
        <ele>48</ele>
        <time>2013-02-16T16:41:32Z</time>
      </trkpt>
      <trkpt lat="48.89268" lon="2.3856">
        <ele>51</ele>
        <time>2013-02-16T16:41:35Z</time>
      </trkpt>
      <trkpt lat="48.89273" lon="2.38557">
        <ele>49</ele>
        <time>2013-02-16T16:41:36Z</time>
      </trkpt>
      <trkpt lat="48.89299" lon="2.38542">
        <ele>47</ele>
        <time>2013-02-16T16:41:41Z</time>
      </trkpt>
      <trkpt lat="48.8931" lon="2.38533">
        <ele>48</ele>
        <time>2013-02-16T16:41:43Z</time>
      </trkpt>
      <trkpt lat="48.89331" lon="2.3852">
        <ele>50</ele>
        <time>2013-02-16T16:41:46Z</time>
      </trkpt>
      <trkpt lat="48.89342" lon="2.38513">
        <ele>50</ele>
        <time>2013-02-16T16:41:49Z</time>
      </trkpt>
      <trkpt lat="48.89364" lon="2.38497">
        <ele>50</ele>
        <time>2013-02-16T16:41:53Z</time>
      </trkpt>
      <trkpt lat="48.89374" lon="2.3849">
        <ele>53</ele>
        <time>2013-02-16T16:41:55Z</time>
      </trkpt>
      <trkpt lat="48.8939" lon="2.38477">
        <ele>52</ele>
        <time>2013-02-16T16:41:58Z</time>
      </trkpt>
      <trkpt lat="48.89397" lon="2.38472">
        <ele>48</ele>
        <time>2013-02-16T16:41:59Z</time>
      </trkpt>
      <trkpt lat="48.89475" lon="2.38427">
        <ele>37</ele>
        <time>2013-02-16T16:42:12Z</time>
      </trkpt>
      <trkpt lat="48.89535" lon="2.384">
        <ele>42</ele>
        <time>2013-02-16T16:42:24Z</time>
      </trkpt>
      <trkpt lat="48.89547" lon="2.38392">
        <ele>42</ele>
        <time>2013-02-16T16:42:27Z</time>
      </trkpt>
      <trkpt lat="48.89576" lon="2.38376">
        <ele>38</ele>
        <time>2013-02-16T16:42:36Z</time>
      </trkpt>
      <trkpt lat="48.89579" lon="2.38376">
        <ele>38</ele>
        <time>2013-02-16T16:42:38Z</time>
      </trkpt>
      <trkpt lat="48.89583" lon="2.3838">
        <ele>40</ele>
        <time>2013-02-16T16:42:40Z</time>
      </trkpt>
      <trkpt lat="48.89587" lon="2.38385">
        <ele>40</ele>
        <time>2013-02-16T16:42:42Z</time>
      </trkpt>
      <trkpt lat="48.89589" lon="2.38388">
        <ele>37</ele>
        <time>2013-02-16T16:42:43Z</time>
      </trkpt>
      <trkpt lat="48.89598" lon="2.38401">
        <ele>36</ele>
        <time>2013-02-16T16:42:47Z</time>
      </trkpt>
      <trkpt lat="48.89602" lon="2.38408">
        <ele>39</ele>
        <time>2013-02-16T16:42:51Z</time>
      </trkpt>
      <trkpt lat="48.89605" lon="2.38413">
        <ele>38</ele>
        <time>2013-02-16T16:42:53Z</time>
      </trkpt>
      <trkpt lat="48.89615" lon="2.38431">
        <ele>38</ele>
        <time>2013-02-16T16:42:59Z</time>
      </trkpt>
      <trkpt lat="48.89618" lon="2.38437">
        <ele>41</ele>
        <time>2013-02-16T16:43:01Z</time>
      </trkpt>
      <trkpt lat="48.8962" lon="2.3844">
        <ele>41</ele>
        <time>2013-02-16T16:43:02Z</time>
      </trkpt>
      <trkpt lat="48.89627" lon="2.38451">
        <ele>45</ele>
        <time>2013-02-16T16:43:05Z</time>
      </trkpt>
      <trkpt lat="48.8963" lon="2.38453">
        <ele>45</ele>
        <time>2013-02-16T16:43:06Z</time>
      </trkpt>
      <trkpt lat="48.89658" lon="2.38482">
        <ele>40</ele>
        <time>2013-02-16T16:43:21Z</time>
      </trkpt>
      <trkpt lat="48.89664" lon="2.38486">
        <ele>42</ele>
        <time>2013-02-16T16:43:23Z</time>
      </trkpt>
      <trkpt lat="48.89669" lon="2.38493">
        <ele>49</ele>
        <time>2013-02-16T16:43:25Z</time>
      </trkpt>
      <trkpt lat="48.89685" lon="2.38512">
        <ele>48</ele>
        <time>2013-02-16T16:43:33Z</time>
      </trkpt>
      <trkpt lat="48.89692" lon="2.38517">
        <ele>48</ele>
        <time>2013-02-16T16:43:36Z</time>
      </trkpt>
      <trkpt lat="48.89699" lon="2.38527">
        <ele>47</ele>
        <time>2013-02-16T16:43:41Z</time>
      </trkpt>
      <trkpt lat="48.89716" lon="2.3855">
        <ele>46</ele>
        <time>2013-02-16T16:43:50Z</time>
      </trkpt>
      <trkpt lat="48.89726" lon="2.3856">
        <ele>39</ele>
        <time>2013-02-16T16:43:54Z</time>
      </trkpt>
      <trkpt lat="48.89734" lon="2.38566">
        <ele>41</ele>
        <time>2013-02-16T16:43:57Z</time>
      </trkpt>
      <trkpt lat="48.89742" lon="2.38573">
        <ele>32</ele>
        <time>2013-02-16T16:44:02Z</time>
      </trkpt>
      <trkpt lat="48.89749" lon="2.38578">
        <ele>40</ele>
        <time>2013-02-16T16:44:07Z</time>
      </trkpt>
      <trkpt lat="48.89753" lon="2.38583">
        <ele>44</ele>
        <time>2013-02-16T16:44:10Z</time>
      </trkpt>
      <trkpt lat="48.89758" lon="2.38587">
        <ele>42</ele>
        <time>2013-02-16T16:44:12Z</time>
      </trkpt>
      <trkpt lat="48.89786" lon="2.38612">
        <ele>47</ele>
        <time>2013-02-16T16:44:27Z</time>
      </trkpt>
      <trkpt lat="48.89793" lon="2.38619">
        <ele>45</ele>
        <time>2013-02-16T16:44:28Z</time>
      </trkpt>
      <trkpt lat="48.89825" lon="2.38649">
        <ele>35</ele>
        <time>2013-02-16T16:44:35Z</time>
      </trkpt>
      <trkpt lat="48.89828" lon="2.3865">
        <ele>34</ele>
        <time>2013-02-16T16:44:36Z</time>
      </trkpt>
      <trkpt lat="48.8984" lon="2.3866">
        <ele>38</ele>
        <time>2013-02-16T16:44:40Z</time>
      </trkpt>
      <trkpt lat="48.89847" lon="2.38668">
        <ele>36</ele>
        <time>2013-02-16T16:44:42Z</time>
      </trkpt>
      <trkpt lat="48.89916" lon="2.38745">
        <ele>36</ele>
        <time>2013-02-16T16:45:06Z</time>
      </trkpt>
      <trkpt lat="48.89946" lon="2.38781">
        <ele>38</ele>
        <time>2013-02-16T16:45:18Z</time>
      </trkpt>
      <trkpt lat="48.8995" lon="2.38789">
        <ele>39</ele>
        <time>2013-02-16T16:45:20Z</time>
      </trkpt>
      <trkpt lat="48.89957" lon="2.38802">
        <ele>37</ele>
        <time>2013-02-16T16:45:27Z</time>
      </trkpt>
      <trkpt lat="48.89964" lon="2.3881">
        <ele>34</ele>
        <time>2013-02-16T16:45:33Z</time>
      </trkpt>
      <trkpt lat="48.89966" lon="2.38815">
        <ele>33</ele>
        <time>2013-02-16T16:45:35Z</time>
      </trkpt>
      <trkpt lat="48.89968" lon="2.38818">
        <ele>31</ele>
        <time>2013-02-16T16:45:36Z</time>
      </trkpt>
      <trkpt lat="48.89976" lon="2.38832">
        <ele>31</ele>
        <time>2013-02-16T16:45:44Z</time>
      </trkpt>
      <trkpt lat="48.89985" lon="2.38835">
        <ele>45</ele>
        <time>2013-02-16T16:45:49Z</time>
      </trkpt>
      <trkpt lat="48.89989" lon="2.38837">
        <ele>46</ele>
        <time>2013-02-16T16:45:51Z</time>
      </trkpt>
      <trkpt lat="48.89992" lon="2.3884">
        <ele>46</ele>
        <time>2013-02-16T16:45:52Z</time>
      </trkpt>
      <trkpt lat="48.89999" lon="2.38848">
        <ele>40</ele>
        <time>2013-02-16T16:45:55Z</time>
      </trkpt>
      <trkpt lat="48.90001" lon="2.38851">
        <ele>40</ele>
        <time>2013-02-16T16:45:56Z</time>
      </trkpt>
      <trkpt lat="48.90003" lon="2.38855">
        <ele>38</ele>
        <time>2013-02-16T16:45:58Z</time>
      </trkpt>
      <trkpt lat="48.90005" lon="2.38863">
        <ele>29</ele>
        <time>2013-02-16T16:46:01Z</time>
      </trkpt>
      <trkpt lat="48.90007" lon="2.3887">
        <ele>29</ele>
        <time>2013-02-16T16:46:11Z</time>
      </trkpt>
      <trkpt lat="48.90005" lon="2.38876">
        <ele>29</ele>
        <time>2013-02-16T16:46:13Z</time>
      </trkpt>
      <trkpt lat="48.90014" lon="2.38886">
        <ele>41</ele>
        <time>2013-02-16T16:46:36Z</time>
      </trkpt>
      <trkpt lat="48.90025" lon="2.38887">
        <ele>42</ele>
        <time>2013-02-16T16:46:41Z</time>
      </trkpt>
      <trkpt lat="48.90034" lon="2.38887">
        <ele>46</ele>
        <time>2013-02-16T16:46:45Z</time>
      </trkpt>
      <trkpt lat="48.90045" lon="2.38889">
        <ele>37</ele>
        <time>2013-02-16T16:46:51Z</time>
      </trkpt>
      <trkpt lat="48.90056" lon="2.38888">
        <ele>28</ele>
        <time>2013-02-16T16:46:57Z</time>
      </trkpt>
      <trkpt lat="48.90067" lon="2.3889">
        <ele>46</ele>
        <time>2013-02-16T16:46:59Z</time>
      </trkpt>
      <trkpt lat="48.90075" lon="2.38903">
        <ele>49</ele>
        <time>2013-02-16T16:47:05Z</time>
      </trkpt>
      <trkpt lat="48.90082" lon="2.38912">
        <ele>58</ele>
        <time>2013-02-16T16:47:10Z</time>
      </trkpt>
      <trkpt lat="48.90082" lon="2.38921">
        <ele>55</ele>
        <time>2013-02-16T16:47:15Z</time>
      </trkpt>
      <trkpt lat="48.90084" lon="2.38928">
        <ele>59</ele>
        <time>2013-02-16T16:47:20Z</time>
      </trkpt>
      <trkpt lat="48.90091" lon="2.38936">
        <ele>52</ele>
        <time>2013-02-16T16:47:23Z</time>
      </trkpt>
      <trkpt lat="48.90096" lon="2.3894">
        <ele>46</ele>
        <time>2013-02-16T16:47:25Z</time>
      </trkpt>
      <trkpt lat="48.901" lon="2.38947">
        <ele>49</ele>
        <time>2013-02-16T16:47:28Z</time>
      </trkpt>
      <trkpt lat="48.90102" lon="2.38949">
        <ele>46</ele>
        <time>2013-02-16T16:47:29Z</time>
      </trkpt>
      <trkpt lat="48.90108" lon="2.38954">
        <ele>45</ele>
        <time>2013-02-16T16:47:31Z</time>
      </trkpt>
      <trkpt lat="48.90112" lon="2.38962">
        <ele>37</ele>
        <time>2013-02-16T16:47:34Z</time>
      </trkpt>
      <trkpt lat="48.90118" lon="2.38967">
        <ele>43</ele>
        <time>2013-02-16T16:47:40Z</time>
      </trkpt>
      <trkpt lat="48.90125" lon="2.3897">
        <ele>35</ele>
        <time>2013-02-16T16:48:01Z</time>
      </trkpt>
      <trkpt lat="48.90131" lon="2.38975">
        <ele>41</ele>
        <time>2013-02-16T16:48:04Z</time>
      </trkpt>
      <trkpt lat="48.90172" lon="2.39018">
        <ele>43</ele>
        <time>2013-02-16T16:48:17Z</time>
      </trkpt>
      <trkpt lat="48.90177" lon="2.39024">
        <ele>42</ele>
        <time>2013-02-16T16:48:19Z</time>
      </trkpt>
      <trkpt lat="48.9018" lon="2.39026">
        <ele>45</ele>
        <time>2013-02-16T16:48:20Z</time>
      </trkpt>
      <trkpt lat="48.90183" lon="2.39029">
        <ele>44</ele>
        <time>2013-02-16T16:48:21Z</time>
      </trkpt>
      <trkpt lat="48.902" lon="2.39049">
        <ele>44</ele>
        <time>2013-02-16T16:48:26Z</time>
      </trkpt>
      <trkpt lat="48.90203" lon="2.39051">
        <ele>44</ele>
        <time>2013-02-16T16:48:27Z</time>
      </trkpt>
      <trkpt lat="48.90206" lon="2.39053">
        <ele>43</ele>
        <time>2013-02-16T16:48:28Z</time>
      </trkpt>
      <trkpt lat="48.90212" lon="2.39062">
        <ele>46</ele>
        <time>2013-02-16T16:48:30Z</time>
      </trkpt>
      <trkpt lat="48.90225" lon="2.39075">
        <ele>47</ele>
        <time>2013-02-16T16:48:36Z</time>
      </trkpt>
      <trkpt lat="48.90231" lon="2.39077">
        <ele>57</ele>
        <time>2013-02-16T16:48:40Z</time>
      </trkpt>
      <trkpt lat="48.90237" lon="2.39082">
        <ele>61</ele>
        <time>2013-02-16T16:48:42Z</time>
      </trkpt>
      <trkpt lat="48.90244" lon="2.39089">
        <ele>57</ele>
        <time>2013-02-16T16:48:44Z</time>
      </trkpt>
      <trkpt lat="48.90259" lon="2.39109">
        <ele>51</ele>
        <time>2013-02-16T16:48:48Z</time>
      </trkpt>
      <trkpt lat="48.90264" lon="2.39116">
        <ele>54</ele>
        <time>2013-02-16T16:48:50Z</time>
      </trkpt>
      <trkpt lat="48.90277" lon="2.39131">
        <ele>53</ele>
        <time>2013-02-16T16:48:56Z</time>
      </trkpt>
      <trkpt lat="48.90281" lon="2.39137">
        <ele>52</ele>
        <time>2013-02-16T16:49:01Z</time>
      </trkpt>
      <trkpt lat="48.90292" lon="2.39151">
        <ele>51</ele>
        <time>2013-02-16T16:49:27Z</time>
      </trkpt>
      <trkpt lat="48.90297" lon="2.39155">
        <ele>48</ele>
        <time>2013-02-16T16:49:29Z</time>
      </trkpt>
      <trkpt lat="48.90313" lon="2.39171">
        <ele>38</ele>
        <time>2013-02-16T16:49:38Z</time>
      </trkpt>
      <trkpt lat="48.90317" lon="2.39177">
        <ele>42</ele>
        <time>2013-02-16T16:49:42Z</time>
      </trkpt>
      <trkpt lat="48.90321" lon="2.39182">
        <ele>43</ele>
        <time>2013-02-16T16:49:44Z</time>
      </trkpt>
      <trkpt lat="48.90326" lon="2.39187">
        <ele>40</ele>
        <time>2013-02-16T16:49:47Z</time>
      </trkpt>
      <trkpt lat="48.90332" lon="2.39194">
        <ele>38</ele>
        <time>2013-02-16T16:49:49Z</time>
      </trkpt>
      <trkpt lat="48.90338" lon="2.39199">
        <ele>37</ele>
        <time>2013-02-16T16:49:51Z</time>
      </trkpt>
      <trkpt lat="48.90343" lon="2.39204">
        <ele>47</ele>
        <time>2013-02-16T16:49:54Z</time>
      </trkpt>
      <trkpt lat="48.90348" lon="2.39206">
        <ele>49</ele>
        <time>2013-02-16T16:49:57Z</time>
      </trkpt>
      <trkpt lat="48.90358" lon="2.39205">
        <ele>49</ele>
        <time>2013-02-16T16:50:03Z</time>
      </trkpt>
      <trkpt lat="48.90363" lon="2.39201">
        <ele>48</ele>
        <time>2013-02-16T16:50:05Z</time>
      </trkpt>
      <trkpt lat="48.90367" lon="2.39197">
        <ele>52</ele>
        <time>2013-02-16T16:50:07Z</time>
      </trkpt>
      <trkpt lat="48.90375" lon="2.39194">
        <ele>51</ele>
        <time>2013-02-16T16:50:13Z</time>
      </trkpt>
      <trkpt lat="48.90378" lon="2.39194">
        <ele>51</ele>
        <time>2013-02-16T16:50:15Z</time>
      </trkpt>
      <trkpt lat="48.9039" lon="2.39187">
        <ele>53</ele>
        <time>2013-02-16T16:50:23Z</time>
      </trkpt>
      <trkpt lat="48.90395" lon="2.39181">
        <ele>53</ele>
        <time>2013-02-16T16:50:26Z</time>
      </trkpt>
      <trkpt lat="48.90408" lon="2.39157">
        <ele>53</ele>
        <time>2013-02-16T16:50:51Z</time>
      </trkpt>
      <trkpt lat="48.90413" lon="2.39161">
        <ele>51</ele>
        <time>2013-02-16T16:51:04Z</time>
      </trkpt>
      <trkpt lat="48.9042" lon="2.39158">
        <ele>50</ele>
        <time>2013-02-16T16:51:09Z</time>
      </trkpt>
      <trkpt lat="48.90424" lon="2.39155">
        <ele>50</ele>
        <time>2013-02-16T16:51:11Z</time>
      </trkpt>
      <trkpt lat="48.90444" lon="2.39143">
        <ele>45</ele>
        <time>2013-02-16T16:51:19Z</time>
      </trkpt>
      <trkpt lat="48.90448" lon="2.39137">
        <ele>42</ele>
        <time>2013-02-16T16:51:21Z</time>
      </trkpt>
      <trkpt lat="48.90458" lon="2.39127">
        <ele>58</ele>
        <time>2013-02-16T16:51:27Z</time>
      </trkpt>
      <trkpt lat="48.90472" lon="2.39111">
        <ele>64</ele>
        <time>2013-02-16T16:51:35Z</time>
      </trkpt>
      <trkpt lat="48.90476" lon="2.39103">
        <ele>61</ele>
        <time>2013-02-16T16:51:37Z</time>
      </trkpt>
      <trkpt lat="48.90481" lon="2.39096">
        <ele>58</ele>
        <time>2013-02-16T16:51:39Z</time>
      </trkpt>
      <trkpt lat="48.90486" lon="2.39092">
        <ele>55</ele>
        <time>2013-02-16T16:51:41Z</time>
      </trkpt>
      <trkpt lat="48.90505" lon="2.39077">
        <ele>54</ele>
        <time>2013-02-16T16:51:47Z</time>
      </trkpt>
      <trkpt lat="48.90511" lon="2.39071">
        <ele>57</ele>
        <time>2013-02-16T16:51:49Z</time>
      </trkpt>
      <trkpt lat="48.90522" lon="2.39057">
        <ele>59</ele>
        <time>2013-02-16T16:51:52Z</time>
      </trkpt>
      <trkpt lat="48.90539" lon="2.39038">
        <ele>56</ele>
        <time>2013-02-16T16:51:59Z</time>
      </trkpt>
      <trkpt lat="48.90544" lon="2.39033">
        <ele>54</ele>
        <time>2013-02-16T16:52:01Z</time>
      </trkpt>
      <trkpt lat="48.90549" lon="2.39027">
        <ele>51</ele>
        <time>2013-02-16T16:52:03Z</time>
      </trkpt>
      <trkpt lat="48.90558" lon="2.39022">
        <ele>49</ele>
        <time>2013-02-16T16:52:06Z</time>
      </trkpt>
      <trkpt lat="48.90574" lon="2.39009">
        <ele>46</ele>
        <time>2013-02-16T16:52:11Z</time>
      </trkpt>
      <trkpt lat="48.90579" lon="2.39008">
        <ele>45</ele>
        <time>2013-02-16T16:52:14Z</time>
      </trkpt>
      <trkpt lat="48.90584" lon="2.39004">
        <ele>38</ele>
        <time>2013-02-16T16:52:16Z</time>
      </trkpt>
      <trkpt lat="48.90589" lon="2.38999">
        <ele>39</ele>
        <time>2013-02-16T16:52:19Z</time>
      </trkpt>
      <trkpt lat="48.90604" lon="2.3898">
        <ele>37</ele>
        <time>2013-02-16T16:52:29Z</time>
      </trkpt>
      <trkpt lat="48.90611" lon="2.38975">
        <ele>42</ele>
        <time>2013-02-16T16:52:32Z</time>
      </trkpt>
      <trkpt lat="48.90621" lon="2.38971">
        <ele>38</ele>
        <time>2013-02-16T16:52:35Z</time>
      </trkpt>
      <trkpt lat="48.90627" lon="2.38966">
        <ele>37</ele>
        <time>2013-02-16T16:52:37Z</time>
      </trkpt>
      <trkpt lat="48.9063" lon="2.38963">
        <ele>37</ele>
        <time>2013-02-16T16:52:38Z</time>
      </trkpt>
      <trkpt lat="48.90637" lon="2.38956">
        <ele>36</ele>
        <time>2013-02-16T16:52:41Z</time>
      </trkpt>
      <trkpt lat="48.90639" lon="2.38955">
        <ele>37</ele>
        <time>2013-02-16T16:52:42Z</time>
      </trkpt>
      <trkpt lat="48.90644" lon="2.3895">
        <ele>38</ele>
        <time>2013-02-16T16:52:44Z</time>
      </trkpt>
      <trkpt lat="48.90649" lon="2.38945">
        <ele>42</ele>
        <time>2013-02-16T16:52:47Z</time>
      </trkpt>
      <trkpt lat="48.9066" lon="2.38936">
        <ele>38</ele>
        <time>2013-02-16T16:52:51Z</time>
      </trkpt>
      <trkpt lat="48.90663" lon="2.38932">
        <ele>35</ele>
        <time>2013-02-16T16:52:52Z</time>
      </trkpt>
      <trkpt lat="48.90666" lon="2.3893">
        <ele>37</ele>
        <time>2013-02-16T16:52:53Z</time>
      </trkpt>
      <trkpt lat="48.90672" lon="2.38924">
        <ele>37</ele>
        <time>2013-02-16T16:52:55Z</time>
      </trkpt>
      <trkpt lat="48.90703" lon="2.38885">
        <ele>32</ele>
        <time>2013-02-16T16:53:07Z</time>
      </trkpt>
      <trkpt lat="48.90709" lon="2.3888">
        <ele>33</ele>
        <time>2013-02-16T16:53:10Z</time>
      </trkpt>
      <trkpt lat="48.90715" lon="2.38878">
        <ele>35</ele>
        <time>2013-02-16T16:53:12Z</time>
      </trkpt>
      <trkpt lat="48.9073" lon="2.38869">
        <ele>36</ele>
        <time>2013-02-16T16:53:18Z</time>
      </trkpt>
      <trkpt lat="48.90736" lon="2.38863">
        <ele>35</ele>
        <time>2013-02-16T16:53:21Z</time>
      </trkpt>
      <trkpt lat="48.90741" lon="2.38857">
        <ele>40</ele>
        <time>2013-02-16T16:53:22Z</time>
      </trkpt>
      <trkpt lat="48.90755" lon="2.38836">
        <ele>36</ele>
        <time>2013-02-16T16:53:29Z</time>
      </trkpt>
      <trkpt lat="48.90767" lon="2.38814">
        <ele>45</ele>
        <time>2013-02-16T16:53:35Z</time>
      </trkpt>
      <trkpt lat="48.90766" lon="2.38804">
        <ele>47</ele>
        <time>2013-02-16T16:53:39Z</time>
      </trkpt>
      <trkpt lat="48.90746" lon="2.38797">
        <ele>47</ele>
        <time>2013-02-16T16:54:52Z</time>
      </trkpt>
      <trkpt lat="48.90753" lon="2.38799">
        <ele>43</ele>
        <time>2013-02-16T16:54:54Z</time>
      </trkpt>
      <trkpt lat="48.90759" lon="2.38801">
        <ele>45</ele>
        <time>2013-02-16T16:54:56Z</time>
      </trkpt>
      <trkpt lat="48.90765" lon="2.38801">
        <ele>46</ele>
        <time>2013-02-16T16:54:58Z</time>
      </trkpt>
      <trkpt lat="48.9077" lon="2.38798">
        <ele>48</ele>
        <time>2013-02-16T16:55:01Z</time>
      </trkpt>
      <trkpt lat="48.90774" lon="2.38794">
        <ele>48</ele>
        <time>2013-02-16T16:55:05Z</time>
      </trkpt>
      <trkpt lat="48.90782" lon="2.38789">
        <ele>44</ele>
        <time>2013-02-16T16:55:13Z</time>
      </trkpt>
      <trkpt lat="48.90788" lon="2.38787">
        <ele>45</ele>
        <time>2013-02-16T16:55:18Z</time>
      </trkpt>
      <trkpt lat="48.90794" lon="2.38783">
        <ele>46</ele>
        <time>2013-02-16T16:55:21Z</time>
      </trkpt>
      <trkpt lat="48.90799" lon="2.38778">
        <ele>50</ele>
        <time>2013-02-16T16:55:25Z</time>
      </trkpt>
      <trkpt lat="48.90804" lon="2.38776">
        <ele>51</ele>
        <time>2013-02-16T16:55:26Z</time>
      </trkpt>
      <trkpt lat="48.90809" lon="2.38779">
        <ele>50</ele>
        <time>2013-02-16T16:55:52Z</time>
      </trkpt>
      <trkpt lat="48.90813" lon="2.38787">
        <ele>46</ele>
        <time>2013-02-16T16:55:55Z</time>
      </trkpt>
      <trkpt lat="48.90813" lon="2.3879">
        <ele>45</ele>
        <time>2013-02-16T16:55:56Z</time>
      </trkpt>
      <trkpt lat="48.90816" lon="2.38794">
        <ele>44</ele>
        <time>2013-02-16T16:55:58Z</time>
      </trkpt>
      <trkpt lat="48.90822" lon="2.38798">
        <ele>44</ele>
        <time>2013-02-16T16:56:01Z</time>
      </trkpt>
      <trkpt lat="48.90829" lon="2.38801">
        <ele>43</ele>
        <time>2013-02-16T16:56:03Z</time>
      </trkpt>
      <trkpt lat="48.90834" lon="2.38805">
        <ele>37</ele>
        <time>2013-02-16T16:56:05Z</time>
      </trkpt>
      <trkpt lat="48.90842" lon="2.38808">
        <ele>37</ele>
        <time>2013-02-16T16:56:08Z</time>
      </trkpt>
      <trkpt lat="48.90854" lon="2.3881">
        <ele>36</ele>
        <time>2013-02-16T16:56:12Z</time>
      </trkpt>
      <trkpt lat="48.90873" lon="2.38812">
        <ele>43</ele>
        <time>2013-02-16T16:56:19Z</time>
      </trkpt>
      <trkpt lat="48.90875" lon="2.38812">
        <ele>45</ele>
        <time>2013-02-16T16:56:20Z</time>
      </trkpt>
      <trkpt lat="48.90885" lon="2.38811">
        <ele>45</ele>
        <time>2013-02-16T16:56:24Z</time>
      </trkpt>
      <trkpt lat="48.909" lon="2.38806">
        <ele>48</ele>
        <time>2013-02-16T16:56:43Z</time>
      </trkpt>
      <trkpt lat="48.90905" lon="2.38801">
        <ele>46</ele>
        <time>2013-02-16T16:56:47Z</time>
      </trkpt>
      <trkpt lat="48.90903" lon="2.38756">
        <ele>44</ele>
        <time>2013-02-16T16:57:44Z</time>
      </trkpt>
      <trkpt lat="48.90918" lon="2.38711">
        <ele>45</ele>
        <time>2013-02-16T16:59:03Z</time>
      </trkpt>
      <trkpt lat="48.90895" lon="2.38668">
        <ele>58</ele>
        <time>2013-02-16T17:00:53Z</time>
      </trkpt>
      <trkpt lat="48.90894" lon="2.38609">
        <ele>53</ele>
        <time>2013-02-16T17:01:50Z</time>
      </trkpt>
      <trkpt lat="48.90906" lon="2.38768">
        <ele>43</ele>
        <time>2013-02-16T17:03:24Z</time>
      </trkpt>
      <trkpt lat="48.90911" lon="2.38804">
        <ele>43</ele>
        <time>2013-02-16T17:06:36Z</time>
      </trkpt>
      <trkpt lat="48.90894" lon="2.38736">
        <ele>44</ele>
        <time>2013-02-16T17:07:16Z</time>
      </trkpt>
      <trkpt lat="48.90894" lon="2.38736">
        <ele>44</ele>
        <time>2013-02-16T17:07:16Z</time>
      </trkpt>
    </trkseg>
  </trk>
</gpx>